<?xml version="1.0" encoding="UTF-8" standalone="no" ?>
<gpx xmlns="http://www.topografix.com/GPX/1/1" xmlns:xsi="http://www.w3.org/2001/XMLSchema-instance" xsi:schemaLocation="http://www.topografix.com/GPX/1/1 http://www.topografix.com/GPX/1/1/gpx.xsd" version="1.1" creator="VisuGPX - https://www.visugpx.com">
  <metadata>
    <name>BEARN</name>
    <desc><![CDATA[Eysus Asasp Issor Escot]]></desc>
  </metadata>
  <trk>
    <name><![CDATA[BOUCLE DU COL DU CERISIER]]></name>
    <trkseg>
      <trkpt lat="43.13551" lon="-0.47807">
        <ele>341.41</ele>
        <time>2016-12-11T07:23:01Z</time>
      </trkpt>
      <trkpt lat="43.13554" lon="-0.47807">
        <ele>341.41</ele>
        <time>2016-12-11T07:23:02Z</time>
      </trkpt>
      <trkpt lat="43.13556" lon="-0.47806">
        <ele>341.41</ele>
        <time>2016-12-11T07:23:03Z</time>
      </trkpt>
      <trkpt lat="43.13557" lon="-0.47804">
        <ele>341.41</ele>
        <time>2016-12-11T07:23:04Z</time>
      </trkpt>
      <trkpt lat="43.13559" lon="-0.47801">
        <ele>341.41</ele>
        <time>2016-12-11T07:23:05Z</time>
      </trkpt>
      <trkpt lat="43.13562" lon="-0.47793">
        <ele>341.41</ele>
        <time>2016-12-11T07:23:08Z</time>
      </trkpt>
      <trkpt lat="43.13563" lon="-0.47789">
        <ele>341.89</ele>
        <time>2016-12-11T07:23:09Z</time>
      </trkpt>
      <trkpt lat="43.13563" lon="-0.47786">
        <ele>341.41</ele>
        <time>2016-12-11T07:23:10Z</time>
      </trkpt>
      <trkpt lat="43.13562" lon="-0.47783">
        <ele>341.89</ele>
        <time>2016-12-11T07:23:11Z</time>
      </trkpt>
      <trkpt lat="43.13561" lon="-0.4778">
        <ele>341.89</ele>
        <time>2016-12-11T07:23:12Z</time>
      </trkpt>
      <trkpt lat="43.1356" lon="-0.47778">
        <ele>342.37</ele>
        <time>2016-12-11T07:23:13Z</time>
      </trkpt>
      <trkpt lat="43.13558" lon="-0.47776">
        <ele>342.85</ele>
        <time>2016-12-11T07:23:14Z</time>
      </trkpt>
      <trkpt lat="43.13556" lon="-0.47775">
        <ele>342.85</ele>
        <time>2016-12-11T07:23:15Z</time>
      </trkpt>
      <trkpt lat="43.13554" lon="-0.47775">
        <ele>342.37</ele>
        <time>2016-12-11T07:23:16Z</time>
      </trkpt>
      <trkpt lat="43.13552" lon="-0.47775">
        <ele>342.85</ele>
        <time>2016-12-11T07:23:17Z</time>
      </trkpt>
      <trkpt lat="43.1355" lon="-0.47775">
        <ele>343.33</ele>
        <time>2016-12-11T07:23:18Z</time>
      </trkpt>
      <trkpt lat="43.13537" lon="-0.47776">
        <ele>343.81</ele>
        <time>2016-12-11T07:23:25Z</time>
      </trkpt>
      <trkpt lat="43.13534" lon="-0.47776">
        <ele>343.81</ele>
        <time>2016-12-11T07:23:26Z</time>
      </trkpt>
      <trkpt lat="43.13505" lon="-0.47777">
        <ele>346.21</ele>
        <time>2016-12-11T07:23:39Z</time>
      </trkpt>
      <trkpt lat="43.13479" lon="-0.4777">
        <ele>347.65</ele>
        <time>2016-12-11T07:23:51Z</time>
      </trkpt>
      <trkpt lat="43.13445" lon="-0.47752">
        <ele>348.13</ele>
        <time>2016-12-11T07:24:04Z</time>
      </trkpt>
      <trkpt lat="43.13403" lon="-0.47729">
        <ele>351.5</ele>
        <time>2016-12-11T07:24:20Z</time>
      </trkpt>
      <trkpt lat="43.13371" lon="-0.47709">
        <ele>353.9</ele>
        <time>2016-12-11T07:24:34Z</time>
      </trkpt>
      <trkpt lat="43.1334" lon="-0.47689">
        <ele>356.31</ele>
        <time>2016-12-11T07:24:49Z</time>
      </trkpt>
      <trkpt lat="43.13308" lon="-0.47677">
        <ele>359.19</ele>
        <time>2016-12-11T07:25:03Z</time>
      </trkpt>
      <trkpt lat="43.13279" lon="-0.47671">
        <ele>362.07</ele>
        <time>2016-12-11T07:25:16Z</time>
      </trkpt>
      <trkpt lat="43.13248" lon="-0.47659">
        <ele>364.48</ele>
        <time>2016-12-11T07:25:30Z</time>
      </trkpt>
      <trkpt lat="43.13218" lon="-0.47643">
        <ele>365.92</ele>
        <time>2016-12-11T07:25:43Z</time>
      </trkpt>
      <trkpt lat="43.13181" lon="-0.47604">
        <ele>367.84</ele>
        <time>2016-12-11T07:25:57Z</time>
      </trkpt>
      <trkpt lat="43.13138" lon="-0.47586">
        <ele>370.73</ele>
        <time>2016-12-11T07:26:12Z</time>
      </trkpt>
      <trkpt lat="43.13101" lon="-0.47576">
        <ele>372.17</ele>
        <time>2016-12-11T07:26:25Z</time>
      </trkpt>
      <trkpt lat="43.13066" lon="-0.4757">
        <ele>374.09</ele>
        <time>2016-12-11T07:26:38Z</time>
      </trkpt>
      <trkpt lat="43.13038" lon="-0.47566">
        <ele>375.05</ele>
        <time>2016-12-11T07:26:49Z</time>
      </trkpt>
      <trkpt lat="43.13019" lon="-0.47557">
        <ele>376.01</ele>
        <time>2016-12-11T07:27:02Z</time>
      </trkpt>
      <trkpt lat="43.13017" lon="-0.47556">
        <ele>376.49</ele>
        <time>2016-12-11T07:27:03Z</time>
      </trkpt>
      <trkpt lat="43.13015" lon="-0.47556">
        <ele>376.49</ele>
        <time>2016-12-11T07:27:04Z</time>
      </trkpt>
      <trkpt lat="43.13012" lon="-0.47557">
        <ele>376.01</ele>
        <time>2016-12-11T07:27:05Z</time>
      </trkpt>
      <trkpt lat="43.12971" lon="-0.47569">
        <ele>378.42</ele>
        <time>2016-12-11T07:27:19Z</time>
      </trkpt>
      <trkpt lat="43.12945" lon="-0.47559">
        <ele>380.34</ele>
        <time>2016-12-11T07:27:30Z</time>
      </trkpt>
      <trkpt lat="43.12935" lon="-0.47541">
        <ele>382.26</ele>
        <time>2016-12-11T07:27:37Z</time>
      </trkpt>
      <trkpt lat="43.12935" lon="-0.47538">
        <ele>382.74</ele>
        <time>2016-12-11T07:27:38Z</time>
      </trkpt>
      <trkpt lat="43.12934" lon="-0.47535">
        <ele>383.22</ele>
        <time>2016-12-11T07:27:39Z</time>
      </trkpt>
      <trkpt lat="43.12934" lon="-0.47533">
        <ele>383.22</ele>
        <time>2016-12-11T07:27:40Z</time>
      </trkpt>
      <trkpt lat="43.12934" lon="-0.4753">
        <ele>383.7</ele>
        <time>2016-12-11T07:27:41Z</time>
      </trkpt>
      <trkpt lat="43.12935" lon="-0.47528">
        <ele>384.18</ele>
        <time>2016-12-11T07:27:42Z</time>
      </trkpt>
      <trkpt lat="43.12936" lon="-0.47525">
        <ele>384.18</ele>
        <time>2016-12-11T07:27:43Z</time>
      </trkpt>
      <trkpt lat="43.12936" lon="-0.47522">
        <ele>384.66</ele>
        <time>2016-12-11T07:27:44Z</time>
      </trkpt>
      <trkpt lat="43.12937" lon="-0.47519">
        <ele>385.15</ele>
        <time>2016-12-11T07:27:45Z</time>
      </trkpt>
      <trkpt lat="43.12937" lon="-0.47517">
        <ele>385.15</ele>
        <time>2016-12-11T07:27:46Z</time>
      </trkpt>
      <trkpt lat="43.12939" lon="-0.47515">
        <ele>385.15</ele>
        <time>2016-12-11T07:27:47Z</time>
      </trkpt>
      <trkpt lat="43.1294" lon="-0.47512">
        <ele>385.63</ele>
        <time>2016-12-11T07:27:48Z</time>
      </trkpt>
      <trkpt lat="43.12941" lon="-0.4751">
        <ele>386.11</ele>
        <time>2016-12-11T07:27:49Z</time>
      </trkpt>
      <trkpt lat="43.12942" lon="-0.47508">
        <ele>386.59</ele>
        <time>2016-12-11T07:27:50Z</time>
      </trkpt>
      <trkpt lat="43.12943" lon="-0.47506">
        <ele>386.59</ele>
        <time>2016-12-11T07:27:51Z</time>
      </trkpt>
      <trkpt lat="43.12962" lon="-0.47476">
        <ele>389.47</ele>
        <time>2016-12-11T07:28:05Z</time>
      </trkpt>
      <trkpt lat="43.12964" lon="-0.47471">
        <ele>389.95</ele>
        <time>2016-12-11T07:28:07Z</time>
      </trkpt>
      <trkpt lat="43.12976" lon="-0.47441">
        <ele>392.36</ele>
        <time>2016-12-11T07:28:20Z</time>
      </trkpt>
      <trkpt lat="43.12986" lon="-0.47414">
        <ele>394.28</ele>
        <time>2016-12-11T07:28:31Z</time>
      </trkpt>
      <trkpt lat="43.12987" lon="-0.47412">
        <ele>395.24</ele>
        <time>2016-12-11T07:28:32Z</time>
      </trkpt>
      <trkpt lat="43.12988" lon="-0.47411">
        <ele>394.76</ele>
        <time>2016-12-11T07:28:33Z</time>
      </trkpt>
      <trkpt lat="43.12989" lon="-0.47409">
        <ele>395.72</ele>
        <time>2016-12-11T07:28:34Z</time>
      </trkpt>
      <trkpt lat="43.1299" lon="-0.47406">
        <ele>395.72</ele>
        <time>2016-12-11T07:28:35Z</time>
      </trkpt>
      <trkpt lat="43.12991" lon="-0.47404">
        <ele>396.2</ele>
        <time>2016-12-11T07:28:36Z</time>
      </trkpt>
      <trkpt lat="43.12992" lon="-0.47402">
        <ele>396.2</ele>
        <time>2016-12-11T07:28:37Z</time>
      </trkpt>
      <trkpt lat="43.13002" lon="-0.47376">
        <ele>399.57</ele>
        <time>2016-12-11T07:28:48Z</time>
      </trkpt>
      <trkpt lat="43.13021" lon="-0.47344">
        <ele>401.49</ele>
        <time>2016-12-11T07:29:03Z</time>
      </trkpt>
      <trkpt lat="43.13046" lon="-0.47312">
        <ele>401.49</ele>
        <time>2016-12-11T07:29:18Z</time>
      </trkpt>
      <trkpt lat="43.13064" lon="-0.47301">
        <ele>400.53</ele>
        <time>2016-12-11T07:29:24Z</time>
      </trkpt>
      <trkpt lat="43.13068" lon="-0.47299">
        <ele>399.57</ele>
        <time>2016-12-11T07:29:25Z</time>
      </trkpt>
      <trkpt lat="43.13073" lon="-0.47296">
        <ele>399.57</ele>
        <time>2016-12-11T07:29:26Z</time>
      </trkpt>
      <trkpt lat="43.13078" lon="-0.47292">
        <ele>399.08</ele>
        <time>2016-12-11T07:29:27Z</time>
      </trkpt>
      <trkpt lat="43.13083" lon="-0.47289">
        <ele>398.12</ele>
        <time>2016-12-11T07:29:28Z</time>
      </trkpt>
      <trkpt lat="43.13088" lon="-0.47286">
        <ele>398.12</ele>
        <time>2016-12-11T07:29:29Z</time>
      </trkpt>
      <trkpt lat="43.13121" lon="-0.4726">
        <ele>396.68</ele>
        <time>2016-12-11T07:29:35Z</time>
      </trkpt>
      <trkpt lat="43.13125" lon="-0.47254">
        <ele>396.2</ele>
        <time>2016-12-11T07:29:36Z</time>
      </trkpt>
      <trkpt lat="43.13132" lon="-0.47241">
        <ele>395.24</ele>
        <time>2016-12-11T07:29:38Z</time>
      </trkpt>
      <trkpt lat="43.13136" lon="-0.47235">
        <ele>395.24</ele>
        <time>2016-12-11T07:29:39Z</time>
      </trkpt>
      <trkpt lat="43.13152" lon="-0.47211">
        <ele>392.84</ele>
        <time>2016-12-11T07:29:43Z</time>
      </trkpt>
      <trkpt lat="43.13156" lon="-0.47205">
        <ele>392.36</ele>
        <time>2016-12-11T07:29:44Z</time>
      </trkpt>
      <trkpt lat="43.13158" lon="-0.47199">
        <ele>391.87</ele>
        <time>2016-12-11T07:29:45Z</time>
      </trkpt>
      <trkpt lat="43.13162" lon="-0.47195">
        <ele>391.87</ele>
        <time>2016-12-11T07:29:46Z</time>
      </trkpt>
      <trkpt lat="43.13166" lon="-0.47194">
        <ele>391.39</ele>
        <time>2016-12-11T07:29:47Z</time>
      </trkpt>
      <trkpt lat="43.1317" lon="-0.47194">
        <ele>390.43</ele>
        <time>2016-12-11T07:29:48Z</time>
      </trkpt>
      <trkpt lat="43.13173" lon="-0.47195">
        <ele>390.91</ele>
        <time>2016-12-11T07:29:49Z</time>
      </trkpt>
      <trkpt lat="43.13187" lon="-0.47194">
        <ele>390.43</ele>
        <time>2016-12-11T07:29:53Z</time>
      </trkpt>
      <trkpt lat="43.1319" lon="-0.47193">
        <ele>389.95</ele>
        <time>2016-12-11T07:29:54Z</time>
      </trkpt>
      <trkpt lat="43.13194" lon="-0.47193">
        <ele>389.95</ele>
        <time>2016-12-11T07:29:55Z</time>
      </trkpt>
      <trkpt lat="43.13228" lon="-0.47184">
        <ele>391.39</ele>
        <time>2016-12-11T07:30:06Z</time>
      </trkpt>
      <trkpt lat="43.13231" lon="-0.47159">
        <ele>389.47</ele>
        <time>2016-12-11T07:30:13Z</time>
      </trkpt>
      <trkpt lat="43.13231" lon="-0.47153">
        <ele>388.99</ele>
        <time>2016-12-11T07:30:14Z</time>
      </trkpt>
      <trkpt lat="43.1323" lon="-0.47129">
        <ele>387.55</ele>
        <time>2016-12-11T07:30:17Z</time>
      </trkpt>
      <trkpt lat="43.13227" lon="-0.4712">
        <ele>387.07</ele>
        <time>2016-12-11T07:30:18Z</time>
      </trkpt>
      <trkpt lat="43.13222" lon="-0.47111">
        <ele>386.11</ele>
        <time>2016-12-11T07:30:19Z</time>
      </trkpt>
      <trkpt lat="43.13216" lon="-0.47103">
        <ele>384.66</ele>
        <time>2016-12-11T07:30:20Z</time>
      </trkpt>
      <trkpt lat="43.13209" lon="-0.47097">
        <ele>384.66</ele>
        <time>2016-12-11T07:30:21Z</time>
      </trkpt>
      <trkpt lat="43.13201" lon="-0.47091">
        <ele>383.7</ele>
        <time>2016-12-11T07:30:22Z</time>
      </trkpt>
      <trkpt lat="43.13194" lon="-0.47087">
        <ele>383.7</ele>
        <time>2016-12-11T07:30:23Z</time>
      </trkpt>
      <trkpt lat="43.13187" lon="-0.47083">
        <ele>383.22</ele>
        <time>2016-12-11T07:30:24Z</time>
      </trkpt>
      <trkpt lat="43.13179" lon="-0.4708">
        <ele>382.74</ele>
        <time>2016-12-11T07:30:25Z</time>
      </trkpt>
      <trkpt lat="43.13172" lon="-0.47078">
        <ele>382.74</ele>
        <time>2016-12-11T07:30:26Z</time>
      </trkpt>
      <trkpt lat="43.13164" lon="-0.47078">
        <ele>382.74</ele>
        <time>2016-12-11T07:30:27Z</time>
      </trkpt>
      <trkpt lat="43.13143" lon="-0.47078">
        <ele>381.3</ele>
        <time>2016-12-11T07:30:30Z</time>
      </trkpt>
      <trkpt lat="43.13125" lon="-0.47078">
        <ele>380.34</ele>
        <time>2016-12-11T07:30:33Z</time>
      </trkpt>
      <trkpt lat="43.13119" lon="-0.47077">
        <ele>380.34</ele>
        <time>2016-12-11T07:30:34Z</time>
      </trkpt>
      <trkpt lat="43.13114" lon="-0.47073">
        <ele>379.86</ele>
        <time>2016-12-11T07:30:35Z</time>
      </trkpt>
      <trkpt lat="43.1311" lon="-0.47069">
        <ele>380.34</ele>
        <time>2016-12-11T07:30:36Z</time>
      </trkpt>
      <trkpt lat="43.13107" lon="-0.47064">
        <ele>380.34</ele>
        <time>2016-12-11T07:30:37Z</time>
      </trkpt>
      <trkpt lat="43.13104" lon="-0.4706">
        <ele>380.82</ele>
        <time>2016-12-11T07:30:38Z</time>
      </trkpt>
      <trkpt lat="43.13102" lon="-0.47055">
        <ele>381.3</ele>
        <time>2016-12-11T07:30:39Z</time>
      </trkpt>
      <trkpt lat="43.13099" lon="-0.4705">
        <ele>381.3</ele>
        <time>2016-12-11T07:30:40Z</time>
      </trkpt>
      <trkpt lat="43.13096" lon="-0.47045">
        <ele>381.78</ele>
        <time>2016-12-11T07:30:41Z</time>
      </trkpt>
      <trkpt lat="43.1308" lon="-0.47024">
        <ele>382.74</ele>
        <time>2016-12-11T07:30:46Z</time>
      </trkpt>
      <trkpt lat="43.13061" lon="-0.46988">
        <ele>383.7</ele>
        <time>2016-12-11T07:30:54Z</time>
      </trkpt>
      <trkpt lat="43.13021" lon="-0.46934">
        <ele>382.74</ele>
        <time>2016-12-11T07:31:07Z</time>
      </trkpt>
      <trkpt lat="43.13017" lon="-0.4693">
        <ele>382.74</ele>
        <time>2016-12-11T07:31:08Z</time>
      </trkpt>
      <trkpt lat="43.13015" lon="-0.46925">
        <ele>383.22</ele>
        <time>2016-12-11T07:31:09Z</time>
      </trkpt>
      <trkpt lat="43.13013" lon="-0.46921">
        <ele>383.22</ele>
        <time>2016-12-11T07:31:10Z</time>
      </trkpt>
      <trkpt lat="43.13011" lon="-0.46917">
        <ele>383.22</ele>
        <time>2016-12-11T07:31:11Z</time>
      </trkpt>
      <trkpt lat="43.1301" lon="-0.46912">
        <ele>384.18</ele>
        <time>2016-12-11T07:31:12Z</time>
      </trkpt>
      <trkpt lat="43.13008" lon="-0.46907">
        <ele>383.7</ele>
        <time>2016-12-11T07:31:13Z</time>
      </trkpt>
      <trkpt lat="43.13007" lon="-0.46902">
        <ele>384.18</ele>
        <time>2016-12-11T07:31:14Z</time>
      </trkpt>
      <trkpt lat="43.12996" lon="-0.46863">
        <ele>387.07</ele>
        <time>2016-12-11T07:31:22Z</time>
      </trkpt>
      <trkpt lat="43.12973" lon="-0.4681">
        <ele>388.03</ele>
        <time>2016-12-11T07:31:35Z</time>
      </trkpt>
      <trkpt lat="43.12963" lon="-0.46797">
        <ele>386.11</ele>
        <time>2016-12-11T07:31:39Z</time>
      </trkpt>
      <trkpt lat="43.12962" lon="-0.46792">
        <ele>386.59</ele>
        <time>2016-12-11T07:31:40Z</time>
      </trkpt>
      <trkpt lat="43.12963" lon="-0.46788">
        <ele>386.59</ele>
        <time>2016-12-11T07:31:41Z</time>
      </trkpt>
      <trkpt lat="43.12965" lon="-0.46783">
        <ele>387.07</ele>
        <time>2016-12-11T07:31:42Z</time>
      </trkpt>
      <trkpt lat="43.12966" lon="-0.46779">
        <ele>387.07</ele>
        <time>2016-12-11T07:31:43Z</time>
      </trkpt>
      <trkpt lat="43.12967" lon="-0.46774">
        <ele>387.55</ele>
        <time>2016-12-11T07:31:44Z</time>
      </trkpt>
      <trkpt lat="43.12967" lon="-0.46768">
        <ele>387.07</ele>
        <time>2016-12-11T07:31:45Z</time>
      </trkpt>
      <trkpt lat="43.12967" lon="-0.46763">
        <ele>387.55</ele>
        <time>2016-12-11T07:31:46Z</time>
      </trkpt>
      <trkpt lat="43.12967" lon="-0.46758">
        <ele>388.51</ele>
        <time>2016-12-11T07:31:47Z</time>
      </trkpt>
      <trkpt lat="43.12966" lon="-0.46753">
        <ele>388.51</ele>
        <time>2016-12-11T07:31:48Z</time>
      </trkpt>
      <trkpt lat="43.12951" lon="-0.46684">
        <ele>390.43</ele>
        <time>2016-12-11T07:32:03Z</time>
      </trkpt>
      <trkpt lat="43.12943" lon="-0.46662">
        <ele>389.95</ele>
        <time>2016-12-11T07:32:08Z</time>
      </trkpt>
      <trkpt lat="43.1294" lon="-0.46652">
        <ele>391.39</ele>
        <time>2016-12-11T07:32:10Z</time>
      </trkpt>
      <trkpt lat="43.12938" lon="-0.46647">
        <ele>391.39</ele>
        <time>2016-12-11T07:32:11Z</time>
      </trkpt>
      <trkpt lat="43.12935" lon="-0.46642">
        <ele>390.43</ele>
        <time>2016-12-11T07:32:12Z</time>
      </trkpt>
      <trkpt lat="43.12932" lon="-0.46639">
        <ele>391.39</ele>
        <time>2016-12-11T07:32:13Z</time>
      </trkpt>
      <trkpt lat="43.12929" lon="-0.46636">
        <ele>391.39</ele>
        <time>2016-12-11T07:32:14Z</time>
      </trkpt>
      <trkpt lat="43.12888" lon="-0.46601">
        <ele>393.8</ele>
        <time>2016-12-11T07:32:28Z</time>
      </trkpt>
      <trkpt lat="43.12874" lon="-0.46592">
        <ele>394.76</ele>
        <time>2016-12-11T07:32:32Z</time>
      </trkpt>
      <trkpt lat="43.12871" lon="-0.4659">
        <ele>395.24</ele>
        <time>2016-12-11T07:32:33Z</time>
      </trkpt>
      <trkpt lat="43.12814" lon="-0.46568">
        <ele>396.2</ele>
        <time>2016-12-11T07:32:49Z</time>
      </trkpt>
      <trkpt lat="43.12759" lon="-0.46576">
        <ele>398.6</ele>
        <time>2016-12-11T07:33:05Z</time>
      </trkpt>
      <trkpt lat="43.12722" lon="-0.46583">
        <ele>401.49</ele>
        <time>2016-12-11T07:33:16Z</time>
      </trkpt>
      <trkpt lat="43.12715" lon="-0.46583">
        <ele>402.45</ele>
        <time>2016-12-11T07:33:18Z</time>
      </trkpt>
      <trkpt lat="43.12691" lon="-0.46585">
        <ele>405.81</ele>
        <time>2016-12-11T07:33:27Z</time>
      </trkpt>
      <trkpt lat="43.12657" lon="-0.46582">
        <ele>405.81</ele>
        <time>2016-12-11T07:33:39Z</time>
      </trkpt>
      <trkpt lat="43.12648" lon="-0.4658">
        <ele>405.33</ele>
        <time>2016-12-11T07:33:41Z</time>
      </trkpt>
      <trkpt lat="43.12589" lon="-0.46561">
        <ele>401.97</ele>
        <time>2016-12-11T07:33:50Z</time>
      </trkpt>
      <trkpt lat="43.12549" lon="-0.46543">
        <ele>399.57</ele>
        <time>2016-12-11T07:33:56Z</time>
      </trkpt>
      <trkpt lat="43.12486" lon="-0.46491">
        <ele>396.68</ele>
        <time>2016-12-11T07:34:08Z</time>
      </trkpt>
      <trkpt lat="43.12481" lon="-0.4649">
        <ele>395.72</ele>
        <time>2016-12-11T07:34:09Z</time>
      </trkpt>
      <trkpt lat="43.12477" lon="-0.46492">
        <ele>395.24</ele>
        <time>2016-12-11T07:34:10Z</time>
      </trkpt>
      <trkpt lat="43.12474" lon="-0.46496">
        <ele>395.72</ele>
        <time>2016-12-11T07:34:11Z</time>
      </trkpt>
      <trkpt lat="43.12472" lon="-0.46501">
        <ele>395.24</ele>
        <time>2016-12-11T07:34:12Z</time>
      </trkpt>
      <trkpt lat="43.1247" lon="-0.46507">
        <ele>395.24</ele>
        <time>2016-12-11T07:34:13Z</time>
      </trkpt>
      <trkpt lat="43.12468" lon="-0.46514">
        <ele>396.2</ele>
        <time>2016-12-11T07:34:14Z</time>
      </trkpt>
      <trkpt lat="43.12466" lon="-0.4652">
        <ele>395.72</ele>
        <time>2016-12-11T07:34:15Z</time>
      </trkpt>
      <trkpt lat="43.12451" lon="-0.46543">
        <ele>399.08</ele>
        <time>2016-12-11T07:34:21Z</time>
      </trkpt>
      <trkpt lat="43.12438" lon="-0.46552">
        <ele>401.49</ele>
        <time>2016-12-11T07:34:27Z</time>
      </trkpt>
      <trkpt lat="43.12433" lon="-0.46546">
        <ele>402.45</ele>
        <time>2016-12-11T07:34:30Z</time>
      </trkpt>
      <trkpt lat="43.12429" lon="-0.46529">
        <ele>403.89</ele>
        <time>2016-12-11T07:34:36Z</time>
      </trkpt>
      <trkpt lat="43.12421" lon="-0.46489">
        <ele>407.26</ele>
        <time>2016-12-11T07:34:49Z</time>
      </trkpt>
      <trkpt lat="43.12419" lon="-0.4645">
        <ele>409.66</ele>
        <time>2016-12-11T07:35:02Z</time>
      </trkpt>
      <trkpt lat="43.12428" lon="-0.46406">
        <ele>410.62</ele>
        <time>2016-12-11T07:35:15Z</time>
      </trkpt>
      <trkpt lat="43.12436" lon="-0.46369">
        <ele>412.06</ele>
        <time>2016-12-11T07:35:26Z</time>
      </trkpt>
      <trkpt lat="43.12455" lon="-0.46333">
        <ele>414.95</ele>
        <time>2016-12-11T07:35:38Z</time>
      </trkpt>
      <trkpt lat="43.12459" lon="-0.46327">
        <ele>415.91</ele>
        <time>2016-12-11T07:35:40Z</time>
      </trkpt>
      <trkpt lat="43.12477" lon="-0.46306">
        <ele>419.27</ele>
        <time>2016-12-11T07:35:48Z</time>
      </trkpt>
      <trkpt lat="43.12491" lon="-0.46276">
        <ele>421.19</ele>
        <time>2016-12-11T07:36:00Z</time>
      </trkpt>
      <trkpt lat="43.12492" lon="-0.46273">
        <ele>421.19</ele>
        <time>2016-12-11T07:36:01Z</time>
      </trkpt>
      <trkpt lat="43.12478" lon="-0.46248">
        <ele>420.71</ele>
        <time>2016-12-11T07:36:11Z</time>
      </trkpt>
      <trkpt lat="43.12441" lon="-0.46197">
        <ele>419.75</ele>
        <time>2016-12-11T07:36:26Z</time>
      </trkpt>
      <trkpt lat="43.12438" lon="-0.46193">
        <ele>419.75</ele>
        <time>2016-12-11T07:36:27Z</time>
      </trkpt>
      <trkpt lat="43.12409" lon="-0.46154">
        <ele>420.23</ele>
        <time>2016-12-11T07:36:37Z</time>
      </trkpt>
      <trkpt lat="43.1237" lon="-0.46092">
        <ele>422.16</ele>
        <time>2016-12-11T07:36:53Z</time>
      </trkpt>
      <trkpt lat="43.1237" lon="-0.46088">
        <ele>422.64</ele>
        <time>2016-12-11T07:36:54Z</time>
      </trkpt>
      <trkpt lat="43.12371" lon="-0.46084">
        <ele>422.64</ele>
        <time>2016-12-11T07:36:55Z</time>
      </trkpt>
      <trkpt lat="43.12373" lon="-0.4608">
        <ele>422.64</ele>
        <time>2016-12-11T07:36:56Z</time>
      </trkpt>
      <trkpt lat="43.12375" lon="-0.46077">
        <ele>423.12</ele>
        <time>2016-12-11T07:36:57Z</time>
      </trkpt>
      <trkpt lat="43.12376" lon="-0.46074">
        <ele>423.12</ele>
        <time>2016-12-11T07:36:58Z</time>
      </trkpt>
      <trkpt lat="43.12378" lon="-0.46071">
        <ele>423.12</ele>
        <time>2016-12-11T07:36:59Z</time>
      </trkpt>
      <trkpt lat="43.1238" lon="-0.46068">
        <ele>423.12</ele>
        <time>2016-12-11T07:37:00Z</time>
      </trkpt>
      <trkpt lat="43.12383" lon="-0.4605">
        <ele>424.56</ele>
        <time>2016-12-11T07:37:05Z</time>
      </trkpt>
      <trkpt lat="43.12381" lon="-0.46047">
        <ele>424.56</ele>
        <time>2016-12-11T07:37:06Z</time>
      </trkpt>
      <trkpt lat="43.1238" lon="-0.46043">
        <ele>424.56</ele>
        <time>2016-12-11T07:37:07Z</time>
      </trkpt>
      <trkpt lat="43.12378" lon="-0.4604">
        <ele>424.56</ele>
        <time>2016-12-11T07:37:08Z</time>
      </trkpt>
      <trkpt lat="43.12376" lon="-0.46036">
        <ele>424.56</ele>
        <time>2016-12-11T07:37:09Z</time>
      </trkpt>
      <trkpt lat="43.12353" lon="-0.45991">
        <ele>427.92</ele>
        <time>2016-12-11T07:37:22Z</time>
      </trkpt>
      <trkpt lat="43.12326" lon="-0.4594">
        <ele>431.29</ele>
        <time>2016-12-11T07:37:37Z</time>
      </trkpt>
      <trkpt lat="43.12295" lon="-0.45886">
        <ele>433.21</ele>
        <time>2016-12-11T07:37:53Z</time>
      </trkpt>
      <trkpt lat="43.12263" lon="-0.45828">
        <ele>436.58</ele>
        <time>2016-12-11T07:38:09Z</time>
      </trkpt>
      <trkpt lat="43.12238" lon="-0.45782">
        <ele>439.94</ele>
        <time>2016-12-11T07:38:23Z</time>
      </trkpt>
      <trkpt lat="43.1223" lon="-0.45767">
        <ele>441.38</ele>
        <time>2016-12-11T07:38:28Z</time>
      </trkpt>
      <trkpt lat="43.12211" lon="-0.45731">
        <ele>444.75</ele>
        <time>2016-12-11T07:38:40Z</time>
      </trkpt>
      <trkpt lat="43.12191" lon="-0.45695">
        <ele>447.63</ele>
        <time>2016-12-11T07:38:54Z</time>
      </trkpt>
      <trkpt lat="43.12186" lon="-0.45694">
        <ele>447.63</ele>
        <time>2016-12-11T07:38:57Z</time>
      </trkpt>
      <trkpt lat="43.12177" lon="-0.45702">
        <ele>448.11</ele>
        <time>2016-12-11T07:39:08Z</time>
      </trkpt>
      <trkpt lat="43.12178" lon="-0.45703">
        <ele>448.11</ele>
        <time>2016-12-11T07:39:44Z</time>
      </trkpt>
      <trkpt lat="43.12178" lon="-0.45704">
        <ele>448.59</ele>
        <time>2016-12-11T07:40:27Z</time>
      </trkpt>
      <trkpt lat="43.12178" lon="-0.45704">
        <ele>448.11</ele>
        <time>2016-12-11T07:41:10Z</time>
      </trkpt>
      <trkpt lat="43.12178" lon="-0.45703">
        <ele>448.11</ele>
        <time>2016-12-11T07:41:17Z</time>
      </trkpt>
      <trkpt lat="43.12177" lon="-0.45704">
        <ele>448.11</ele>
        <time>2016-12-11T07:41:18Z</time>
      </trkpt>
      <trkpt lat="43.12175" lon="-0.45705">
        <ele>448.59</ele>
        <time>2016-12-11T07:41:19Z</time>
      </trkpt>
      <trkpt lat="43.12173" lon="-0.45706">
        <ele>448.59</ele>
        <time>2016-12-11T07:41:20Z</time>
      </trkpt>
      <trkpt lat="43.12171" lon="-0.45708">
        <ele>448.59</ele>
        <time>2016-12-11T07:41:21Z</time>
      </trkpt>
      <trkpt lat="43.12168" lon="-0.45709">
        <ele>448.11</ele>
        <time>2016-12-11T07:41:22Z</time>
      </trkpt>
      <trkpt lat="43.12165" lon="-0.45711">
        <ele>448.59</ele>
        <time>2016-12-11T07:41:23Z</time>
      </trkpt>
      <trkpt lat="43.12163" lon="-0.45713">
        <ele>448.59</ele>
        <time>2016-12-11T07:41:24Z</time>
      </trkpt>
      <trkpt lat="43.1216" lon="-0.45714">
        <ele>448.59</ele>
        <time>2016-12-11T07:41:25Z</time>
      </trkpt>
      <trkpt lat="43.12158" lon="-0.45716">
        <ele>449.07</ele>
        <time>2016-12-11T07:41:26Z</time>
      </trkpt>
      <trkpt lat="43.12116" lon="-0.45748">
        <ele>448.59</ele>
        <time>2016-12-11T07:41:41Z</time>
      </trkpt>
      <trkpt lat="43.12071" lon="-0.4578">
        <ele>444.75</ele>
        <time>2016-12-11T07:41:51Z</time>
      </trkpt>
      <trkpt lat="43.12066" lon="-0.45784">
        <ele>444.75</ele>
        <time>2016-12-11T07:41:52Z</time>
      </trkpt>
      <trkpt lat="43.12059" lon="-0.45787">
        <ele>443.79</ele>
        <time>2016-12-11T07:41:53Z</time>
      </trkpt>
      <trkpt lat="43.12052" lon="-0.45788">
        <ele>442.82</ele>
        <time>2016-12-11T07:41:54Z</time>
      </trkpt>
      <trkpt lat="43.12045" lon="-0.45785">
        <ele>442.34</ele>
        <time>2016-12-11T07:41:55Z</time>
      </trkpt>
      <trkpt lat="43.12039" lon="-0.4578">
        <ele>442.82</ele>
        <time>2016-12-11T07:41:56Z</time>
      </trkpt>
      <trkpt lat="43.12034" lon="-0.45775">
        <ele>442.34</ele>
        <time>2016-12-11T07:41:57Z</time>
      </trkpt>
      <trkpt lat="43.11997" lon="-0.45739">
        <ele>440.9</ele>
        <time>2016-12-11T07:42:04Z</time>
      </trkpt>
      <trkpt lat="43.11992" lon="-0.45736">
        <ele>440.9</ele>
        <time>2016-12-11T07:42:05Z</time>
      </trkpt>
      <trkpt lat="43.11987" lon="-0.45733">
        <ele>440.9</ele>
        <time>2016-12-11T07:42:06Z</time>
      </trkpt>
      <trkpt lat="43.11962" lon="-0.45719">
        <ele>440.9</ele>
        <time>2016-12-11T07:42:11Z</time>
      </trkpt>
      <trkpt lat="43.1195" lon="-0.45709">
        <ele>440.9</ele>
        <time>2016-12-11T07:42:14Z</time>
      </trkpt>
      <trkpt lat="43.11943" lon="-0.45701">
        <ele>440.9</ele>
        <time>2016-12-11T07:42:16Z</time>
      </trkpt>
      <trkpt lat="43.1193" lon="-0.45684">
        <ele>441.38</ele>
        <time>2016-12-11T07:42:20Z</time>
      </trkpt>
      <trkpt lat="43.11928" lon="-0.45679">
        <ele>441.38</ele>
        <time>2016-12-11T07:42:21Z</time>
      </trkpt>
      <trkpt lat="43.11925" lon="-0.45674">
        <ele>441.86</ele>
        <time>2016-12-11T07:42:22Z</time>
      </trkpt>
      <trkpt lat="43.11924" lon="-0.45668">
        <ele>441.86</ele>
        <time>2016-12-11T07:42:23Z</time>
      </trkpt>
      <trkpt lat="43.11922" lon="-0.45663">
        <ele>441.86</ele>
        <time>2016-12-11T07:42:24Z</time>
      </trkpt>
      <trkpt lat="43.11921" lon="-0.45658">
        <ele>441.86</ele>
        <time>2016-12-11T07:42:25Z</time>
      </trkpt>
      <trkpt lat="43.11909" lon="-0.45613">
        <ele>441.38</ele>
        <time>2016-12-11T07:42:34Z</time>
      </trkpt>
      <trkpt lat="43.11902" lon="-0.4559">
        <ele>439.94</ele>
        <time>2016-12-11T07:42:38Z</time>
      </trkpt>
      <trkpt lat="43.11895" lon="-0.45574">
        <ele>438.5</ele>
        <time>2016-12-11T07:42:41Z</time>
      </trkpt>
      <trkpt lat="43.11893" lon="-0.45569">
        <ele>438.98</ele>
        <time>2016-12-11T07:42:42Z</time>
      </trkpt>
      <trkpt lat="43.1189" lon="-0.45564">
        <ele>438.98</ele>
        <time>2016-12-11T07:42:43Z</time>
      </trkpt>
      <trkpt lat="43.11879" lon="-0.45544">
        <ele>438.98</ele>
        <time>2016-12-11T07:42:47Z</time>
      </trkpt>
      <trkpt lat="43.11855" lon="-0.45502">
        <ele>438.02</ele>
        <time>2016-12-11T07:42:58Z</time>
      </trkpt>
      <trkpt lat="43.11853" lon="-0.45503">
        <ele>438.98</ele>
        <time>2016-12-11T07:42:59Z</time>
      </trkpt>
      <trkpt lat="43.1185" lon="-0.45505">
        <ele>438.5</ele>
        <time>2016-12-11T07:43:00Z</time>
      </trkpt>
      <trkpt lat="43.11836" lon="-0.45526">
        <ele>438.98</ele>
        <time>2016-12-11T07:43:07Z</time>
      </trkpt>
      <trkpt lat="43.11833" lon="-0.4553">
        <ele>438.98</ele>
        <time>2016-12-11T07:43:08Z</time>
      </trkpt>
      <trkpt lat="43.11831" lon="-0.45534">
        <ele>438.02</ele>
        <time>2016-12-11T07:43:09Z</time>
      </trkpt>
      <trkpt lat="43.11831" lon="-0.45537">
        <ele>438.5</ele>
        <time>2016-12-11T07:43:10Z</time>
      </trkpt>
      <trkpt lat="43.11831" lon="-0.4554">
        <ele>438.02</ele>
        <time>2016-12-11T07:43:11Z</time>
      </trkpt>
      <trkpt lat="43.1183" lon="-0.45544">
        <ele>438.02</ele>
        <time>2016-12-11T07:43:12Z</time>
      </trkpt>
      <trkpt lat="43.11829" lon="-0.45547">
        <ele>438.02</ele>
        <time>2016-12-11T07:43:13Z</time>
      </trkpt>
      <trkpt lat="43.11819" lon="-0.45575">
        <ele>438.5</ele>
        <time>2016-12-11T07:43:22Z</time>
      </trkpt>
      <trkpt lat="43.11818" lon="-0.45577">
        <ele>438.98</ele>
        <time>2016-12-11T07:43:35Z</time>
      </trkpt>
      <trkpt lat="43.11816" lon="-0.45581">
        <ele>438.98</ele>
        <time>2016-12-11T07:43:46Z</time>
      </trkpt>
      <trkpt lat="43.11815" lon="-0.45582">
        <ele>439.94</ele>
        <time>2016-12-11T07:43:47Z</time>
      </trkpt>
      <trkpt lat="43.11814" lon="-0.45583">
        <ele>439.94</ele>
        <time>2016-12-11T07:43:48Z</time>
      </trkpt>
      <trkpt lat="43.11813" lon="-0.45586">
        <ele>439.94</ele>
        <time>2016-12-11T07:43:49Z</time>
      </trkpt>
      <trkpt lat="43.11812" lon="-0.45588">
        <ele>440.9</ele>
        <time>2016-12-11T07:43:50Z</time>
      </trkpt>
      <trkpt lat="43.11811" lon="-0.4559">
        <ele>440.42</ele>
        <time>2016-12-11T07:43:51Z</time>
      </trkpt>
      <trkpt lat="43.1181" lon="-0.45592">
        <ele>440.9</ele>
        <time>2016-12-11T07:43:52Z</time>
      </trkpt>
      <trkpt lat="43.11798" lon="-0.45612">
        <ele>443.79</ele>
        <time>2016-12-11T07:44:03Z</time>
      </trkpt>
      <trkpt lat="43.11789" lon="-0.45626">
        <ele>446.19</ele>
        <time>2016-12-11T07:44:11Z</time>
      </trkpt>
      <trkpt lat="43.11788" lon="-0.45627">
        <ele>446.67</ele>
        <time>2016-12-11T07:44:12Z</time>
      </trkpt>
      <trkpt lat="43.11787" lon="-0.45628">
        <ele>446.67</ele>
        <time>2016-12-11T07:44:13Z</time>
      </trkpt>
      <trkpt lat="43.11786" lon="-0.4563">
        <ele>447.15</ele>
        <time>2016-12-11T07:44:14Z</time>
      </trkpt>
      <trkpt lat="43.11785" lon="-0.45632">
        <ele>447.15</ele>
        <time>2016-12-11T07:44:15Z</time>
      </trkpt>
      <trkpt lat="43.11778" lon="-0.45668">
        <ele>449.55</ele>
        <time>2016-12-11T07:44:30Z</time>
      </trkpt>
      <trkpt lat="43.11766" lon="-0.45698">
        <ele>452.44</ele>
        <time>2016-12-11T07:44:43Z</time>
      </trkpt>
      <trkpt lat="43.11747" lon="-0.45712">
        <ele>454.36</ele>
        <time>2016-12-11T07:44:55Z</time>
      </trkpt>
      <trkpt lat="43.11746" lon="-0.45712">
        <ele>454.36</ele>
        <time>2016-12-11T07:44:57Z</time>
      </trkpt>
      <trkpt lat="43.11746" lon="-0.45712">
        <ele>453.88</ele>
        <time>2016-12-11T07:45:08Z</time>
      </trkpt>
      <trkpt lat="43.11745" lon="-0.45711">
        <ele>454.84</ele>
        <time>2016-12-11T07:45:09Z</time>
      </trkpt>
      <trkpt lat="43.11745" lon="-0.4571">
        <ele>455.32</ele>
        <time>2016-12-11T07:45:13Z</time>
      </trkpt>
      <trkpt lat="43.11744" lon="-0.45709">
        <ele>455.32</ele>
        <time>2016-12-11T07:45:14Z</time>
      </trkpt>
      <trkpt lat="43.11743" lon="-0.45709">
        <ele>455.8</ele>
        <time>2016-12-11T07:45:15Z</time>
      </trkpt>
      <trkpt lat="43.11741" lon="-0.45707">
        <ele>455.8</ele>
        <time>2016-12-11T07:45:16Z</time>
      </trkpt>
      <trkpt lat="43.11739" lon="-0.45706">
        <ele>456.28</ele>
        <time>2016-12-11T07:45:17Z</time>
      </trkpt>
      <trkpt lat="43.11738" lon="-0.45705">
        <ele>456.76</ele>
        <time>2016-12-11T07:45:18Z</time>
      </trkpt>
      <trkpt lat="43.11737" lon="-0.45703">
        <ele>457.24</ele>
        <time>2016-12-11T07:45:19Z</time>
      </trkpt>
      <trkpt lat="43.11736" lon="-0.45702">
        <ele>457.24</ele>
        <time>2016-12-11T07:45:20Z</time>
      </trkpt>
      <trkpt lat="43.11735" lon="-0.45701">
        <ele>457.24</ele>
        <time>2016-12-11T07:45:21Z</time>
      </trkpt>
      <trkpt lat="43.1173" lon="-0.45697">
        <ele>458.21</ele>
        <time>2016-12-11T07:45:24Z</time>
      </trkpt>
      <trkpt lat="43.11729" lon="-0.45696">
        <ele>458.21</ele>
        <time>2016-12-11T07:45:25Z</time>
      </trkpt>
      <trkpt lat="43.11727" lon="-0.45695">
        <ele>458.69</ele>
        <time>2016-12-11T07:45:26Z</time>
      </trkpt>
      <trkpt lat="43.11726" lon="-0.45694">
        <ele>458.69</ele>
        <time>2016-12-11T07:45:27Z</time>
      </trkpt>
      <trkpt lat="43.11724" lon="-0.45693">
        <ele>459.17</ele>
        <time>2016-12-11T07:45:28Z</time>
      </trkpt>
      <trkpt lat="43.11696" lon="-0.45673">
        <ele>461.09</ele>
        <time>2016-12-11T07:45:43Z</time>
      </trkpt>
      <trkpt lat="43.11673" lon="-0.45656">
        <ele>463.49</ele>
        <time>2016-12-11T07:45:56Z</time>
      </trkpt>
      <trkpt lat="43.11648" lon="-0.45647">
        <ele>466.38</ele>
        <time>2016-12-11T07:46:09Z</time>
      </trkpt>
      <trkpt lat="43.11633" lon="-0.45637">
        <ele>467.82</ele>
        <time>2016-12-11T07:46:19Z</time>
      </trkpt>
      <trkpt lat="43.11599" lon="-0.45614">
        <ele>468.3</ele>
        <time>2016-12-11T07:46:34Z</time>
      </trkpt>
      <trkpt lat="43.11579" lon="-0.45601">
        <ele>471.66</ele>
        <time>2016-12-11T07:46:45Z</time>
      </trkpt>
      <trkpt lat="43.11569" lon="-0.45594">
        <ele>473.11</ele>
        <time>2016-12-11T07:46:51Z</time>
      </trkpt>
      <trkpt lat="43.11562" lon="-0.45591">
        <ele>474.55</ele>
        <time>2016-12-11T07:46:55Z</time>
      </trkpt>
      <trkpt lat="43.11561" lon="-0.4559">
        <ele>474.55</ele>
        <time>2016-12-11T07:46:56Z</time>
      </trkpt>
      <trkpt lat="43.1156" lon="-0.45589">
        <ele>475.03</ele>
        <time>2016-12-11T07:46:57Z</time>
      </trkpt>
      <trkpt lat="43.11558" lon="-0.45588">
        <ele>475.03</ele>
        <time>2016-12-11T07:46:58Z</time>
      </trkpt>
      <trkpt lat="43.11557" lon="-0.45587">
        <ele>475.51</ele>
        <time>2016-12-11T07:46:59Z</time>
      </trkpt>
      <trkpt lat="43.11556" lon="-0.45586">
        <ele>475.99</ele>
        <time>2016-12-11T07:47:00Z</time>
      </trkpt>
      <trkpt lat="43.11554" lon="-0.45585">
        <ele>475.99</ele>
        <time>2016-12-11T07:47:01Z</time>
      </trkpt>
      <trkpt lat="43.11553" lon="-0.45584">
        <ele>476.47</ele>
        <time>2016-12-11T07:47:02Z</time>
      </trkpt>
      <trkpt lat="43.11552" lon="-0.45583">
        <ele>476.95</ele>
        <time>2016-12-11T07:47:03Z</time>
      </trkpt>
      <trkpt lat="43.11551" lon="-0.45581">
        <ele>476.95</ele>
        <time>2016-12-11T07:47:04Z</time>
      </trkpt>
      <trkpt lat="43.11551" lon="-0.4558">
        <ele>477.43</ele>
        <time>2016-12-11T07:47:05Z</time>
      </trkpt>
      <trkpt lat="43.1155" lon="-0.45578">
        <ele>476.95</ele>
        <time>2016-12-11T07:47:06Z</time>
      </trkpt>
      <trkpt lat="43.11548" lon="-0.45577">
        <ele>476.95</ele>
        <time>2016-12-11T07:47:07Z</time>
      </trkpt>
      <trkpt lat="43.11548" lon="-0.45576">
        <ele>477.91</ele>
        <time>2016-12-11T07:47:08Z</time>
      </trkpt>
      <trkpt lat="43.11547" lon="-0.45575">
        <ele>478.39</ele>
        <time>2016-12-11T07:47:09Z</time>
      </trkpt>
      <trkpt lat="43.11546" lon="-0.45573">
        <ele>478.39</ele>
        <time>2016-12-11T07:47:10Z</time>
      </trkpt>
      <trkpt lat="43.11546" lon="-0.45572">
        <ele>478.87</ele>
        <time>2016-12-11T07:47:11Z</time>
      </trkpt>
      <trkpt lat="43.11545" lon="-0.4557">
        <ele>478.87</ele>
        <time>2016-12-11T07:47:12Z</time>
      </trkpt>
      <trkpt lat="43.11544" lon="-0.45569">
        <ele>478.87</ele>
        <time>2016-12-11T07:47:13Z</time>
      </trkpt>
      <trkpt lat="43.11545" lon="-0.45567">
        <ele>479.35</ele>
        <time>2016-12-11T07:47:14Z</time>
      </trkpt>
      <trkpt lat="43.11545" lon="-0.45565">
        <ele>479.35</ele>
        <time>2016-12-11T07:47:15Z</time>
      </trkpt>
      <trkpt lat="43.11547" lon="-0.45564">
        <ele>479.35</ele>
        <time>2016-12-11T07:47:16Z</time>
      </trkpt>
      <trkpt lat="43.11548" lon="-0.45564">
        <ele>479.84</ele>
        <time>2016-12-11T07:47:17Z</time>
      </trkpt>
      <trkpt lat="43.1155" lon="-0.45564">
        <ele>479.35</ele>
        <time>2016-12-11T07:47:18Z</time>
      </trkpt>
      <trkpt lat="43.11552" lon="-0.45564">
        <ele>479.35</ele>
        <time>2016-12-11T07:47:19Z</time>
      </trkpt>
      <trkpt lat="43.11555" lon="-0.45565">
        <ele>479.35</ele>
        <time>2016-12-11T07:47:20Z</time>
      </trkpt>
      <trkpt lat="43.11558" lon="-0.45564">
        <ele>479.35</ele>
        <time>2016-12-11T07:47:21Z</time>
      </trkpt>
      <trkpt lat="43.11571" lon="-0.45561">
        <ele>478.87</ele>
        <time>2016-12-11T07:47:24Z</time>
      </trkpt>
      <trkpt lat="43.11606" lon="-0.45541">
        <ele>479.84</ele>
        <time>2016-12-11T07:47:35Z</time>
      </trkpt>
      <trkpt lat="43.11607" lon="-0.45539">
        <ele>479.84</ele>
        <time>2016-12-11T07:47:36Z</time>
      </trkpt>
      <trkpt lat="43.11609" lon="-0.45537">
        <ele>480.32</ele>
        <time>2016-12-11T07:47:37Z</time>
      </trkpt>
      <trkpt lat="43.11625" lon="-0.45514">
        <ele>483.2</ele>
        <time>2016-12-11T07:47:48Z</time>
      </trkpt>
      <trkpt lat="43.11645" lon="-0.45473">
        <ele>481.28</ele>
        <time>2016-12-11T07:47:59Z</time>
      </trkpt>
      <trkpt lat="43.11655" lon="-0.45446">
        <ele>480.32</ele>
        <time>2016-12-11T07:48:02Z</time>
      </trkpt>
      <trkpt lat="43.11659" lon="-0.45438">
        <ele>479.35</ele>
        <time>2016-12-11T07:48:03Z</time>
      </trkpt>
      <trkpt lat="43.11664" lon="-0.45429">
        <ele>479.35</ele>
        <time>2016-12-11T07:48:04Z</time>
      </trkpt>
      <trkpt lat="43.11668" lon="-0.45421">
        <ele>479.35</ele>
        <time>2016-12-11T07:48:05Z</time>
      </trkpt>
      <trkpt lat="43.11671" lon="-0.45414">
        <ele>479.35</ele>
        <time>2016-12-11T07:48:06Z</time>
      </trkpt>
      <trkpt lat="43.11673" lon="-0.45407">
        <ele>478.87</ele>
        <time>2016-12-11T07:48:07Z</time>
      </trkpt>
      <trkpt lat="43.11681" lon="-0.45373">
        <ele>480.8</ele>
        <time>2016-12-11T07:48:15Z</time>
      </trkpt>
      <trkpt lat="43.11683" lon="-0.45342">
        <ele>484.16</ele>
        <time>2016-12-11T07:48:24Z</time>
      </trkpt>
      <trkpt lat="43.11682" lon="-0.45339">
        <ele>484.16</ele>
        <time>2016-12-11T07:48:25Z</time>
      </trkpt>
      <trkpt lat="43.11679" lon="-0.45307">
        <ele>487.05</ele>
        <time>2016-12-11T07:48:36Z</time>
      </trkpt>
      <trkpt lat="43.11677" lon="-0.45278">
        <ele>489.93</ele>
        <time>2016-12-11T07:48:46Z</time>
      </trkpt>
      <trkpt lat="43.11677" lon="-0.45275">
        <ele>489.45</ele>
        <time>2016-12-11T07:48:47Z</time>
      </trkpt>
      <trkpt lat="43.11677" lon="-0.45272">
        <ele>490.41</ele>
        <time>2016-12-11T07:48:48Z</time>
      </trkpt>
      <trkpt lat="43.11678" lon="-0.45269">
        <ele>490.41</ele>
        <time>2016-12-11T07:48:49Z</time>
      </trkpt>
      <trkpt lat="43.11678" lon="-0.45267">
        <ele>490.89</ele>
        <time>2016-12-11T07:48:50Z</time>
      </trkpt>
      <trkpt lat="43.11678" lon="-0.45264">
        <ele>491.37</ele>
        <time>2016-12-11T07:48:51Z</time>
      </trkpt>
      <trkpt lat="43.11679" lon="-0.45261">
        <ele>490.89</ele>
        <time>2016-12-11T07:48:52Z</time>
      </trkpt>
      <trkpt lat="43.11683" lon="-0.45224">
        <ele>493.29</ele>
        <time>2016-12-11T07:49:05Z</time>
      </trkpt>
      <trkpt lat="43.11694" lon="-0.45184">
        <ele>493.77</ele>
        <time>2016-12-11T07:49:17Z</time>
      </trkpt>
      <trkpt lat="43.11702" lon="-0.45127">
        <ele>494.74</ele>
        <time>2016-12-11T07:49:29Z</time>
      </trkpt>
      <trkpt lat="43.11706" lon="-0.45103">
        <ele>495.7</ele>
        <time>2016-12-11T07:49:35Z</time>
      </trkpt>
      <trkpt lat="43.1171" lon="-0.45097">
        <ele>496.18</ele>
        <time>2016-12-11T07:49:37Z</time>
      </trkpt>
      <trkpt lat="43.11713" lon="-0.45095">
        <ele>495.7</ele>
        <time>2016-12-11T07:49:38Z</time>
      </trkpt>
      <trkpt lat="43.11716" lon="-0.45092">
        <ele>495.7</ele>
        <time>2016-12-11T07:49:39Z</time>
      </trkpt>
      <trkpt lat="43.11751" lon="-0.45055">
        <ele>494.74</ele>
        <time>2016-12-11T07:49:48Z</time>
      </trkpt>
      <trkpt lat="43.11755" lon="-0.45052">
        <ele>494.74</ele>
        <time>2016-12-11T07:49:49Z</time>
      </trkpt>
      <trkpt lat="43.1176" lon="-0.45049">
        <ele>494.74</ele>
        <time>2016-12-11T07:49:50Z</time>
      </trkpt>
      <trkpt lat="43.11784" lon="-0.4503">
        <ele>494.74</ele>
        <time>2016-12-11T07:49:56Z</time>
      </trkpt>
      <trkpt lat="43.11792" lon="-0.45024">
        <ele>494.74</ele>
        <time>2016-12-11T07:49:58Z</time>
      </trkpt>
      <trkpt lat="43.11796" lon="-0.45022">
        <ele>495.22</ele>
        <time>2016-12-11T07:49:59Z</time>
      </trkpt>
      <trkpt lat="43.11821" lon="-0.45">
        <ele>494.74</ele>
        <time>2016-12-11T07:50:06Z</time>
      </trkpt>
      <trkpt lat="43.11824" lon="-0.44995">
        <ele>494.74</ele>
        <time>2016-12-11T07:50:07Z</time>
      </trkpt>
      <trkpt lat="43.11825" lon="-0.44989">
        <ele>494.74</ele>
        <time>2016-12-11T07:50:08Z</time>
      </trkpt>
      <trkpt lat="43.11824" lon="-0.44984">
        <ele>494.74</ele>
        <time>2016-12-11T07:50:09Z</time>
      </trkpt>
      <trkpt lat="43.11822" lon="-0.4498">
        <ele>494.74</ele>
        <time>2016-12-11T07:50:10Z</time>
      </trkpt>
      <trkpt lat="43.11819" lon="-0.44978">
        <ele>494.74</ele>
        <time>2016-12-11T07:50:11Z</time>
      </trkpt>
      <trkpt lat="43.11817" lon="-0.44975">
        <ele>495.7</ele>
        <time>2016-12-11T07:50:12Z</time>
      </trkpt>
      <trkpt lat="43.11815" lon="-0.44972">
        <ele>496.18</ele>
        <time>2016-12-11T07:50:13Z</time>
      </trkpt>
      <trkpt lat="43.11813" lon="-0.44968">
        <ele>496.18</ele>
        <time>2016-12-11T07:50:14Z</time>
      </trkpt>
      <trkpt lat="43.11811" lon="-0.44965">
        <ele>496.66</ele>
        <time>2016-12-11T07:50:15Z</time>
      </trkpt>
      <trkpt lat="43.11811" lon="-0.44962">
        <ele>497.14</ele>
        <time>2016-12-11T07:50:16Z</time>
      </trkpt>
      <trkpt lat="43.11811" lon="-0.44959">
        <ele>497.62</ele>
        <time>2016-12-11T07:50:17Z</time>
      </trkpt>
      <trkpt lat="43.11811" lon="-0.44956">
        <ele>497.62</ele>
        <time>2016-12-11T07:50:18Z</time>
      </trkpt>
      <trkpt lat="43.1181" lon="-0.44953">
        <ele>498.1</ele>
        <time>2016-12-11T07:50:19Z</time>
      </trkpt>
      <trkpt lat="43.11809" lon="-0.4495">
        <ele>498.1</ele>
        <time>2016-12-11T07:50:20Z</time>
      </trkpt>
      <trkpt lat="43.11809" lon="-0.44946">
        <ele>498.58</ele>
        <time>2016-12-11T07:50:21Z</time>
      </trkpt>
      <trkpt lat="43.11807" lon="-0.44943">
        <ele>498.1</ele>
        <time>2016-12-11T07:50:22Z</time>
      </trkpt>
      <trkpt lat="43.11782" lon="-0.44915">
        <ele>500.02</ele>
        <time>2016-12-11T07:50:33Z</time>
      </trkpt>
      <trkpt lat="43.11737" lon="-0.44905">
        <ele>502.43</ele>
        <time>2016-12-11T07:50:48Z</time>
      </trkpt>
      <trkpt lat="43.11707" lon="-0.44897">
        <ele>505.31</ele>
        <time>2016-12-11T07:50:59Z</time>
      </trkpt>
      <trkpt lat="43.11682" lon="-0.44899">
        <ele>508.67</ele>
        <time>2016-12-11T07:51:09Z</time>
      </trkpt>
      <trkpt lat="43.11644" lon="-0.44897">
        <ele>509.16</ele>
        <time>2016-12-11T07:51:24Z</time>
      </trkpt>
      <trkpt lat="43.11611" lon="-0.44886">
        <ele>511.56</ele>
        <time>2016-12-11T07:51:37Z</time>
      </trkpt>
      <trkpt lat="43.11609" lon="-0.44887">
        <ele>512.52</ele>
        <time>2016-12-11T07:51:38Z</time>
      </trkpt>
      <trkpt lat="43.11582" lon="-0.44891">
        <ele>513</ele>
        <time>2016-12-11T07:51:50Z</time>
      </trkpt>
      <trkpt lat="43.11551" lon="-0.44896">
        <ele>513.96</ele>
        <time>2016-12-11T07:52:03Z</time>
      </trkpt>
      <trkpt lat="43.11517" lon="-0.44904">
        <ele>514.92</ele>
        <time>2016-12-11T07:52:18Z</time>
      </trkpt>
      <trkpt lat="43.11505" lon="-0.44906">
        <ele>516.37</ele>
        <time>2016-12-11T07:52:32Z</time>
      </trkpt>
      <trkpt lat="43.11501" lon="-0.44909">
        <ele>516.85</ele>
        <time>2016-12-11T07:52:48Z</time>
      </trkpt>
      <trkpt lat="43.11485" lon="-0.44908">
        <ele>513.48</ele>
        <time>2016-12-11T07:52:56Z</time>
      </trkpt>
      <trkpt lat="43.11477" lon="-0.44906">
        <ele>510.6</ele>
        <time>2016-12-11T07:52:58Z</time>
      </trkpt>
      <trkpt lat="43.11473" lon="-0.44904">
        <ele>508.19</ele>
        <time>2016-12-11T07:52:59Z</time>
      </trkpt>
      <trkpt lat="43.11468" lon="-0.44902">
        <ele>506.75</ele>
        <time>2016-12-11T07:53:00Z</time>
      </trkpt>
      <trkpt lat="43.11463" lon="-0.449">
        <ele>505.31</ele>
        <time>2016-12-11T07:53:01Z</time>
      </trkpt>
      <trkpt lat="43.1144" lon="-0.44899">
        <ele>500.98</ele>
        <time>2016-12-11T07:53:04Z</time>
      </trkpt>
      <trkpt lat="43.11433" lon="-0.44899">
        <ele>500.02</ele>
        <time>2016-12-11T07:53:05Z</time>
      </trkpt>
      <trkpt lat="43.11406" lon="-0.44887">
        <ele>496.18</ele>
        <time>2016-12-11T07:53:09Z</time>
      </trkpt>
      <trkpt lat="43.11389" lon="-0.4487">
        <ele>491.85</ele>
        <time>2016-12-11T07:53:12Z</time>
      </trkpt>
      <trkpt lat="43.11377" lon="-0.44881">
        <ele>488.01</ele>
        <time>2016-12-11T07:53:17Z</time>
      </trkpt>
      <trkpt lat="43.11375" lon="-0.44887">
        <ele>485.6</ele>
        <time>2016-12-11T07:53:19Z</time>
      </trkpt>
      <trkpt lat="43.11364" lon="-0.44913">
        <ele>478.87</ele>
        <time>2016-12-11T07:53:23Z</time>
      </trkpt>
      <trkpt lat="43.11363" lon="-0.44934">
        <ele>475.03</ele>
        <time>2016-12-11T07:53:26Z</time>
      </trkpt>
      <trkpt lat="43.11364" lon="-0.44949">
        <ele>471.66</ele>
        <time>2016-12-11T07:53:30Z</time>
      </trkpt>
      <trkpt lat="43.1136" lon="-0.44953">
        <ele>471.18</ele>
        <time>2016-12-11T07:53:31Z</time>
      </trkpt>
      <trkpt lat="43.11346" lon="-0.44966">
        <ele>466.86</ele>
        <time>2016-12-11T07:53:34Z</time>
      </trkpt>
      <trkpt lat="43.11341" lon="-0.44971">
        <ele>465.42</ele>
        <time>2016-12-11T07:53:35Z</time>
      </trkpt>
      <trkpt lat="43.11328" lon="-0.44989">
        <ele>461.09</ele>
        <time>2016-12-11T07:53:39Z</time>
      </trkpt>
      <trkpt lat="43.11323" lon="-0.44999">
        <ele>459.65</ele>
        <time>2016-12-11T07:53:42Z</time>
      </trkpt>
      <trkpt lat="43.1132" lon="-0.45002">
        <ele>458.69</ele>
        <time>2016-12-11T07:53:44Z</time>
      </trkpt>
      <trkpt lat="43.11308" lon="-0.45008">
        <ele>456.76</ele>
        <time>2016-12-11T07:53:49Z</time>
      </trkpt>
      <trkpt lat="43.11279" lon="-0.45008">
        <ele>455.32</ele>
        <time>2016-12-11T07:53:57Z</time>
      </trkpt>
      <trkpt lat="43.11269" lon="-0.45">
        <ele>455.32</ele>
        <time>2016-12-11T07:54:01Z</time>
      </trkpt>
      <trkpt lat="43.11261" lon="-0.44986">
        <ele>453.88</ele>
        <time>2016-12-11T07:54:05Z</time>
      </trkpt>
      <trkpt lat="43.11244" lon="-0.44955">
        <ele>451</ele>
        <time>2016-12-11T07:54:10Z</time>
      </trkpt>
      <trkpt lat="43.11238" lon="-0.44946">
        <ele>451</ele>
        <time>2016-12-11T07:54:11Z</time>
      </trkpt>
      <trkpt lat="43.11226" lon="-0.4491">
        <ele>449.55</ele>
        <time>2016-12-11T07:54:15Z</time>
      </trkpt>
      <trkpt lat="43.11223" lon="-0.44862">
        <ele>446.67</ele>
        <time>2016-12-11T07:54:21Z</time>
      </trkpt>
      <trkpt lat="43.11208" lon="-0.44801">
        <ele>446.67</ele>
        <time>2016-12-11T07:54:31Z</time>
      </trkpt>
      <trkpt lat="43.11199" lon="-0.44742">
        <ele>449.07</ele>
        <time>2016-12-11T07:54:44Z</time>
      </trkpt>
      <trkpt lat="43.11195" lon="-0.44704">
        <ele>451</ele>
        <time>2016-12-11T07:54:53Z</time>
      </trkpt>
      <trkpt lat="43.112" lon="-0.44674">
        <ele>450.03</ele>
        <time>2016-12-11T07:55:00Z</time>
      </trkpt>
      <trkpt lat="43.11199" lon="-0.44624">
        <ele>449.07</ele>
        <time>2016-12-11T07:55:10Z</time>
      </trkpt>
      <trkpt lat="43.11198" lon="-0.4461">
        <ele>449.55</ele>
        <time>2016-12-11T07:55:13Z</time>
      </trkpt>
      <trkpt lat="43.11184" lon="-0.44565">
        <ele>451</ele>
        <time>2016-12-11T07:55:24Z</time>
      </trkpt>
      <trkpt lat="43.11184" lon="-0.44561">
        <ele>451.48</ele>
        <time>2016-12-11T07:55:25Z</time>
      </trkpt>
      <trkpt lat="43.11185" lon="-0.44543">
        <ele>451</ele>
        <time>2016-12-11T07:55:29Z</time>
      </trkpt>
      <trkpt lat="43.11182" lon="-0.44513">
        <ele>449.55</ele>
        <time>2016-12-11T07:55:33Z</time>
      </trkpt>
      <trkpt lat="43.11179" lon="-0.44497">
        <ele>448.11</ele>
        <time>2016-12-11T07:55:35Z</time>
      </trkpt>
      <trkpt lat="43.11175" lon="-0.44481">
        <ele>447.63</ele>
        <time>2016-12-11T07:55:37Z</time>
      </trkpt>
      <trkpt lat="43.11156" lon="-0.44413">
        <ele>444.75</ele>
        <time>2016-12-11T07:55:48Z</time>
      </trkpt>
      <trkpt lat="43.11155" lon="-0.44409">
        <ele>444.75</ele>
        <time>2016-12-11T07:55:49Z</time>
      </trkpt>
      <trkpt lat="43.11141" lon="-0.44371">
        <ele>446.19</ele>
        <time>2016-12-11T07:55:58Z</time>
      </trkpt>
      <trkpt lat="43.11119" lon="-0.44344">
        <ele>449.07</ele>
        <time>2016-12-11T07:56:09Z</time>
      </trkpt>
      <trkpt lat="43.11112" lon="-0.44334">
        <ele>449.07</ele>
        <time>2016-12-11T07:56:14Z</time>
      </trkpt>
      <trkpt lat="43.11088" lon="-0.44294">
        <ele>448.11</ele>
        <time>2016-12-11T07:56:26Z</time>
      </trkpt>
      <trkpt lat="43.11087" lon="-0.4429">
        <ele>448.11</ele>
        <time>2016-12-11T07:56:27Z</time>
      </trkpt>
      <trkpt lat="43.1108" lon="-0.4428">
        <ele>447.15</ele>
        <time>2016-12-11T07:56:30Z</time>
      </trkpt>
      <trkpt lat="43.11076" lon="-0.44277">
        <ele>445.71</ele>
        <time>2016-12-11T07:56:31Z</time>
      </trkpt>
      <trkpt lat="43.11072" lon="-0.44274">
        <ele>444.27</ele>
        <time>2016-12-11T07:56:32Z</time>
      </trkpt>
      <trkpt lat="43.11068" lon="-0.44271">
        <ele>443.79</ele>
        <time>2016-12-11T07:56:33Z</time>
      </trkpt>
      <trkpt lat="43.11061" lon="-0.44265">
        <ele>441.86</ele>
        <time>2016-12-11T07:56:35Z</time>
      </trkpt>
      <trkpt lat="43.11045" lon="-0.44262">
        <ele>438.02</ele>
        <time>2016-12-11T07:56:40Z</time>
      </trkpt>
      <trkpt lat="43.11037" lon="-0.44251">
        <ele>435.61</ele>
        <time>2016-12-11T07:56:43Z</time>
      </trkpt>
      <trkpt lat="43.11033" lon="-0.44246">
        <ele>434.65</ele>
        <time>2016-12-11T07:56:44Z</time>
      </trkpt>
      <trkpt lat="43.1103" lon="-0.44242">
        <ele>433.69</ele>
        <time>2016-12-11T07:56:45Z</time>
      </trkpt>
      <trkpt lat="43.11026" lon="-0.44239">
        <ele>432.73</ele>
        <time>2016-12-11T07:56:46Z</time>
      </trkpt>
      <trkpt lat="43.11021" lon="-0.44237">
        <ele>432.25</ele>
        <time>2016-12-11T07:56:47Z</time>
      </trkpt>
      <trkpt lat="43.11015" lon="-0.44235">
        <ele>430.81</ele>
        <time>2016-12-11T07:56:48Z</time>
      </trkpt>
      <trkpt lat="43.1101" lon="-0.44233">
        <ele>429.37</ele>
        <time>2016-12-11T07:56:49Z</time>
      </trkpt>
      <trkpt lat="43.11006" lon="-0.4423">
        <ele>427.92</ele>
        <time>2016-12-11T07:56:50Z</time>
      </trkpt>
      <trkpt lat="43.11003" lon="-0.44226">
        <ele>427.44</ele>
        <time>2016-12-11T07:56:51Z</time>
      </trkpt>
      <trkpt lat="43.11" lon="-0.4422">
        <ele>426.48</ele>
        <time>2016-12-11T07:56:52Z</time>
      </trkpt>
      <trkpt lat="43.10996" lon="-0.44213">
        <ele>426</ele>
        <time>2016-12-11T07:56:53Z</time>
      </trkpt>
      <trkpt lat="43.10992" lon="-0.44207">
        <ele>424.08</ele>
        <time>2016-12-11T07:56:54Z</time>
      </trkpt>
      <trkpt lat="43.10989" lon="-0.442">
        <ele>423.6</ele>
        <time>2016-12-11T07:56:55Z</time>
      </trkpt>
      <trkpt lat="43.10987" lon="-0.44194">
        <ele>422.64</ele>
        <time>2016-12-11T07:56:56Z</time>
      </trkpt>
      <trkpt lat="43.10986" lon="-0.44187">
        <ele>422.16</ele>
        <time>2016-12-11T07:56:57Z</time>
      </trkpt>
      <trkpt lat="43.10985" lon="-0.4418">
        <ele>420.71</ele>
        <time>2016-12-11T07:56:58Z</time>
      </trkpt>
      <trkpt lat="43.10983" lon="-0.44173">
        <ele>419.27</ele>
        <time>2016-12-11T07:56:59Z</time>
      </trkpt>
      <trkpt lat="43.10983" lon="-0.44164">
        <ele>419.75</ele>
        <time>2016-12-11T07:57:00Z</time>
      </trkpt>
      <trkpt lat="43.10984" lon="-0.44155">
        <ele>418.31</ele>
        <time>2016-12-11T07:57:01Z</time>
      </trkpt>
      <trkpt lat="43.10985" lon="-0.44145">
        <ele>418.31</ele>
        <time>2016-12-11T07:57:02Z</time>
      </trkpt>
      <trkpt lat="43.10986" lon="-0.44134">
        <ele>418.31</ele>
        <time>2016-12-11T07:57:03Z</time>
      </trkpt>
      <trkpt lat="43.10985" lon="-0.44117">
        <ele>415.43</ele>
        <time>2016-12-11T07:57:05Z</time>
      </trkpt>
      <trkpt lat="43.10984" lon="-0.44099">
        <ele>413.98</ele>
        <time>2016-12-11T07:57:13Z</time>
      </trkpt>
      <trkpt lat="43.10986" lon="-0.44095">
        <ele>413.5</ele>
        <time>2016-12-11T07:57:43Z</time>
      </trkpt>
      <trkpt lat="43.10984" lon="-0.4409">
        <ele>413.02</ele>
        <time>2016-12-11T07:57:55Z</time>
      </trkpt>
      <trkpt lat="43.10984" lon="-0.44086">
        <ele>413.02</ele>
        <time>2016-12-11T07:57:56Z</time>
      </trkpt>
      <trkpt lat="43.10983" lon="-0.4408">
        <ele>413.02</ele>
        <time>2016-12-11T07:57:57Z</time>
      </trkpt>
      <trkpt lat="43.1098" lon="-0.44021">
        <ele>409.66</ele>
        <time>2016-12-11T07:58:04Z</time>
      </trkpt>
      <trkpt lat="43.10975" lon="-0.43976">
        <ele>407.26</ele>
        <time>2016-12-11T07:58:08Z</time>
      </trkpt>
      <trkpt lat="43.1097" lon="-0.43952">
        <ele>403.89</ele>
        <time>2016-12-11T07:58:10Z</time>
      </trkpt>
      <trkpt lat="43.10964" lon="-0.43894">
        <ele>402.45</ele>
        <time>2016-12-11T07:58:15Z</time>
      </trkpt>
      <trkpt lat="43.10969" lon="-0.43884">
        <ele>402.45</ele>
        <time>2016-12-11T07:58:16Z</time>
      </trkpt>
      <trkpt lat="43.10993" lon="-0.43838">
        <ele>398.6</ele>
        <time>2016-12-11T07:58:20Z</time>
      </trkpt>
      <trkpt lat="43.11024" lon="-0.43783">
        <ele>395.24</ele>
        <time>2016-12-11T07:58:25Z</time>
      </trkpt>
      <trkpt lat="43.11031" lon="-0.43775">
        <ele>395.24</ele>
        <time>2016-12-11T07:58:26Z</time>
      </trkpt>
      <trkpt lat="43.11044" lon="-0.43761">
        <ele>394.28</ele>
        <time>2016-12-11T07:58:28Z</time>
      </trkpt>
      <trkpt lat="43.11052" lon="-0.43757">
        <ele>393.8</ele>
        <time>2016-12-11T07:58:29Z</time>
      </trkpt>
      <trkpt lat="43.1106" lon="-0.43756">
        <ele>394.28</ele>
        <time>2016-12-11T07:58:30Z</time>
      </trkpt>
      <trkpt lat="43.11067" lon="-0.43758">
        <ele>393.8</ele>
        <time>2016-12-11T07:58:31Z</time>
      </trkpt>
      <trkpt lat="43.11073" lon="-0.43759">
        <ele>393.32</ele>
        <time>2016-12-11T07:58:32Z</time>
      </trkpt>
      <trkpt lat="43.11078" lon="-0.43757">
        <ele>392.84</ele>
        <time>2016-12-11T07:58:33Z</time>
      </trkpt>
      <trkpt lat="43.11072" lon="-0.43745">
        <ele>392.36</ele>
        <time>2016-12-11T07:58:37Z</time>
      </trkpt>
      <trkpt lat="43.11053" lon="-0.43734">
        <ele>394.28</ele>
        <time>2016-12-11T07:58:42Z</time>
      </trkpt>
      <trkpt lat="43.1105" lon="-0.43731">
        <ele>394.28</ele>
        <time>2016-12-11T07:58:43Z</time>
      </trkpt>
      <trkpt lat="43.11047" lon="-0.43727">
        <ele>394.76</ele>
        <time>2016-12-11T07:58:44Z</time>
      </trkpt>
      <trkpt lat="43.11044" lon="-0.43723">
        <ele>394.76</ele>
        <time>2016-12-11T07:58:45Z</time>
      </trkpt>
      <trkpt lat="43.11041" lon="-0.43719">
        <ele>395.24</ele>
        <time>2016-12-11T07:58:46Z</time>
      </trkpt>
      <trkpt lat="43.11015" lon="-0.43674">
        <ele>396.2</ele>
        <time>2016-12-11T07:58:56Z</time>
      </trkpt>
      <trkpt lat="43.11013" lon="-0.43669">
        <ele>396.2</ele>
        <time>2016-12-11T07:58:57Z</time>
      </trkpt>
      <trkpt lat="43.11012" lon="-0.43663">
        <ele>396.68</ele>
        <time>2016-12-11T07:58:58Z</time>
      </trkpt>
      <trkpt lat="43.11011" lon="-0.43658">
        <ele>396.68</ele>
        <time>2016-12-11T07:58:59Z</time>
      </trkpt>
      <trkpt lat="43.1101" lon="-0.43652">
        <ele>396.68</ele>
        <time>2016-12-11T07:59:00Z</time>
      </trkpt>
      <trkpt lat="43.11005" lon="-0.43615">
        <ele>398.6</ele>
        <time>2016-12-11T07:59:07Z</time>
      </trkpt>
      <trkpt lat="43.11003" lon="-0.4361">
        <ele>399.57</ele>
        <time>2016-12-11T07:59:08Z</time>
      </trkpt>
      <trkpt lat="43.11001" lon="-0.43606">
        <ele>399.57</ele>
        <time>2016-12-11T07:59:09Z</time>
      </trkpt>
      <trkpt lat="43.10998" lon="-0.43602">
        <ele>400.05</ele>
        <time>2016-12-11T07:59:10Z</time>
      </trkpt>
      <trkpt lat="43.10996" lon="-0.43598">
        <ele>400.05</ele>
        <time>2016-12-11T07:59:11Z</time>
      </trkpt>
      <trkpt lat="43.10978" lon="-0.43583">
        <ele>402.93</ele>
        <time>2016-12-11T07:59:17Z</time>
      </trkpt>
      <trkpt lat="43.10975" lon="-0.43581">
        <ele>402.93</ele>
        <time>2016-12-11T07:59:18Z</time>
      </trkpt>
      <trkpt lat="43.10961" lon="-0.43577">
        <ele>404.37</ele>
        <time>2016-12-11T07:59:22Z</time>
      </trkpt>
      <trkpt lat="43.10912" lon="-0.4356">
        <ele>406.77</ele>
        <time>2016-12-11T07:59:36Z</time>
      </trkpt>
      <trkpt lat="43.10856" lon="-0.43541">
        <ele>409.18</ele>
        <time>2016-12-11T07:59:50Z</time>
      </trkpt>
      <trkpt lat="43.10832" lon="-0.43533">
        <ele>410.14</ele>
        <time>2016-12-11T07:59:56Z</time>
      </trkpt>
      <trkpt lat="43.10794" lon="-0.43536">
        <ele>410.14</ele>
        <time>2016-12-11T08:00:05Z</time>
      </trkpt>
      <trkpt lat="43.1072" lon="-0.43555">
        <ele>411.1</ele>
        <time>2016-12-11T08:00:21Z</time>
      </trkpt>
      <trkpt lat="43.10708" lon="-0.4356">
        <ele>411.58</ele>
        <time>2016-12-11T08:00:24Z</time>
      </trkpt>
      <trkpt lat="43.10696" lon="-0.43567">
        <ele>411.1</ele>
        <time>2016-12-11T08:00:27Z</time>
      </trkpt>
      <trkpt lat="43.10691" lon="-0.43569">
        <ele>411.1</ele>
        <time>2016-12-11T08:00:28Z</time>
      </trkpt>
      <trkpt lat="43.10687" lon="-0.43571">
        <ele>411.1</ele>
        <time>2016-12-11T08:00:29Z</time>
      </trkpt>
      <trkpt lat="43.1062" lon="-0.43572">
        <ele>410.14</ele>
        <time>2016-12-11T08:00:42Z</time>
      </trkpt>
      <trkpt lat="43.10546" lon="-0.43558">
        <ele>411.58</ele>
        <time>2016-12-11T08:00:57Z</time>
      </trkpt>
      <trkpt lat="43.10531" lon="-0.43558">
        <ele>411.58</ele>
        <time>2016-12-11T08:01:00Z</time>
      </trkpt>
      <trkpt lat="43.10446" lon="-0.43547">
        <ele>412.54</ele>
        <time>2016-12-11T08:01:17Z</time>
      </trkpt>
      <trkpt lat="43.10395" lon="-0.43535">
        <ele>411.1</ele>
        <time>2016-12-11T08:01:27Z</time>
      </trkpt>
      <trkpt lat="43.1039" lon="-0.43536">
        <ele>411.1</ele>
        <time>2016-12-11T08:01:28Z</time>
      </trkpt>
      <trkpt lat="43.10386" lon="-0.43539">
        <ele>410.62</ele>
        <time>2016-12-11T08:01:29Z</time>
      </trkpt>
      <trkpt lat="43.10382" lon="-0.43544">
        <ele>411.1</ele>
        <time>2016-12-11T08:01:30Z</time>
      </trkpt>
      <trkpt lat="43.1038" lon="-0.4355">
        <ele>411.58</ele>
        <time>2016-12-11T08:01:31Z</time>
      </trkpt>
      <trkpt lat="43.10378" lon="-0.43557">
        <ele>411.58</ele>
        <time>2016-12-11T08:01:32Z</time>
      </trkpt>
      <trkpt lat="43.10376" lon="-0.43563">
        <ele>411.58</ele>
        <time>2016-12-11T08:01:33Z</time>
      </trkpt>
      <trkpt lat="43.10349" lon="-0.43663">
        <ele>411.58</ele>
        <time>2016-12-11T08:01:48Z</time>
      </trkpt>
      <trkpt lat="43.10347" lon="-0.4367">
        <ele>411.58</ele>
        <time>2016-12-11T08:01:49Z</time>
      </trkpt>
      <trkpt lat="43.1033" lon="-0.43715">
        <ele>412.54</ele>
        <time>2016-12-11T08:01:56Z</time>
      </trkpt>
      <trkpt lat="43.10326" lon="-0.43719">
        <ele>412.54</ele>
        <time>2016-12-11T08:01:57Z</time>
      </trkpt>
      <trkpt lat="43.10322" lon="-0.43723">
        <ele>412.54</ele>
        <time>2016-12-11T08:01:58Z</time>
      </trkpt>
      <trkpt lat="43.10318" lon="-0.43727">
        <ele>412.54</ele>
        <time>2016-12-11T08:01:59Z</time>
      </trkpt>
      <trkpt lat="43.10313" lon="-0.43729">
        <ele>413.02</ele>
        <time>2016-12-11T08:02:00Z</time>
      </trkpt>
      <trkpt lat="43.10308" lon="-0.43731">
        <ele>413.5</ele>
        <time>2016-12-11T08:02:01Z</time>
      </trkpt>
      <trkpt lat="43.10303" lon="-0.43733">
        <ele>413.5</ele>
        <time>2016-12-11T08:02:02Z</time>
      </trkpt>
      <trkpt lat="43.10278" lon="-0.43741">
        <ele>413.5</ele>
        <time>2016-12-11T08:02:07Z</time>
      </trkpt>
      <trkpt lat="43.10274" lon="-0.43744">
        <ele>413.5</ele>
        <time>2016-12-11T08:02:08Z</time>
      </trkpt>
      <trkpt lat="43.1027" lon="-0.43749">
        <ele>413.98</ele>
        <time>2016-12-11T08:02:09Z</time>
      </trkpt>
      <trkpt lat="43.10266" lon="-0.43755">
        <ele>413.5</ele>
        <time>2016-12-11T08:02:10Z</time>
      </trkpt>
      <trkpt lat="43.10263" lon="-0.4376">
        <ele>413.98</ele>
        <time>2016-12-11T08:02:11Z</time>
      </trkpt>
      <trkpt lat="43.10233" lon="-0.43819">
        <ele>413.98</ele>
        <time>2016-12-11T08:02:21Z</time>
      </trkpt>
      <trkpt lat="43.10225" lon="-0.43828">
        <ele>414.47</ele>
        <time>2016-12-11T08:02:23Z</time>
      </trkpt>
      <trkpt lat="43.10207" lon="-0.43843">
        <ele>414.47</ele>
        <time>2016-12-11T08:02:27Z</time>
      </trkpt>
      <trkpt lat="43.10203" lon="-0.43848">
        <ele>414.47</ele>
        <time>2016-12-11T08:02:28Z</time>
      </trkpt>
      <trkpt lat="43.10164" lon="-0.43908">
        <ele>413.98</ele>
        <time>2016-12-11T08:02:39Z</time>
      </trkpt>
      <trkpt lat="43.1016" lon="-0.43913">
        <ele>414.47</ele>
        <time>2016-12-11T08:02:40Z</time>
      </trkpt>
      <trkpt lat="43.10156" lon="-0.43919">
        <ele>413.98</ele>
        <time>2016-12-11T08:02:41Z</time>
      </trkpt>
      <trkpt lat="43.10104" lon="-0.4402">
        <ele>414.47</ele>
        <time>2016-12-11T08:02:58Z</time>
      </trkpt>
      <trkpt lat="43.10055" lon="-0.44119">
        <ele>414.47</ele>
        <time>2016-12-11T08:03:15Z</time>
      </trkpt>
      <trkpt lat="43.10028" lon="-0.44171">
        <ele>412.54</ele>
        <time>2016-12-11T08:03:23Z</time>
      </trkpt>
      <trkpt lat="43.10025" lon="-0.4418">
        <ele>411.58</ele>
        <time>2016-12-11T08:03:24Z</time>
      </trkpt>
      <trkpt lat="43.10022" lon="-0.4419">
        <ele>411.58</ele>
        <time>2016-12-11T08:03:25Z</time>
      </trkpt>
      <trkpt lat="43.1002" lon="-0.44201">
        <ele>411.1</ele>
        <time>2016-12-11T08:03:26Z</time>
      </trkpt>
      <trkpt lat="43.10019" lon="-0.44213">
        <ele>410.14</ele>
        <time>2016-12-11T08:03:27Z</time>
      </trkpt>
      <trkpt lat="43.10018" lon="-0.44225">
        <ele>409.66</ele>
        <time>2016-12-11T08:03:28Z</time>
      </trkpt>
      <trkpt lat="43.10017" lon="-0.44237">
        <ele>409.18</ele>
        <time>2016-12-11T08:03:29Z</time>
      </trkpt>
      <trkpt lat="43.10002" lon="-0.44304">
        <ele>408.22</ele>
        <time>2016-12-11T08:03:36Z</time>
      </trkpt>
      <trkpt lat="43.09999" lon="-0.44311">
        <ele>408.22</ele>
        <time>2016-12-11T08:03:37Z</time>
      </trkpt>
      <trkpt lat="43.09995" lon="-0.44318">
        <ele>408.7</ele>
        <time>2016-12-11T08:03:38Z</time>
      </trkpt>
      <trkpt lat="43.09991" lon="-0.44324">
        <ele>408.7</ele>
        <time>2016-12-11T08:03:39Z</time>
      </trkpt>
      <trkpt lat="43.09986" lon="-0.44329">
        <ele>408.7</ele>
        <time>2016-12-11T08:03:40Z</time>
      </trkpt>
      <trkpt lat="43.09981" lon="-0.44333">
        <ele>409.66</ele>
        <time>2016-12-11T08:03:41Z</time>
      </trkpt>
      <trkpt lat="43.09916" lon="-0.44387">
        <ele>410.14</ele>
        <time>2016-12-11T08:03:55Z</time>
      </trkpt>
      <trkpt lat="43.09845" lon="-0.44431">
        <ele>411.58</ele>
        <time>2016-12-11T08:04:10Z</time>
      </trkpt>
      <trkpt lat="43.09821" lon="-0.44442">
        <ele>411.58</ele>
        <time>2016-12-11T08:04:15Z</time>
      </trkpt>
      <trkpt lat="43.09816" lon="-0.44444">
        <ele>412.06</ele>
        <time>2016-12-11T08:04:16Z</time>
      </trkpt>
      <trkpt lat="43.09737" lon="-0.44456">
        <ele>413.5</ele>
        <time>2016-12-11T08:04:32Z</time>
      </trkpt>
      <trkpt lat="43.09663" lon="-0.44439">
        <ele>413.02</ele>
        <time>2016-12-11T08:04:47Z</time>
      </trkpt>
      <trkpt lat="43.09642" lon="-0.44438">
        <ele>413.02</ele>
        <time>2016-12-11T08:04:51Z</time>
      </trkpt>
      <trkpt lat="43.09637" lon="-0.44439">
        <ele>412.54</ele>
        <time>2016-12-11T08:04:52Z</time>
      </trkpt>
      <trkpt lat="43.09633" lon="-0.44441">
        <ele>413.02</ele>
        <time>2016-12-11T08:04:53Z</time>
      </trkpt>
      <trkpt lat="43.09628" lon="-0.44442">
        <ele>413.02</ele>
        <time>2016-12-11T08:04:54Z</time>
      </trkpt>
      <trkpt lat="43.09624" lon="-0.44445">
        <ele>413.02</ele>
        <time>2016-12-11T08:04:55Z</time>
      </trkpt>
      <trkpt lat="43.09619" lon="-0.44448">
        <ele>412.54</ele>
        <time>2016-12-11T08:04:56Z</time>
      </trkpt>
      <trkpt lat="43.09615" lon="-0.44451">
        <ele>413.5</ele>
        <time>2016-12-11T08:04:57Z</time>
      </trkpt>
      <trkpt lat="43.09611" lon="-0.44454">
        <ele>413.5</ele>
        <time>2016-12-11T08:04:58Z</time>
      </trkpt>
      <trkpt lat="43.0959" lon="-0.44476">
        <ele>414.47</ele>
        <time>2016-12-11T08:05:04Z</time>
      </trkpt>
      <trkpt lat="43.09587" lon="-0.4448">
        <ele>414.47</ele>
        <time>2016-12-11T08:05:05Z</time>
      </trkpt>
      <trkpt lat="43.09584" lon="-0.44484">
        <ele>414.95</ele>
        <time>2016-12-11T08:05:06Z</time>
      </trkpt>
      <trkpt lat="43.09581" lon="-0.44486">
        <ele>415.43</ele>
        <time>2016-12-11T08:05:07Z</time>
      </trkpt>
      <trkpt lat="43.09578" lon="-0.44488">
        <ele>415.43</ele>
        <time>2016-12-11T08:05:08Z</time>
      </trkpt>
      <trkpt lat="43.0954" lon="-0.44493">
        <ele>416.39</ele>
        <time>2016-12-11T08:05:18Z</time>
      </trkpt>
      <trkpt lat="43.09536" lon="-0.44493">
        <ele>416.39</ele>
        <time>2016-12-11T08:05:19Z</time>
      </trkpt>
      <trkpt lat="43.09532" lon="-0.44493">
        <ele>416.39</ele>
        <time>2016-12-11T08:05:20Z</time>
      </trkpt>
      <trkpt lat="43.09528" lon="-0.44494">
        <ele>416.39</ele>
        <time>2016-12-11T08:05:21Z</time>
      </trkpt>
      <trkpt lat="43.09524" lon="-0.44494">
        <ele>416.87</ele>
        <time>2016-12-11T08:05:22Z</time>
      </trkpt>
      <trkpt lat="43.0952" lon="-0.44495">
        <ele>416.87</ele>
        <time>2016-12-11T08:05:23Z</time>
      </trkpt>
      <trkpt lat="43.09516" lon="-0.44496">
        <ele>416.39</ele>
        <time>2016-12-11T08:05:24Z</time>
      </trkpt>
      <trkpt lat="43.09472" lon="-0.44505">
        <ele>418.79</ele>
        <time>2016-12-11T08:05:36Z</time>
      </trkpt>
      <trkpt lat="43.0942" lon="-0.44511">
        <ele>420.23</ele>
        <time>2016-12-11T08:05:50Z</time>
      </trkpt>
      <trkpt lat="43.09379" lon="-0.44535">
        <ele>422.64</ele>
        <time>2016-12-11T08:06:03Z</time>
      </trkpt>
      <trkpt lat="43.09354" lon="-0.44554">
        <ele>425.52</ele>
        <time>2016-12-11T08:06:13Z</time>
      </trkpt>
      <trkpt lat="43.0932" lon="-0.44576">
        <ele>427.92</ele>
        <time>2016-12-11T08:06:27Z</time>
      </trkpt>
      <trkpt lat="43.0928" lon="-0.44603">
        <ele>429.85</ele>
        <time>2016-12-11T08:06:40Z</time>
      </trkpt>
      <trkpt lat="43.09244" lon="-0.44616">
        <ele>430.33</ele>
        <time>2016-12-11T08:06:51Z</time>
      </trkpt>
      <trkpt lat="43.09207" lon="-0.44619">
        <ele>430.81</ele>
        <time>2016-12-11T08:07:02Z</time>
      </trkpt>
      <trkpt lat="43.09169" lon="-0.44642">
        <ele>432.25</ele>
        <time>2016-12-11T08:07:14Z</time>
      </trkpt>
      <trkpt lat="43.09137" lon="-0.44677">
        <ele>433.69</ele>
        <time>2016-12-11T08:07:26Z</time>
      </trkpt>
      <trkpt lat="43.09108" lon="-0.44707">
        <ele>433.69</ele>
        <time>2016-12-11T08:07:37Z</time>
      </trkpt>
      <trkpt lat="43.09084" lon="-0.44751">
        <ele>435.13</ele>
        <time>2016-12-11T08:07:48Z</time>
      </trkpt>
      <trkpt lat="43.09076" lon="-0.44787">
        <ele>437.06</ele>
        <time>2016-12-11T08:07:57Z</time>
      </trkpt>
      <trkpt lat="43.0906" lon="-0.4483">
        <ele>438.5</ele>
        <time>2016-12-11T08:08:08Z</time>
      </trkpt>
      <trkpt lat="43.0903" lon="-0.44887">
        <ele>437.06</ele>
        <time>2016-12-11T08:08:21Z</time>
      </trkpt>
      <trkpt lat="43.09027" lon="-0.4489">
        <ele>437.06</ele>
        <time>2016-12-11T08:08:22Z</time>
      </trkpt>
      <trkpt lat="43.09017" lon="-0.44901">
        <ele>436.58</ele>
        <time>2016-12-11T08:08:25Z</time>
      </trkpt>
      <trkpt lat="43.0901" lon="-0.44906">
        <ele>437.06</ele>
        <time>2016-12-11T08:08:27Z</time>
      </trkpt>
      <trkpt lat="43.08969" lon="-0.4493">
        <ele>438.5</ele>
        <time>2016-12-11T08:08:39Z</time>
      </trkpt>
      <trkpt lat="43.08948" lon="-0.44945">
        <ele>437.54</ele>
        <time>2016-12-11T08:08:45Z</time>
      </trkpt>
      <trkpt lat="43.08934" lon="-0.44952">
        <ele>437.06</ele>
        <time>2016-12-11T08:08:48Z</time>
      </trkpt>
      <trkpt lat="43.0893" lon="-0.44955">
        <ele>437.06</ele>
        <time>2016-12-11T08:08:49Z</time>
      </trkpt>
      <trkpt lat="43.08927" lon="-0.4496">
        <ele>437.06</ele>
        <time>2016-12-11T08:08:50Z</time>
      </trkpt>
      <trkpt lat="43.08923" lon="-0.44964">
        <ele>437.54</ele>
        <time>2016-12-11T08:08:51Z</time>
      </trkpt>
      <trkpt lat="43.0892" lon="-0.44967">
        <ele>438.02</ele>
        <time>2016-12-11T08:08:52Z</time>
      </trkpt>
      <trkpt lat="43.08917" lon="-0.44969">
        <ele>438.02</ele>
        <time>2016-12-11T08:08:53Z</time>
      </trkpt>
      <trkpt lat="43.08914" lon="-0.4497">
        <ele>438.5</ele>
        <time>2016-12-11T08:08:54Z</time>
      </trkpt>
      <trkpt lat="43.08911" lon="-0.4497">
        <ele>438.5</ele>
        <time>2016-12-11T08:08:55Z</time>
      </trkpt>
      <trkpt lat="43.08909" lon="-0.44971">
        <ele>439.46</ele>
        <time>2016-12-11T08:08:56Z</time>
      </trkpt>
      <trkpt lat="43.08907" lon="-0.44972">
        <ele>439.46</ele>
        <time>2016-12-11T08:08:57Z</time>
      </trkpt>
      <trkpt lat="43.08905" lon="-0.44973">
        <ele>439.46</ele>
        <time>2016-12-11T08:08:58Z</time>
      </trkpt>
      <trkpt lat="43.08902" lon="-0.44975">
        <ele>439.46</ele>
        <time>2016-12-11T08:08:59Z</time>
      </trkpt>
      <trkpt lat="43.08899" lon="-0.44976">
        <ele>438.98</ele>
        <time>2016-12-11T08:09:00Z</time>
      </trkpt>
      <trkpt lat="43.08896" lon="-0.44977">
        <ele>439.46</ele>
        <time>2016-12-11T08:09:01Z</time>
      </trkpt>
      <trkpt lat="43.08892" lon="-0.44977">
        <ele>438.98</ele>
        <time>2016-12-11T08:09:02Z</time>
      </trkpt>
      <trkpt lat="43.08889" lon="-0.44977">
        <ele>439.46</ele>
        <time>2016-12-11T08:09:03Z</time>
      </trkpt>
      <trkpt lat="43.08886" lon="-0.44976">
        <ele>439.46</ele>
        <time>2016-12-11T08:09:04Z</time>
      </trkpt>
      <trkpt lat="43.08882" lon="-0.44976">
        <ele>438.98</ele>
        <time>2016-12-11T08:09:05Z</time>
      </trkpt>
      <trkpt lat="43.08869" lon="-0.44976">
        <ele>438.5</ele>
        <time>2016-12-11T08:09:09Z</time>
      </trkpt>
      <trkpt lat="43.08865" lon="-0.44952">
        <ele>436.1</ele>
        <time>2016-12-11T08:09:13Z</time>
      </trkpt>
      <trkpt lat="43.08861" lon="-0.44948">
        <ele>436.1</ele>
        <time>2016-12-11T08:09:14Z</time>
      </trkpt>
      <trkpt lat="43.08856" lon="-0.44947">
        <ele>435.61</ele>
        <time>2016-12-11T08:09:15Z</time>
      </trkpt>
      <trkpt lat="43.08851" lon="-0.44947">
        <ele>435.61</ele>
        <time>2016-12-11T08:09:16Z</time>
      </trkpt>
      <trkpt lat="43.08846" lon="-0.44947">
        <ele>435.13</ele>
        <time>2016-12-11T08:09:17Z</time>
      </trkpt>
      <trkpt lat="43.0884" lon="-0.44947">
        <ele>435.61</ele>
        <time>2016-12-11T08:09:18Z</time>
      </trkpt>
      <trkpt lat="43.08835" lon="-0.44946">
        <ele>435.13</ele>
        <time>2016-12-11T08:09:19Z</time>
      </trkpt>
      <trkpt lat="43.0883" lon="-0.44945">
        <ele>435.13</ele>
        <time>2016-12-11T08:09:20Z</time>
      </trkpt>
      <trkpt lat="43.08819" lon="-0.44915">
        <ele>434.65</ele>
        <time>2016-12-11T08:09:26Z</time>
      </trkpt>
      <trkpt lat="43.08815" lon="-0.44877">
        <ele>433.21</ele>
        <time>2016-12-11T08:09:31Z</time>
      </trkpt>
      <trkpt lat="43.08803" lon="-0.44852">
        <ele>431.29</ele>
        <time>2016-12-11T08:09:35Z</time>
      </trkpt>
      <trkpt lat="43.08801" lon="-0.44846">
        <ele>431.29</ele>
        <time>2016-12-11T08:09:36Z</time>
      </trkpt>
      <trkpt lat="43.08797" lon="-0.44841">
        <ele>430.81</ele>
        <time>2016-12-11T08:09:37Z</time>
      </trkpt>
      <trkpt lat="43.08793" lon="-0.44837">
        <ele>431.29</ele>
        <time>2016-12-11T08:09:38Z</time>
      </trkpt>
      <trkpt lat="43.0879" lon="-0.44833">
        <ele>431.29</ele>
        <time>2016-12-11T08:09:39Z</time>
      </trkpt>
      <trkpt lat="43.08787" lon="-0.4483">
        <ele>431.29</ele>
        <time>2016-12-11T08:09:40Z</time>
      </trkpt>
      <trkpt lat="43.08777" lon="-0.44809">
        <ele>430.81</ele>
        <time>2016-12-11T08:09:45Z</time>
      </trkpt>
      <trkpt lat="43.08771" lon="-0.4479">
        <ele>430.33</ele>
        <time>2016-12-11T08:09:48Z</time>
      </trkpt>
      <trkpt lat="43.08765" lon="-0.44771">
        <ele>429.85</ele>
        <time>2016-12-11T08:09:51Z</time>
      </trkpt>
      <trkpt lat="43.08763" lon="-0.44764">
        <ele>430.33</ele>
        <time>2016-12-11T08:09:52Z</time>
      </trkpt>
      <trkpt lat="43.08762" lon="-0.44757">
        <ele>429.85</ele>
        <time>2016-12-11T08:09:53Z</time>
      </trkpt>
      <trkpt lat="43.08761" lon="-0.44751">
        <ele>429.85</ele>
        <time>2016-12-11T08:09:54Z</time>
      </trkpt>
      <trkpt lat="43.0876" lon="-0.44744">
        <ele>429.37</ele>
        <time>2016-12-11T08:09:55Z</time>
      </trkpt>
      <trkpt lat="43.0876" lon="-0.44738">
        <ele>429.85</ele>
        <time>2016-12-11T08:09:56Z</time>
      </trkpt>
      <trkpt lat="43.0876" lon="-0.44732">
        <ele>429.85</ele>
        <time>2016-12-11T08:09:57Z</time>
      </trkpt>
      <trkpt lat="43.0876" lon="-0.44726">
        <ele>430.33</ele>
        <time>2016-12-11T08:09:58Z</time>
      </trkpt>
      <trkpt lat="43.0876" lon="-0.44719">
        <ele>429.85</ele>
        <time>2016-12-11T08:09:59Z</time>
      </trkpt>
      <trkpt lat="43.08759" lon="-0.44712">
        <ele>429.37</ele>
        <time>2016-12-11T08:10:00Z</time>
      </trkpt>
      <trkpt lat="43.08757" lon="-0.44637">
        <ele>429.85</ele>
        <time>2016-12-11T08:10:12Z</time>
      </trkpt>
      <trkpt lat="43.08738" lon="-0.44605">
        <ele>430.81</ele>
        <time>2016-12-11T08:10:20Z</time>
      </trkpt>
      <trkpt lat="43.08727" lon="-0.44595">
        <ele>430.81</ele>
        <time>2016-12-11T08:10:23Z</time>
      </trkpt>
      <trkpt lat="43.08713" lon="-0.44581">
        <ele>430.81</ele>
        <time>2016-12-11T08:10:27Z</time>
      </trkpt>
      <trkpt lat="43.0871" lon="-0.44576">
        <ele>430.81</ele>
        <time>2016-12-11T08:10:28Z</time>
      </trkpt>
      <trkpt lat="43.08709" lon="-0.44571">
        <ele>430.81</ele>
        <time>2016-12-11T08:10:29Z</time>
      </trkpt>
      <trkpt lat="43.08704" lon="-0.44545">
        <ele>431.77</ele>
        <time>2016-12-11T08:10:34Z</time>
      </trkpt>
      <trkpt lat="43.08693" lon="-0.445">
        <ele>432.25</ele>
        <time>2016-12-11T08:10:44Z</time>
      </trkpt>
      <trkpt lat="43.0869" lon="-0.44497">
        <ele>432.25</ele>
        <time>2016-12-11T08:10:45Z</time>
      </trkpt>
      <trkpt lat="43.08661" lon="-0.44481">
        <ele>433.21</ele>
        <time>2016-12-11T08:10:55Z</time>
      </trkpt>
      <trkpt lat="43.08647" lon="-0.44456">
        <ele>433.69</ele>
        <time>2016-12-11T08:11:00Z</time>
      </trkpt>
      <trkpt lat="43.08644" lon="-0.44452">
        <ele>433.69</ele>
        <time>2016-12-11T08:11:01Z</time>
      </trkpt>
      <trkpt lat="43.08641" lon="-0.44446">
        <ele>433.69</ele>
        <time>2016-12-11T08:11:02Z</time>
      </trkpt>
      <trkpt lat="43.08628" lon="-0.44421">
        <ele>433.21</ele>
        <time>2016-12-11T08:11:07Z</time>
      </trkpt>
      <trkpt lat="43.08626" lon="-0.44415">
        <ele>434.17</ele>
        <time>2016-12-11T08:11:08Z</time>
      </trkpt>
      <trkpt lat="43.08621" lon="-0.44398">
        <ele>434.17</ele>
        <time>2016-12-11T08:11:11Z</time>
      </trkpt>
      <trkpt lat="43.08606" lon="-0.44355">
        <ele>434.65</ele>
        <time>2016-12-11T08:11:21Z</time>
      </trkpt>
      <trkpt lat="43.08605" lon="-0.44355">
        <ele>435.13</ele>
        <time>2016-12-11T08:11:22Z</time>
      </trkpt>
      <trkpt lat="43.08603" lon="-0.44356">
        <ele>434.65</ele>
        <time>2016-12-11T08:11:23Z</time>
      </trkpt>
      <trkpt lat="43.08602" lon="-0.44356">
        <ele>435.13</ele>
        <time>2016-12-11T08:11:24Z</time>
      </trkpt>
      <trkpt lat="43.086" lon="-0.44356">
        <ele>435.13</ele>
        <time>2016-12-11T08:11:25Z</time>
      </trkpt>
      <trkpt lat="43.08599" lon="-0.44356">
        <ele>434.65</ele>
        <time>2016-12-11T08:11:26Z</time>
      </trkpt>
      <trkpt lat="43.08598" lon="-0.44357">
        <ele>434.65</ele>
        <time>2016-12-11T08:11:27Z</time>
      </trkpt>
      <trkpt lat="43.08596" lon="-0.44358">
        <ele>434.65</ele>
        <time>2016-12-11T08:11:28Z</time>
      </trkpt>
      <trkpt lat="43.08595" lon="-0.44359">
        <ele>434.65</ele>
        <time>2016-12-11T08:11:29Z</time>
      </trkpt>
      <trkpt lat="43.08593" lon="-0.4436">
        <ele>435.13</ele>
        <time>2016-12-11T08:11:30Z</time>
      </trkpt>
      <trkpt lat="43.08592" lon="-0.44362">
        <ele>435.13</ele>
        <time>2016-12-11T08:11:31Z</time>
      </trkpt>
      <trkpt lat="43.0859" lon="-0.44363">
        <ele>434.65</ele>
        <time>2016-12-11T08:11:32Z</time>
      </trkpt>
      <trkpt lat="43.08588" lon="-0.44364">
        <ele>435.13</ele>
        <time>2016-12-11T08:11:33Z</time>
      </trkpt>
      <trkpt lat="43.08586" lon="-0.44366">
        <ele>435.61</ele>
        <time>2016-12-11T08:11:34Z</time>
      </trkpt>
      <trkpt lat="43.08584" lon="-0.44367">
        <ele>435.61</ele>
        <time>2016-12-11T08:11:35Z</time>
      </trkpt>
      <trkpt lat="43.08567" lon="-0.44395">
        <ele>438.02</ele>
        <time>2016-12-11T08:11:47Z</time>
      </trkpt>
      <trkpt lat="43.08561" lon="-0.44421">
        <ele>440.9</ele>
        <time>2016-12-11T08:11:55Z</time>
      </trkpt>
      <trkpt lat="43.0856" lon="-0.44424">
        <ele>440.9</ele>
        <time>2016-12-11T08:11:56Z</time>
      </trkpt>
      <trkpt lat="43.08558" lon="-0.4445">
        <ele>444.27</ele>
        <time>2016-12-11T08:12:04Z</time>
      </trkpt>
      <trkpt lat="43.08558" lon="-0.44464">
        <ele>446.19</ele>
        <time>2016-12-11T08:12:09Z</time>
      </trkpt>
      <trkpt lat="43.08567" lon="-0.44503">
        <ele>449.55</ele>
        <time>2016-12-11T08:12:22Z</time>
      </trkpt>
      <trkpt lat="43.08572" lon="-0.44529">
        <ele>451.48</ele>
        <time>2016-12-11T08:12:31Z</time>
      </trkpt>
      <trkpt lat="43.08581" lon="-0.44553">
        <ele>453.4</ele>
        <time>2016-12-11T08:12:40Z</time>
      </trkpt>
      <trkpt lat="43.08581" lon="-0.44556">
        <ele>453.88</ele>
        <time>2016-12-11T08:12:41Z</time>
      </trkpt>
      <trkpt lat="43.08582" lon="-0.44564">
        <ele>454.36</ele>
        <time>2016-12-11T08:12:44Z</time>
      </trkpt>
      <trkpt lat="43.08583" lon="-0.44566">
        <ele>454.84</ele>
        <time>2016-12-11T08:12:45Z</time>
      </trkpt>
      <trkpt lat="43.08586" lon="-0.44573">
        <ele>455.32</ele>
        <time>2016-12-11T08:12:48Z</time>
      </trkpt>
      <trkpt lat="43.08587" lon="-0.44576">
        <ele>455.8</ele>
        <time>2016-12-11T08:12:49Z</time>
      </trkpt>
      <trkpt lat="43.08589" lon="-0.44578">
        <ele>455.8</ele>
        <time>2016-12-11T08:12:50Z</time>
      </trkpt>
      <trkpt lat="43.0859" lon="-0.44581">
        <ele>455.8</ele>
        <time>2016-12-11T08:12:51Z</time>
      </trkpt>
      <trkpt lat="43.0859" lon="-0.44584">
        <ele>455.8</ele>
        <time>2016-12-11T08:12:52Z</time>
      </trkpt>
      <trkpt lat="43.08591" lon="-0.44587">
        <ele>456.76</ele>
        <time>2016-12-11T08:12:53Z</time>
      </trkpt>
      <trkpt lat="43.08599" lon="-0.44612">
        <ele>458.69</ele>
        <time>2016-12-11T08:13:03Z</time>
      </trkpt>
      <trkpt lat="43.08599" lon="-0.44614">
        <ele>459.17</ele>
        <time>2016-12-11T08:13:04Z</time>
      </trkpt>
      <trkpt lat="43.08603" lon="-0.4464">
        <ele>461.57</ele>
        <time>2016-12-11T08:13:16Z</time>
      </trkpt>
      <trkpt lat="43.08612" lon="-0.44661">
        <ele>463.01</ele>
        <time>2016-12-11T08:13:27Z</time>
      </trkpt>
      <trkpt lat="43.08614" lon="-0.44666">
        <ele>463.97</ele>
        <time>2016-12-11T08:13:29Z</time>
      </trkpt>
      <trkpt lat="43.08624" lon="-0.44679">
        <ele>465.9</ele>
        <time>2016-12-11T08:13:37Z</time>
      </trkpt>
      <trkpt lat="43.0864" lon="-0.44695">
        <ele>468.3</ele>
        <time>2016-12-11T08:13:48Z</time>
      </trkpt>
      <trkpt lat="43.08652" lon="-0.44715">
        <ele>471.66</ele>
        <time>2016-12-11T08:13:58Z</time>
      </trkpt>
      <trkpt lat="43.08661" lon="-0.44738">
        <ele>474.07</ele>
        <time>2016-12-11T08:14:08Z</time>
      </trkpt>
      <trkpt lat="43.0867" lon="-0.44747">
        <ele>475.51</ele>
        <time>2016-12-11T08:14:14Z</time>
      </trkpt>
      <trkpt lat="43.08671" lon="-0.44749">
        <ele>475.51</ele>
        <time>2016-12-11T08:14:15Z</time>
      </trkpt>
      <trkpt lat="43.08672" lon="-0.44751">
        <ele>475.51</ele>
        <time>2016-12-11T08:14:16Z</time>
      </trkpt>
      <trkpt lat="43.08673" lon="-0.44754">
        <ele>476.47</ele>
        <time>2016-12-11T08:14:17Z</time>
      </trkpt>
      <trkpt lat="43.08674" lon="-0.44756">
        <ele>476.47</ele>
        <time>2016-12-11T08:14:18Z</time>
      </trkpt>
      <trkpt lat="43.08676" lon="-0.44758">
        <ele>476.47</ele>
        <time>2016-12-11T08:14:19Z</time>
      </trkpt>
      <trkpt lat="43.08677" lon="-0.44761">
        <ele>476.47</ele>
        <time>2016-12-11T08:14:20Z</time>
      </trkpt>
      <trkpt lat="43.08678" lon="-0.44764">
        <ele>476.95</ele>
        <time>2016-12-11T08:14:21Z</time>
      </trkpt>
      <trkpt lat="43.0868" lon="-0.44767">
        <ele>476.95</ele>
        <time>2016-12-11T08:14:22Z</time>
      </trkpt>
      <trkpt lat="43.08681" lon="-0.44769">
        <ele>476.95</ele>
        <time>2016-12-11T08:14:23Z</time>
      </trkpt>
      <trkpt lat="43.08682" lon="-0.44772">
        <ele>477.43</ele>
        <time>2016-12-11T08:14:24Z</time>
      </trkpt>
      <trkpt lat="43.08691" lon="-0.44803">
        <ele>480.32</ele>
        <time>2016-12-11T08:14:36Z</time>
      </trkpt>
      <trkpt lat="43.08703" lon="-0.44837">
        <ele>483.2</ele>
        <time>2016-12-11T08:14:50Z</time>
      </trkpt>
      <trkpt lat="43.08708" lon="-0.44878">
        <ele>485.6</ele>
        <time>2016-12-11T08:15:02Z</time>
      </trkpt>
      <trkpt lat="43.08712" lon="-0.44885">
        <ele>486.08</ele>
        <time>2016-12-11T08:15:05Z</time>
      </trkpt>
      <trkpt lat="43.08715" lon="-0.44901">
        <ele>487.53</ele>
        <time>2016-12-11T08:15:11Z</time>
      </trkpt>
      <trkpt lat="43.08715" lon="-0.44905">
        <ele>487.53</ele>
        <time>2016-12-11T08:15:12Z</time>
      </trkpt>
      <trkpt lat="43.08715" lon="-0.44907">
        <ele>487.53</ele>
        <time>2016-12-11T08:15:13Z</time>
      </trkpt>
      <trkpt lat="43.08714" lon="-0.4491">
        <ele>488.01</ele>
        <time>2016-12-11T08:15:14Z</time>
      </trkpt>
      <trkpt lat="43.0871" lon="-0.44917">
        <ele>488.49</ele>
        <time>2016-12-11T08:15:16Z</time>
      </trkpt>
      <trkpt lat="43.08707" lon="-0.44918">
        <ele>488.49</ele>
        <time>2016-12-11T08:15:18Z</time>
      </trkpt>
      <trkpt lat="43.087" lon="-0.44912">
        <ele>489.93</ele>
        <time>2016-12-11T08:15:24Z</time>
      </trkpt>
      <trkpt lat="43.08698" lon="-0.44908">
        <ele>490.41</ele>
        <time>2016-12-11T08:15:26Z</time>
      </trkpt>
      <trkpt lat="43.08694" lon="-0.44898">
        <ele>491.37</ele>
        <time>2016-12-11T08:15:30Z</time>
      </trkpt>
      <trkpt lat="43.08679" lon="-0.44871">
        <ele>494.74</ele>
        <time>2016-12-11T08:15:44Z</time>
      </trkpt>
      <trkpt lat="43.08676" lon="-0.44867">
        <ele>495.22</ele>
        <time>2016-12-11T08:15:46Z</time>
      </trkpt>
      <trkpt lat="43.08672" lon="-0.44859">
        <ele>496.18</ele>
        <time>2016-12-11T08:15:50Z</time>
      </trkpt>
      <trkpt lat="43.08657" lon="-0.44833">
        <ele>499.54</ele>
        <time>2016-12-11T08:16:02Z</time>
      </trkpt>
      <trkpt lat="43.08643" lon="-0.44813">
        <ele>501.46</ele>
        <time>2016-12-11T08:16:13Z</time>
      </trkpt>
      <trkpt lat="43.08618" lon="-0.44792">
        <ele>504.35</ele>
        <time>2016-12-11T08:16:27Z</time>
      </trkpt>
      <trkpt lat="43.08593" lon="-0.44785">
        <ele>507.71</ele>
        <time>2016-12-11T08:16:41Z</time>
      </trkpt>
      <trkpt lat="43.08576" lon="-0.44777">
        <ele>509.16</ele>
        <time>2016-12-11T08:16:50Z</time>
      </trkpt>
      <trkpt lat="43.08559" lon="-0.44756">
        <ele>513</ele>
        <time>2016-12-11T08:17:02Z</time>
      </trkpt>
      <trkpt lat="43.08555" lon="-0.44747">
        <ele>513.48</ele>
        <time>2016-12-11T08:17:06Z</time>
      </trkpt>
      <trkpt lat="43.08542" lon="-0.44718">
        <ele>515.88</ele>
        <time>2016-12-11T08:17:19Z</time>
      </trkpt>
      <trkpt lat="43.08531" lon="-0.44691">
        <ele>519.25</ele>
        <time>2016-12-11T08:17:31Z</time>
      </trkpt>
      <trkpt lat="43.0852" lon="-0.44675">
        <ele>520.69</ele>
        <time>2016-12-11T08:17:40Z</time>
      </trkpt>
      <trkpt lat="43.08508" lon="-0.44675">
        <ele>522.61</ele>
        <time>2016-12-11T08:17:46Z</time>
      </trkpt>
      <trkpt lat="43.08505" lon="-0.44677">
        <ele>522.61</ele>
        <time>2016-12-11T08:17:48Z</time>
      </trkpt>
      <trkpt lat="43.08501" lon="-0.44684">
        <ele>524.54</ele>
        <time>2016-12-11T08:17:52Z</time>
      </trkpt>
      <trkpt lat="43.08503" lon="-0.44693">
        <ele>525.5</ele>
        <time>2016-12-11T08:17:57Z</time>
      </trkpt>
      <trkpt lat="43.08506" lon="-0.44698">
        <ele>526.46</ele>
        <time>2016-12-11T08:18:00Z</time>
      </trkpt>
      <trkpt lat="43.08517" lon="-0.44719">
        <ele>529.34</ele>
        <time>2016-12-11T08:18:12Z</time>
      </trkpt>
      <trkpt lat="43.08525" lon="-0.44752">
        <ele>532.71</ele>
        <time>2016-12-11T08:18:26Z</time>
      </trkpt>
      <trkpt lat="43.0853" lon="-0.44776">
        <ele>535.11</ele>
        <time>2016-12-11T08:18:36Z</time>
      </trkpt>
      <trkpt lat="43.08532" lon="-0.44791">
        <ele>536.55</ele>
        <time>2016-12-11T08:18:42Z</time>
      </trkpt>
      <trkpt lat="43.08537" lon="-0.44805">
        <ele>538.48</ele>
        <time>2016-12-11T08:18:49Z</time>
      </trkpt>
      <trkpt lat="43.0854" lon="-0.44818">
        <ele>538.96</ele>
        <time>2016-12-11T08:18:55Z</time>
      </trkpt>
      <trkpt lat="43.08543" lon="-0.44846">
        <ele>541.84</ele>
        <time>2016-12-11T08:19:08Z</time>
      </trkpt>
      <trkpt lat="43.08528" lon="-0.4487">
        <ele>544.24</ele>
        <time>2016-12-11T08:19:20Z</time>
      </trkpt>
      <trkpt lat="43.08516" lon="-0.44896">
        <ele>547.13</ele>
        <time>2016-12-11T08:19:32Z</time>
      </trkpt>
      <trkpt lat="43.08516" lon="-0.44903">
        <ele>548.09</ele>
        <time>2016-12-11T08:19:35Z</time>
      </trkpt>
      <trkpt lat="43.08517" lon="-0.44913">
        <ele>549.53</ele>
        <time>2016-12-11T08:19:40Z</time>
      </trkpt>
      <trkpt lat="43.08519" lon="-0.44917">
        <ele>550.01</ele>
        <time>2016-12-11T08:19:42Z</time>
      </trkpt>
      <trkpt lat="43.08527" lon="-0.44941">
        <ele>552.9</ele>
        <time>2016-12-11T08:19:54Z</time>
      </trkpt>
      <trkpt lat="43.0853" lon="-0.44954">
        <ele>554.34</ele>
        <time>2016-12-11T08:20:00Z</time>
      </trkpt>
      <trkpt lat="43.08531" lon="-0.44968">
        <ele>556.26</ele>
        <time>2016-12-11T08:20:06Z</time>
      </trkpt>
      <trkpt lat="43.08533" lon="-0.44986">
        <ele>557.7</ele>
        <time>2016-12-11T08:20:13Z</time>
      </trkpt>
      <trkpt lat="43.08534" lon="-0.44991">
        <ele>558.18</ele>
        <time>2016-12-11T08:20:15Z</time>
      </trkpt>
      <trkpt lat="43.08537" lon="-0.45004">
        <ele>559.62</ele>
        <time>2016-12-11T08:20:21Z</time>
      </trkpt>
      <trkpt lat="43.08539" lon="-0.45011">
        <ele>559.62</ele>
        <time>2016-12-11T08:20:24Z</time>
      </trkpt>
      <trkpt lat="43.0854" lon="-0.4502">
        <ele>560.59</ele>
        <time>2016-12-11T08:20:28Z</time>
      </trkpt>
      <trkpt lat="43.08546" lon="-0.45053">
        <ele>563.95</ele>
        <time>2016-12-11T08:20:42Z</time>
      </trkpt>
      <trkpt lat="43.08554" lon="-0.45079">
        <ele>567.32</ele>
        <time>2016-12-11T08:20:54Z</time>
      </trkpt>
      <trkpt lat="43.08561" lon="-0.45089">
        <ele>568.28</ele>
        <time>2016-12-11T08:21:00Z</time>
      </trkpt>
      <trkpt lat="43.08566" lon="-0.45106">
        <ele>570.2</ele>
        <time>2016-12-11T08:21:08Z</time>
      </trkpt>
      <trkpt lat="43.08579" lon="-0.45129">
        <ele>572.12</ele>
        <time>2016-12-11T08:21:21Z</time>
      </trkpt>
      <trkpt lat="43.0858" lon="-0.45131">
        <ele>572.6</ele>
        <time>2016-12-11T08:21:22Z</time>
      </trkpt>
      <trkpt lat="43.0859" lon="-0.45162">
        <ele>575.49</ele>
        <time>2016-12-11T08:21:35Z</time>
      </trkpt>
      <trkpt lat="43.08602" lon="-0.45184">
        <ele>578.37</ele>
        <time>2016-12-11T08:21:47Z</time>
      </trkpt>
      <trkpt lat="43.08616" lon="-0.45213">
        <ele>581.25</ele>
        <time>2016-12-11T08:22:00Z</time>
      </trkpt>
      <trkpt lat="43.08627" lon="-0.45238">
        <ele>584.62</ele>
        <time>2016-12-11T08:22:13Z</time>
      </trkpt>
      <trkpt lat="43.08631" lon="-0.45248">
        <ele>585.58</ele>
        <time>2016-12-11T08:22:18Z</time>
      </trkpt>
      <trkpt lat="43.08647" lon="-0.45268">
        <ele>589.43</ele>
        <time>2016-12-11T08:22:31Z</time>
      </trkpt>
      <trkpt lat="43.08658" lon="-0.45287">
        <ele>591.83</ele>
        <time>2016-12-11T08:22:42Z</time>
      </trkpt>
      <trkpt lat="43.08659" lon="-0.45289">
        <ele>591.83</ele>
        <time>2016-12-11T08:22:43Z</time>
      </trkpt>
      <trkpt lat="43.08675" lon="-0.45314">
        <ele>595.19</ele>
        <time>2016-12-11T08:22:58Z</time>
      </trkpt>
      <trkpt lat="43.0868" lon="-0.45323">
        <ele>596.15</ele>
        <time>2016-12-11T08:23:03Z</time>
      </trkpt>
      <trkpt lat="43.08687" lon="-0.45336">
        <ele>598.08</ele>
        <time>2016-12-11T08:23:10Z</time>
      </trkpt>
      <trkpt lat="43.08693" lon="-0.45346">
        <ele>599.52</ele>
        <time>2016-12-11T08:23:16Z</time>
      </trkpt>
      <trkpt lat="43.08708" lon="-0.45367">
        <ele>602.4</ele>
        <time>2016-12-11T08:23:29Z</time>
      </trkpt>
      <trkpt lat="43.08722" lon="-0.45382">
        <ele>605.29</ele>
        <time>2016-12-11T08:23:39Z</time>
      </trkpt>
      <trkpt lat="43.08742" lon="-0.45397">
        <ele>608.17</ele>
        <time>2016-12-11T08:23:53Z</time>
      </trkpt>
      <trkpt lat="43.08754" lon="-0.45402">
        <ele>610.09</ele>
        <time>2016-12-11T08:24:01Z</time>
      </trkpt>
      <trkpt lat="43.08772" lon="-0.45416">
        <ele>611.54</ele>
        <time>2016-12-11T08:24:14Z</time>
      </trkpt>
      <trkpt lat="43.08785" lon="-0.45437">
        <ele>613.94</ele>
        <time>2016-12-11T08:24:27Z</time>
      </trkpt>
      <trkpt lat="43.08788" lon="-0.45458">
        <ele>614.9</ele>
        <time>2016-12-11T08:24:43Z</time>
      </trkpt>
      <trkpt lat="43.08788" lon="-0.45464">
        <ele>615.38</ele>
        <time>2016-12-11T08:24:55Z</time>
      </trkpt>
      <trkpt lat="43.08788" lon="-0.45464">
        <ele>614.9</ele>
        <time>2016-12-11T08:25:17Z</time>
      </trkpt>
      <trkpt lat="43.08788" lon="-0.45465">
        <ele>614.9</ele>
        <time>2016-12-11T08:25:45Z</time>
      </trkpt>
      <trkpt lat="43.08787" lon="-0.45466">
        <ele>615.38</ele>
        <time>2016-12-11T08:26:04Z</time>
      </trkpt>
      <trkpt lat="43.08787" lon="-0.45465">
        <ele>615.86</ele>
        <time>2016-12-11T08:26:29Z</time>
      </trkpt>
      <trkpt lat="43.08787" lon="-0.45465">
        <ele>615.86</ele>
        <time>2016-12-11T08:26:51Z</time>
      </trkpt>
      <trkpt lat="43.08787" lon="-0.45465">
        <ele>615.86</ele>
        <time>2016-12-11T08:27:22Z</time>
      </trkpt>
      <trkpt lat="43.08788" lon="-0.45466">
        <ele>615.86</ele>
        <time>2016-12-11T08:27:48Z</time>
      </trkpt>
      <trkpt lat="43.08786" lon="-0.45466">
        <ele>616.34</ele>
        <time>2016-12-11T08:27:51Z</time>
      </trkpt>
      <trkpt lat="43.08766" lon="-0.45466">
        <ele>616.34</ele>
        <time>2016-12-11T08:28:03Z</time>
      </trkpt>
      <trkpt lat="43.08743" lon="-0.45458">
        <ele>618.75</ele>
        <time>2016-12-11T08:28:15Z</time>
      </trkpt>
      <trkpt lat="43.08729" lon="-0.45452">
        <ele>619.71</ele>
        <time>2016-12-11T08:28:23Z</time>
      </trkpt>
      <trkpt lat="43.08723" lon="-0.45453">
        <ele>620.67</ele>
        <time>2016-12-11T08:28:27Z</time>
      </trkpt>
      <trkpt lat="43.08693" lon="-0.45476">
        <ele>621.63</ele>
        <time>2016-12-11T08:28:39Z</time>
      </trkpt>
      <trkpt lat="43.08648" lon="-0.45517">
        <ele>622.59</ele>
        <time>2016-12-11T08:28:55Z</time>
      </trkpt>
      <trkpt lat="43.08633" lon="-0.45556">
        <ele>624.03</ele>
        <time>2016-12-11T08:29:05Z</time>
      </trkpt>
      <trkpt lat="43.08632" lon="-0.45578">
        <ele>624.03</ele>
        <time>2016-12-11T08:29:10Z</time>
      </trkpt>
      <trkpt lat="43.08637" lon="-0.45627">
        <ele>626.92</ele>
        <time>2016-12-11T08:29:23Z</time>
      </trkpt>
      <trkpt lat="43.08636" lon="-0.45635">
        <ele>627.88</ele>
        <time>2016-12-11T08:29:26Z</time>
      </trkpt>
      <trkpt lat="43.08637" lon="-0.45641">
        <ele>628.84</ele>
        <time>2016-12-11T08:29:29Z</time>
      </trkpt>
      <trkpt lat="43.08636" lon="-0.45649">
        <ele>630.28</ele>
        <time>2016-12-11T08:29:33Z</time>
      </trkpt>
      <trkpt lat="43.08629" lon="-0.4568">
        <ele>633.65</ele>
        <time>2016-12-11T08:29:45Z</time>
      </trkpt>
      <trkpt lat="43.08619" lon="-0.45697">
        <ele>635.09</ele>
        <time>2016-12-11T08:29:52Z</time>
      </trkpt>
      <trkpt lat="43.08605" lon="-0.45723">
        <ele>637.49</ele>
        <time>2016-12-11T08:30:04Z</time>
      </trkpt>
      <trkpt lat="43.08597" lon="-0.45759">
        <ele>639.41</ele>
        <time>2016-12-11T08:30:19Z</time>
      </trkpt>
      <trkpt lat="43.08595" lon="-0.45794">
        <ele>641.82</ele>
        <time>2016-12-11T08:30:33Z</time>
      </trkpt>
      <trkpt lat="43.08595" lon="-0.45798">
        <ele>642.3</ele>
        <time>2016-12-11T08:30:35Z</time>
      </trkpt>
      <trkpt lat="43.08593" lon="-0.45807">
        <ele>643.74</ele>
        <time>2016-12-11T08:30:39Z</time>
      </trkpt>
      <trkpt lat="43.08589" lon="-0.45834">
        <ele>646.14</ele>
        <time>2016-12-11T08:30:51Z</time>
      </trkpt>
      <trkpt lat="43.08591" lon="-0.45846">
        <ele>648.07</ele>
        <time>2016-12-11T08:30:57Z</time>
      </trkpt>
      <trkpt lat="43.08599" lon="-0.4587">
        <ele>650.47</ele>
        <time>2016-12-11T08:31:09Z</time>
      </trkpt>
      <trkpt lat="43.08603" lon="-0.45886">
        <ele>651.91</ele>
        <time>2016-12-11T08:31:17Z</time>
      </trkpt>
      <trkpt lat="43.08603" lon="-0.45896">
        <ele>653.35</ele>
        <time>2016-12-11T08:31:22Z</time>
      </trkpt>
      <trkpt lat="43.08611" lon="-0.4591">
        <ele>654.8</ele>
        <time>2016-12-11T08:31:30Z</time>
      </trkpt>
      <trkpt lat="43.08613" lon="-0.45922">
        <ele>655.28</ele>
        <time>2016-12-11T08:31:34Z</time>
      </trkpt>
      <trkpt lat="43.08619" lon="-0.45933">
        <ele>656.24</ele>
        <time>2016-12-11T08:31:39Z</time>
      </trkpt>
      <trkpt lat="43.08627" lon="-0.45963">
        <ele>658.16</ele>
        <time>2016-12-11T08:31:50Z</time>
      </trkpt>
      <trkpt lat="43.08632" lon="-0.45992">
        <ele>659.12</ele>
        <time>2016-12-11T08:31:59Z</time>
      </trkpt>
      <trkpt lat="43.08641" lon="-0.46019">
        <ele>661.52</ele>
        <time>2016-12-11T08:32:12Z</time>
      </trkpt>
      <trkpt lat="43.08643" lon="-0.46024">
        <ele>662.49</ele>
        <time>2016-12-11T08:32:14Z</time>
      </trkpt>
      <trkpt lat="43.08646" lon="-0.46032">
        <ele>662.97</ele>
        <time>2016-12-11T08:32:18Z</time>
      </trkpt>
      <trkpt lat="43.08655" lon="-0.46044">
        <ele>665.85</ele>
        <time>2016-12-11T08:32:28Z</time>
      </trkpt>
      <trkpt lat="43.08657" lon="-0.46051">
        <ele>667.29</ele>
        <time>2016-12-11T08:32:31Z</time>
      </trkpt>
      <trkpt lat="43.08662" lon="-0.46058">
        <ele>667.77</ele>
        <time>2016-12-11T08:32:35Z</time>
      </trkpt>
      <trkpt lat="43.0867" lon="-0.46073">
        <ele>670.18</ele>
        <time>2016-12-11T08:32:42Z</time>
      </trkpt>
      <trkpt lat="43.08677" lon="-0.46093">
        <ele>671.62</ele>
        <time>2016-12-11T08:32:49Z</time>
      </trkpt>
      <trkpt lat="43.08685" lon="-0.46102">
        <ele>673.06</ele>
        <time>2016-12-11T08:32:55Z</time>
      </trkpt>
      <trkpt lat="43.08698" lon="-0.46116">
        <ele>677.39</ele>
        <time>2016-12-11T08:33:07Z</time>
      </trkpt>
      <trkpt lat="43.08708" lon="-0.46131">
        <ele>679.31</ele>
        <time>2016-12-11T08:33:18Z</time>
      </trkpt>
      <trkpt lat="43.08716" lon="-0.46144">
        <ele>682.19</ele>
        <time>2016-12-11T08:33:28Z</time>
      </trkpt>
      <trkpt lat="43.08722" lon="-0.4615">
        <ele>683.15</ele>
        <time>2016-12-11T08:33:34Z</time>
      </trkpt>
      <trkpt lat="43.08726" lon="-0.46158">
        <ele>684.6</ele>
        <time>2016-12-11T08:33:39Z</time>
      </trkpt>
      <trkpt lat="43.0873" lon="-0.46162">
        <ele>685.08</ele>
        <time>2016-12-11T08:33:43Z</time>
      </trkpt>
      <trkpt lat="43.08732" lon="-0.46169">
        <ele>686.04</ele>
        <time>2016-12-11T08:33:47Z</time>
      </trkpt>
      <trkpt lat="43.08735" lon="-0.46173">
        <ele>687</ele>
        <time>2016-12-11T08:33:51Z</time>
      </trkpt>
      <trkpt lat="43.08737" lon="-0.46179">
        <ele>687.96</ele>
        <time>2016-12-11T08:33:56Z</time>
      </trkpt>
      <trkpt lat="43.08733" lon="-0.46186">
        <ele>687.96</ele>
        <time>2016-12-11T08:34:01Z</time>
      </trkpt>
      <trkpt lat="43.08724" lon="-0.46185">
        <ele>688.44</ele>
        <time>2016-12-11T08:34:11Z</time>
      </trkpt>
      <trkpt lat="43.08719" lon="-0.46187">
        <ele>688.92</ele>
        <time>2016-12-11T08:34:16Z</time>
      </trkpt>
      <trkpt lat="43.08719" lon="-0.46207">
        <ele>692.29</ele>
        <time>2016-12-11T08:34:26Z</time>
      </trkpt>
      <trkpt lat="43.0872" lon="-0.46213">
        <ele>693.25</ele>
        <time>2016-12-11T08:34:30Z</time>
      </trkpt>
      <trkpt lat="43.08721" lon="-0.46219">
        <ele>693.25</ele>
        <time>2016-12-11T08:34:34Z</time>
      </trkpt>
      <trkpt lat="43.08721" lon="-0.46227">
        <ele>694.21</ele>
        <time>2016-12-11T08:34:38Z</time>
      </trkpt>
      <trkpt lat="43.08718" lon="-0.46236">
        <ele>695.65</ele>
        <time>2016-12-11T08:34:43Z</time>
      </trkpt>
      <trkpt lat="43.08716" lon="-0.4624">
        <ele>696.61</ele>
        <time>2016-12-11T08:34:47Z</time>
      </trkpt>
      <trkpt lat="43.08715" lon="-0.46246">
        <ele>697.57</ele>
        <time>2016-12-11T08:34:51Z</time>
      </trkpt>
      <trkpt lat="43.08709" lon="-0.46253">
        <ele>699.02</ele>
        <time>2016-12-11T08:34:58Z</time>
      </trkpt>
      <trkpt lat="43.08698" lon="-0.46258">
        <ele>701.9</ele>
        <time>2016-12-11T08:35:09Z</time>
      </trkpt>
      <trkpt lat="43.08689" lon="-0.4626">
        <ele>704.3</ele>
        <time>2016-12-11T08:35:16Z</time>
      </trkpt>
      <trkpt lat="43.08674" lon="-0.46263">
        <ele>706.71</ele>
        <time>2016-12-11T08:35:29Z</time>
      </trkpt>
      <trkpt lat="43.08673" lon="-0.46263">
        <ele>706.71</ele>
        <time>2016-12-11T08:35:30Z</time>
      </trkpt>
      <trkpt lat="43.08671" lon="-0.46263">
        <ele>707.19</ele>
        <time>2016-12-11T08:35:32Z</time>
      </trkpt>
      <trkpt lat="43.08664" lon="-0.46264">
        <ele>709.11</ele>
        <time>2016-12-11T08:35:38Z</time>
      </trkpt>
      <trkpt lat="43.0866" lon="-0.46262">
        <ele>709.59</ele>
        <time>2016-12-11T08:35:41Z</time>
      </trkpt>
      <trkpt lat="43.08643" lon="-0.46258">
        <ele>711.99</ele>
        <time>2016-12-11T08:35:55Z</time>
      </trkpt>
      <trkpt lat="43.08635" lon="-0.46252">
        <ele>712.95</ele>
        <time>2016-12-11T08:36:03Z</time>
      </trkpt>
      <trkpt lat="43.08627" lon="-0.46251">
        <ele>714.4</ele>
        <time>2016-12-11T08:36:09Z</time>
      </trkpt>
      <trkpt lat="43.08623" lon="-0.46251">
        <ele>715.36</ele>
        <time>2016-12-11T08:36:13Z</time>
      </trkpt>
      <trkpt lat="43.08621" lon="-0.46254">
        <ele>716.32</ele>
        <time>2016-12-11T08:36:16Z</time>
      </trkpt>
      <trkpt lat="43.08621" lon="-0.46266">
        <ele>718.24</ele>
        <time>2016-12-11T08:36:24Z</time>
      </trkpt>
      <trkpt lat="43.08627" lon="-0.46281">
        <ele>721.13</ele>
        <time>2016-12-11T08:36:37Z</time>
      </trkpt>
      <trkpt lat="43.08632" lon="-0.46291">
        <ele>722.57</ele>
        <time>2016-12-11T08:36:45Z</time>
      </trkpt>
      <trkpt lat="43.08633" lon="-0.463">
        <ele>724.01</ele>
        <time>2016-12-11T08:36:51Z</time>
      </trkpt>
      <trkpt lat="43.08641" lon="-0.46316">
        <ele>725.93</ele>
        <time>2016-12-11T08:37:03Z</time>
      </trkpt>
      <trkpt lat="43.08651" lon="-0.46344">
        <ele>728.34</ele>
        <time>2016-12-11T08:37:18Z</time>
      </trkpt>
      <trkpt lat="43.08651" lon="-0.46348">
        <ele>728.34</ele>
        <time>2016-12-11T08:37:21Z</time>
      </trkpt>
      <trkpt lat="43.08653" lon="-0.46354">
        <ele>729.3</ele>
        <time>2016-12-11T08:37:25Z</time>
      </trkpt>
      <trkpt lat="43.08658" lon="-0.46373">
        <ele>730.74</ele>
        <time>2016-12-11T08:37:36Z</time>
      </trkpt>
      <trkpt lat="43.08661" lon="-0.46377">
        <ele>731.22</ele>
        <time>2016-12-11T08:37:40Z</time>
      </trkpt>
      <trkpt lat="43.08662" lon="-0.46382">
        <ele>731.7</ele>
        <time>2016-12-11T08:37:43Z</time>
      </trkpt>
      <trkpt lat="43.08669" lon="-0.46397">
        <ele>735.07</ele>
        <time>2016-12-11T08:37:53Z</time>
      </trkpt>
      <trkpt lat="43.08671" lon="-0.46399">
        <ele>735.07</ele>
        <time>2016-12-11T08:37:56Z</time>
      </trkpt>
      <trkpt lat="43.08675" lon="-0.46406">
        <ele>735.55</ele>
        <time>2016-12-11T08:38:02Z</time>
      </trkpt>
      <trkpt lat="43.08677" lon="-0.46414">
        <ele>736.99</ele>
        <time>2016-12-11T08:38:05Z</time>
      </trkpt>
      <trkpt lat="43.0868" lon="-0.46419">
        <ele>737.47</ele>
        <time>2016-12-11T08:38:08Z</time>
      </trkpt>
      <trkpt lat="43.08681" lon="-0.46423">
        <ele>738.43</ele>
        <time>2016-12-11T08:38:10Z</time>
      </trkpt>
      <trkpt lat="43.08687" lon="-0.46444">
        <ele>739.87</ele>
        <time>2016-12-11T08:38:22Z</time>
      </trkpt>
      <trkpt lat="43.08688" lon="-0.46446">
        <ele>740.35</ele>
        <time>2016-12-11T08:38:23Z</time>
      </trkpt>
      <trkpt lat="43.0869" lon="-0.46448">
        <ele>741.31</ele>
        <time>2016-12-11T08:38:25Z</time>
      </trkpt>
      <trkpt lat="43.08692" lon="-0.46453">
        <ele>741.31</ele>
        <time>2016-12-11T08:38:29Z</time>
      </trkpt>
      <trkpt lat="43.08696" lon="-0.4647">
        <ele>744.68</ele>
        <time>2016-12-11T08:38:42Z</time>
      </trkpt>
      <trkpt lat="43.08696" lon="-0.46485">
        <ele>747.08</ele>
        <time>2016-12-11T08:38:53Z</time>
      </trkpt>
      <trkpt lat="43.08696" lon="-0.46491">
        <ele>748.52</ele>
        <time>2016-12-11T08:39:03Z</time>
      </trkpt>
      <trkpt lat="43.08695" lon="-0.46499">
        <ele>749.49</ele>
        <time>2016-12-11T08:39:11Z</time>
      </trkpt>
      <trkpt lat="43.08693" lon="-0.46511">
        <ele>751.89</ele>
        <time>2016-12-11T08:39:23Z</time>
      </trkpt>
      <trkpt lat="43.08692" lon="-0.46518">
        <ele>752.85</ele>
        <time>2016-12-11T08:39:38Z</time>
      </trkpt>
      <trkpt lat="43.08691" lon="-0.46519">
        <ele>752.85</ele>
        <time>2016-12-11T08:39:50Z</time>
      </trkpt>
      <trkpt lat="43.08691" lon="-0.46522">
        <ele>753.33</ele>
        <time>2016-12-11T08:39:52Z</time>
      </trkpt>
      <trkpt lat="43.08689" lon="-0.46545">
        <ele>755.73</ele>
        <time>2016-12-11T08:40:04Z</time>
      </trkpt>
      <trkpt lat="43.08687" lon="-0.46566">
        <ele>757.66</ele>
        <time>2016-12-11T08:40:16Z</time>
      </trkpt>
      <trkpt lat="43.08686" lon="-0.46572">
        <ele>758.62</ele>
        <time>2016-12-11T08:40:19Z</time>
      </trkpt>
      <trkpt lat="43.08684" lon="-0.46585">
        <ele>760.06</ele>
        <time>2016-12-11T08:40:26Z</time>
      </trkpt>
      <trkpt lat="43.08681" lon="-0.46597">
        <ele>761.02</ele>
        <time>2016-12-11T08:40:33Z</time>
      </trkpt>
      <trkpt lat="43.08678" lon="-0.46611">
        <ele>762.94</ele>
        <time>2016-12-11T08:40:45Z</time>
      </trkpt>
      <trkpt lat="43.08677" lon="-0.46618">
        <ele>763.9</ele>
        <time>2016-12-11T08:40:49Z</time>
      </trkpt>
      <trkpt lat="43.08676" lon="-0.46638">
        <ele>766.79</ele>
        <time>2016-12-11T08:40:59Z</time>
      </trkpt>
      <trkpt lat="43.08677" lon="-0.46658">
        <ele>768.23</ele>
        <time>2016-12-11T08:41:07Z</time>
      </trkpt>
      <trkpt lat="43.08676" lon="-0.46676">
        <ele>770.63</ele>
        <time>2016-12-11T08:41:19Z</time>
      </trkpt>
      <trkpt lat="43.08674" lon="-0.46696">
        <ele>772.56</ele>
        <time>2016-12-11T08:41:31Z</time>
      </trkpt>
      <trkpt lat="43.08675" lon="-0.46713">
        <ele>774.48</ele>
        <time>2016-12-11T08:41:43Z</time>
      </trkpt>
      <trkpt lat="43.08676" lon="-0.4672">
        <ele>775.44</ele>
        <time>2016-12-11T08:41:47Z</time>
      </trkpt>
      <trkpt lat="43.08677" lon="-0.46734">
        <ele>775.92</ele>
        <time>2016-12-11T08:41:53Z</time>
      </trkpt>
      <trkpt lat="43.08678" lon="-0.46745">
        <ele>777.36</ele>
        <time>2016-12-11T08:42:00Z</time>
      </trkpt>
      <trkpt lat="43.08682" lon="-0.46767">
        <ele>779.77</ele>
        <time>2016-12-11T08:42:13Z</time>
      </trkpt>
      <trkpt lat="43.08683" lon="-0.46783">
        <ele>781.69</ele>
        <time>2016-12-11T08:42:25Z</time>
      </trkpt>
      <trkpt lat="43.08685" lon="-0.46788">
        <ele>782.65</ele>
        <time>2016-12-11T08:42:28Z</time>
      </trkpt>
      <trkpt lat="43.0869" lon="-0.46809">
        <ele>785.05</ele>
        <time>2016-12-11T08:42:41Z</time>
      </trkpt>
      <trkpt lat="43.08695" lon="-0.46819">
        <ele>786.98</ele>
        <time>2016-12-11T08:42:49Z</time>
      </trkpt>
      <trkpt lat="43.08701" lon="-0.46833">
        <ele>788.42</ele>
        <time>2016-12-11T08:43:01Z</time>
      </trkpt>
      <trkpt lat="43.08701" lon="-0.46835">
        <ele>788.9</ele>
        <time>2016-12-11T08:43:02Z</time>
      </trkpt>
      <trkpt lat="43.08709" lon="-0.46854">
        <ele>789.38</ele>
        <time>2016-12-11T08:43:12Z</time>
      </trkpt>
      <trkpt lat="43.08711" lon="-0.4686">
        <ele>789.86</ele>
        <time>2016-12-11T08:43:15Z</time>
      </trkpt>
      <trkpt lat="43.0872" lon="-0.46874">
        <ele>791.78</ele>
        <time>2016-12-11T08:43:26Z</time>
      </trkpt>
      <trkpt lat="43.08727" lon="-0.46887">
        <ele>791.78</ele>
        <time>2016-12-11T08:43:33Z</time>
      </trkpt>
      <trkpt lat="43.08731" lon="-0.46899">
        <ele>792.26</ele>
        <time>2016-12-11T08:43:39Z</time>
      </trkpt>
      <trkpt lat="43.08739" lon="-0.46913">
        <ele>793.71</ele>
        <time>2016-12-11T08:43:48Z</time>
      </trkpt>
      <trkpt lat="43.08741" lon="-0.4692">
        <ele>794.67</ele>
        <time>2016-12-11T08:43:52Z</time>
      </trkpt>
      <trkpt lat="43.08747" lon="-0.46933">
        <ele>797.07</ele>
        <time>2016-12-11T08:44:03Z</time>
      </trkpt>
      <trkpt lat="43.0875" lon="-0.46942">
        <ele>798.99</ele>
        <time>2016-12-11T08:44:14Z</time>
      </trkpt>
      <trkpt lat="43.08753" lon="-0.4695">
        <ele>800.92</ele>
        <time>2016-12-11T08:44:25Z</time>
      </trkpt>
      <trkpt lat="43.08755" lon="-0.46959">
        <ele>802.36</ele>
        <time>2016-12-11T08:44:35Z</time>
      </trkpt>
      <trkpt lat="43.08755" lon="-0.46973">
        <ele>805.24</ele>
        <time>2016-12-11T08:44:48Z</time>
      </trkpt>
      <trkpt lat="43.08756" lon="-0.46979">
        <ele>806.68</ele>
        <time>2016-12-11T08:44:57Z</time>
      </trkpt>
      <trkpt lat="43.08759" lon="-0.46989">
        <ele>808.61</ele>
        <time>2016-12-11T08:45:08Z</time>
      </trkpt>
      <trkpt lat="43.08761" lon="-0.47001">
        <ele>810.53</ele>
        <time>2016-12-11T08:45:19Z</time>
      </trkpt>
      <trkpt lat="43.08764" lon="-0.47011">
        <ele>811.97</ele>
        <time>2016-12-11T08:45:29Z</time>
      </trkpt>
      <trkpt lat="43.08765" lon="-0.47019">
        <ele>813.89</ele>
        <time>2016-12-11T08:45:39Z</time>
      </trkpt>
      <trkpt lat="43.0877" lon="-0.4703">
        <ele>815.34</ele>
        <time>2016-12-11T08:45:51Z</time>
      </trkpt>
      <trkpt lat="43.08775" lon="-0.47039">
        <ele>817.74</ele>
        <time>2016-12-11T08:46:02Z</time>
      </trkpt>
      <trkpt lat="43.08776" lon="-0.47042">
        <ele>819.18</ele>
        <time>2016-12-11T08:46:13Z</time>
      </trkpt>
      <trkpt lat="43.08777" lon="-0.47045">
        <ele>820.62</ele>
        <time>2016-12-11T08:46:23Z</time>
      </trkpt>
      <trkpt lat="43.08778" lon="-0.47048">
        <ele>822.55</ele>
        <time>2016-12-11T08:46:32Z</time>
      </trkpt>
      <trkpt lat="43.0878" lon="-0.47063">
        <ele>823.99</ele>
        <time>2016-12-11T08:46:41Z</time>
      </trkpt>
      <trkpt lat="43.08781" lon="-0.47071">
        <ele>825.91</ele>
        <time>2016-12-11T08:46:47Z</time>
      </trkpt>
      <trkpt lat="43.08785" lon="-0.47076">
        <ele>827.35</ele>
        <time>2016-12-11T08:46:59Z</time>
      </trkpt>
      <trkpt lat="43.08792" lon="-0.47082">
        <ele>829.27</ele>
        <time>2016-12-11T08:47:08Z</time>
      </trkpt>
      <trkpt lat="43.08796" lon="-0.47085">
        <ele>829.27</ele>
        <time>2016-12-11T08:47:21Z</time>
      </trkpt>
      <trkpt lat="43.08798" lon="-0.47088">
        <ele>829.76</ele>
        <time>2016-12-11T08:47:36Z</time>
      </trkpt>
      <trkpt lat="43.088" lon="-0.47089">
        <ele>829.27</ele>
        <time>2016-12-11T08:48:06Z</time>
      </trkpt>
      <trkpt lat="43.08801" lon="-0.47089">
        <ele>829.27</ele>
        <time>2016-12-11T08:48:36Z</time>
      </trkpt>
      <trkpt lat="43.088" lon="-0.47089">
        <ele>829.27</ele>
        <time>2016-12-11T08:48:59Z</time>
      </trkpt>
      <trkpt lat="43.08799" lon="-0.47089">
        <ele>828.79</ele>
        <time>2016-12-11T08:49:23Z</time>
      </trkpt>
      <trkpt lat="43.08799" lon="-0.47091">
        <ele>829.27</ele>
        <time>2016-12-11T08:49:44Z</time>
      </trkpt>
      <trkpt lat="43.08799" lon="-0.47091">
        <ele>829.27</ele>
        <time>2016-12-11T08:50:08Z</time>
      </trkpt>
      <trkpt lat="43.088" lon="-0.47091">
        <ele>829.27</ele>
        <time>2016-12-11T08:50:10Z</time>
      </trkpt>
      <trkpt lat="43.08804" lon="-0.47092">
        <ele>828.79</ele>
        <time>2016-12-11T08:50:13Z</time>
      </trkpt>
      <trkpt lat="43.08811" lon="-0.47109">
        <ele>827.35</ele>
        <time>2016-12-11T08:50:19Z</time>
      </trkpt>
      <trkpt lat="43.08814" lon="-0.47136">
        <ele>824.47</ele>
        <time>2016-12-11T08:50:23Z</time>
      </trkpt>
      <trkpt lat="43.08815" lon="-0.47143">
        <ele>823.51</ele>
        <time>2016-12-11T08:50:24Z</time>
      </trkpt>
      <trkpt lat="43.08817" lon="-0.47153">
        <ele>821.58</ele>
        <time>2016-12-11T08:50:28Z</time>
      </trkpt>
      <trkpt lat="43.08818" lon="-0.47151">
        <ele>822.06</ele>
        <time>2016-12-11T08:50:39Z</time>
      </trkpt>
      <trkpt lat="43.08821" lon="-0.47147">
        <ele>821.1</ele>
        <time>2016-12-11T08:50:47Z</time>
      </trkpt>
      <trkpt lat="43.08823" lon="-0.47146">
        <ele>820.62</ele>
        <time>2016-12-11T08:50:48Z</time>
      </trkpt>
      <trkpt lat="43.08825" lon="-0.47143">
        <ele>820.62</ele>
        <time>2016-12-11T08:50:49Z</time>
      </trkpt>
      <trkpt lat="43.08827" lon="-0.4714">
        <ele>818.7</ele>
        <time>2016-12-11T08:50:50Z</time>
      </trkpt>
      <trkpt lat="43.08829" lon="-0.47137">
        <ele>817.74</ele>
        <time>2016-12-11T08:50:52Z</time>
      </trkpt>
      <trkpt lat="43.08838" lon="-0.47134">
        <ele>813.89</ele>
        <time>2016-12-11T08:50:56Z</time>
      </trkpt>
      <trkpt lat="43.08844" lon="-0.47134">
        <ele>812.45</ele>
        <time>2016-12-11T08:50:58Z</time>
      </trkpt>
      <trkpt lat="43.08853" lon="-0.47129">
        <ele>811.49</ele>
        <time>2016-12-11T08:51:00Z</time>
      </trkpt>
      <trkpt lat="43.08861" lon="-0.47124">
        <ele>810.53</ele>
        <time>2016-12-11T08:51:02Z</time>
      </trkpt>
      <trkpt lat="43.08867" lon="-0.47122">
        <ele>808.61</ele>
        <time>2016-12-11T08:51:04Z</time>
      </trkpt>
      <trkpt lat="43.08883" lon="-0.47112">
        <ele>806.2</ele>
        <time>2016-12-11T08:51:09Z</time>
      </trkpt>
      <trkpt lat="43.08889" lon="-0.47104">
        <ele>804.28</ele>
        <time>2016-12-11T08:51:12Z</time>
      </trkpt>
      <trkpt lat="43.089" lon="-0.47091">
        <ele>800.44</ele>
        <time>2016-12-11T08:51:16Z</time>
      </trkpt>
      <trkpt lat="43.08917" lon="-0.47085">
        <ele>796.59</ele>
        <time>2016-12-11T08:51:20Z</time>
      </trkpt>
      <trkpt lat="43.08928" lon="-0.47078">
        <ele>794.67</ele>
        <time>2016-12-11T08:51:23Z</time>
      </trkpt>
      <trkpt lat="43.08937" lon="-0.47075">
        <ele>792.74</ele>
        <time>2016-12-11T08:51:25Z</time>
      </trkpt>
      <trkpt lat="43.08953" lon="-0.47068">
        <ele>788.42</ele>
        <time>2016-12-11T08:51:30Z</time>
      </trkpt>
      <trkpt lat="43.08967" lon="-0.47059">
        <ele>786.02</ele>
        <time>2016-12-11T08:51:34Z</time>
      </trkpt>
      <trkpt lat="43.08981" lon="-0.47048">
        <ele>783.13</ele>
        <time>2016-12-11T08:51:38Z</time>
      </trkpt>
      <trkpt lat="43.08985" lon="-0.47046">
        <ele>782.17</ele>
        <time>2016-12-11T08:51:39Z</time>
      </trkpt>
      <trkpt lat="43.08997" lon="-0.47039">
        <ele>778.81</ele>
        <time>2016-12-11T08:51:42Z</time>
      </trkpt>
      <trkpt lat="43.09011" lon="-0.47032">
        <ele>776.4</ele>
        <time>2016-12-11T08:51:47Z</time>
      </trkpt>
      <trkpt lat="43.09024" lon="-0.47024">
        <ele>773.04</ele>
        <time>2016-12-11T08:51:52Z</time>
      </trkpt>
      <trkpt lat="43.09027" lon="-0.47023">
        <ele>773.04</ele>
        <time>2016-12-11T08:51:53Z</time>
      </trkpt>
      <trkpt lat="43.09037" lon="-0.4702">
        <ele>771.6</ele>
        <time>2016-12-11T08:51:57Z</time>
      </trkpt>
      <trkpt lat="43.09053" lon="-0.47015">
        <ele>768.23</ele>
        <time>2016-12-11T08:52:04Z</time>
      </trkpt>
      <trkpt lat="43.09065" lon="-0.47011">
        <ele>765.83</ele>
        <time>2016-12-11T08:52:08Z</time>
      </trkpt>
      <trkpt lat="43.09075" lon="-0.47013">
        <ele>761.98</ele>
        <time>2016-12-11T08:52:14Z</time>
      </trkpt>
      <trkpt lat="43.09073" lon="-0.4702">
        <ele>760.54</ele>
        <time>2016-12-11T08:52:16Z</time>
      </trkpt>
      <trkpt lat="43.09069" lon="-0.4703">
        <ele>758.62</ele>
        <time>2016-12-11T08:52:20Z</time>
      </trkpt>
      <trkpt lat="43.09067" lon="-0.47034">
        <ele>757.66</ele>
        <time>2016-12-11T08:52:22Z</time>
      </trkpt>
      <trkpt lat="43.09058" lon="-0.47048">
        <ele>754.29</ele>
        <time>2016-12-11T08:52:31Z</time>
      </trkpt>
      <trkpt lat="43.09057" lon="-0.47052">
        <ele>753.81</ele>
        <time>2016-12-11T08:52:32Z</time>
      </trkpt>
      <trkpt lat="43.0905" lon="-0.47065">
        <ele>751.41</ele>
        <time>2016-12-11T08:52:35Z</time>
      </trkpt>
      <trkpt lat="43.09043" lon="-0.47085">
        <ele>747.56</ele>
        <time>2016-12-11T08:52:38Z</time>
      </trkpt>
      <trkpt lat="43.09038" lon="-0.47103">
        <ele>744.68</ele>
        <time>2016-12-11T08:52:41Z</time>
      </trkpt>
      <trkpt lat="43.09033" lon="-0.47128">
        <ele>740.35</ele>
        <time>2016-12-11T08:52:45Z</time>
      </trkpt>
      <trkpt lat="43.09027" lon="-0.47146">
        <ele>736.51</ele>
        <time>2016-12-11T08:52:50Z</time>
      </trkpt>
      <trkpt lat="43.09022" lon="-0.47173">
        <ele>732.66</ele>
        <time>2016-12-11T08:52:55Z</time>
      </trkpt>
      <trkpt lat="43.09019" lon="-0.47182">
        <ele>731.7</ele>
        <time>2016-12-11T08:52:57Z</time>
      </trkpt>
      <trkpt lat="43.09019" lon="-0.47191">
        <ele>730.74</ele>
        <time>2016-12-11T08:52:59Z</time>
      </trkpt>
      <trkpt lat="43.09017" lon="-0.47209">
        <ele>726.89</ele>
        <time>2016-12-11T08:53:03Z</time>
      </trkpt>
      <trkpt lat="43.09022" lon="-0.47213">
        <ele>724.01</ele>
        <time>2016-12-11T08:53:07Z</time>
      </trkpt>
      <trkpt lat="43.09024" lon="-0.47212">
        <ele>724.01</ele>
        <time>2016-12-11T08:53:08Z</time>
      </trkpt>
      <trkpt lat="43.09027" lon="-0.47208">
        <ele>722.57</ele>
        <time>2016-12-11T08:53:10Z</time>
      </trkpt>
      <trkpt lat="43.0903" lon="-0.47202">
        <ele>720.65</ele>
        <time>2016-12-11T08:53:13Z</time>
      </trkpt>
      <trkpt lat="43.09035" lon="-0.47197">
        <ele>719.68</ele>
        <time>2016-12-11T08:53:15Z</time>
      </trkpt>
      <trkpt lat="43.09047" lon="-0.47183">
        <ele>716.32</ele>
        <time>2016-12-11T08:53:19Z</time>
      </trkpt>
      <trkpt lat="43.09061" lon="-0.4717">
        <ele>712.95</ele>
        <time>2016-12-11T08:53:25Z</time>
      </trkpt>
      <trkpt lat="43.09081" lon="-0.4716">
        <ele>709.11</ele>
        <time>2016-12-11T08:53:30Z</time>
      </trkpt>
      <trkpt lat="43.09096" lon="-0.47149">
        <ele>705.26</ele>
        <time>2016-12-11T08:53:33Z</time>
      </trkpt>
      <trkpt lat="43.0911" lon="-0.47138">
        <ele>701.42</ele>
        <time>2016-12-11T08:53:37Z</time>
      </trkpt>
      <trkpt lat="43.0912" lon="-0.47131">
        <ele>697.09</ele>
        <time>2016-12-11T08:53:41Z</time>
      </trkpt>
      <trkpt lat="43.09124" lon="-0.47129">
        <ele>696.13</ele>
        <time>2016-12-11T08:53:42Z</time>
      </trkpt>
      <trkpt lat="43.0914" lon="-0.47123">
        <ele>692.77</ele>
        <time>2016-12-11T08:53:46Z</time>
      </trkpt>
      <trkpt lat="43.09164" lon="-0.47113">
        <ele>687.48</ele>
        <time>2016-12-11T08:53:52Z</time>
      </trkpt>
      <trkpt lat="43.09187" lon="-0.47109">
        <ele>683.63</ele>
        <time>2016-12-11T08:53:57Z</time>
      </trkpt>
      <trkpt lat="43.09203" lon="-0.47105">
        <ele>678.35</ele>
        <time>2016-12-11T08:54:02Z</time>
      </trkpt>
      <trkpt lat="43.09207" lon="-0.47105">
        <ele>676.91</ele>
        <time>2016-12-11T08:54:04Z</time>
      </trkpt>
      <trkpt lat="43.09199" lon="-0.47127">
        <ele>673.06</ele>
        <time>2016-12-11T08:54:12Z</time>
      </trkpt>
      <trkpt lat="43.09191" lon="-0.4714">
        <ele>669.7</ele>
        <time>2016-12-11T08:54:15Z</time>
      </trkpt>
      <trkpt lat="43.09181" lon="-0.47158">
        <ele>665.85</ele>
        <time>2016-12-11T08:54:19Z</time>
      </trkpt>
      <trkpt lat="43.09169" lon="-0.47179">
        <ele>662.49</ele>
        <time>2016-12-11T08:54:23Z</time>
      </trkpt>
      <trkpt lat="43.09161" lon="-0.47194">
        <ele>659.12</ele>
        <time>2016-12-11T08:54:27Z</time>
      </trkpt>
      <trkpt lat="43.09161" lon="-0.47205">
        <ele>656.24</ele>
        <time>2016-12-11T08:54:31Z</time>
      </trkpt>
      <trkpt lat="43.09176" lon="-0.47201">
        <ele>652.87</ele>
        <time>2016-12-11T08:54:37Z</time>
      </trkpt>
      <trkpt lat="43.09187" lon="-0.47192">
        <ele>650.47</ele>
        <time>2016-12-11T08:54:41Z</time>
      </trkpt>
      <trkpt lat="43.09202" lon="-0.4719">
        <ele>646.14</ele>
        <time>2016-12-11T08:54:46Z</time>
      </trkpt>
      <trkpt lat="43.09215" lon="-0.47188">
        <ele>642.78</ele>
        <time>2016-12-11T08:54:52Z</time>
      </trkpt>
      <trkpt lat="43.09226" lon="-0.47186">
        <ele>641.82</ele>
        <time>2016-12-11T08:54:55Z</time>
      </trkpt>
      <trkpt lat="43.09245" lon="-0.47183">
        <ele>637.01</ele>
        <time>2016-12-11T08:55:01Z</time>
      </trkpt>
      <trkpt lat="43.09251" lon="-0.47179">
        <ele>635.09</ele>
        <time>2016-12-11T08:55:04Z</time>
      </trkpt>
      <trkpt lat="43.0926" lon="-0.47176">
        <ele>632.2</ele>
        <time>2016-12-11T08:55:07Z</time>
      </trkpt>
      <trkpt lat="43.09268" lon="-0.4717">
        <ele>629.32</ele>
        <time>2016-12-11T08:55:11Z</time>
      </trkpt>
      <trkpt lat="43.09272" lon="-0.4717">
        <ele>628.36</ele>
        <time>2016-12-11T08:55:13Z</time>
      </trkpt>
      <trkpt lat="43.09263" lon="-0.47194">
        <ele>625.47</ele>
        <time>2016-12-11T08:55:19Z</time>
      </trkpt>
      <trkpt lat="43.09257" lon="-0.47209">
        <ele>622.11</ele>
        <time>2016-12-11T08:55:22Z</time>
      </trkpt>
      <trkpt lat="43.09253" lon="-0.47218">
        <ele>618.75</ele>
        <time>2016-12-11T08:55:25Z</time>
      </trkpt>
      <trkpt lat="43.09258" lon="-0.4724">
        <ele>614.42</ele>
        <time>2016-12-11T08:55:31Z</time>
      </trkpt>
      <trkpt lat="43.09258" lon="-0.47244">
        <ele>612.98</ele>
        <time>2016-12-11T08:55:32Z</time>
      </trkpt>
      <trkpt lat="43.09258" lon="-0.47247">
        <ele>613.46</ele>
        <time>2016-12-11T08:55:33Z</time>
      </trkpt>
      <trkpt lat="43.0927" lon="-0.47246">
        <ele>608.65</ele>
        <time>2016-12-11T08:55:38Z</time>
      </trkpt>
      <trkpt lat="43.09284" lon="-0.47228">
        <ele>605.29</ele>
        <time>2016-12-11T08:55:42Z</time>
      </trkpt>
      <trkpt lat="43.09288" lon="-0.47223">
        <ele>603.36</ele>
        <time>2016-12-11T08:55:44Z</time>
      </trkpt>
      <trkpt lat="43.09294" lon="-0.47224">
        <ele>601.44</ele>
        <time>2016-12-11T08:55:47Z</time>
      </trkpt>
      <trkpt lat="43.09295" lon="-0.47235">
        <ele>598.08</ele>
        <time>2016-12-11T08:55:50Z</time>
      </trkpt>
      <trkpt lat="43.09305" lon="-0.47268">
        <ele>594.23</ele>
        <time>2016-12-11T08:55:55Z</time>
      </trkpt>
      <trkpt lat="43.09311" lon="-0.47286">
        <ele>591.83</ele>
        <time>2016-12-11T08:55:58Z</time>
      </trkpt>
      <trkpt lat="43.09313" lon="-0.47293">
        <ele>590.39</ele>
        <time>2016-12-11T08:56:00Z</time>
      </trkpt>
      <trkpt lat="43.09321" lon="-0.47305">
        <ele>586.54</ele>
        <time>2016-12-11T08:56:04Z</time>
      </trkpt>
      <trkpt lat="43.09326" lon="-0.47305">
        <ele>585.1</ele>
        <time>2016-12-11T08:56:07Z</time>
      </trkpt>
      <trkpt lat="43.09327" lon="-0.473">
        <ele>584.14</ele>
        <time>2016-12-11T08:56:09Z</time>
      </trkpt>
      <trkpt lat="43.09329" lon="-0.4729">
        <ele>580.29</ele>
        <time>2016-12-11T08:56:14Z</time>
      </trkpt>
      <trkpt lat="43.09339" lon="-0.47313">
        <ele>576.93</ele>
        <time>2016-12-11T08:56:22Z</time>
      </trkpt>
      <trkpt lat="43.09348" lon="-0.47328">
        <ele>574.04</ele>
        <time>2016-12-11T08:56:26Z</time>
      </trkpt>
      <trkpt lat="43.09358" lon="-0.47341">
        <ele>571.64</ele>
        <time>2016-12-11T08:56:29Z</time>
      </trkpt>
      <trkpt lat="43.09363" lon="-0.47345">
        <ele>570.68</ele>
        <time>2016-12-11T08:56:31Z</time>
      </trkpt>
      <trkpt lat="43.09376" lon="-0.47354">
        <ele>567.32</ele>
        <time>2016-12-11T08:56:35Z</time>
      </trkpt>
      <trkpt lat="43.09385" lon="-0.47359">
        <ele>564.91</ele>
        <time>2016-12-11T08:56:37Z</time>
      </trkpt>
      <trkpt lat="43.094" lon="-0.47368">
        <ele>561.07</ele>
        <time>2016-12-11T08:56:41Z</time>
      </trkpt>
      <trkpt lat="43.09405" lon="-0.4737">
        <ele>560.59</ele>
        <time>2016-12-11T08:56:42Z</time>
      </trkpt>
      <trkpt lat="43.09421" lon="-0.47382">
        <ele>555.78</ele>
        <time>2016-12-11T08:56:46Z</time>
      </trkpt>
      <trkpt lat="43.09432" lon="-0.47393">
        <ele>553.86</ele>
        <time>2016-12-11T08:56:49Z</time>
      </trkpt>
      <trkpt lat="43.09445" lon="-0.47405">
        <ele>551.45</ele>
        <time>2016-12-11T08:56:52Z</time>
      </trkpt>
      <trkpt lat="43.09459" lon="-0.47428">
        <ele>549.53</ele>
        <time>2016-12-11T08:56:56Z</time>
      </trkpt>
      <trkpt lat="43.09469" lon="-0.47445">
        <ele>549.05</ele>
        <time>2016-12-11T08:56:59Z</time>
      </trkpt>
      <trkpt lat="43.0949" lon="-0.47465">
        <ele>547.61</ele>
        <time>2016-12-11T08:57:14Z</time>
      </trkpt>
      <trkpt lat="43.09499" lon="-0.47468">
        <ele>547.61</ele>
        <time>2016-12-11T08:57:38Z</time>
      </trkpt>
      <trkpt lat="43.09498" lon="-0.47469">
        <ele>546.65</ele>
        <time>2016-12-11T08:57:57Z</time>
      </trkpt>
      <trkpt lat="43.09498" lon="-0.47465">
        <ele>546.65</ele>
        <time>2016-12-11T08:58:21Z</time>
      </trkpt>
      <trkpt lat="43.09498" lon="-0.47465">
        <ele>546.65</ele>
        <time>2016-12-11T08:58:50Z</time>
      </trkpt>
      <trkpt lat="43.09498" lon="-0.47466">
        <ele>546.17</ele>
        <time>2016-12-11T08:59:06Z</time>
      </trkpt>
      <trkpt lat="43.09511" lon="-0.47481">
        <ele>543.76</ele>
        <time>2016-12-11T08:59:12Z</time>
      </trkpt>
      <trkpt lat="43.09523" lon="-0.47504">
        <ele>543.76</ele>
        <time>2016-12-11T08:59:19Z</time>
      </trkpt>
      <trkpt lat="43.0954" lon="-0.47536">
        <ele>544.72</ele>
        <time>2016-12-11T08:59:29Z</time>
      </trkpt>
      <trkpt lat="43.09558" lon="-0.47566">
        <ele>546.65</ele>
        <time>2016-12-11T08:59:38Z</time>
      </trkpt>
      <trkpt lat="43.09567" lon="-0.4758">
        <ele>547.13</ele>
        <time>2016-12-11T08:59:43Z</time>
      </trkpt>
      <trkpt lat="43.09585" lon="-0.47612">
        <ele>546.17</ele>
        <time>2016-12-11T08:59:52Z</time>
      </trkpt>
      <trkpt lat="43.096" lon="-0.47641">
        <ele>546.17</ele>
        <time>2016-12-11T09:00:01Z</time>
      </trkpt>
      <trkpt lat="43.09605" lon="-0.47651">
        <ele>545.69</ele>
        <time>2016-12-11T09:00:04Z</time>
      </trkpt>
      <trkpt lat="43.09615" lon="-0.47667">
        <ele>545.69</ele>
        <time>2016-12-11T09:00:08Z</time>
      </trkpt>
      <trkpt lat="43.09629" lon="-0.47704">
        <ele>546.17</ele>
        <time>2016-12-11T09:00:17Z</time>
      </trkpt>
      <trkpt lat="43.09645" lon="-0.47738">
        <ele>546.65</ele>
        <time>2016-12-11T09:00:25Z</time>
      </trkpt>
      <trkpt lat="43.09656" lon="-0.47765">
        <ele>545.2</ele>
        <time>2016-12-11T09:00:34Z</time>
      </trkpt>
      <trkpt lat="43.09657" lon="-0.47768">
        <ele>542.8</ele>
        <time>2016-12-11T09:00:35Z</time>
      </trkpt>
      <trkpt lat="43.09658" lon="-0.4777">
        <ele>541.84</ele>
        <time>2016-12-11T09:00:36Z</time>
      </trkpt>
      <trkpt lat="43.09666" lon="-0.47779">
        <ele>541.36</ele>
        <time>2016-12-11T09:00:41Z</time>
      </trkpt>
      <trkpt lat="43.09667" lon="-0.4778">
        <ele>541.84</ele>
        <time>2016-12-11T09:00:42Z</time>
      </trkpt>
      <trkpt lat="43.09676" lon="-0.4781">
        <ele>544.24</ele>
        <time>2016-12-11T09:00:53Z</time>
      </trkpt>
      <trkpt lat="43.09684" lon="-0.47829">
        <ele>546.65</ele>
        <time>2016-12-11T09:01:02Z</time>
      </trkpt>
      <trkpt lat="43.09684" lon="-0.47832">
        <ele>546.65</ele>
        <time>2016-12-11T09:01:03Z</time>
      </trkpt>
      <trkpt lat="43.09684" lon="-0.47837">
        <ele>547.61</ele>
        <time>2016-12-11T09:01:05Z</time>
      </trkpt>
      <trkpt lat="43.09689" lon="-0.47846">
        <ele>548.09</ele>
        <time>2016-12-11T09:01:10Z</time>
      </trkpt>
      <trkpt lat="43.09692" lon="-0.47856">
        <ele>549.05</ele>
        <time>2016-12-11T09:01:14Z</time>
      </trkpt>
      <trkpt lat="43.09695" lon="-0.47873">
        <ele>549.53</ele>
        <time>2016-12-11T09:01:20Z</time>
      </trkpt>
      <trkpt lat="43.09697" lon="-0.47883">
        <ele>549.53</ele>
        <time>2016-12-11T09:01:24Z</time>
      </trkpt>
      <trkpt lat="43.09697" lon="-0.47889">
        <ele>550.01</ele>
        <time>2016-12-11T09:01:26Z</time>
      </trkpt>
      <trkpt lat="43.09701" lon="-0.47904">
        <ele>550.01</ele>
        <time>2016-12-11T09:01:31Z</time>
      </trkpt>
      <trkpt lat="43.09701" lon="-0.47913">
        <ele>550.01</ele>
        <time>2016-12-11T09:01:33Z</time>
      </trkpt>
      <trkpt lat="43.09703" lon="-0.47917">
        <ele>549.53</ele>
        <time>2016-12-11T09:01:35Z</time>
      </trkpt>
      <trkpt lat="43.09704" lon="-0.47945">
        <ele>549.53</ele>
        <time>2016-12-11T09:01:42Z</time>
      </trkpt>
      <trkpt lat="43.09712" lon="-0.47965">
        <ele>548.09</ele>
        <time>2016-12-11T09:01:47Z</time>
      </trkpt>
      <trkpt lat="43.09717" lon="-0.47981">
        <ele>544.72</ele>
        <time>2016-12-11T09:01:50Z</time>
      </trkpt>
      <trkpt lat="43.0972" lon="-0.47986">
        <ele>544.24</ele>
        <time>2016-12-11T09:01:51Z</time>
      </trkpt>
      <trkpt lat="43.09732" lon="-0.48013">
        <ele>540.88</ele>
        <time>2016-12-11T09:01:55Z</time>
      </trkpt>
      <trkpt lat="43.09735" lon="-0.48021">
        <ele>539.44</ele>
        <time>2016-12-11T09:01:56Z</time>
      </trkpt>
      <trkpt lat="43.09738" lon="-0.4803">
        <ele>539.44</ele>
        <time>2016-12-11T09:01:57Z</time>
      </trkpt>
      <trkpt lat="43.09744" lon="-0.48048">
        <ele>537.51</ele>
        <time>2016-12-11T09:01:59Z</time>
      </trkpt>
      <trkpt lat="43.09748" lon="-0.48056">
        <ele>537.03</ele>
        <time>2016-12-11T09:02:00Z</time>
      </trkpt>
      <trkpt lat="43.09751" lon="-0.48061">
        <ele>535.11</ele>
        <time>2016-12-11T09:02:01Z</time>
      </trkpt>
      <trkpt lat="43.09754" lon="-0.48066">
        <ele>535.11</ele>
        <time>2016-12-11T09:02:02Z</time>
      </trkpt>
      <trkpt lat="43.09756" lon="-0.48071">
        <ele>535.11</ele>
        <time>2016-12-11T09:02:03Z</time>
      </trkpt>
      <trkpt lat="43.09758" lon="-0.48077">
        <ele>534.63</ele>
        <time>2016-12-11T09:02:04Z</time>
      </trkpt>
      <trkpt lat="43.0976" lon="-0.48085">
        <ele>534.15</ele>
        <time>2016-12-11T09:02:06Z</time>
      </trkpt>
      <trkpt lat="43.09761" lon="-0.4809">
        <ele>533.67</ele>
        <time>2016-12-11T09:02:07Z</time>
      </trkpt>
      <trkpt lat="43.09763" lon="-0.48107">
        <ele>532.71</ele>
        <time>2016-12-11T09:02:10Z</time>
      </trkpt>
      <trkpt lat="43.09765" lon="-0.48113">
        <ele>532.71</ele>
        <time>2016-12-11T09:02:11Z</time>
      </trkpt>
      <trkpt lat="43.09767" lon="-0.48119">
        <ele>531.27</ele>
        <time>2016-12-11T09:02:12Z</time>
      </trkpt>
      <trkpt lat="43.09783" lon="-0.48148">
        <ele>528.38</ele>
        <time>2016-12-11T09:02:19Z</time>
      </trkpt>
      <trkpt lat="43.0979" lon="-0.48154">
        <ele>527.42</ele>
        <time>2016-12-11T09:02:21Z</time>
      </trkpt>
      <trkpt lat="43.09794" lon="-0.48156">
        <ele>526.94</ele>
        <time>2016-12-11T09:02:22Z</time>
      </trkpt>
      <trkpt lat="43.09797" lon="-0.48158">
        <ele>526.94</ele>
        <time>2016-12-11T09:02:23Z</time>
      </trkpt>
      <trkpt lat="43.09799" lon="-0.48161">
        <ele>526.46</ele>
        <time>2016-12-11T09:02:24Z</time>
      </trkpt>
      <trkpt lat="43.09801" lon="-0.48164">
        <ele>525.98</ele>
        <time>2016-12-11T09:02:25Z</time>
      </trkpt>
      <trkpt lat="43.09803" lon="-0.48167">
        <ele>526.46</ele>
        <time>2016-12-11T09:02:26Z</time>
      </trkpt>
      <trkpt lat="43.09805" lon="-0.48169">
        <ele>525.98</ele>
        <time>2016-12-11T09:02:27Z</time>
      </trkpt>
      <trkpt lat="43.09807" lon="-0.48171">
        <ele>525.5</ele>
        <time>2016-12-11T09:02:28Z</time>
      </trkpt>
      <trkpt lat="43.0981" lon="-0.48172">
        <ele>525.5</ele>
        <time>2016-12-11T09:02:29Z</time>
      </trkpt>
      <trkpt lat="43.09814" lon="-0.48174">
        <ele>525.02</ele>
        <time>2016-12-11T09:02:31Z</time>
      </trkpt>
      <trkpt lat="43.09817" lon="-0.48174">
        <ele>525.5</ele>
        <time>2016-12-11T09:02:32Z</time>
      </trkpt>
      <trkpt lat="43.09818" lon="-0.48174">
        <ele>525.5</ele>
        <time>2016-12-11T09:02:33Z</time>
      </trkpt>
      <trkpt lat="43.0985" lon="-0.48161">
        <ele>522.61</ele>
        <time>2016-12-11T09:02:43Z</time>
      </trkpt>
      <trkpt lat="43.09852" lon="-0.48157">
        <ele>522.61</ele>
        <time>2016-12-11T09:02:44Z</time>
      </trkpt>
      <trkpt lat="43.09855" lon="-0.48154">
        <ele>521.65</ele>
        <time>2016-12-11T09:02:45Z</time>
      </trkpt>
      <trkpt lat="43.0986" lon="-0.48151">
        <ele>521.65</ele>
        <time>2016-12-11T09:02:46Z</time>
      </trkpt>
      <trkpt lat="43.09864" lon="-0.48148">
        <ele>520.69</ele>
        <time>2016-12-11T09:02:47Z</time>
      </trkpt>
      <trkpt lat="43.09868" lon="-0.48146">
        <ele>520.21</ele>
        <time>2016-12-11T09:02:48Z</time>
      </trkpt>
      <trkpt lat="43.09873" lon="-0.48145">
        <ele>520.21</ele>
        <time>2016-12-11T09:02:49Z</time>
      </trkpt>
      <trkpt lat="43.09878" lon="-0.48145">
        <ele>520.21</ele>
        <time>2016-12-11T09:02:50Z</time>
      </trkpt>
      <trkpt lat="43.09882" lon="-0.48144">
        <ele>519.73</ele>
        <time>2016-12-11T09:02:51Z</time>
      </trkpt>
      <trkpt lat="43.09898" lon="-0.48142">
        <ele>518.77</ele>
        <time>2016-12-11T09:02:54Z</time>
      </trkpt>
      <trkpt lat="43.09902" lon="-0.48143">
        <ele>517.81</ele>
        <time>2016-12-11T09:02:55Z</time>
      </trkpt>
      <trkpt lat="43.09906" lon="-0.48144">
        <ele>517.81</ele>
        <time>2016-12-11T09:02:56Z</time>
      </trkpt>
      <trkpt lat="43.0991" lon="-0.48145">
        <ele>517.81</ele>
        <time>2016-12-11T09:02:57Z</time>
      </trkpt>
      <trkpt lat="43.09914" lon="-0.48146">
        <ele>517.33</ele>
        <time>2016-12-11T09:02:58Z</time>
      </trkpt>
      <trkpt lat="43.09918" lon="-0.48146">
        <ele>517.33</ele>
        <time>2016-12-11T09:02:59Z</time>
      </trkpt>
      <trkpt lat="43.09958" lon="-0.48151">
        <ele>514.92</ele>
        <time>2016-12-11T09:03:09Z</time>
      </trkpt>
      <trkpt lat="43.09966" lon="-0.48152">
        <ele>514.44</ele>
        <time>2016-12-11T09:03:11Z</time>
      </trkpt>
      <trkpt lat="43.09969" lon="-0.48152">
        <ele>513.96</ele>
        <time>2016-12-11T09:03:12Z</time>
      </trkpt>
      <trkpt lat="43.09997" lon="-0.48148">
        <ele>512.52</ele>
        <time>2016-12-11T09:03:21Z</time>
      </trkpt>
      <trkpt lat="43.10005" lon="-0.48151">
        <ele>513</ele>
        <time>2016-12-11T09:03:27Z</time>
      </trkpt>
      <trkpt lat="43.10007" lon="-0.4815">
        <ele>512.52</ele>
        <time>2016-12-11T09:03:29Z</time>
      </trkpt>
      <trkpt lat="43.10008" lon="-0.4815">
        <ele>513</ele>
        <time>2016-12-11T09:03:30Z</time>
      </trkpt>
      <trkpt lat="43.1001" lon="-0.4815">
        <ele>512.52</ele>
        <time>2016-12-11T09:03:31Z</time>
      </trkpt>
      <trkpt lat="43.10019" lon="-0.48153">
        <ele>513</ele>
        <time>2016-12-11T09:03:46Z</time>
      </trkpt>
      <trkpt lat="43.10022" lon="-0.48153">
        <ele>513</ele>
        <time>2016-12-11T09:04:03Z</time>
      </trkpt>
      <trkpt lat="43.10028" lon="-0.48153">
        <ele>513</ele>
        <time>2016-12-11T09:04:13Z</time>
      </trkpt>
      <trkpt lat="43.10029" lon="-0.48153">
        <ele>513</ele>
        <time>2016-12-11T09:04:14Z</time>
      </trkpt>
      <trkpt lat="43.10032" lon="-0.48153">
        <ele>513</ele>
        <time>2016-12-11T09:04:15Z</time>
      </trkpt>
      <trkpt lat="43.10034" lon="-0.48154">
        <ele>513</ele>
        <time>2016-12-11T09:04:16Z</time>
      </trkpt>
      <trkpt lat="43.10037" lon="-0.48154">
        <ele>513</ele>
        <time>2016-12-11T09:04:17Z</time>
      </trkpt>
      <trkpt lat="43.10039" lon="-0.48155">
        <ele>513</ele>
        <time>2016-12-11T09:04:18Z</time>
      </trkpt>
      <trkpt lat="43.10042" lon="-0.48155">
        <ele>512.52</ele>
        <time>2016-12-11T09:04:19Z</time>
      </trkpt>
      <trkpt lat="43.10048" lon="-0.48156">
        <ele>513</ele>
        <time>2016-12-11T09:04:21Z</time>
      </trkpt>
      <trkpt lat="43.1005" lon="-0.48156">
        <ele>512.52</ele>
        <time>2016-12-11T09:04:22Z</time>
      </trkpt>
      <trkpt lat="43.10053" lon="-0.48156">
        <ele>512.52</ele>
        <time>2016-12-11T09:04:23Z</time>
      </trkpt>
      <trkpt lat="43.10056" lon="-0.48155">
        <ele>512.52</ele>
        <time>2016-12-11T09:04:24Z</time>
      </trkpt>
      <trkpt lat="43.10059" lon="-0.48155">
        <ele>512.52</ele>
        <time>2016-12-11T09:04:25Z</time>
      </trkpt>
      <trkpt lat="43.10062" lon="-0.48156">
        <ele>512.52</ele>
        <time>2016-12-11T09:04:26Z</time>
      </trkpt>
      <trkpt lat="43.10087" lon="-0.48163">
        <ele>512.04</ele>
        <time>2016-12-11T09:04:34Z</time>
      </trkpt>
      <trkpt lat="43.10088" lon="-0.48165">
        <ele>512.52</ele>
        <time>2016-12-11T09:04:35Z</time>
      </trkpt>
      <trkpt lat="43.10087" lon="-0.48167">
        <ele>513</ele>
        <time>2016-12-11T09:04:36Z</time>
      </trkpt>
      <trkpt lat="43.10086" lon="-0.48168">
        <ele>513</ele>
        <time>2016-12-11T09:04:37Z</time>
      </trkpt>
      <trkpt lat="43.10083" lon="-0.48167">
        <ele>513</ele>
        <time>2016-12-11T09:04:38Z</time>
      </trkpt>
      <trkpt lat="43.10076" lon="-0.48167">
        <ele>513.96</ele>
        <time>2016-12-11T09:04:42Z</time>
      </trkpt>
      <trkpt lat="43.10074" lon="-0.48168">
        <ele>514.92</ele>
        <time>2016-12-11T09:04:43Z</time>
      </trkpt>
      <trkpt lat="43.10072" lon="-0.48169">
        <ele>514.92</ele>
        <time>2016-12-11T09:04:44Z</time>
      </trkpt>
      <trkpt lat="43.1007" lon="-0.48169">
        <ele>514.92</ele>
        <time>2016-12-11T09:04:45Z</time>
      </trkpt>
      <trkpt lat="43.10068" lon="-0.48169">
        <ele>515.4</ele>
        <time>2016-12-11T09:04:46Z</time>
      </trkpt>
      <trkpt lat="43.10066" lon="-0.4817">
        <ele>515.4</ele>
        <time>2016-12-11T09:04:47Z</time>
      </trkpt>
      <trkpt lat="43.10064" lon="-0.4817">
        <ele>515.88</ele>
        <time>2016-12-11T09:04:48Z</time>
      </trkpt>
      <trkpt lat="43.10062" lon="-0.4817">
        <ele>516.37</ele>
        <time>2016-12-11T09:04:49Z</time>
      </trkpt>
      <trkpt lat="43.1006" lon="-0.4817">
        <ele>516.37</ele>
        <time>2016-12-11T09:04:50Z</time>
      </trkpt>
      <trkpt lat="43.10058" lon="-0.48171">
        <ele>516.85</ele>
        <time>2016-12-11T09:04:51Z</time>
      </trkpt>
      <trkpt lat="43.10056" lon="-0.48172">
        <ele>516.85</ele>
        <time>2016-12-11T09:04:52Z</time>
      </trkpt>
      <trkpt lat="43.10054" lon="-0.48173">
        <ele>516.85</ele>
        <time>2016-12-11T09:04:53Z</time>
      </trkpt>
      <trkpt lat="43.10051" lon="-0.48174">
        <ele>517.81</ele>
        <time>2016-12-11T09:04:55Z</time>
      </trkpt>
      <trkpt lat="43.10049" lon="-0.48175">
        <ele>517.81</ele>
        <time>2016-12-11T09:04:56Z</time>
      </trkpt>
      <trkpt lat="43.10039" lon="-0.48177">
        <ele>518.77</ele>
        <time>2016-12-11T09:05:01Z</time>
      </trkpt>
      <trkpt lat="43.10037" lon="-0.48179">
        <ele>518.77</ele>
        <time>2016-12-11T09:05:02Z</time>
      </trkpt>
      <trkpt lat="43.10035" lon="-0.4818">
        <ele>519.25</ele>
        <time>2016-12-11T09:05:03Z</time>
      </trkpt>
      <trkpt lat="43.10033" lon="-0.4818">
        <ele>519.25</ele>
        <time>2016-12-11T09:05:04Z</time>
      </trkpt>
      <trkpt lat="43.10031" lon="-0.48179">
        <ele>519.73</ele>
        <time>2016-12-11T09:05:05Z</time>
      </trkpt>
      <trkpt lat="43.10006" lon="-0.48177">
        <ele>522.61</ele>
        <time>2016-12-11T09:05:17Z</time>
      </trkpt>
      <trkpt lat="43.10005" lon="-0.48176">
        <ele>522.61</ele>
        <time>2016-12-11T09:05:18Z</time>
      </trkpt>
      <trkpt lat="43.10003" lon="-0.48176">
        <ele>523.09</ele>
        <time>2016-12-11T09:05:19Z</time>
      </trkpt>
      <trkpt lat="43.10001" lon="-0.48176">
        <ele>523.09</ele>
        <time>2016-12-11T09:05:20Z</time>
      </trkpt>
      <trkpt lat="43.1" lon="-0.48175">
        <ele>523.58</ele>
        <time>2016-12-11T09:05:21Z</time>
      </trkpt>
      <trkpt lat="43.09998" lon="-0.48175">
        <ele>523.58</ele>
        <time>2016-12-11T09:05:22Z</time>
      </trkpt>
      <trkpt lat="43.09981" lon="-0.48173">
        <ele>525.98</ele>
        <time>2016-12-11T09:05:32Z</time>
      </trkpt>
      <trkpt lat="43.09959" lon="-0.48172">
        <ele>528.86</ele>
        <time>2016-12-11T09:05:44Z</time>
      </trkpt>
      <trkpt lat="43.09955" lon="-0.48171">
        <ele>528.86</ele>
        <time>2016-12-11T09:05:46Z</time>
      </trkpt>
      <trkpt lat="43.09953" lon="-0.48171">
        <ele>528.86</ele>
        <time>2016-12-11T09:05:47Z</time>
      </trkpt>
      <trkpt lat="43.09951" lon="-0.48171">
        <ele>529.34</ele>
        <time>2016-12-11T09:05:48Z</time>
      </trkpt>
      <trkpt lat="43.09949" lon="-0.48171">
        <ele>529.82</ele>
        <time>2016-12-11T09:05:49Z</time>
      </trkpt>
      <trkpt lat="43.09947" lon="-0.48171">
        <ele>529.82</ele>
        <time>2016-12-11T09:05:50Z</time>
      </trkpt>
      <trkpt lat="43.09926" lon="-0.48168">
        <ele>532.23</ele>
        <time>2016-12-11T09:06:00Z</time>
      </trkpt>
      <trkpt lat="43.09917" lon="-0.48169">
        <ele>532.71</ele>
        <time>2016-12-11T09:06:04Z</time>
      </trkpt>
      <trkpt lat="43.09895" lon="-0.48173">
        <ele>534.63</ele>
        <time>2016-12-11T09:06:15Z</time>
      </trkpt>
      <trkpt lat="43.09893" lon="-0.48175">
        <ele>535.11</ele>
        <time>2016-12-11T09:06:16Z</time>
      </trkpt>
      <trkpt lat="43.09878" lon="-0.48181">
        <ele>537.03</ele>
        <time>2016-12-11T09:06:24Z</time>
      </trkpt>
      <trkpt lat="43.09877" lon="-0.48182">
        <ele>537.51</ele>
        <time>2016-12-11T09:06:25Z</time>
      </trkpt>
      <trkpt lat="43.09874" lon="-0.48185">
        <ele>537.03</ele>
        <time>2016-12-11T09:06:27Z</time>
      </trkpt>
      <trkpt lat="43.09873" lon="-0.48187">
        <ele>537.99</ele>
        <time>2016-12-11T09:06:28Z</time>
      </trkpt>
      <trkpt lat="43.09864" lon="-0.48199">
        <ele>539.44</ele>
        <time>2016-12-11T09:06:34Z</time>
      </trkpt>
      <trkpt lat="43.09862" lon="-0.48201">
        <ele>539.44</ele>
        <time>2016-12-11T09:06:35Z</time>
      </trkpt>
      <trkpt lat="43.09859" lon="-0.48204">
        <ele>539.92</ele>
        <time>2016-12-11T09:06:37Z</time>
      </trkpt>
      <trkpt lat="43.09857" lon="-0.48206">
        <ele>540.4</ele>
        <time>2016-12-11T09:06:38Z</time>
      </trkpt>
      <trkpt lat="43.09856" lon="-0.48208">
        <ele>540.4</ele>
        <time>2016-12-11T09:06:39Z</time>
      </trkpt>
      <trkpt lat="43.09855" lon="-0.4821">
        <ele>540.4</ele>
        <time>2016-12-11T09:06:40Z</time>
      </trkpt>
      <trkpt lat="43.09839" lon="-0.48226">
        <ele>542.32</ele>
        <time>2016-12-11T09:06:50Z</time>
      </trkpt>
      <trkpt lat="43.09833" lon="-0.48227">
        <ele>542.8</ele>
        <time>2016-12-11T09:06:53Z</time>
      </trkpt>
      <trkpt lat="43.0983" lon="-0.48229">
        <ele>542.8</ele>
        <time>2016-12-11T09:06:54Z</time>
      </trkpt>
      <trkpt lat="43.09828" lon="-0.4823">
        <ele>543.28</ele>
        <time>2016-12-11T09:06:55Z</time>
      </trkpt>
      <trkpt lat="43.09825" lon="-0.48231">
        <ele>543.28</ele>
        <time>2016-12-11T09:06:56Z</time>
      </trkpt>
      <trkpt lat="43.09823" lon="-0.48232">
        <ele>543.28</ele>
        <time>2016-12-11T09:06:57Z</time>
      </trkpt>
      <trkpt lat="43.09821" lon="-0.48234">
        <ele>543.76</ele>
        <time>2016-12-11T09:06:58Z</time>
      </trkpt>
      <trkpt lat="43.09819" lon="-0.48236">
        <ele>544.72</ele>
        <time>2016-12-11T09:06:59Z</time>
      </trkpt>
      <trkpt lat="43.09819" lon="-0.48239">
        <ele>544.72</ele>
        <time>2016-12-11T09:07:00Z</time>
      </trkpt>
      <trkpt lat="43.09818" lon="-0.48241">
        <ele>544.72</ele>
        <time>2016-12-11T09:07:01Z</time>
      </trkpt>
      <trkpt lat="43.09819" lon="-0.48243">
        <ele>544.72</ele>
        <time>2016-12-11T09:07:02Z</time>
      </trkpt>
      <trkpt lat="43.0982" lon="-0.48244">
        <ele>544.72</ele>
        <time>2016-12-11T09:07:03Z</time>
      </trkpt>
      <trkpt lat="43.09821" lon="-0.48245">
        <ele>544.72</ele>
        <time>2016-12-11T09:07:04Z</time>
      </trkpt>
      <trkpt lat="43.09823" lon="-0.48246">
        <ele>545.2</ele>
        <time>2016-12-11T09:07:05Z</time>
      </trkpt>
      <trkpt lat="43.09825" lon="-0.48246">
        <ele>545.2</ele>
        <time>2016-12-11T09:07:06Z</time>
      </trkpt>
      <trkpt lat="43.09827" lon="-0.48246">
        <ele>545.2</ele>
        <time>2016-12-11T09:07:07Z</time>
      </trkpt>
      <trkpt lat="43.09828" lon="-0.48246">
        <ele>545.2</ele>
        <time>2016-12-11T09:07:08Z</time>
      </trkpt>
      <trkpt lat="43.09831" lon="-0.48245">
        <ele>544.72</ele>
        <time>2016-12-11T09:07:09Z</time>
      </trkpt>
      <trkpt lat="43.09833" lon="-0.48245">
        <ele>545.69</ele>
        <time>2016-12-11T09:07:10Z</time>
      </trkpt>
      <trkpt lat="43.09835" lon="-0.48243">
        <ele>545.69</ele>
        <time>2016-12-11T09:07:11Z</time>
      </trkpt>
      <trkpt lat="43.09837" lon="-0.48242">
        <ele>545.2</ele>
        <time>2016-12-11T09:07:12Z</time>
      </trkpt>
      <trkpt lat="43.09845" lon="-0.48236">
        <ele>547.13</ele>
        <time>2016-12-11T09:07:18Z</time>
      </trkpt>
      <trkpt lat="43.09847" lon="-0.48236">
        <ele>546.65</ele>
        <time>2016-12-11T09:07:19Z</time>
      </trkpt>
      <trkpt lat="43.09848" lon="-0.48235">
        <ele>547.13</ele>
        <time>2016-12-11T09:07:20Z</time>
      </trkpt>
      <trkpt lat="43.09849" lon="-0.48234">
        <ele>547.61</ele>
        <time>2016-12-11T09:07:21Z</time>
      </trkpt>
      <trkpt lat="43.09851" lon="-0.48233">
        <ele>547.61</ele>
        <time>2016-12-11T09:07:22Z</time>
      </trkpt>
      <trkpt lat="43.09853" lon="-0.48233">
        <ele>548.09</ele>
        <time>2016-12-11T09:07:23Z</time>
      </trkpt>
      <trkpt lat="43.09854" lon="-0.48232">
        <ele>548.09</ele>
        <time>2016-12-11T09:07:24Z</time>
      </trkpt>
      <trkpt lat="43.09856" lon="-0.48231">
        <ele>548.09</ele>
        <time>2016-12-11T09:07:25Z</time>
      </trkpt>
      <trkpt lat="43.0987" lon="-0.48224">
        <ele>549.53</ele>
        <time>2016-12-11T09:07:32Z</time>
      </trkpt>
      <trkpt lat="43.09872" lon="-0.48223">
        <ele>550.49</ele>
        <time>2016-12-11T09:07:33Z</time>
      </trkpt>
      <trkpt lat="43.09874" lon="-0.48223">
        <ele>551.45</ele>
        <time>2016-12-11T09:07:34Z</time>
      </trkpt>
      <trkpt lat="43.09876" lon="-0.48222">
        <ele>550.97</ele>
        <time>2016-12-11T09:07:35Z</time>
      </trkpt>
      <trkpt lat="43.09878" lon="-0.48222">
        <ele>550.97</ele>
        <time>2016-12-11T09:07:36Z</time>
      </trkpt>
      <trkpt lat="43.0988" lon="-0.48221">
        <ele>551.45</ele>
        <time>2016-12-11T09:07:37Z</time>
      </trkpt>
      <trkpt lat="43.09903" lon="-0.48217">
        <ele>554.34</ele>
        <time>2016-12-11T09:07:48Z</time>
      </trkpt>
      <trkpt lat="43.09923" lon="-0.48221">
        <ele>557.7</ele>
        <time>2016-12-11T09:07:58Z</time>
      </trkpt>
      <trkpt lat="43.09947" lon="-0.48232">
        <ele>560.11</ele>
        <time>2016-12-11T09:08:09Z</time>
      </trkpt>
      <trkpt lat="43.09972" lon="-0.48242">
        <ele>562.51</ele>
        <time>2016-12-11T09:08:20Z</time>
      </trkpt>
      <trkpt lat="43.09989" lon="-0.48252">
        <ele>564.43</ele>
        <time>2016-12-11T09:08:29Z</time>
      </trkpt>
      <trkpt lat="43.09991" lon="-0.48253">
        <ele>564.91</ele>
        <time>2016-12-11T09:08:30Z</time>
      </trkpt>
      <trkpt lat="43.09992" lon="-0.48255">
        <ele>565.39</ele>
        <time>2016-12-11T09:08:31Z</time>
      </trkpt>
      <trkpt lat="43.09993" lon="-0.48256">
        <ele>564.91</ele>
        <time>2016-12-11T09:08:32Z</time>
      </trkpt>
      <trkpt lat="43.10014" lon="-0.48282">
        <ele>566.83</ele>
        <time>2016-12-11T09:08:43Z</time>
      </trkpt>
      <trkpt lat="43.10026" lon="-0.48321">
        <ele>567.8</ele>
        <time>2016-12-11T09:08:54Z</time>
      </trkpt>
      <trkpt lat="43.10027" lon="-0.48325">
        <ele>568.28</ele>
        <time>2016-12-11T09:08:55Z</time>
      </trkpt>
      <trkpt lat="43.10027" lon="-0.48328">
        <ele>568.28</ele>
        <time>2016-12-11T09:08:56Z</time>
      </trkpt>
      <trkpt lat="43.10031" lon="-0.48373">
        <ele>570.68</ele>
        <time>2016-12-11T09:09:09Z</time>
      </trkpt>
      <trkpt lat="43.10028" lon="-0.48407">
        <ele>574.04</ele>
        <time>2016-12-11T09:09:20Z</time>
      </trkpt>
      <trkpt lat="43.10029" lon="-0.4841">
        <ele>574.04</ele>
        <time>2016-12-11T09:09:21Z</time>
      </trkpt>
      <trkpt lat="43.10029" lon="-0.48413">
        <ele>574.53</ele>
        <time>2016-12-11T09:09:22Z</time>
      </trkpt>
      <trkpt lat="43.10031" lon="-0.48451">
        <ele>577.89</ele>
        <time>2016-12-11T09:09:34Z</time>
      </trkpt>
      <trkpt lat="43.10033" lon="-0.4847">
        <ele>578.85</ele>
        <time>2016-12-11T09:09:40Z</time>
      </trkpt>
      <trkpt lat="43.10034" lon="-0.48473">
        <ele>579.33</ele>
        <time>2016-12-11T09:09:41Z</time>
      </trkpt>
      <trkpt lat="43.10039" lon="-0.4851">
        <ele>580.77</ele>
        <time>2016-12-11T09:09:53Z</time>
      </trkpt>
      <trkpt lat="43.10032" lon="-0.48539">
        <ele>584.14</ele>
        <time>2016-12-11T09:10:03Z</time>
      </trkpt>
      <trkpt lat="43.10028" lon="-0.4857">
        <ele>587.02</ele>
        <time>2016-12-11T09:10:15Z</time>
      </trkpt>
      <trkpt lat="43.10018" lon="-0.486">
        <ele>590.39</ele>
        <time>2016-12-11T09:10:27Z</time>
      </trkpt>
      <trkpt lat="43.1001" lon="-0.48623">
        <ele>592.79</ele>
        <time>2016-12-11T09:10:38Z</time>
      </trkpt>
      <trkpt lat="43.10004" lon="-0.48627">
        <ele>593.27</ele>
        <time>2016-12-11T09:10:42Z</time>
      </trkpt>
      <trkpt lat="43.10003" lon="-0.48628">
        <ele>594.23</ele>
        <time>2016-12-11T09:10:43Z</time>
      </trkpt>
      <trkpt lat="43.10002" lon="-0.48629">
        <ele>593.75</ele>
        <time>2016-12-11T09:10:44Z</time>
      </trkpt>
      <trkpt lat="43.1" lon="-0.4863">
        <ele>594.23</ele>
        <time>2016-12-11T09:10:45Z</time>
      </trkpt>
      <trkpt lat="43.09982" lon="-0.48645">
        <ele>596.64</ele>
        <time>2016-12-11T09:10:56Z</time>
      </trkpt>
      <trkpt lat="43.09975" lon="-0.48654">
        <ele>597.6</ele>
        <time>2016-12-11T09:11:01Z</time>
      </trkpt>
      <trkpt lat="43.09974" lon="-0.48656">
        <ele>598.08</ele>
        <time>2016-12-11T09:11:02Z</time>
      </trkpt>
      <trkpt lat="43.09957" lon="-0.48671">
        <ele>600.48</ele>
        <time>2016-12-11T09:11:12Z</time>
      </trkpt>
      <trkpt lat="43.09955" lon="-0.48672">
        <ele>600.48</ele>
        <time>2016-12-11T09:11:13Z</time>
      </trkpt>
      <trkpt lat="43.09953" lon="-0.48673">
        <ele>600.48</ele>
        <time>2016-12-11T09:11:14Z</time>
      </trkpt>
      <trkpt lat="43.09951" lon="-0.48674">
        <ele>600.96</ele>
        <time>2016-12-11T09:11:15Z</time>
      </trkpt>
      <trkpt lat="43.09949" lon="-0.48675">
        <ele>601.44</ele>
        <time>2016-12-11T09:11:16Z</time>
      </trkpt>
      <trkpt lat="43.09948" lon="-0.48675">
        <ele>600.96</ele>
        <time>2016-12-11T09:11:17Z</time>
      </trkpt>
      <trkpt lat="43.09946" lon="-0.48676">
        <ele>601.44</ele>
        <time>2016-12-11T09:11:18Z</time>
      </trkpt>
      <trkpt lat="43.09944" lon="-0.48676">
        <ele>601.44</ele>
        <time>2016-12-11T09:11:19Z</time>
      </trkpt>
      <trkpt lat="43.09943" lon="-0.48676">
        <ele>601.92</ele>
        <time>2016-12-11T09:11:20Z</time>
      </trkpt>
      <trkpt lat="43.0994" lon="-0.48677">
        <ele>602.4</ele>
        <time>2016-12-11T09:11:21Z</time>
      </trkpt>
      <trkpt lat="43.0993" lon="-0.48678">
        <ele>603.36</ele>
        <time>2016-12-11T09:11:26Z</time>
      </trkpt>
      <trkpt lat="43.09928" lon="-0.48678">
        <ele>603.36</ele>
        <time>2016-12-11T09:11:27Z</time>
      </trkpt>
      <trkpt lat="43.09923" lon="-0.4868">
        <ele>604.33</ele>
        <time>2016-12-11T09:11:30Z</time>
      </trkpt>
      <trkpt lat="43.09921" lon="-0.4868">
        <ele>604.81</ele>
        <time>2016-12-11T09:11:31Z</time>
      </trkpt>
      <trkpt lat="43.09899" lon="-0.48679">
        <ele>607.21</ele>
        <time>2016-12-11T09:11:43Z</time>
      </trkpt>
      <trkpt lat="43.09897" lon="-0.48679">
        <ele>607.69</ele>
        <time>2016-12-11T09:11:44Z</time>
      </trkpt>
      <trkpt lat="43.09895" lon="-0.48679">
        <ele>607.69</ele>
        <time>2016-12-11T09:11:45Z</time>
      </trkpt>
      <trkpt lat="43.09888" lon="-0.48674">
        <ele>608.17</ele>
        <time>2016-12-11T09:11:49Z</time>
      </trkpt>
      <trkpt lat="43.09887" lon="-0.48674">
        <ele>608.65</ele>
        <time>2016-12-11T09:11:50Z</time>
      </trkpt>
      <trkpt lat="43.09885" lon="-0.48673">
        <ele>608.65</ele>
        <time>2016-12-11T09:11:51Z</time>
      </trkpt>
      <trkpt lat="43.09883" lon="-0.48673">
        <ele>609.13</ele>
        <time>2016-12-11T09:11:52Z</time>
      </trkpt>
      <trkpt lat="43.09881" lon="-0.48672">
        <ele>609.61</ele>
        <time>2016-12-11T09:11:53Z</time>
      </trkpt>
      <trkpt lat="43.09875" lon="-0.4867">
        <ele>610.09</ele>
        <time>2016-12-11T09:11:56Z</time>
      </trkpt>
      <trkpt lat="43.09873" lon="-0.48669">
        <ele>610.09</ele>
        <time>2016-12-11T09:11:57Z</time>
      </trkpt>
      <trkpt lat="43.09871" lon="-0.48668">
        <ele>611.06</ele>
        <time>2016-12-11T09:11:58Z</time>
      </trkpt>
      <trkpt lat="43.09869" lon="-0.48666">
        <ele>610.57</ele>
        <time>2016-12-11T09:11:59Z</time>
      </trkpt>
      <trkpt lat="43.09868" lon="-0.48665">
        <ele>611.06</ele>
        <time>2016-12-11T09:12:00Z</time>
      </trkpt>
      <trkpt lat="43.09853" lon="-0.48655">
        <ele>614.42</ele>
        <time>2016-12-11T09:12:09Z</time>
      </trkpt>
      <trkpt lat="43.09834" lon="-0.48627">
        <ele>615.38</ele>
        <time>2016-12-11T09:12:21Z</time>
      </trkpt>
      <trkpt lat="43.09821" lon="-0.48619">
        <ele>615.86</ele>
        <time>2016-12-11T09:12:27Z</time>
      </trkpt>
      <trkpt lat="43.09819" lon="-0.4862">
        <ele>615.86</ele>
        <time>2016-12-11T09:12:28Z</time>
      </trkpt>
      <trkpt lat="43.09818" lon="-0.48623">
        <ele>616.82</ele>
        <time>2016-12-11T09:12:29Z</time>
      </trkpt>
      <trkpt lat="43.09817" lon="-0.48625">
        <ele>616.82</ele>
        <time>2016-12-11T09:12:30Z</time>
      </trkpt>
      <trkpt lat="43.09816" lon="-0.48627">
        <ele>617.3</ele>
        <time>2016-12-11T09:12:31Z</time>
      </trkpt>
      <trkpt lat="43.09816" lon="-0.4863">
        <ele>616.82</ele>
        <time>2016-12-11T09:12:32Z</time>
      </trkpt>
      <trkpt lat="43.09816" lon="-0.48632">
        <ele>617.78</ele>
        <time>2016-12-11T09:12:33Z</time>
      </trkpt>
      <trkpt lat="43.09817" lon="-0.48634">
        <ele>617.78</ele>
        <time>2016-12-11T09:12:34Z</time>
      </trkpt>
      <trkpt lat="43.09818" lon="-0.48637">
        <ele>617.78</ele>
        <time>2016-12-11T09:12:35Z</time>
      </trkpt>
      <trkpt lat="43.0982" lon="-0.4864">
        <ele>618.75</ele>
        <time>2016-12-11T09:12:36Z</time>
      </trkpt>
      <trkpt lat="43.09821" lon="-0.48642">
        <ele>618.26</ele>
        <time>2016-12-11T09:12:37Z</time>
      </trkpt>
      <trkpt lat="43.09823" lon="-0.48644">
        <ele>618.26</ele>
        <time>2016-12-11T09:12:38Z</time>
      </trkpt>
      <trkpt lat="43.09824" lon="-0.48647">
        <ele>618.26</ele>
        <time>2016-12-11T09:12:39Z</time>
      </trkpt>
      <trkpt lat="43.09826" lon="-0.48649">
        <ele>618.75</ele>
        <time>2016-12-11T09:12:40Z</time>
      </trkpt>
      <trkpt lat="43.09827" lon="-0.48651">
        <ele>618.75</ele>
        <time>2016-12-11T09:12:41Z</time>
      </trkpt>
      <trkpt lat="43.09834" lon="-0.48659">
        <ele>619.71</ele>
        <time>2016-12-11T09:12:45Z</time>
      </trkpt>
      <trkpt lat="43.09835" lon="-0.48662">
        <ele>619.23</ele>
        <time>2016-12-11T09:12:46Z</time>
      </trkpt>
      <trkpt lat="43.09846" lon="-0.4869">
        <ele>622.11</ele>
        <time>2016-12-11T09:12:56Z</time>
      </trkpt>
      <trkpt lat="43.09851" lon="-0.4871">
        <ele>623.07</ele>
        <time>2016-12-11T09:13:02Z</time>
      </trkpt>
      <trkpt lat="43.09852" lon="-0.48713">
        <ele>623.07</ele>
        <time>2016-12-11T09:13:03Z</time>
      </trkpt>
      <trkpt lat="43.09853" lon="-0.48716">
        <ele>623.55</ele>
        <time>2016-12-11T09:13:04Z</time>
      </trkpt>
      <trkpt lat="43.09854" lon="-0.48719">
        <ele>624.03</ele>
        <time>2016-12-11T09:13:05Z</time>
      </trkpt>
      <trkpt lat="43.09856" lon="-0.48723">
        <ele>624.51</ele>
        <time>2016-12-11T09:13:07Z</time>
      </trkpt>
      <trkpt lat="43.09858" lon="-0.48725">
        <ele>624.99</ele>
        <time>2016-12-11T09:13:08Z</time>
      </trkpt>
      <trkpt lat="43.09859" lon="-0.48728">
        <ele>625.47</ele>
        <time>2016-12-11T09:13:09Z</time>
      </trkpt>
      <trkpt lat="43.09869" lon="-0.48754">
        <ele>628.36</ele>
        <time>2016-12-11T09:13:20Z</time>
      </trkpt>
      <trkpt lat="43.0987" lon="-0.48756">
        <ele>628.36</ele>
        <time>2016-12-11T09:13:21Z</time>
      </trkpt>
      <trkpt lat="43.09871" lon="-0.48759">
        <ele>628.84</ele>
        <time>2016-12-11T09:13:22Z</time>
      </trkpt>
      <trkpt lat="43.09871" lon="-0.48761">
        <ele>629.32</ele>
        <time>2016-12-11T09:13:23Z</time>
      </trkpt>
      <trkpt lat="43.09872" lon="-0.48772">
        <ele>630.28</ele>
        <time>2016-12-11T09:13:28Z</time>
      </trkpt>
      <trkpt lat="43.09872" lon="-0.48774">
        <ele>630.28</ele>
        <time>2016-12-11T09:13:29Z</time>
      </trkpt>
      <trkpt lat="43.09876" lon="-0.48793">
        <ele>632.68</ele>
        <time>2016-12-11T09:13:37Z</time>
      </trkpt>
      <trkpt lat="43.09878" lon="-0.48797">
        <ele>633.17</ele>
        <time>2016-12-11T09:13:39Z</time>
      </trkpt>
      <trkpt lat="43.09879" lon="-0.48799">
        <ele>633.17</ele>
        <time>2016-12-11T09:13:40Z</time>
      </trkpt>
      <trkpt lat="43.0988" lon="-0.48802">
        <ele>633.65</ele>
        <time>2016-12-11T09:13:41Z</time>
      </trkpt>
      <trkpt lat="43.09881" lon="-0.48805">
        <ele>633.65</ele>
        <time>2016-12-11T09:13:42Z</time>
      </trkpt>
      <trkpt lat="43.09882" lon="-0.48807">
        <ele>633.65</ele>
        <time>2016-12-11T09:13:43Z</time>
      </trkpt>
      <trkpt lat="43.09882" lon="-0.48809">
        <ele>633.65</ele>
        <time>2016-12-11T09:13:44Z</time>
      </trkpt>
      <trkpt lat="43.09883" lon="-0.48812">
        <ele>634.13</ele>
        <time>2016-12-11T09:13:45Z</time>
      </trkpt>
      <trkpt lat="43.09882" lon="-0.48814">
        <ele>634.13</ele>
        <time>2016-12-11T09:13:46Z</time>
      </trkpt>
      <trkpt lat="43.09882" lon="-0.48817">
        <ele>634.61</ele>
        <time>2016-12-11T09:13:47Z</time>
      </trkpt>
      <trkpt lat="43.09883" lon="-0.48819">
        <ele>634.13</ele>
        <time>2016-12-11T09:13:48Z</time>
      </trkpt>
      <trkpt lat="43.09883" lon="-0.48822">
        <ele>634.61</ele>
        <time>2016-12-11T09:13:49Z</time>
      </trkpt>
      <trkpt lat="43.09884" lon="-0.48825">
        <ele>634.61</ele>
        <time>2016-12-11T09:13:50Z</time>
      </trkpt>
      <trkpt lat="43.09884" lon="-0.48827">
        <ele>635.09</ele>
        <time>2016-12-11T09:13:51Z</time>
      </trkpt>
      <trkpt lat="43.09886" lon="-0.4883">
        <ele>634.61</ele>
        <time>2016-12-11T09:13:52Z</time>
      </trkpt>
      <trkpt lat="43.09887" lon="-0.48833">
        <ele>635.09</ele>
        <time>2016-12-11T09:13:53Z</time>
      </trkpt>
      <trkpt lat="43.09899" lon="-0.48859">
        <ele>636.53</ele>
        <time>2016-12-11T09:14:04Z</time>
      </trkpt>
      <trkpt lat="43.09901" lon="-0.48867">
        <ele>637.97</ele>
        <time>2016-12-11T09:14:07Z</time>
      </trkpt>
      <trkpt lat="43.09901" lon="-0.48869">
        <ele>637.97</ele>
        <time>2016-12-11T09:14:08Z</time>
      </trkpt>
      <trkpt lat="43.09901" lon="-0.48871">
        <ele>637.97</ele>
        <time>2016-12-11T09:14:09Z</time>
      </trkpt>
      <trkpt lat="43.09902" lon="-0.48874">
        <ele>638.45</ele>
        <time>2016-12-11T09:14:10Z</time>
      </trkpt>
      <trkpt lat="43.09903" lon="-0.48876">
        <ele>638.93</ele>
        <time>2016-12-11T09:14:11Z</time>
      </trkpt>
      <trkpt lat="43.09904" lon="-0.48879">
        <ele>638.93</ele>
        <time>2016-12-11T09:14:12Z</time>
      </trkpt>
      <trkpt lat="43.09905" lon="-0.48882">
        <ele>638.93</ele>
        <time>2016-12-11T09:14:13Z</time>
      </trkpt>
      <trkpt lat="43.09911" lon="-0.48895">
        <ele>639.41</ele>
        <time>2016-12-11T09:14:18Z</time>
      </trkpt>
      <trkpt lat="43.09912" lon="-0.48898">
        <ele>639.89</ele>
        <time>2016-12-11T09:14:19Z</time>
      </trkpt>
      <trkpt lat="43.09915" lon="-0.48902">
        <ele>640.38</ele>
        <time>2016-12-11T09:14:21Z</time>
      </trkpt>
      <trkpt lat="43.09916" lon="-0.48905">
        <ele>640.38</ele>
        <time>2016-12-11T09:14:22Z</time>
      </trkpt>
      <trkpt lat="43.09917" lon="-0.48908">
        <ele>640.38</ele>
        <time>2016-12-11T09:14:23Z</time>
      </trkpt>
      <trkpt lat="43.09917" lon="-0.4891">
        <ele>640.86</ele>
        <time>2016-12-11T09:14:24Z</time>
      </trkpt>
      <trkpt lat="43.09919" lon="-0.48913">
        <ele>640.86</ele>
        <time>2016-12-11T09:14:25Z</time>
      </trkpt>
      <trkpt lat="43.0992" lon="-0.48915">
        <ele>640.86</ele>
        <time>2016-12-11T09:14:26Z</time>
      </trkpt>
      <trkpt lat="43.09923" lon="-0.48919">
        <ele>641.34</ele>
        <time>2016-12-11T09:14:28Z</time>
      </trkpt>
      <trkpt lat="43.09925" lon="-0.48921">
        <ele>641.82</ele>
        <time>2016-12-11T09:14:29Z</time>
      </trkpt>
      <trkpt lat="43.09926" lon="-0.48924">
        <ele>641.34</ele>
        <time>2016-12-11T09:14:30Z</time>
      </trkpt>
      <trkpt lat="43.09927" lon="-0.48926">
        <ele>641.82</ele>
        <time>2016-12-11T09:14:31Z</time>
      </trkpt>
      <trkpt lat="43.09928" lon="-0.48928">
        <ele>641.82</ele>
        <time>2016-12-11T09:14:32Z</time>
      </trkpt>
      <trkpt lat="43.09942" lon="-0.48943">
        <ele>644.22</ele>
        <time>2016-12-11T09:14:42Z</time>
      </trkpt>
      <trkpt lat="43.09957" lon="-0.48956">
        <ele>645.66</ele>
        <time>2016-12-11T09:14:51Z</time>
      </trkpt>
      <trkpt lat="43.09975" lon="-0.48964">
        <ele>647.59</ele>
        <time>2016-12-11T09:15:02Z</time>
      </trkpt>
      <trkpt lat="43.09998" lon="-0.4897">
        <ele>650.47</ele>
        <time>2016-12-11T09:15:13Z</time>
      </trkpt>
      <trkpt lat="43.10011" lon="-0.48971">
        <ele>651.91</ele>
        <time>2016-12-11T09:15:20Z</time>
      </trkpt>
      <trkpt lat="43.10012" lon="-0.48971">
        <ele>652.39</ele>
        <time>2016-12-11T09:15:21Z</time>
      </trkpt>
      <trkpt lat="43.10014" lon="-0.4897">
        <ele>652.39</ele>
        <time>2016-12-11T09:15:22Z</time>
      </trkpt>
      <trkpt lat="43.10024" lon="-0.48967">
        <ele>653.35</ele>
        <time>2016-12-11T09:15:30Z</time>
      </trkpt>
      <trkpt lat="43.10042" lon="-0.4896">
        <ele>655.28</ele>
        <time>2016-12-11T09:15:39Z</time>
      </trkpt>
      <trkpt lat="43.10045" lon="-0.4896">
        <ele>655.76</ele>
        <time>2016-12-11T09:15:40Z</time>
      </trkpt>
      <trkpt lat="43.10047" lon="-0.48959">
        <ele>655.76</ele>
        <time>2016-12-11T09:15:41Z</time>
      </trkpt>
      <trkpt lat="43.10049" lon="-0.48958">
        <ele>656.24</ele>
        <time>2016-12-11T09:15:42Z</time>
      </trkpt>
      <trkpt lat="43.10051" lon="-0.48956">
        <ele>656.72</ele>
        <time>2016-12-11T09:15:43Z</time>
      </trkpt>
      <trkpt lat="43.10052" lon="-0.48955">
        <ele>656.72</ele>
        <time>2016-12-11T09:15:44Z</time>
      </trkpt>
      <trkpt lat="43.10065" lon="-0.48942">
        <ele>658.16</ele>
        <time>2016-12-11T09:15:52Z</time>
      </trkpt>
      <trkpt lat="43.10076" lon="-0.48927">
        <ele>660.08</ele>
        <time>2016-12-11T09:16:00Z</time>
      </trkpt>
      <trkpt lat="43.10078" lon="-0.48924">
        <ele>660.08</ele>
        <time>2016-12-11T09:16:01Z</time>
      </trkpt>
      <trkpt lat="43.10092" lon="-0.48901">
        <ele>663.45</ele>
        <time>2016-12-11T09:16:13Z</time>
      </trkpt>
      <trkpt lat="43.10095" lon="-0.48895">
        <ele>663.93</ele>
        <time>2016-12-11T09:16:16Z</time>
      </trkpt>
      <trkpt lat="43.1011" lon="-0.48886">
        <ele>665.37</ele>
        <time>2016-12-11T09:16:26Z</time>
      </trkpt>
      <trkpt lat="43.10115" lon="-0.4889">
        <ele>665.85</ele>
        <time>2016-12-11T09:16:29Z</time>
      </trkpt>
      <trkpt lat="43.10129" lon="-0.48915">
        <ele>669.22</ele>
        <time>2016-12-11T09:16:42Z</time>
      </trkpt>
      <trkpt lat="43.10133" lon="-0.4892">
        <ele>669.7</ele>
        <time>2016-12-11T09:16:45Z</time>
      </trkpt>
      <trkpt lat="43.10136" lon="-0.4893">
        <ele>670.66</ele>
        <time>2016-12-11T09:16:50Z</time>
      </trkpt>
      <trkpt lat="43.10146" lon="-0.48947">
        <ele>673.06</ele>
        <time>2016-12-11T09:17:00Z</time>
      </trkpt>
      <trkpt lat="43.10147" lon="-0.48953">
        <ele>673.54</ele>
        <time>2016-12-11T09:17:02Z</time>
      </trkpt>
      <trkpt lat="43.1015" lon="-0.48962">
        <ele>674.5</ele>
        <time>2016-12-11T09:17:06Z</time>
      </trkpt>
      <trkpt lat="43.10153" lon="-0.48982">
        <ele>675.94</ele>
        <time>2016-12-11T09:17:13Z</time>
      </trkpt>
      <trkpt lat="43.10156" lon="-0.49003">
        <ele>677.39</ele>
        <time>2016-12-11T09:17:21Z</time>
      </trkpt>
      <trkpt lat="43.10162" lon="-0.49037">
        <ele>679.79</ele>
        <time>2016-12-11T09:17:33Z</time>
      </trkpt>
      <trkpt lat="43.10165" lon="-0.4905">
        <ele>680.75</ele>
        <time>2016-12-11T09:17:38Z</time>
      </trkpt>
      <trkpt lat="43.10165" lon="-0.49057">
        <ele>681.23</ele>
        <time>2016-12-11T09:17:41Z</time>
      </trkpt>
      <trkpt lat="43.10169" lon="-0.49083">
        <ele>683.15</ele>
        <time>2016-12-11T09:17:50Z</time>
      </trkpt>
      <trkpt lat="43.10175" lon="-0.49124">
        <ele>684.6</ele>
        <time>2016-12-11T09:18:02Z</time>
      </trkpt>
      <trkpt lat="43.10184" lon="-0.49163">
        <ele>685.56</ele>
        <time>2016-12-11T09:18:13Z</time>
      </trkpt>
      <trkpt lat="43.10188" lon="-0.49209">
        <ele>686.04</ele>
        <time>2016-12-11T09:18:25Z</time>
      </trkpt>
      <trkpt lat="43.10198" lon="-0.4927">
        <ele>685.08</ele>
        <time>2016-12-11T09:18:38Z</time>
      </trkpt>
      <trkpt lat="43.10206" lon="-0.49326">
        <ele>685.08</ele>
        <time>2016-12-11T09:18:50Z</time>
      </trkpt>
      <trkpt lat="43.10234" lon="-0.4936">
        <ele>685.08</ele>
        <time>2016-12-11T09:19:00Z</time>
      </trkpt>
      <trkpt lat="43.10242" lon="-0.49372">
        <ele>685.08</ele>
        <time>2016-12-11T09:19:03Z</time>
      </trkpt>
      <trkpt lat="43.10244" lon="-0.49376">
        <ele>685.08</ele>
        <time>2016-12-11T09:19:04Z</time>
      </trkpt>
      <trkpt lat="43.10247" lon="-0.4938">
        <ele>685.08</ele>
        <time>2016-12-11T09:19:05Z</time>
      </trkpt>
      <trkpt lat="43.10261" lon="-0.49408">
        <ele>684.6</ele>
        <time>2016-12-11T09:19:11Z</time>
      </trkpt>
      <trkpt lat="43.10263" lon="-0.49413">
        <ele>684.6</ele>
        <time>2016-12-11T09:19:12Z</time>
      </trkpt>
      <trkpt lat="43.10266" lon="-0.49418">
        <ele>685.08</ele>
        <time>2016-12-11T09:19:13Z</time>
      </trkpt>
      <trkpt lat="43.1027" lon="-0.49429">
        <ele>685.08</ele>
        <time>2016-12-11T09:19:15Z</time>
      </trkpt>
      <trkpt lat="43.10284" lon="-0.49468">
        <ele>685.08</ele>
        <time>2016-12-11T09:19:22Z</time>
      </trkpt>
      <trkpt lat="43.10295" lon="-0.49517">
        <ele>685.56</ele>
        <time>2016-12-11T09:19:31Z</time>
      </trkpt>
      <trkpt lat="43.10301" lon="-0.49552">
        <ele>685.56</ele>
        <time>2016-12-11T09:19:38Z</time>
      </trkpt>
      <trkpt lat="43.10303" lon="-0.49564">
        <ele>685.56</ele>
        <time>2016-12-11T09:19:40Z</time>
      </trkpt>
      <trkpt lat="43.10307" lon="-0.49582">
        <ele>686.04</ele>
        <time>2016-12-11T09:19:43Z</time>
      </trkpt>
      <trkpt lat="43.10312" lon="-0.49616">
        <ele>686.04</ele>
        <time>2016-12-11T09:19:49Z</time>
      </trkpt>
      <trkpt lat="43.10323" lon="-0.49655">
        <ele>686.04</ele>
        <time>2016-12-11T09:19:56Z</time>
      </trkpt>
      <trkpt lat="43.10325" lon="-0.4966">
        <ele>686.52</ele>
        <time>2016-12-11T09:19:57Z</time>
      </trkpt>
      <trkpt lat="43.10327" lon="-0.49665">
        <ele>686.52</ele>
        <time>2016-12-11T09:19:58Z</time>
      </trkpt>
      <trkpt lat="43.10329" lon="-0.49671">
        <ele>686.52</ele>
        <time>2016-12-11T09:19:59Z</time>
      </trkpt>
      <trkpt lat="43.10331" lon="-0.49677">
        <ele>686.52</ele>
        <time>2016-12-11T09:20:00Z</time>
      </trkpt>
      <trkpt lat="43.10342" lon="-0.49736">
        <ele>687.48</ele>
        <time>2016-12-11T09:20:11Z</time>
      </trkpt>
      <trkpt lat="43.10341" lon="-0.49741">
        <ele>687.48</ele>
        <time>2016-12-11T09:20:12Z</time>
      </trkpt>
      <trkpt lat="43.10339" lon="-0.49745">
        <ele>687.96</ele>
        <time>2016-12-11T09:20:13Z</time>
      </trkpt>
      <trkpt lat="43.10336" lon="-0.49748">
        <ele>687.96</ele>
        <time>2016-12-11T09:20:14Z</time>
      </trkpt>
      <trkpt lat="43.10333" lon="-0.49751">
        <ele>687.96</ele>
        <time>2016-12-11T09:20:15Z</time>
      </trkpt>
      <trkpt lat="43.1033" lon="-0.49753">
        <ele>687.96</ele>
        <time>2016-12-11T09:20:16Z</time>
      </trkpt>
      <trkpt lat="43.10296" lon="-0.49754">
        <ele>690.36</ele>
        <time>2016-12-11T09:20:27Z</time>
      </trkpt>
      <trkpt lat="43.10285" lon="-0.49753">
        <ele>691.33</ele>
        <time>2016-12-11T09:20:31Z</time>
      </trkpt>
      <trkpt lat="43.10262" lon="-0.49753">
        <ele>694.21</ele>
        <time>2016-12-11T09:20:43Z</time>
      </trkpt>
      <trkpt lat="43.1026" lon="-0.49753">
        <ele>694.69</ele>
        <time>2016-12-11T09:20:44Z</time>
      </trkpt>
      <trkpt lat="43.10258" lon="-0.49754">
        <ele>694.69</ele>
        <time>2016-12-11T09:20:45Z</time>
      </trkpt>
      <trkpt lat="43.10257" lon="-0.49755">
        <ele>695.17</ele>
        <time>2016-12-11T09:20:46Z</time>
      </trkpt>
      <trkpt lat="43.10255" lon="-0.49756">
        <ele>695.17</ele>
        <time>2016-12-11T09:20:47Z</time>
      </trkpt>
      <trkpt lat="43.10254" lon="-0.49757">
        <ele>695.65</ele>
        <time>2016-12-11T09:20:48Z</time>
      </trkpt>
      <trkpt lat="43.10239" lon="-0.49769">
        <ele>697.57</ele>
        <time>2016-12-11T09:20:57Z</time>
      </trkpt>
      <trkpt lat="43.10231" lon="-0.49777">
        <ele>699.02</ele>
        <time>2016-12-11T09:21:02Z</time>
      </trkpt>
      <trkpt lat="43.1023" lon="-0.49777">
        <ele>699.02</ele>
        <time>2016-12-11T09:21:03Z</time>
      </trkpt>
      <trkpt lat="43.10228" lon="-0.49779">
        <ele>699.5</ele>
        <time>2016-12-11T09:21:04Z</time>
      </trkpt>
      <trkpt lat="43.10227" lon="-0.49781">
        <ele>699.5</ele>
        <time>2016-12-11T09:21:05Z</time>
      </trkpt>
      <trkpt lat="43.10224" lon="-0.49783">
        <ele>699.98</ele>
        <time>2016-12-11T09:21:07Z</time>
      </trkpt>
      <trkpt lat="43.10211" lon="-0.49796">
        <ele>702.86</ele>
        <time>2016-12-11T09:21:18Z</time>
      </trkpt>
      <trkpt lat="43.10208" lon="-0.49798">
        <ele>703.34</ele>
        <time>2016-12-11T09:21:20Z</time>
      </trkpt>
      <trkpt lat="43.10206" lon="-0.49803">
        <ele>703.82</ele>
        <time>2016-12-11T09:21:23Z</time>
      </trkpt>
      <trkpt lat="43.10205" lon="-0.49804">
        <ele>704.3</ele>
        <time>2016-12-11T09:21:24Z</time>
      </trkpt>
      <trkpt lat="43.10204" lon="-0.49805">
        <ele>704.3</ele>
        <time>2016-12-11T09:21:25Z</time>
      </trkpt>
      <trkpt lat="43.10202" lon="-0.49807">
        <ele>704.78</ele>
        <time>2016-12-11T09:21:26Z</time>
      </trkpt>
      <trkpt lat="43.10201" lon="-0.49809">
        <ele>705.26</ele>
        <time>2016-12-11T09:21:27Z</time>
      </trkpt>
      <trkpt lat="43.10198" lon="-0.49813">
        <ele>705.26</ele>
        <time>2016-12-11T09:21:29Z</time>
      </trkpt>
      <trkpt lat="43.10196" lon="-0.49815">
        <ele>705.75</ele>
        <time>2016-12-11T09:21:30Z</time>
      </trkpt>
      <trkpt lat="43.10196" lon="-0.49817">
        <ele>706.23</ele>
        <time>2016-12-11T09:21:31Z</time>
      </trkpt>
      <trkpt lat="43.10195" lon="-0.49819">
        <ele>706.23</ele>
        <time>2016-12-11T09:21:32Z</time>
      </trkpt>
      <trkpt lat="43.10193" lon="-0.49821">
        <ele>706.23</ele>
        <time>2016-12-11T09:21:33Z</time>
      </trkpt>
      <trkpt lat="43.10192" lon="-0.49823">
        <ele>706.71</ele>
        <time>2016-12-11T09:21:34Z</time>
      </trkpt>
      <trkpt lat="43.10191" lon="-0.49824">
        <ele>706.71</ele>
        <time>2016-12-11T09:21:35Z</time>
      </trkpt>
      <trkpt lat="43.1019" lon="-0.49826">
        <ele>706.71</ele>
        <time>2016-12-11T09:21:36Z</time>
      </trkpt>
      <trkpt lat="43.10189" lon="-0.49827">
        <ele>707.19</ele>
        <time>2016-12-11T09:21:37Z</time>
      </trkpt>
      <trkpt lat="43.10188" lon="-0.49829">
        <ele>707.19</ele>
        <time>2016-12-11T09:21:38Z</time>
      </trkpt>
      <trkpt lat="43.10188" lon="-0.49831">
        <ele>707.19</ele>
        <time>2016-12-11T09:21:39Z</time>
      </trkpt>
      <trkpt lat="43.10186" lon="-0.49833">
        <ele>707.19</ele>
        <time>2016-12-11T09:21:40Z</time>
      </trkpt>
      <trkpt lat="43.10185" lon="-0.49836">
        <ele>708.15</ele>
        <time>2016-12-11T09:21:42Z</time>
      </trkpt>
      <trkpt lat="43.10185" lon="-0.49838">
        <ele>707.67</ele>
        <time>2016-12-11T09:21:43Z</time>
      </trkpt>
      <trkpt lat="43.10184" lon="-0.4984">
        <ele>708.15</ele>
        <time>2016-12-11T09:21:44Z</time>
      </trkpt>
      <trkpt lat="43.10183" lon="-0.49841">
        <ele>708.63</ele>
        <time>2016-12-11T09:21:45Z</time>
      </trkpt>
      <trkpt lat="43.10181" lon="-0.49847">
        <ele>709.59</ele>
        <time>2016-12-11T09:21:49Z</time>
      </trkpt>
      <trkpt lat="43.10181" lon="-0.4985">
        <ele>710.07</ele>
        <time>2016-12-11T09:21:50Z</time>
      </trkpt>
      <trkpt lat="43.10181" lon="-0.49851">
        <ele>710.07</ele>
        <time>2016-12-11T09:21:51Z</time>
      </trkpt>
      <trkpt lat="43.10181" lon="-0.49853">
        <ele>711.03</ele>
        <time>2016-12-11T09:21:52Z</time>
      </trkpt>
      <trkpt lat="43.10182" lon="-0.49855">
        <ele>710.55</ele>
        <time>2016-12-11T09:21:53Z</time>
      </trkpt>
      <trkpt lat="43.10182" lon="-0.49858">
        <ele>711.03</ele>
        <time>2016-12-11T09:21:54Z</time>
      </trkpt>
      <trkpt lat="43.10182" lon="-0.4986">
        <ele>711.03</ele>
        <time>2016-12-11T09:21:55Z</time>
      </trkpt>
      <trkpt lat="43.10182" lon="-0.49862">
        <ele>711.99</ele>
        <time>2016-12-11T09:21:56Z</time>
      </trkpt>
      <trkpt lat="43.10182" lon="-0.49865">
        <ele>711.51</ele>
        <time>2016-12-11T09:21:57Z</time>
      </trkpt>
      <trkpt lat="43.10182" lon="-0.49867">
        <ele>711.99</ele>
        <time>2016-12-11T09:21:58Z</time>
      </trkpt>
      <trkpt lat="43.10182" lon="-0.49869">
        <ele>712.47</ele>
        <time>2016-12-11T09:21:59Z</time>
      </trkpt>
      <trkpt lat="43.10182" lon="-0.49872">
        <ele>712.47</ele>
        <time>2016-12-11T09:22:00Z</time>
      </trkpt>
      <trkpt lat="43.10183" lon="-0.49874">
        <ele>712.95</ele>
        <time>2016-12-11T09:22:01Z</time>
      </trkpt>
      <trkpt lat="43.10183" lon="-0.49876">
        <ele>712.95</ele>
        <time>2016-12-11T09:22:02Z</time>
      </trkpt>
      <trkpt lat="43.10184" lon="-0.49878">
        <ele>713.44</ele>
        <time>2016-12-11T09:22:03Z</time>
      </trkpt>
      <trkpt lat="43.10184" lon="-0.4988">
        <ele>713.44</ele>
        <time>2016-12-11T09:22:04Z</time>
      </trkpt>
      <trkpt lat="43.10185" lon="-0.49882">
        <ele>713.92</ele>
        <time>2016-12-11T09:22:05Z</time>
      </trkpt>
      <trkpt lat="43.10186" lon="-0.49889">
        <ele>714.88</ele>
        <time>2016-12-11T09:22:09Z</time>
      </trkpt>
      <trkpt lat="43.10186" lon="-0.49891">
        <ele>715.36</ele>
        <time>2016-12-11T09:22:10Z</time>
      </trkpt>
      <trkpt lat="43.10192" lon="-0.49917">
        <ele>717.76</ele>
        <time>2016-12-11T09:22:22Z</time>
      </trkpt>
      <trkpt lat="43.10193" lon="-0.49935">
        <ele>719.2</ele>
        <time>2016-12-11T09:22:31Z</time>
      </trkpt>
      <trkpt lat="43.10193" lon="-0.49937">
        <ele>719.2</ele>
        <time>2016-12-11T09:22:32Z</time>
      </trkpt>
      <trkpt lat="43.10193" lon="-0.49939">
        <ele>719.2</ele>
        <time>2016-12-11T09:22:33Z</time>
      </trkpt>
      <trkpt lat="43.10193" lon="-0.4994">
        <ele>719.68</ele>
        <time>2016-12-11T09:22:34Z</time>
      </trkpt>
      <trkpt lat="43.10193" lon="-0.49942">
        <ele>719.2</ele>
        <time>2016-12-11T09:22:35Z</time>
      </trkpt>
      <trkpt lat="43.10193" lon="-0.49944">
        <ele>719.2</ele>
        <time>2016-12-11T09:22:36Z</time>
      </trkpt>
      <trkpt lat="43.10193" lon="-0.49946">
        <ele>719.2</ele>
        <time>2016-12-11T09:22:37Z</time>
      </trkpt>
      <trkpt lat="43.10194" lon="-0.4996">
        <ele>720.65</ele>
        <time>2016-12-11T09:22:47Z</time>
      </trkpt>
      <trkpt lat="43.10195" lon="-0.49961">
        <ele>720.16</ele>
        <time>2016-12-11T09:22:48Z</time>
      </trkpt>
      <trkpt lat="43.10196" lon="-0.49965">
        <ele>720.65</ele>
        <time>2016-12-11T09:22:51Z</time>
      </trkpt>
      <trkpt lat="43.10196" lon="-0.49967">
        <ele>720.65</ele>
        <time>2016-12-11T09:22:52Z</time>
      </trkpt>
      <trkpt lat="43.10196" lon="-0.49969">
        <ele>720.65</ele>
        <time>2016-12-11T09:22:53Z</time>
      </trkpt>
      <trkpt lat="43.10196" lon="-0.49971">
        <ele>720.65</ele>
        <time>2016-12-11T09:22:54Z</time>
      </trkpt>
      <trkpt lat="43.10197" lon="-0.49972">
        <ele>721.13</ele>
        <time>2016-12-11T09:22:55Z</time>
      </trkpt>
      <trkpt lat="43.10198" lon="-0.49973">
        <ele>721.13</ele>
        <time>2016-12-11T09:22:56Z</time>
      </trkpt>
      <trkpt lat="43.10199" lon="-0.49975">
        <ele>721.13</ele>
        <time>2016-12-11T09:22:57Z</time>
      </trkpt>
      <trkpt lat="43.10203" lon="-0.49982">
        <ele>722.09</ele>
        <time>2016-12-11T09:23:02Z</time>
      </trkpt>
      <trkpt lat="43.10203" lon="-0.49984">
        <ele>722.09</ele>
        <time>2016-12-11T09:23:03Z</time>
      </trkpt>
      <trkpt lat="43.10207" lon="-0.4999">
        <ele>722.57</ele>
        <time>2016-12-11T09:23:09Z</time>
      </trkpt>
      <trkpt lat="43.10207" lon="-0.49991">
        <ele>722.57</ele>
        <time>2016-12-11T09:23:10Z</time>
      </trkpt>
      <trkpt lat="43.10215" lon="-0.5">
        <ele>724.01</ele>
        <time>2016-12-11T09:23:18Z</time>
      </trkpt>
      <trkpt lat="43.10216" lon="-0.50001">
        <ele>724.01</ele>
        <time>2016-12-11T09:23:19Z</time>
      </trkpt>
      <trkpt lat="43.10218" lon="-0.50006">
        <ele>724.01</ele>
        <time>2016-12-11T09:23:22Z</time>
      </trkpt>
      <trkpt lat="43.10229" lon="-0.50023">
        <ele>725.45</ele>
        <time>2016-12-11T09:23:36Z</time>
      </trkpt>
      <trkpt lat="43.10233" lon="-0.5003">
        <ele>725.93</ele>
        <time>2016-12-11T09:23:42Z</time>
      </trkpt>
      <trkpt lat="43.10235" lon="-0.50033">
        <ele>725.93</ele>
        <time>2016-12-11T09:23:47Z</time>
      </trkpt>
      <trkpt lat="43.10236" lon="-0.50038">
        <ele>725.93</ele>
        <time>2016-12-11T09:23:51Z</time>
      </trkpt>
      <trkpt lat="43.10241" lon="-0.50048">
        <ele>726.89</ele>
        <time>2016-12-11T09:23:57Z</time>
      </trkpt>
      <trkpt lat="43.10254" lon="-0.50081">
        <ele>727.86</ele>
        <time>2016-12-11T09:24:09Z</time>
      </trkpt>
      <trkpt lat="43.1026" lon="-0.50105">
        <ele>727.86</ele>
        <time>2016-12-11T09:24:16Z</time>
      </trkpt>
      <trkpt lat="43.10263" lon="-0.50125">
        <ele>727.37</ele>
        <time>2016-12-11T09:24:23Z</time>
      </trkpt>
      <trkpt lat="43.10265" lon="-0.50135">
        <ele>726.89</ele>
        <time>2016-12-11T09:24:29Z</time>
      </trkpt>
      <trkpt lat="43.10268" lon="-0.50139">
        <ele>726.89</ele>
        <time>2016-12-11T09:24:42Z</time>
      </trkpt>
      <trkpt lat="43.10269" lon="-0.5014">
        <ele>727.37</ele>
        <time>2016-12-11T09:25:07Z</time>
      </trkpt>
      <trkpt lat="43.1027" lon="-0.50142">
        <ele>727.37</ele>
        <time>2016-12-11T09:25:30Z</time>
      </trkpt>
      <trkpt lat="43.10269" lon="-0.50143">
        <ele>727.37</ele>
        <time>2016-12-11T09:25:57Z</time>
      </trkpt>
      <trkpt lat="43.10269" lon="-0.50143">
        <ele>727.37</ele>
        <time>2016-12-11T09:26:20Z</time>
      </trkpt>
      <trkpt lat="43.10269" lon="-0.50144">
        <ele>727.37</ele>
        <time>2016-12-11T09:26:25Z</time>
      </trkpt>
      <trkpt lat="43.10272" lon="-0.50152">
        <ele>727.37</ele>
        <time>2016-12-11T09:26:29Z</time>
      </trkpt>
      <trkpt lat="43.10272" lon="-0.50163">
        <ele>727.37</ele>
        <time>2016-12-11T09:26:33Z</time>
      </trkpt>
      <trkpt lat="43.10272" lon="-0.50173">
        <ele>726.89</ele>
        <time>2016-12-11T09:26:38Z</time>
      </trkpt>
      <trkpt lat="43.10274" lon="-0.50177">
        <ele>726.89</ele>
        <time>2016-12-11T09:26:40Z</time>
      </trkpt>
      <trkpt lat="43.1028" lon="-0.50199">
        <ele>726.41</ele>
        <time>2016-12-11T09:26:48Z</time>
      </trkpt>
      <trkpt lat="43.10281" lon="-0.5021">
        <ele>726.89</ele>
        <time>2016-12-11T09:26:52Z</time>
      </trkpt>
      <trkpt lat="43.10298" lon="-0.50251">
        <ele>725.93</ele>
        <time>2016-12-11T09:27:01Z</time>
      </trkpt>
      <trkpt lat="43.10308" lon="-0.50273">
        <ele>725.93</ele>
        <time>2016-12-11T09:27:06Z</time>
      </trkpt>
      <trkpt lat="43.10321" lon="-0.50314">
        <ele>725.45</ele>
        <time>2016-12-11T09:27:16Z</time>
      </trkpt>
      <trkpt lat="43.10326" lon="-0.50327">
        <ele>726.41</ele>
        <time>2016-12-11T09:27:19Z</time>
      </trkpt>
      <trkpt lat="43.10335" lon="-0.50379">
        <ele>725.93</ele>
        <time>2016-12-11T09:27:30Z</time>
      </trkpt>
      <trkpt lat="43.10349" lon="-0.50436">
        <ele>725.93</ele>
        <time>2016-12-11T09:27:41Z</time>
      </trkpt>
      <trkpt lat="43.10354" lon="-0.50481">
        <ele>725.45</ele>
        <time>2016-12-11T09:27:49Z</time>
      </trkpt>
      <trkpt lat="43.10354" lon="-0.50487">
        <ele>725.45</ele>
        <time>2016-12-11T09:27:50Z</time>
      </trkpt>
      <trkpt lat="43.10355" lon="-0.50494">
        <ele>725.45</ele>
        <time>2016-12-11T09:27:51Z</time>
      </trkpt>
      <trkpt lat="43.10356" lon="-0.50501">
        <ele>724.97</ele>
        <time>2016-12-11T09:27:52Z</time>
      </trkpt>
      <trkpt lat="43.10357" lon="-0.50508">
        <ele>724.97</ele>
        <time>2016-12-11T09:27:53Z</time>
      </trkpt>
      <trkpt lat="43.10358" lon="-0.50516">
        <ele>724.01</ele>
        <time>2016-12-11T09:27:54Z</time>
      </trkpt>
      <trkpt lat="43.1036" lon="-0.50524">
        <ele>724.49</ele>
        <time>2016-12-11T09:27:55Z</time>
      </trkpt>
      <trkpt lat="43.10369" lon="-0.50542">
        <ele>724.01</ele>
        <time>2016-12-11T09:27:57Z</time>
      </trkpt>
      <trkpt lat="43.10373" lon="-0.50549">
        <ele>724.01</ele>
        <time>2016-12-11T09:27:58Z</time>
      </trkpt>
      <trkpt lat="43.10385" lon="-0.50566">
        <ele>724.01</ele>
        <time>2016-12-11T09:28:00Z</time>
      </trkpt>
      <trkpt lat="43.10389" lon="-0.50574">
        <ele>724.01</ele>
        <time>2016-12-11T09:28:01Z</time>
      </trkpt>
      <trkpt lat="43.10392" lon="-0.50583">
        <ele>723.53</ele>
        <time>2016-12-11T09:28:02Z</time>
      </trkpt>
      <trkpt lat="43.10401" lon="-0.50608">
        <ele>722.57</ele>
        <time>2016-12-11T09:28:05Z</time>
      </trkpt>
      <trkpt lat="43.10416" lon="-0.50646">
        <ele>722.09</ele>
        <time>2016-12-11T09:28:12Z</time>
      </trkpt>
      <trkpt lat="43.10424" lon="-0.50665">
        <ele>721.61</ele>
        <time>2016-12-11T09:28:15Z</time>
      </trkpt>
      <trkpt lat="43.10428" lon="-0.50679">
        <ele>721.13</ele>
        <time>2016-12-11T09:28:17Z</time>
      </trkpt>
      <trkpt lat="43.10431" lon="-0.50685">
        <ele>721.13</ele>
        <time>2016-12-11T09:28:18Z</time>
      </trkpt>
      <trkpt lat="43.10432" lon="-0.50691">
        <ele>721.13</ele>
        <time>2016-12-11T09:28:19Z</time>
      </trkpt>
      <trkpt lat="43.10434" lon="-0.50697">
        <ele>720.16</ele>
        <time>2016-12-11T09:28:20Z</time>
      </trkpt>
      <trkpt lat="43.10437" lon="-0.50705">
        <ele>720.16</ele>
        <time>2016-12-11T09:28:21Z</time>
      </trkpt>
      <trkpt lat="43.10439" lon="-0.50714">
        <ele>720.16</ele>
        <time>2016-12-11T09:28:22Z</time>
      </trkpt>
      <trkpt lat="43.1044" lon="-0.50723">
        <ele>719.2</ele>
        <time>2016-12-11T09:28:23Z</time>
      </trkpt>
      <trkpt lat="43.10441" lon="-0.50734">
        <ele>718.72</ele>
        <time>2016-12-11T09:28:24Z</time>
      </trkpt>
      <trkpt lat="43.10441" lon="-0.50757">
        <ele>717.76</ele>
        <time>2016-12-11T09:28:26Z</time>
      </trkpt>
      <trkpt lat="43.1044" lon="-0.50768">
        <ele>717.76</ele>
        <time>2016-12-11T09:28:27Z</time>
      </trkpt>
      <trkpt lat="43.10438" lon="-0.50794">
        <ele>716.32</ele>
        <time>2016-12-11T09:28:29Z</time>
      </trkpt>
      <trkpt lat="43.10437" lon="-0.50817">
        <ele>714.4</ele>
        <time>2016-12-11T09:28:31Z</time>
      </trkpt>
      <trkpt lat="43.10438" lon="-0.50828">
        <ele>713.44</ele>
        <time>2016-12-11T09:28:32Z</time>
      </trkpt>
      <trkpt lat="43.1044" lon="-0.50837">
        <ele>712.95</ele>
        <time>2016-12-11T09:28:33Z</time>
      </trkpt>
      <trkpt lat="43.10443" lon="-0.50847">
        <ele>712.95</ele>
        <time>2016-12-11T09:28:34Z</time>
      </trkpt>
      <trkpt lat="43.10446" lon="-0.50856">
        <ele>712.47</ele>
        <time>2016-12-11T09:28:35Z</time>
      </trkpt>
      <trkpt lat="43.10461" lon="-0.50894">
        <ele>711.03</ele>
        <time>2016-12-11T09:28:39Z</time>
      </trkpt>
      <trkpt lat="43.10462" lon="-0.50905">
        <ele>710.07</ele>
        <time>2016-12-11T09:28:40Z</time>
      </trkpt>
      <trkpt lat="43.10463" lon="-0.50925">
        <ele>709.59</ele>
        <time>2016-12-11T09:28:42Z</time>
      </trkpt>
      <trkpt lat="43.10463" lon="-0.50955">
        <ele>705.75</ele>
        <time>2016-12-11T09:28:44Z</time>
      </trkpt>
      <trkpt lat="43.10465" lon="-0.50988">
        <ele>702.38</ele>
        <time>2016-12-11T09:28:47Z</time>
      </trkpt>
      <trkpt lat="43.10468" lon="-0.50999">
        <ele>700.94</ele>
        <time>2016-12-11T09:28:48Z</time>
      </trkpt>
      <trkpt lat="43.10477" lon="-0.5102">
        <ele>698.53</ele>
        <time>2016-12-11T09:28:50Z</time>
      </trkpt>
      <trkpt lat="43.10487" lon="-0.51037">
        <ele>695.65</ele>
        <time>2016-12-11T09:28:52Z</time>
      </trkpt>
      <trkpt lat="43.10493" lon="-0.51043">
        <ele>694.69</ele>
        <time>2016-12-11T09:28:53Z</time>
      </trkpt>
      <trkpt lat="43.10498" lon="-0.51048">
        <ele>693.73</ele>
        <time>2016-12-11T09:28:54Z</time>
      </trkpt>
      <trkpt lat="43.10503" lon="-0.51051">
        <ele>691.81</ele>
        <time>2016-12-11T09:28:55Z</time>
      </trkpt>
      <trkpt lat="43.10508" lon="-0.51054">
        <ele>691.33</ele>
        <time>2016-12-11T09:28:56Z</time>
      </trkpt>
      <trkpt lat="43.10513" lon="-0.51055">
        <ele>690.84</ele>
        <time>2016-12-11T09:28:57Z</time>
      </trkpt>
      <trkpt lat="43.10517" lon="-0.51054">
        <ele>690.84</ele>
        <time>2016-12-11T09:28:58Z</time>
      </trkpt>
      <trkpt lat="43.10523" lon="-0.51053">
        <ele>689.88</ele>
        <time>2016-12-11T09:28:59Z</time>
      </trkpt>
      <trkpt lat="43.1053" lon="-0.51054">
        <ele>687.96</ele>
        <time>2016-12-11T09:29:01Z</time>
      </trkpt>
      <trkpt lat="43.10534" lon="-0.51057">
        <ele>687.96</ele>
        <time>2016-12-11T09:29:02Z</time>
      </trkpt>
      <trkpt lat="43.10538" lon="-0.51062">
        <ele>687.96</ele>
        <time>2016-12-11T09:29:03Z</time>
      </trkpt>
      <trkpt lat="43.10543" lon="-0.51072">
        <ele>687</ele>
        <time>2016-12-11T09:29:05Z</time>
      </trkpt>
      <trkpt lat="43.10544" lon="-0.51078">
        <ele>686.52</ele>
        <time>2016-12-11T09:29:06Z</time>
      </trkpt>
      <trkpt lat="43.10545" lon="-0.51084">
        <ele>686.04</ele>
        <time>2016-12-11T09:29:07Z</time>
      </trkpt>
      <trkpt lat="43.10551" lon="-0.51123">
        <ele>684.12</ele>
        <time>2016-12-11T09:29:15Z</time>
      </trkpt>
      <trkpt lat="43.10557" lon="-0.51147">
        <ele>683.15</ele>
        <time>2016-12-11T09:29:21Z</time>
      </trkpt>
      <trkpt lat="43.10563" lon="-0.51158">
        <ele>683.15</ele>
        <time>2016-12-11T09:29:23Z</time>
      </trkpt>
      <trkpt lat="43.10586" lon="-0.512">
        <ele>680.75</ele>
        <time>2016-12-11T09:29:32Z</time>
      </trkpt>
      <trkpt lat="43.10595" lon="-0.51222">
        <ele>680.27</ele>
        <time>2016-12-11T09:29:37Z</time>
      </trkpt>
      <trkpt lat="43.10606" lon="-0.51255">
        <ele>678.35</ele>
        <time>2016-12-11T09:29:43Z</time>
      </trkpt>
      <trkpt lat="43.10615" lon="-0.51273">
        <ele>677.39</ele>
        <time>2016-12-11T09:29:46Z</time>
      </trkpt>
      <trkpt lat="43.10622" lon="-0.51288">
        <ele>676.42</ele>
        <time>2016-12-11T09:29:48Z</time>
      </trkpt>
      <trkpt lat="43.1063" lon="-0.51302">
        <ele>674.5</ele>
        <time>2016-12-11T09:29:50Z</time>
      </trkpt>
      <trkpt lat="43.10644" lon="-0.51321">
        <ele>671.14</ele>
        <time>2016-12-11T09:29:53Z</time>
      </trkpt>
      <trkpt lat="43.10658" lon="-0.51334">
        <ele>669.7</ele>
        <time>2016-12-11T09:29:56Z</time>
      </trkpt>
      <trkpt lat="43.10672" lon="-0.51352">
        <ele>666.81</ele>
        <time>2016-12-11T09:30:00Z</time>
      </trkpt>
      <trkpt lat="43.10676" lon="-0.51364">
        <ele>667.29</ele>
        <time>2016-12-11T09:30:04Z</time>
      </trkpt>
      <trkpt lat="43.1068" lon="-0.51377">
        <ele>666.81</ele>
        <time>2016-12-11T09:30:08Z</time>
      </trkpt>
      <trkpt lat="43.10688" lon="-0.51394">
        <ele>666.81</ele>
        <time>2016-12-11T09:30:20Z</time>
      </trkpt>
      <trkpt lat="43.10697" lon="-0.51413">
        <ele>667.77</ele>
        <time>2016-12-11T09:30:29Z</time>
      </trkpt>
      <trkpt lat="43.10698" lon="-0.51412">
        <ele>667.77</ele>
        <time>2016-12-11T09:30:31Z</time>
      </trkpt>
      <trkpt lat="43.10719" lon="-0.51439">
        <ele>671.14</ele>
        <time>2016-12-11T09:30:42Z</time>
      </trkpt>
      <trkpt lat="43.10724" lon="-0.51451">
        <ele>672.58</ele>
        <time>2016-12-11T09:30:46Z</time>
      </trkpt>
      <trkpt lat="43.10727" lon="-0.51456">
        <ele>674.02</ele>
        <time>2016-12-11T09:30:48Z</time>
      </trkpt>
      <trkpt lat="43.10731" lon="-0.51468">
        <ele>674.5</ele>
        <time>2016-12-11T09:30:52Z</time>
      </trkpt>
      <trkpt lat="43.10737" lon="-0.5149">
        <ele>675.46</ele>
        <time>2016-12-11T09:31:04Z</time>
      </trkpt>
      <trkpt lat="43.10736" lon="-0.51504">
        <ele>675.46</ele>
        <time>2016-12-11T09:31:11Z</time>
      </trkpt>
      <trkpt lat="43.10737" lon="-0.51516">
        <ele>675.46</ele>
        <time>2016-12-11T09:31:17Z</time>
      </trkpt>
      <trkpt lat="43.10741" lon="-0.51533">
        <ele>674.5</ele>
        <time>2016-12-11T09:31:22Z</time>
      </trkpt>
      <trkpt lat="43.10744" lon="-0.51543">
        <ele>673.54</ele>
        <time>2016-12-11T09:31:24Z</time>
      </trkpt>
      <trkpt lat="43.10761" lon="-0.51587">
        <ele>670.66</ele>
        <time>2016-12-11T09:31:31Z</time>
      </trkpt>
      <trkpt lat="43.10764" lon="-0.51601">
        <ele>668.25</ele>
        <time>2016-12-11T09:31:33Z</time>
      </trkpt>
      <trkpt lat="43.1077" lon="-0.51627">
        <ele>664.89</ele>
        <time>2016-12-11T09:31:37Z</time>
      </trkpt>
      <trkpt lat="43.10778" lon="-0.51661">
        <ele>661.52</ele>
        <time>2016-12-11T09:31:42Z</time>
      </trkpt>
      <trkpt lat="43.1078" lon="-0.51688">
        <ele>658.16</ele>
        <time>2016-12-11T09:31:45Z</time>
      </trkpt>
      <trkpt lat="43.10787" lon="-0.51704">
        <ele>655.28</ele>
        <time>2016-12-11T09:31:47Z</time>
      </trkpt>
      <trkpt lat="43.10795" lon="-0.51731">
        <ele>651.43</ele>
        <time>2016-12-11T09:31:52Z</time>
      </trkpt>
      <trkpt lat="43.10798" lon="-0.51754">
        <ele>647.1</ele>
        <time>2016-12-11T09:31:56Z</time>
      </trkpt>
      <trkpt lat="43.10802" lon="-0.51773">
        <ele>644.22</ele>
        <time>2016-12-11T09:31:59Z</time>
      </trkpt>
      <trkpt lat="43.10803" lon="-0.51786">
        <ele>641.82</ele>
        <time>2016-12-11T09:32:01Z</time>
      </trkpt>
      <trkpt lat="43.10811" lon="-0.51811">
        <ele>637.01</ele>
        <time>2016-12-11T09:32:05Z</time>
      </trkpt>
      <trkpt lat="43.10813" lon="-0.51817">
        <ele>635.57</ele>
        <time>2016-12-11T09:32:06Z</time>
      </trkpt>
      <trkpt lat="43.10823" lon="-0.51834">
        <ele>630.76</ele>
        <time>2016-12-11T09:32:09Z</time>
      </trkpt>
      <trkpt lat="43.10827" lon="-0.51845">
        <ele>627.4</ele>
        <time>2016-12-11T09:32:11Z</time>
      </trkpt>
      <trkpt lat="43.10829" lon="-0.51856">
        <ele>625.47</ele>
        <time>2016-12-11T09:32:13Z</time>
      </trkpt>
      <trkpt lat="43.10841" lon="-0.51879">
        <ele>621.15</ele>
        <time>2016-12-11T09:32:17Z</time>
      </trkpt>
      <trkpt lat="43.10854" lon="-0.51905">
        <ele>613.94</ele>
        <time>2016-12-11T09:32:22Z</time>
      </trkpt>
      <trkpt lat="43.10858" lon="-0.51927">
        <ele>610.09</ele>
        <time>2016-12-11T09:32:25Z</time>
      </trkpt>
      <trkpt lat="43.1086" lon="-0.5195">
        <ele>606.73</ele>
        <time>2016-12-11T09:32:28Z</time>
      </trkpt>
      <trkpt lat="43.10859" lon="-0.51965">
        <ele>605.29</ele>
        <time>2016-12-11T09:32:30Z</time>
      </trkpt>
      <trkpt lat="43.1086" lon="-0.51982">
        <ele>601.92</ele>
        <time>2016-12-11T09:32:32Z</time>
      </trkpt>
      <trkpt lat="43.10866" lon="-0.52008">
        <ele>597.12</ele>
        <time>2016-12-11T09:32:35Z</time>
      </trkpt>
      <trkpt lat="43.10872" lon="-0.52033">
        <ele>592.79</ele>
        <time>2016-12-11T09:32:38Z</time>
      </trkpt>
      <trkpt lat="43.10876" lon="-0.52053">
        <ele>589.91</ele>
        <time>2016-12-11T09:32:40Z</time>
      </trkpt>
      <trkpt lat="43.10877" lon="-0.52062">
        <ele>588.46</ele>
        <time>2016-12-11T09:32:41Z</time>
      </trkpt>
      <trkpt lat="43.10881" lon="-0.52078">
        <ele>584.62</ele>
        <time>2016-12-11T09:32:43Z</time>
      </trkpt>
      <trkpt lat="43.10885" lon="-0.52084">
        <ele>582.22</ele>
        <time>2016-12-11T09:32:44Z</time>
      </trkpt>
      <trkpt lat="43.10887" lon="-0.52091">
        <ele>580.77</ele>
        <time>2016-12-11T09:32:45Z</time>
      </trkpt>
      <trkpt lat="43.10889" lon="-0.52098">
        <ele>578.85</ele>
        <time>2016-12-11T09:32:46Z</time>
      </trkpt>
      <trkpt lat="43.10891" lon="-0.52106">
        <ele>577.41</ele>
        <time>2016-12-11T09:32:47Z</time>
      </trkpt>
      <trkpt lat="43.10893" lon="-0.52114">
        <ele>575.49</ele>
        <time>2016-12-11T09:32:48Z</time>
      </trkpt>
      <trkpt lat="43.10894" lon="-0.52122">
        <ele>574.53</ele>
        <time>2016-12-11T09:32:49Z</time>
      </trkpt>
      <trkpt lat="43.10894" lon="-0.5213">
        <ele>572.6</ele>
        <time>2016-12-11T09:32:50Z</time>
      </trkpt>
      <trkpt lat="43.10894" lon="-0.52138">
        <ele>571.16</ele>
        <time>2016-12-11T09:32:51Z</time>
      </trkpt>
      <trkpt lat="43.10893" lon="-0.52146">
        <ele>569.72</ele>
        <time>2016-12-11T09:32:52Z</time>
      </trkpt>
      <trkpt lat="43.10893" lon="-0.52152">
        <ele>568.28</ele>
        <time>2016-12-11T09:32:53Z</time>
      </trkpt>
      <trkpt lat="43.10893" lon="-0.52168">
        <ele>565.39</ele>
        <time>2016-12-11T09:32:56Z</time>
      </trkpt>
      <trkpt lat="43.10896" lon="-0.52175">
        <ele>565.39</ele>
        <time>2016-12-11T09:33:06Z</time>
      </trkpt>
      <trkpt lat="43.10899" lon="-0.52173">
        <ele>565.87</ele>
        <time>2016-12-11T09:33:36Z</time>
      </trkpt>
      <trkpt lat="43.10899" lon="-0.52176">
        <ele>564.91</ele>
        <time>2016-12-11T09:34:06Z</time>
      </trkpt>
      <trkpt lat="43.10901" lon="-0.52175">
        <ele>564.91</ele>
        <time>2016-12-11T09:34:31Z</time>
      </trkpt>
      <trkpt lat="43.109" lon="-0.52175">
        <ele>565.87</ele>
        <time>2016-12-11T09:35:03Z</time>
      </trkpt>
      <trkpt lat="43.10899" lon="-0.52174">
        <ele>565.87</ele>
        <time>2016-12-11T09:35:37Z</time>
      </trkpt>
      <trkpt lat="43.10901" lon="-0.52175">
        <ele>565.87</ele>
        <time>2016-12-11T09:36:07Z</time>
      </trkpt>
      <trkpt lat="43.10901" lon="-0.52175">
        <ele>566.35</ele>
        <time>2016-12-11T09:36:34Z</time>
      </trkpt>
      <trkpt lat="43.109" lon="-0.52176">
        <ele>566.35</ele>
        <time>2016-12-11T09:36:53Z</time>
      </trkpt>
      <trkpt lat="43.10901" lon="-0.52178">
        <ele>566.35</ele>
        <time>2016-12-11T09:37:13Z</time>
      </trkpt>
      <trkpt lat="43.109" lon="-0.52179">
        <ele>566.83</ele>
        <time>2016-12-11T09:37:37Z</time>
      </trkpt>
      <trkpt lat="43.109" lon="-0.5218">
        <ele>566.83</ele>
        <time>2016-12-11T09:38:04Z</time>
      </trkpt>
      <trkpt lat="43.10919" lon="-0.5217">
        <ele>565.87</ele>
        <time>2016-12-11T09:38:11Z</time>
      </trkpt>
      <trkpt lat="43.10922" lon="-0.52164">
        <ele>565.39</ele>
        <time>2016-12-11T09:38:12Z</time>
      </trkpt>
      <trkpt lat="43.10926" lon="-0.52158">
        <ele>564.91</ele>
        <time>2016-12-11T09:38:13Z</time>
      </trkpt>
      <trkpt lat="43.10929" lon="-0.5215">
        <ele>564.91</ele>
        <time>2016-12-11T09:38:14Z</time>
      </trkpt>
      <trkpt lat="43.10931" lon="-0.52142">
        <ele>564.43</ele>
        <time>2016-12-11T09:38:15Z</time>
      </trkpt>
      <trkpt lat="43.10934" lon="-0.52133">
        <ele>563.95</ele>
        <time>2016-12-11T09:38:16Z</time>
      </trkpt>
      <trkpt lat="43.10937" lon="-0.52125">
        <ele>563.47</ele>
        <time>2016-12-11T09:38:17Z</time>
      </trkpt>
      <trkpt lat="43.10958" lon="-0.52079">
        <ele>561.07</ele>
        <time>2016-12-11T09:38:22Z</time>
      </trkpt>
      <trkpt lat="43.10981" lon="-0.52026">
        <ele>557.7</ele>
        <time>2016-12-11T09:38:27Z</time>
      </trkpt>
      <trkpt lat="43.11002" lon="-0.51981">
        <ele>554.82</ele>
        <time>2016-12-11T09:38:31Z</time>
      </trkpt>
      <trkpt lat="43.11032" lon="-0.51926">
        <ele>550.97</ele>
        <time>2016-12-11T09:38:36Z</time>
      </trkpt>
      <trkpt lat="43.11044" lon="-0.51903">
        <ele>549.53</ele>
        <time>2016-12-11T09:38:38Z</time>
      </trkpt>
      <trkpt lat="43.11066" lon="-0.51852">
        <ele>546.17</ele>
        <time>2016-12-11T09:38:42Z</time>
      </trkpt>
      <trkpt lat="43.11084" lon="-0.51798">
        <ele>542.32</ele>
        <time>2016-12-11T09:38:46Z</time>
      </trkpt>
      <trkpt lat="43.11089" lon="-0.51771">
        <ele>538.96</ele>
        <time>2016-12-11T09:38:48Z</time>
      </trkpt>
      <trkpt lat="43.1109" lon="-0.51761">
        <ele>537.03</ele>
        <time>2016-12-11T09:38:49Z</time>
      </trkpt>
      <trkpt lat="43.1109" lon="-0.51751">
        <ele>536.07</ele>
        <time>2016-12-11T09:38:50Z</time>
      </trkpt>
      <trkpt lat="43.11088" lon="-0.51742">
        <ele>535.59</ele>
        <time>2016-12-11T09:38:51Z</time>
      </trkpt>
      <trkpt lat="43.11083" lon="-0.51736">
        <ele>534.63</ele>
        <time>2016-12-11T09:38:52Z</time>
      </trkpt>
      <trkpt lat="43.11077" lon="-0.51732">
        <ele>533.67</ele>
        <time>2016-12-11T09:38:53Z</time>
      </trkpt>
      <trkpt lat="43.11071" lon="-0.51729">
        <ele>533.67</ele>
        <time>2016-12-11T09:38:54Z</time>
      </trkpt>
      <trkpt lat="43.11065" lon="-0.51726">
        <ele>532.71</ele>
        <time>2016-12-11T09:38:55Z</time>
      </trkpt>
      <trkpt lat="43.1106" lon="-0.51722">
        <ele>532.23</ele>
        <time>2016-12-11T09:38:56Z</time>
      </trkpt>
      <trkpt lat="43.11057" lon="-0.51714">
        <ele>531.75</ele>
        <time>2016-12-11T09:38:57Z</time>
      </trkpt>
      <trkpt lat="43.11057" lon="-0.51706">
        <ele>531.75</ele>
        <time>2016-12-11T09:38:58Z</time>
      </trkpt>
      <trkpt lat="43.11059" lon="-0.51698">
        <ele>531.27</ele>
        <time>2016-12-11T09:38:59Z</time>
      </trkpt>
      <trkpt lat="43.11062" lon="-0.51691">
        <ele>531.27</ele>
        <time>2016-12-11T09:39:00Z</time>
      </trkpt>
      <trkpt lat="43.11065" lon="-0.51684">
        <ele>529.82</ele>
        <time>2016-12-11T09:39:01Z</time>
      </trkpt>
      <trkpt lat="43.11069" lon="-0.51677">
        <ele>529.82</ele>
        <time>2016-12-11T09:39:02Z</time>
      </trkpt>
      <trkpt lat="43.11076" lon="-0.51662">
        <ele>529.34</ele>
        <time>2016-12-11T09:39:04Z</time>
      </trkpt>
      <trkpt lat="43.11078" lon="-0.51654">
        <ele>530.3</ele>
        <time>2016-12-11T09:39:05Z</time>
      </trkpt>
      <trkpt lat="43.11082" lon="-0.51637">
        <ele>529.34</ele>
        <time>2016-12-11T09:39:07Z</time>
      </trkpt>
      <trkpt lat="43.11083" lon="-0.51628">
        <ele>528.38</ele>
        <time>2016-12-11T09:39:08Z</time>
      </trkpt>
      <trkpt lat="43.11086" lon="-0.51615">
        <ele>527.42</ele>
        <time>2016-12-11T09:39:10Z</time>
      </trkpt>
      <trkpt lat="43.11085" lon="-0.51609">
        <ele>526.94</ele>
        <time>2016-12-11T09:39:11Z</time>
      </trkpt>
      <trkpt lat="43.11083" lon="-0.51606">
        <ele>526.94</ele>
        <time>2016-12-11T09:39:12Z</time>
      </trkpt>
      <trkpt lat="43.11082" lon="-0.51604">
        <ele>527.42</ele>
        <time>2016-12-11T09:39:13Z</time>
      </trkpt>
      <trkpt lat="43.1108" lon="-0.51602">
        <ele>527.9</ele>
        <time>2016-12-11T09:39:14Z</time>
      </trkpt>
      <trkpt lat="43.11078" lon="-0.51601">
        <ele>527.9</ele>
        <time>2016-12-11T09:39:15Z</time>
      </trkpt>
      <trkpt lat="43.11066" lon="-0.51592">
        <ele>530.3</ele>
        <time>2016-12-11T09:39:24Z</time>
      </trkpt>
      <trkpt lat="43.11059" lon="-0.51583">
        <ele>532.23</ele>
        <time>2016-12-11T09:39:31Z</time>
      </trkpt>
      <trkpt lat="43.11052" lon="-0.51577">
        <ele>534.63</ele>
        <time>2016-12-11T09:39:39Z</time>
      </trkpt>
      <trkpt lat="43.11044" lon="-0.51563">
        <ele>536.55</ele>
        <time>2016-12-11T09:39:50Z</time>
      </trkpt>
      <trkpt lat="43.11039" lon="-0.51542">
        <ele>538.48</ele>
        <time>2016-12-11T09:40:02Z</time>
      </trkpt>
      <trkpt lat="43.1104" lon="-0.51534">
        <ele>540.4</ele>
        <time>2016-12-11T09:40:09Z</time>
      </trkpt>
      <trkpt lat="43.11045" lon="-0.51507">
        <ele>541.84</ele>
        <time>2016-12-11T09:40:22Z</time>
      </trkpt>
      <trkpt lat="43.11052" lon="-0.51483">
        <ele>540.4</ele>
        <time>2016-12-11T09:40:29Z</time>
      </trkpt>
      <trkpt lat="43.11055" lon="-0.51464">
        <ele>540.88</ele>
        <time>2016-12-11T09:40:34Z</time>
      </trkpt>
      <trkpt lat="43.11063" lon="-0.51435">
        <ele>538.96</ele>
        <time>2016-12-11T09:40:39Z</time>
      </trkpt>
      <trkpt lat="43.11065" lon="-0.51419">
        <ele>538.48</ele>
        <time>2016-12-11T09:40:41Z</time>
      </trkpt>
      <trkpt lat="43.11069" lon="-0.51394">
        <ele>537.51</ele>
        <time>2016-12-11T09:40:44Z</time>
      </trkpt>
      <trkpt lat="43.11083" lon="-0.51357">
        <ele>533.19</ele>
        <time>2016-12-11T09:40:49Z</time>
      </trkpt>
      <trkpt lat="43.11085" lon="-0.51351">
        <ele>532.23</ele>
        <time>2016-12-11T09:40:50Z</time>
      </trkpt>
      <trkpt lat="43.111" lon="-0.51325">
        <ele>527.9</ele>
        <time>2016-12-11T09:40:56Z</time>
      </trkpt>
      <trkpt lat="43.11107" lon="-0.51315">
        <ele>526.46</ele>
        <time>2016-12-11T09:41:00Z</time>
      </trkpt>
      <trkpt lat="43.11111" lon="-0.5131">
        <ele>525.98</ele>
        <time>2016-12-11T09:41:13Z</time>
      </trkpt>
      <trkpt lat="43.11113" lon="-0.51308">
        <ele>525.98</ele>
        <time>2016-12-11T09:41:36Z</time>
      </trkpt>
      <trkpt lat="43.11113" lon="-0.51307">
        <ele>526.46</ele>
        <time>2016-12-11T09:41:46Z</time>
      </trkpt>
      <trkpt lat="43.11118" lon="-0.51294">
        <ele>525.02</ele>
        <time>2016-12-11T09:41:50Z</time>
      </trkpt>
      <trkpt lat="43.11124" lon="-0.51286">
        <ele>524.06</ele>
        <time>2016-12-11T09:41:52Z</time>
      </trkpt>
      <trkpt lat="43.1113" lon="-0.51276">
        <ele>523.09</ele>
        <time>2016-12-11T09:41:54Z</time>
      </trkpt>
      <trkpt lat="43.11149" lon="-0.51242">
        <ele>520.21</ele>
        <time>2016-12-11T09:42:00Z</time>
      </trkpt>
      <trkpt lat="43.11161" lon="-0.51213">
        <ele>517.33</ele>
        <time>2016-12-11T09:42:04Z</time>
      </trkpt>
      <trkpt lat="43.11169" lon="-0.51188">
        <ele>514.92</ele>
        <time>2016-12-11T09:42:07Z</time>
      </trkpt>
      <trkpt lat="43.11172" lon="-0.51179">
        <ele>513</ele>
        <time>2016-12-11T09:42:08Z</time>
      </trkpt>
      <trkpt lat="43.11177" lon="-0.51164">
        <ele>511.56</ele>
        <time>2016-12-11T09:42:10Z</time>
      </trkpt>
      <trkpt lat="43.11177" lon="-0.51144">
        <ele>508.19</ele>
        <time>2016-12-11T09:42:13Z</time>
      </trkpt>
      <trkpt lat="43.11177" lon="-0.51121">
        <ele>502.43</ele>
        <time>2016-12-11T09:42:16Z</time>
      </trkpt>
      <trkpt lat="43.11176" lon="-0.51104">
        <ele>500.02</ele>
        <time>2016-12-11T09:42:18Z</time>
      </trkpt>
      <trkpt lat="43.11176" lon="-0.51072">
        <ele>494.26</ele>
        <time>2016-12-11T09:42:22Z</time>
      </trkpt>
      <trkpt lat="43.11177" lon="-0.51064">
        <ele>493.29</ele>
        <time>2016-12-11T09:42:23Z</time>
      </trkpt>
      <trkpt lat="43.11183" lon="-0.51035">
        <ele>487.53</ele>
        <time>2016-12-11T09:42:28Z</time>
      </trkpt>
      <trkpt lat="43.1119" lon="-0.51019">
        <ele>484.64</ele>
        <time>2016-12-11T09:42:31Z</time>
      </trkpt>
      <trkpt lat="43.11201" lon="-0.50993">
        <ele>478.87</ele>
        <time>2016-12-11T09:42:35Z</time>
      </trkpt>
      <trkpt lat="43.11207" lon="-0.50977">
        <ele>476.95</ele>
        <time>2016-12-11T09:42:37Z</time>
      </trkpt>
      <trkpt lat="43.11214" lon="-0.5096">
        <ele>473.59</ele>
        <time>2016-12-11T09:42:39Z</time>
      </trkpt>
      <trkpt lat="43.11222" lon="-0.50943">
        <ele>470.22</ele>
        <time>2016-12-11T09:42:41Z</time>
      </trkpt>
      <trkpt lat="43.11241" lon="-0.50923">
        <ele>465.42</ele>
        <time>2016-12-11T09:42:46Z</time>
      </trkpt>
      <trkpt lat="43.11246" lon="-0.50923">
        <ele>464.45</ele>
        <time>2016-12-11T09:42:47Z</time>
      </trkpt>
      <trkpt lat="43.11276" lon="-0.50922">
        <ele>457.72</ele>
        <time>2016-12-11T09:42:52Z</time>
      </trkpt>
      <trkpt lat="43.11281" lon="-0.50921">
        <ele>456.28</ele>
        <time>2016-12-11T09:42:53Z</time>
      </trkpt>
      <trkpt lat="43.11295" lon="-0.50931">
        <ele>454.36</ele>
        <time>2016-12-11T09:42:56Z</time>
      </trkpt>
      <trkpt lat="43.11298" lon="-0.50937">
        <ele>453.4</ele>
        <time>2016-12-11T09:42:57Z</time>
      </trkpt>
      <trkpt lat="43.11307" lon="-0.50974">
        <ele>451</ele>
        <time>2016-12-11T09:43:02Z</time>
      </trkpt>
      <trkpt lat="43.11305" lon="-0.50988">
        <ele>450.52</ele>
        <time>2016-12-11T09:43:04Z</time>
      </trkpt>
      <trkpt lat="43.11295" lon="-0.51022">
        <ele>448.59</ele>
        <time>2016-12-11T09:43:09Z</time>
      </trkpt>
      <trkpt lat="43.11297" lon="-0.5103">
        <ele>447.63</ele>
        <time>2016-12-11T09:43:11Z</time>
      </trkpt>
      <trkpt lat="43.11299" lon="-0.51031">
        <ele>446.67</ele>
        <time>2016-12-11T09:43:12Z</time>
      </trkpt>
      <trkpt lat="43.11305" lon="-0.51029">
        <ele>445.71</ele>
        <time>2016-12-11T09:43:14Z</time>
      </trkpt>
      <trkpt lat="43.11318" lon="-0.51027">
        <ele>441.86</ele>
        <time>2016-12-11T09:43:17Z</time>
      </trkpt>
      <trkpt lat="43.11336" lon="-0.51023">
        <ele>437.54</ele>
        <time>2016-12-11T09:43:21Z</time>
      </trkpt>
      <trkpt lat="43.11345" lon="-0.5102">
        <ele>435.13</ele>
        <time>2016-12-11T09:43:25Z</time>
      </trkpt>
      <trkpt lat="43.11348" lon="-0.51019">
        <ele>435.13</ele>
        <time>2016-12-11T09:43:26Z</time>
      </trkpt>
      <trkpt lat="43.1137" lon="-0.51029">
        <ele>431.29</ele>
        <time>2016-12-11T09:43:33Z</time>
      </trkpt>
      <trkpt lat="43.11372" lon="-0.51031">
        <ele>431.29</ele>
        <time>2016-12-11T09:43:34Z</time>
      </trkpt>
      <trkpt lat="43.11385" lon="-0.51024">
        <ele>430.81</ele>
        <time>2016-12-11T09:43:40Z</time>
      </trkpt>
      <trkpt lat="43.11389" lon="-0.51021">
        <ele>429.37</ele>
        <time>2016-12-11T09:43:42Z</time>
      </trkpt>
      <trkpt lat="43.11393" lon="-0.51019">
        <ele>428.4</ele>
        <time>2016-12-11T09:43:44Z</time>
      </trkpt>
      <trkpt lat="43.11407" lon="-0.51006">
        <ele>426.48</ele>
        <time>2016-12-11T09:43:51Z</time>
      </trkpt>
      <trkpt lat="43.11438" lon="-0.50996">
        <ele>422.16</ele>
        <time>2016-12-11T09:43:57Z</time>
      </trkpt>
      <trkpt lat="43.11444" lon="-0.50992">
        <ele>421.19</ele>
        <time>2016-12-11T09:43:58Z</time>
      </trkpt>
      <trkpt lat="43.11453" lon="-0.50985">
        <ele>417.83</ele>
        <time>2016-12-11T09:44:00Z</time>
      </trkpt>
      <trkpt lat="43.11469" lon="-0.5097">
        <ele>412.06</ele>
        <time>2016-12-11T09:44:04Z</time>
      </trkpt>
      <trkpt lat="43.11484" lon="-0.50959">
        <ele>408.7</ele>
        <time>2016-12-11T09:44:10Z</time>
      </trkpt>
      <trkpt lat="43.11495" lon="-0.50954">
        <ele>407.74</ele>
        <time>2016-12-11T09:44:20Z</time>
      </trkpt>
      <trkpt lat="43.11497" lon="-0.50953">
        <ele>406.29</ele>
        <time>2016-12-11T09:44:24Z</time>
      </trkpt>
      <trkpt lat="43.11504" lon="-0.50943">
        <ele>405.33</ele>
        <time>2016-12-11T09:44:28Z</time>
      </trkpt>
      <trkpt lat="43.11512" lon="-0.50938">
        <ele>403.41</ele>
        <time>2016-12-11T09:44:30Z</time>
      </trkpt>
      <trkpt lat="43.11542" lon="-0.50928">
        <ele>398.6</ele>
        <time>2016-12-11T09:44:37Z</time>
      </trkpt>
      <trkpt lat="43.11565" lon="-0.50928">
        <ele>397.64</ele>
        <time>2016-12-11T09:44:41Z</time>
      </trkpt>
      <trkpt lat="43.11575" lon="-0.50931">
        <ele>397.16</ele>
        <time>2016-12-11T09:44:43Z</time>
      </trkpt>
      <trkpt lat="43.11593" lon="-0.50961">
        <ele>395.72</ele>
        <time>2016-12-11T09:44:50Z</time>
      </trkpt>
      <trkpt lat="43.11606" lon="-0.50965">
        <ele>393.32</ele>
        <time>2016-12-11T09:44:56Z</time>
      </trkpt>
      <trkpt lat="43.11633" lon="-0.50946">
        <ele>390.91</ele>
        <time>2016-12-11T09:45:02Z</time>
      </trkpt>
      <trkpt lat="43.11655" lon="-0.50939">
        <ele>389.47</ele>
        <time>2016-12-11T09:45:06Z</time>
      </trkpt>
      <trkpt lat="43.11676" lon="-0.50927">
        <ele>386.11</ele>
        <time>2016-12-11T09:45:10Z</time>
      </trkpt>
      <trkpt lat="43.11687" lon="-0.50915">
        <ele>386.11</ele>
        <time>2016-12-11T09:45:12Z</time>
      </trkpt>
      <trkpt lat="43.11698" lon="-0.50905">
        <ele>385.15</ele>
        <time>2016-12-11T09:45:14Z</time>
      </trkpt>
      <trkpt lat="43.11711" lon="-0.50899">
        <ele>384.66</ele>
        <time>2016-12-11T09:45:16Z</time>
      </trkpt>
      <trkpt lat="43.11732" lon="-0.5089">
        <ele>382.74</ele>
        <time>2016-12-11T09:45:19Z</time>
      </trkpt>
      <trkpt lat="43.11739" lon="-0.50887">
        <ele>382.26</ele>
        <time>2016-12-11T09:45:20Z</time>
      </trkpt>
      <trkpt lat="43.11762" lon="-0.50877">
        <ele>380.34</ele>
        <time>2016-12-11T09:45:23Z</time>
      </trkpt>
      <trkpt lat="43.11768" lon="-0.50875">
        <ele>379.38</ele>
        <time>2016-12-11T09:45:24Z</time>
      </trkpt>
      <trkpt lat="43.11781" lon="-0.50867">
        <ele>379.38</ele>
        <time>2016-12-11T09:45:26Z</time>
      </trkpt>
      <trkpt lat="43.11816" lon="-0.50844">
        <ele>375.05</ele>
        <time>2016-12-11T09:45:31Z</time>
      </trkpt>
      <trkpt lat="43.1184" lon="-0.50831">
        <ele>370.24</ele>
        <time>2016-12-11T09:45:35Z</time>
      </trkpt>
      <trkpt lat="43.11859" lon="-0.5082">
        <ele>365.92</ele>
        <time>2016-12-11T09:45:38Z</time>
      </trkpt>
      <trkpt lat="43.11871" lon="-0.50812">
        <ele>362.55</ele>
        <time>2016-12-11T09:45:40Z</time>
      </trkpt>
      <trkpt lat="43.11889" lon="-0.50799">
        <ele>358.23</ele>
        <time>2016-12-11T09:45:43Z</time>
      </trkpt>
      <trkpt lat="43.11894" lon="-0.50795">
        <ele>356.79</ele>
        <time>2016-12-11T09:45:44Z</time>
      </trkpt>
      <trkpt lat="43.11908" lon="-0.50776">
        <ele>351.98</ele>
        <time>2016-12-11T09:45:48Z</time>
      </trkpt>
      <trkpt lat="43.11932" lon="-0.50753">
        <ele>350.06</ele>
        <time>2016-12-11T09:45:56Z</time>
      </trkpt>
      <trkpt lat="43.11939" lon="-0.50748">
        <ele>349.58</ele>
        <time>2016-12-11T09:45:58Z</time>
      </trkpt>
      <trkpt lat="43.11956" lon="-0.50724">
        <ele>351.02</ele>
        <time>2016-12-11T09:46:04Z</time>
      </trkpt>
      <trkpt lat="43.1198" lon="-0.50698">
        <ele>350.06</ele>
        <time>2016-12-11T09:46:12Z</time>
      </trkpt>
      <trkpt lat="43.12" lon="-0.50682">
        <ele>345.25</ele>
        <time>2016-12-11T09:46:16Z</time>
      </trkpt>
      <trkpt lat="43.12009" lon="-0.50671">
        <ele>343.81</ele>
        <time>2016-12-11T09:46:19Z</time>
      </trkpt>
      <trkpt lat="43.12012" lon="-0.50664">
        <ele>343.33</ele>
        <time>2016-12-11T09:46:21Z</time>
      </trkpt>
      <trkpt lat="43.12023" lon="-0.50637">
        <ele>343.33</ele>
        <time>2016-12-11T09:46:31Z</time>
      </trkpt>
      <trkpt lat="43.12025" lon="-0.50635">
        <ele>342.85</ele>
        <time>2016-12-11T09:46:33Z</time>
      </trkpt>
      <trkpt lat="43.12035" lon="-0.50621">
        <ele>344.77</ele>
        <time>2016-12-11T09:46:40Z</time>
      </trkpt>
      <trkpt lat="43.12043" lon="-0.50613">
        <ele>344.77</ele>
        <time>2016-12-11T09:46:45Z</time>
      </trkpt>
      <trkpt lat="43.12051" lon="-0.50599">
        <ele>344.29</ele>
        <time>2016-12-11T09:46:51Z</time>
      </trkpt>
      <trkpt lat="43.12066" lon="-0.50579">
        <ele>342.37</ele>
        <time>2016-12-11T09:46:57Z</time>
      </trkpt>
      <trkpt lat="43.12082" lon="-0.50563">
        <ele>341.41</ele>
        <time>2016-12-11T09:47:00Z</time>
      </trkpt>
      <trkpt lat="43.12123" lon="-0.50522">
        <ele>338.52</ele>
        <time>2016-12-11T09:47:07Z</time>
      </trkpt>
      <trkpt lat="43.12153" lon="-0.5049">
        <ele>335.16</ele>
        <time>2016-12-11T09:47:15Z</time>
      </trkpt>
      <trkpt lat="43.12164" lon="-0.50475">
        <ele>334.2</ele>
        <time>2016-12-11T09:47:18Z</time>
      </trkpt>
      <trkpt lat="43.12174" lon="-0.50464">
        <ele>333.23</ele>
        <time>2016-12-11T09:47:20Z</time>
      </trkpt>
      <trkpt lat="43.12182" lon="-0.50449">
        <ele>331.79</ele>
        <time>2016-12-11T09:47:22Z</time>
      </trkpt>
      <trkpt lat="43.12186" lon="-0.5043">
        <ele>330.35</ele>
        <time>2016-12-11T09:47:24Z</time>
      </trkpt>
      <trkpt lat="43.12193" lon="-0.50389">
        <ele>326.02</ele>
        <time>2016-12-11T09:47:28Z</time>
      </trkpt>
      <trkpt lat="43.12196" lon="-0.50362">
        <ele>322.18</ele>
        <time>2016-12-11T09:47:31Z</time>
      </trkpt>
      <trkpt lat="43.12197" lon="-0.50354">
        <ele>321.22</ele>
        <time>2016-12-11T09:47:32Z</time>
      </trkpt>
      <trkpt lat="43.12203" lon="-0.50326">
        <ele>316.41</ele>
        <time>2016-12-11T09:47:37Z</time>
      </trkpt>
      <trkpt lat="43.12205" lon="-0.5031">
        <ele>314.49</ele>
        <time>2016-12-11T09:47:42Z</time>
      </trkpt>
      <trkpt lat="43.12212" lon="-0.50304">
        <ele>314.49</ele>
        <time>2016-12-11T09:47:47Z</time>
      </trkpt>
      <trkpt lat="43.12214" lon="-0.50307">
        <ele>314.49</ele>
        <time>2016-12-11T09:47:51Z</time>
      </trkpt>
      <trkpt lat="43.12213" lon="-0.50304">
        <ele>314.01</ele>
        <time>2016-12-11T09:48:01Z</time>
      </trkpt>
      <trkpt lat="43.12211" lon="-0.50308">
        <ele>314.49</ele>
        <time>2016-12-11T09:48:20Z</time>
      </trkpt>
      <trkpt lat="43.1221" lon="-0.50308">
        <ele>314.49</ele>
        <time>2016-12-11T09:48:40Z</time>
      </trkpt>
      <trkpt lat="43.12211" lon="-0.50306">
        <ele>314.49</ele>
        <time>2016-12-11T09:49:07Z</time>
      </trkpt>
      <trkpt lat="43.12211" lon="-0.50306">
        <ele>314.97</ele>
        <time>2016-12-11T09:49:25Z</time>
      </trkpt>
      <trkpt lat="43.12213" lon="-0.50306">
        <ele>314.49</ele>
        <time>2016-12-11T09:49:49Z</time>
      </trkpt>
      <trkpt lat="43.12211" lon="-0.50305">
        <ele>314.49</ele>
        <time>2016-12-11T09:50:14Z</time>
      </trkpt>
      <trkpt lat="43.12211" lon="-0.50306">
        <ele>314.49</ele>
        <time>2016-12-11T09:50:38Z</time>
      </trkpt>
      <trkpt lat="43.12211" lon="-0.50306">
        <ele>314.97</ele>
        <time>2016-12-11T09:51:02Z</time>
      </trkpt>
      <trkpt lat="43.12211" lon="-0.50306">
        <ele>314.97</ele>
        <time>2016-12-11T09:51:24Z</time>
      </trkpt>
      <trkpt lat="43.12212" lon="-0.50305">
        <ele>314.49</ele>
        <time>2016-12-11T09:51:33Z</time>
      </trkpt>
      <trkpt lat="43.12214" lon="-0.50302">
        <ele>314.97</ele>
        <time>2016-12-11T09:51:57Z</time>
      </trkpt>
      <trkpt lat="43.12214" lon="-0.50302">
        <ele>314.97</ele>
        <time>2016-12-11T09:52:23Z</time>
      </trkpt>
      <trkpt lat="43.12213" lon="-0.50302">
        <ele>314.97</ele>
        <time>2016-12-11T09:52:47Z</time>
      </trkpt>
      <trkpt lat="43.12213" lon="-0.50301">
        <ele>314.97</ele>
        <time>2016-12-11T09:53:19Z</time>
      </trkpt>
      <trkpt lat="43.12213" lon="-0.503">
        <ele>315.45</ele>
        <time>2016-12-11T09:53:52Z</time>
      </trkpt>
      <trkpt lat="43.12215" lon="-0.50301">
        <ele>315.45</ele>
        <time>2016-12-11T09:54:27Z</time>
      </trkpt>
      <trkpt lat="43.12215" lon="-0.50302">
        <ele>315.45</ele>
        <time>2016-12-11T09:54:57Z</time>
      </trkpt>
      <trkpt lat="43.12213" lon="-0.503">
        <ele>315.45</ele>
        <time>2016-12-11T09:55:23Z</time>
      </trkpt>
      <trkpt lat="43.12211" lon="-0.503">
        <ele>315.45</ele>
        <time>2016-12-11T09:55:52Z</time>
      </trkpt>
      <trkpt lat="43.12213" lon="-0.50297">
        <ele>315.93</ele>
        <time>2016-12-11T09:56:31Z</time>
      </trkpt>
      <trkpt lat="43.12212" lon="-0.50296">
        <ele>315.93</ele>
        <time>2016-12-11T09:57:02Z</time>
      </trkpt>
      <trkpt lat="43.12213" lon="-0.50299">
        <ele>316.89</ele>
        <time>2016-12-11T09:57:15Z</time>
      </trkpt>
      <trkpt lat="43.12214" lon="-0.50301">
        <ele>316.89</ele>
        <time>2016-12-11T09:57:39Z</time>
      </trkpt>
      <trkpt lat="43.12214" lon="-0.50303">
        <ele>316.89</ele>
        <time>2016-12-11T09:58:09Z</time>
      </trkpt>
      <trkpt lat="43.12213" lon="-0.50303">
        <ele>317.37</ele>
        <time>2016-12-11T09:58:24Z</time>
      </trkpt>
      <trkpt lat="43.12215" lon="-0.50304">
        <ele>316.89</ele>
        <time>2016-12-11T09:58:50Z</time>
      </trkpt>
      <trkpt lat="43.12213" lon="-0.50305">
        <ele>317.37</ele>
        <time>2016-12-11T09:59:14Z</time>
      </trkpt>
      <trkpt lat="43.12213" lon="-0.50306">
        <ele>317.37</ele>
        <time>2016-12-11T09:59:42Z</time>
      </trkpt>
      <trkpt lat="43.12211" lon="-0.50309">
        <ele>317.85</ele>
        <time>2016-12-11T10:00:08Z</time>
      </trkpt>
      <trkpt lat="43.12212" lon="-0.50308">
        <ele>317.37</ele>
        <time>2016-12-11T10:00:25Z</time>
      </trkpt>
      <trkpt lat="43.12213" lon="-0.50308">
        <ele>317.85</ele>
        <time>2016-12-11T10:00:45Z</time>
      </trkpt>
      <trkpt lat="43.12231" lon="-0.50306">
        <ele>318.81</ele>
        <time>2016-12-11T10:00:57Z</time>
      </trkpt>
      <trkpt lat="43.12245" lon="-0.50304">
        <ele>320.26</ele>
        <time>2016-12-11T10:01:05Z</time>
      </trkpt>
      <trkpt lat="43.12255" lon="-0.50307">
        <ele>320.74</ele>
        <time>2016-12-11T10:01:09Z</time>
      </trkpt>
      <trkpt lat="43.1227" lon="-0.50315">
        <ele>321.22</ele>
        <time>2016-12-11T10:01:17Z</time>
      </trkpt>
      <trkpt lat="43.12276" lon="-0.50309">
        <ele>320.74</ele>
        <time>2016-12-11T10:01:28Z</time>
      </trkpt>
      <trkpt lat="43.1228" lon="-0.50302">
        <ele>321.22</ele>
        <time>2016-12-11T10:02:01Z</time>
      </trkpt>
      <trkpt lat="43.12279" lon="-0.50303">
        <ele>321.22</ele>
        <time>2016-12-11T10:02:31Z</time>
      </trkpt>
      <trkpt lat="43.1228" lon="-0.50304">
        <ele>321.7</ele>
        <time>2016-12-11T10:02:59Z</time>
      </trkpt>
      <trkpt lat="43.12283" lon="-0.50301">
        <ele>321.22</ele>
        <time>2016-12-11T10:03:18Z</time>
      </trkpt>
      <trkpt lat="43.12318" lon="-0.50315">
        <ele>318.33</ele>
        <time>2016-12-11T10:03:28Z</time>
      </trkpt>
      <trkpt lat="43.12334" lon="-0.50327">
        <ele>317.37</ele>
        <time>2016-12-11T10:03:31Z</time>
      </trkpt>
      <trkpt lat="43.12339" lon="-0.50332">
        <ele>316.89</ele>
        <time>2016-12-11T10:03:32Z</time>
      </trkpt>
      <trkpt lat="43.12351" lon="-0.50348">
        <ele>314.49</ele>
        <time>2016-12-11T10:03:35Z</time>
      </trkpt>
      <trkpt lat="43.12354" lon="-0.50355">
        <ele>313.53</ele>
        <time>2016-12-11T10:03:36Z</time>
      </trkpt>
      <trkpt lat="43.12355" lon="-0.50362">
        <ele>312.57</ele>
        <time>2016-12-11T10:03:37Z</time>
      </trkpt>
      <trkpt lat="43.12354" lon="-0.50369">
        <ele>312.09</ele>
        <time>2016-12-11T10:03:38Z</time>
      </trkpt>
      <trkpt lat="43.12352" lon="-0.50375">
        <ele>310.64</ele>
        <time>2016-12-11T10:03:39Z</time>
      </trkpt>
      <trkpt lat="43.12349" lon="-0.50382">
        <ele>309.2</ele>
        <time>2016-12-11T10:03:40Z</time>
      </trkpt>
      <trkpt lat="43.12345" lon="-0.50387">
        <ele>308.24</ele>
        <time>2016-12-11T10:03:41Z</time>
      </trkpt>
      <trkpt lat="43.12342" lon="-0.50396">
        <ele>305.84</ele>
        <time>2016-12-11T10:03:43Z</time>
      </trkpt>
      <trkpt lat="43.12342" lon="-0.50401">
        <ele>305.84</ele>
        <time>2016-12-11T10:03:44Z</time>
      </trkpt>
      <trkpt lat="43.12342" lon="-0.50404">
        <ele>305.36</ele>
        <time>2016-12-11T10:03:45Z</time>
      </trkpt>
      <trkpt lat="43.12349" lon="-0.50407">
        <ele>305.84</ele>
        <time>2016-12-11T10:03:48Z</time>
      </trkpt>
      <trkpt lat="43.12355" lon="-0.50403">
        <ele>305.84</ele>
        <time>2016-12-11T10:03:50Z</time>
      </trkpt>
      <trkpt lat="43.12381" lon="-0.50418">
        <ele>301.99</ele>
        <time>2016-12-11T10:03:55Z</time>
      </trkpt>
      <trkpt lat="43.12395" lon="-0.50438">
        <ele>297.67</ele>
        <time>2016-12-11T10:03:58Z</time>
      </trkpt>
      <trkpt lat="43.12399" lon="-0.50448">
        <ele>296.7</ele>
        <time>2016-12-11T10:04:00Z</time>
      </trkpt>
      <trkpt lat="43.12402" lon="-0.50457">
        <ele>296.7</ele>
        <time>2016-12-11T10:04:13Z</time>
      </trkpt>
      <trkpt lat="43.12404" lon="-0.50456">
        <ele>296.22</ele>
        <time>2016-12-11T10:04:15Z</time>
      </trkpt>
      <trkpt lat="43.12401" lon="-0.50449">
        <ele>296.7</ele>
        <time>2016-12-11T10:04:22Z</time>
      </trkpt>
      <trkpt lat="43.124" lon="-0.50444">
        <ele>297.18</ele>
        <time>2016-12-11T10:04:29Z</time>
      </trkpt>
      <trkpt lat="43.12413" lon="-0.50437">
        <ele>293.82</ele>
        <time>2016-12-11T10:04:37Z</time>
      </trkpt>
      <trkpt lat="43.12439" lon="-0.50461">
        <ele>293.82</ele>
        <time>2016-12-11T10:04:47Z</time>
      </trkpt>
      <trkpt lat="43.12464" lon="-0.50494">
        <ele>293.34</ele>
        <time>2016-12-11T10:04:56Z</time>
      </trkpt>
      <trkpt lat="43.12467" lon="-0.5051">
        <ele>293.82</ele>
        <time>2016-12-11T10:04:59Z</time>
      </trkpt>
      <trkpt lat="43.12477" lon="-0.50528">
        <ele>293.34</ele>
        <time>2016-12-11T10:05:04Z</time>
      </trkpt>
      <trkpt lat="43.12488" lon="-0.5054">
        <ele>292.86</ele>
        <time>2016-12-11T10:05:07Z</time>
      </trkpt>
      <trkpt lat="43.12532" lon="-0.5059">
        <ele>292.38</ele>
        <time>2016-12-11T10:05:19Z</time>
      </trkpt>
      <trkpt lat="43.12561" lon="-0.50616">
        <ele>291.9</ele>
        <time>2016-12-11T10:05:26Z</time>
      </trkpt>
      <trkpt lat="43.12573" lon="-0.50633">
        <ele>291.9</ele>
        <time>2016-12-11T10:05:30Z</time>
      </trkpt>
      <trkpt lat="43.12587" lon="-0.50651">
        <ele>291.9</ele>
        <time>2016-12-11T10:05:35Z</time>
      </trkpt>
      <trkpt lat="43.12595" lon="-0.50663">
        <ele>291.9</ele>
        <time>2016-12-11T10:05:38Z</time>
      </trkpt>
      <trkpt lat="43.12622" lon="-0.50699">
        <ele>290.46</ele>
        <time>2016-12-11T10:05:46Z</time>
      </trkpt>
      <trkpt lat="43.12629" lon="-0.50712">
        <ele>291.42</ele>
        <time>2016-12-11T10:05:49Z</time>
      </trkpt>
      <trkpt lat="43.12632" lon="-0.50715">
        <ele>290.46</ele>
        <time>2016-12-11T10:05:50Z</time>
      </trkpt>
      <trkpt lat="43.12642" lon="-0.50728">
        <ele>290.46</ele>
        <time>2016-12-11T10:05:54Z</time>
      </trkpt>
      <trkpt lat="43.12652" lon="-0.50766">
        <ele>289.97</ele>
        <time>2016-12-11T10:06:00Z</time>
      </trkpt>
      <trkpt lat="43.12646" lon="-0.50802">
        <ele>290.46</ele>
        <time>2016-12-11T10:06:07Z</time>
      </trkpt>
      <trkpt lat="43.12638" lon="-0.50818">
        <ele>289.97</ele>
        <time>2016-12-11T10:06:10Z</time>
      </trkpt>
      <trkpt lat="43.1263" lon="-0.50856">
        <ele>289.97</ele>
        <time>2016-12-11T10:06:17Z</time>
      </trkpt>
      <trkpt lat="43.12629" lon="-0.50862">
        <ele>289.97</ele>
        <time>2016-12-11T10:06:18Z</time>
      </trkpt>
      <trkpt lat="43.12627" lon="-0.5088">
        <ele>289.01</ele>
        <time>2016-12-11T10:06:21Z</time>
      </trkpt>
      <trkpt lat="43.12618" lon="-0.509">
        <ele>289.01</ele>
        <time>2016-12-11T10:06:25Z</time>
      </trkpt>
      <trkpt lat="43.12615" lon="-0.50911">
        <ele>288.53</ele>
        <time>2016-12-11T10:06:27Z</time>
      </trkpt>
      <trkpt lat="43.12597" lon="-0.50928">
        <ele>288.05</ele>
        <time>2016-12-11T10:06:34Z</time>
      </trkpt>
      <trkpt lat="43.12588" lon="-0.5095">
        <ele>286.13</ele>
        <time>2016-12-11T10:06:41Z</time>
      </trkpt>
      <trkpt lat="43.12587" lon="-0.50953">
        <ele>285.65</ele>
        <time>2016-12-11T10:06:42Z</time>
      </trkpt>
      <trkpt lat="43.12575" lon="-0.50972">
        <ele>287.09</ele>
        <time>2016-12-11T10:06:50Z</time>
      </trkpt>
      <trkpt lat="43.12569" lon="-0.50974">
        <ele>288.05</ele>
        <time>2016-12-11T10:06:53Z</time>
      </trkpt>
      <trkpt lat="43.12544" lon="-0.50974">
        <ele>290.94</ele>
        <time>2016-12-11T10:07:03Z</time>
      </trkpt>
      <trkpt lat="43.12543" lon="-0.50973">
        <ele>291.42</ele>
        <time>2016-12-11T10:07:04Z</time>
      </trkpt>
      <trkpt lat="43.12541" lon="-0.50972">
        <ele>291.9</ele>
        <time>2016-12-11T10:07:05Z</time>
      </trkpt>
      <trkpt lat="43.12537" lon="-0.50972">
        <ele>292.86</ele>
        <time>2016-12-11T10:07:07Z</time>
      </trkpt>
      <trkpt lat="43.1253" lon="-0.50973">
        <ele>294.78</ele>
        <time>2016-12-11T10:07:11Z</time>
      </trkpt>
      <trkpt lat="43.1252" lon="-0.50992">
        <ele>297.18</ele>
        <time>2016-12-11T10:07:23Z</time>
      </trkpt>
      <trkpt lat="43.12518" lon="-0.50996">
        <ele>297.67</ele>
        <time>2016-12-11T10:07:26Z</time>
      </trkpt>
      <trkpt lat="43.12514" lon="-0.51006">
        <ele>299.11</ele>
        <time>2016-12-11T10:07:33Z</time>
      </trkpt>
      <trkpt lat="43.12511" lon="-0.51036">
        <ele>301.51</ele>
        <time>2016-12-11T10:07:45Z</time>
      </trkpt>
      <trkpt lat="43.12514" lon="-0.51049">
        <ele>303.43</ele>
        <time>2016-12-11T10:07:52Z</time>
      </trkpt>
      <trkpt lat="43.12517" lon="-0.51061">
        <ele>304.88</ele>
        <time>2016-12-11T10:07:56Z</time>
      </trkpt>
      <trkpt lat="43.12521" lon="-0.51069">
        <ele>304.88</ele>
        <time>2016-12-11T10:07:59Z</time>
      </trkpt>
      <trkpt lat="43.12525" lon="-0.51094">
        <ele>305.36</ele>
        <time>2016-12-11T10:08:08Z</time>
      </trkpt>
      <trkpt lat="43.12524" lon="-0.51101">
        <ele>305.84</ele>
        <time>2016-12-11T10:08:10Z</time>
      </trkpt>
      <trkpt lat="43.12531" lon="-0.51121">
        <ele>306.32</ele>
        <time>2016-12-11T10:08:18Z</time>
      </trkpt>
      <trkpt lat="43.12536" lon="-0.51136">
        <ele>306.32</ele>
        <time>2016-12-11T10:08:22Z</time>
      </trkpt>
      <trkpt lat="43.12545" lon="-0.51165">
        <ele>307.76</ele>
        <time>2016-12-11T10:08:30Z</time>
      </trkpt>
      <trkpt lat="43.12545" lon="-0.51166">
        <ele>307.28</ele>
        <time>2016-12-11T10:08:31Z</time>
      </trkpt>
      <trkpt lat="43.12544" lon="-0.51184">
        <ele>308.24</ele>
        <time>2016-12-11T10:08:35Z</time>
      </trkpt>
      <trkpt lat="43.12546" lon="-0.51197">
        <ele>308.24</ele>
        <time>2016-12-11T10:08:39Z</time>
      </trkpt>
      <trkpt lat="43.12546" lon="-0.51204">
        <ele>308.24</ele>
        <time>2016-12-11T10:08:42Z</time>
      </trkpt>
      <trkpt lat="43.12547" lon="-0.5121">
        <ele>308.24</ele>
        <time>2016-12-11T10:08:44Z</time>
      </trkpt>
      <trkpt lat="43.12553" lon="-0.51223">
        <ele>306.8</ele>
        <time>2016-12-11T10:08:48Z</time>
      </trkpt>
      <trkpt lat="43.12555" lon="-0.51223">
        <ele>306.8</ele>
        <time>2016-12-11T10:08:49Z</time>
      </trkpt>
      <trkpt lat="43.12572" lon="-0.51224">
        <ele>302.47</ele>
        <time>2016-12-11T10:08:54Z</time>
      </trkpt>
      <trkpt lat="43.12577" lon="-0.51229">
        <ele>301.03</ele>
        <time>2016-12-11T10:08:58Z</time>
      </trkpt>
      <trkpt lat="43.12581" lon="-0.51227">
        <ele>300.07</ele>
        <time>2016-12-11T10:09:00Z</time>
      </trkpt>
      <trkpt lat="43.12586" lon="-0.51226">
        <ele>298.63</ele>
        <time>2016-12-11T10:09:02Z</time>
      </trkpt>
      <trkpt lat="43.1259" lon="-0.5123">
        <ele>297.18</ele>
        <time>2016-12-11T10:09:05Z</time>
      </trkpt>
      <trkpt lat="43.1259" lon="-0.51237">
        <ele>293.34</ele>
        <time>2016-12-11T10:09:08Z</time>
      </trkpt>
      <trkpt lat="43.1259" lon="-0.51238">
        <ele>292.86</ele>
        <time>2016-12-11T10:09:09Z</time>
      </trkpt>
      <trkpt lat="43.12602" lon="-0.51245">
        <ele>295.26</ele>
        <time>2016-12-11T10:09:15Z</time>
      </trkpt>
      <trkpt lat="43.12607" lon="-0.51248">
        <ele>296.7</ele>
        <time>2016-12-11T10:09:18Z</time>
      </trkpt>
      <trkpt lat="43.12615" lon="-0.51255">
        <ele>298.63</ele>
        <time>2016-12-11T10:09:29Z</time>
      </trkpt>
      <trkpt lat="43.12622" lon="-0.51256">
        <ele>300.07</ele>
        <time>2016-12-11T10:09:35Z</time>
      </trkpt>
      <trkpt lat="43.12633" lon="-0.51259">
        <ele>303.43</ele>
        <time>2016-12-11T10:09:43Z</time>
      </trkpt>
      <trkpt lat="43.1264" lon="-0.51264">
        <ele>305.84</ele>
        <time>2016-12-11T10:09:51Z</time>
      </trkpt>
      <trkpt lat="43.12642" lon="-0.51271">
        <ele>307.28</ele>
        <time>2016-12-11T10:09:57Z</time>
      </trkpt>
      <trkpt lat="43.12644" lon="-0.51282">
        <ele>308.24</ele>
        <time>2016-12-11T10:10:08Z</time>
      </trkpt>
      <trkpt lat="43.12653" lon="-0.51313">
        <ele>308.24</ele>
        <time>2016-12-11T10:10:18Z</time>
      </trkpt>
      <trkpt lat="43.12662" lon="-0.51334">
        <ele>304.39</ele>
        <time>2016-12-11T10:10:23Z</time>
      </trkpt>
      <trkpt lat="43.12663" lon="-0.51337">
        <ele>303.91</ele>
        <time>2016-12-11T10:10:24Z</time>
      </trkpt>
      <trkpt lat="43.12665" lon="-0.51343">
        <ele>302.47</ele>
        <time>2016-12-11T10:10:26Z</time>
      </trkpt>
      <trkpt lat="43.1268" lon="-0.51352">
        <ele>300.07</ele>
        <time>2016-12-11T10:10:32Z</time>
      </trkpt>
      <trkpt lat="43.1269" lon="-0.51355">
        <ele>298.15</ele>
        <time>2016-12-11T10:10:36Z</time>
      </trkpt>
      <trkpt lat="43.12705" lon="-0.51358">
        <ele>299.59</ele>
        <time>2016-12-11T10:10:41Z</time>
      </trkpt>
      <trkpt lat="43.1271" lon="-0.51371">
        <ele>302.95</ele>
        <time>2016-12-11T10:10:51Z</time>
      </trkpt>
      <trkpt lat="43.1271" lon="-0.51382">
        <ele>304.88</ele>
        <time>2016-12-11T10:10:58Z</time>
      </trkpt>
      <trkpt lat="43.12715" lon="-0.51393">
        <ele>304.88</ele>
        <time>2016-12-11T10:11:04Z</time>
      </trkpt>
      <trkpt lat="43.12728" lon="-0.51412">
        <ele>304.39</ele>
        <time>2016-12-11T10:11:12Z</time>
      </trkpt>
      <trkpt lat="43.1273" lon="-0.51415">
        <ele>304.39</ele>
        <time>2016-12-11T10:11:13Z</time>
      </trkpt>
      <trkpt lat="43.12733" lon="-0.51423">
        <ele>304.39</ele>
        <time>2016-12-11T10:11:16Z</time>
      </trkpt>
      <trkpt lat="43.12732" lon="-0.51433">
        <ele>304.39</ele>
        <time>2016-12-11T10:11:19Z</time>
      </trkpt>
      <trkpt lat="43.12751" lon="-0.51453">
        <ele>302.95</ele>
        <time>2016-12-11T10:11:24Z</time>
      </trkpt>
      <trkpt lat="43.12756" lon="-0.51461">
        <ele>301.99</ele>
        <time>2016-12-11T10:11:25Z</time>
      </trkpt>
      <trkpt lat="43.12774" lon="-0.5148">
        <ele>300.07</ele>
        <time>2016-12-11T10:11:30Z</time>
      </trkpt>
      <trkpt lat="43.12786" lon="-0.51496">
        <ele>297.67</ele>
        <time>2016-12-11T10:11:34Z</time>
      </trkpt>
      <trkpt lat="43.12792" lon="-0.51507">
        <ele>296.22</ele>
        <time>2016-12-11T10:11:35Z</time>
      </trkpt>
      <trkpt lat="43.12821" lon="-0.51534">
        <ele>295.74</ele>
        <time>2016-12-11T10:11:42Z</time>
      </trkpt>
      <trkpt lat="43.12829" lon="-0.51547">
        <ele>295.74</ele>
        <time>2016-12-11T10:11:44Z</time>
      </trkpt>
      <trkpt lat="43.12849" lon="-0.51577">
        <ele>294.3</ele>
        <time>2016-12-11T10:11:48Z</time>
      </trkpt>
      <trkpt lat="43.12868" lon="-0.51603">
        <ele>292.86</ele>
        <time>2016-12-11T10:11:52Z</time>
      </trkpt>
      <trkpt lat="43.12899" lon="-0.5162">
        <ele>288.53</ele>
        <time>2016-12-11T10:11:57Z</time>
      </trkpt>
      <trkpt lat="43.12905" lon="-0.51626">
        <ele>287.09</ele>
        <time>2016-12-11T10:11:58Z</time>
      </trkpt>
      <trkpt lat="43.12926" lon="-0.51679">
        <ele>285.65</ele>
        <time>2016-12-11T10:12:08Z</time>
      </trkpt>
      <trkpt lat="43.1292" lon="-0.5174">
        <ele>284.21</ele>
        <time>2016-12-11T10:12:17Z</time>
      </trkpt>
      <trkpt lat="43.12909" lon="-0.51784">
        <ele>287.09</ele>
        <time>2016-12-11T10:12:26Z</time>
      </trkpt>
      <trkpt lat="43.12909" lon="-0.51785">
        <ele>287.57</ele>
        <time>2016-12-11T10:12:27Z</time>
      </trkpt>
      <trkpt lat="43.12904" lon="-0.51806">
        <ele>289.97</ele>
        <time>2016-12-11T10:12:38Z</time>
      </trkpt>
      <trkpt lat="43.129" lon="-0.51821">
        <ele>292.38</ele>
        <time>2016-12-11T10:12:47Z</time>
      </trkpt>
      <trkpt lat="43.12894" lon="-0.51832">
        <ele>293.34</ele>
        <time>2016-12-11T10:12:53Z</time>
      </trkpt>
      <trkpt lat="43.12889" lon="-0.51843">
        <ele>291.9</ele>
        <time>2016-12-11T10:13:00Z</time>
      </trkpt>
      <trkpt lat="43.12888" lon="-0.51843">
        <ele>291.42</ele>
        <time>2016-12-11T10:13:01Z</time>
      </trkpt>
      <trkpt lat="43.12882" lon="-0.51854">
        <ele>289.01</ele>
        <time>2016-12-11T10:13:06Z</time>
      </trkpt>
      <trkpt lat="43.12883" lon="-0.51872">
        <ele>287.09</ele>
        <time>2016-12-11T10:13:12Z</time>
      </trkpt>
      <trkpt lat="43.1288" lon="-0.51888">
        <ele>289.49</ele>
        <time>2016-12-11T10:13:24Z</time>
      </trkpt>
      <trkpt lat="43.1288" lon="-0.51888">
        <ele>289.97</ele>
        <time>2016-12-11T10:13:25Z</time>
      </trkpt>
      <trkpt lat="43.12881" lon="-0.51903">
        <ele>291.42</ele>
        <time>2016-12-11T10:13:33Z</time>
      </trkpt>
      <trkpt lat="43.12884" lon="-0.5192">
        <ele>293.82</ele>
        <time>2016-12-11T10:13:45Z</time>
      </trkpt>
      <trkpt lat="43.1289" lon="-0.51935">
        <ele>295.74</ele>
        <time>2016-12-11T10:13:56Z</time>
      </trkpt>
      <trkpt lat="43.12897" lon="-0.51951">
        <ele>297.67</ele>
        <time>2016-12-11T10:14:07Z</time>
      </trkpt>
      <trkpt lat="43.12897" lon="-0.51953">
        <ele>298.15</ele>
        <time>2016-12-11T10:14:08Z</time>
      </trkpt>
      <trkpt lat="43.12898" lon="-0.51958">
        <ele>298.63</ele>
        <time>2016-12-11T10:14:11Z</time>
      </trkpt>
      <trkpt lat="43.129" lon="-0.51964">
        <ele>299.59</ele>
        <time>2016-12-11T10:14:14Z</time>
      </trkpt>
      <trkpt lat="43.12903" lon="-0.5198">
        <ele>301.99</ele>
        <time>2016-12-11T10:14:25Z</time>
      </trkpt>
      <trkpt lat="43.1291" lon="-0.52">
        <ele>304.39</ele>
        <time>2016-12-11T10:14:35Z</time>
      </trkpt>
      <trkpt lat="43.12911" lon="-0.52007">
        <ele>305.36</ele>
        <time>2016-12-11T10:14:39Z</time>
      </trkpt>
      <trkpt lat="43.12918" lon="-0.52026">
        <ele>307.28</ele>
        <time>2016-12-11T10:14:52Z</time>
      </trkpt>
      <trkpt lat="43.12924" lon="-0.52041">
        <ele>308.72</ele>
        <time>2016-12-11T10:15:05Z</time>
      </trkpt>
      <trkpt lat="43.12925" lon="-0.52046">
        <ele>308.24</ele>
        <time>2016-12-11T10:15:09Z</time>
      </trkpt>
      <trkpt lat="43.12927" lon="-0.52051">
        <ele>309.2</ele>
        <time>2016-12-11T10:15:11Z</time>
      </trkpt>
      <trkpt lat="43.12928" lon="-0.5206">
        <ele>309.2</ele>
        <time>2016-12-11T10:15:14Z</time>
      </trkpt>
      <trkpt lat="43.12931" lon="-0.52063">
        <ele>310.16</ele>
        <time>2016-12-11T10:15:16Z</time>
      </trkpt>
      <trkpt lat="43.12934" lon="-0.52071">
        <ele>310.64</ele>
        <time>2016-12-11T10:15:21Z</time>
      </trkpt>
      <trkpt lat="43.12938" lon="-0.52076">
        <ele>311.12</ele>
        <time>2016-12-11T10:15:24Z</time>
      </trkpt>
      <trkpt lat="43.12955" lon="-0.52107">
        <ele>311.12</ele>
        <time>2016-12-11T10:15:32Z</time>
      </trkpt>
      <trkpt lat="43.12967" lon="-0.5213">
        <ele>310.64</ele>
        <time>2016-12-11T10:15:38Z</time>
      </trkpt>
      <trkpt lat="43.12976" lon="-0.52155">
        <ele>309.68</ele>
        <time>2016-12-11T10:15:44Z</time>
      </trkpt>
      <trkpt lat="43.1298" lon="-0.52163">
        <ele>309.68</ele>
        <time>2016-12-11T10:15:47Z</time>
      </trkpt>
      <trkpt lat="43.12987" lon="-0.52182">
        <ele>309.68</ele>
        <time>2016-12-11T10:15:52Z</time>
      </trkpt>
      <trkpt lat="43.13003" lon="-0.52206">
        <ele>306.32</ele>
        <time>2016-12-11T10:15:57Z</time>
      </trkpt>
      <trkpt lat="43.13004" lon="-0.52209">
        <ele>305.84</ele>
        <time>2016-12-11T10:15:58Z</time>
      </trkpt>
      <trkpt lat="43.13022" lon="-0.52237">
        <ele>306.32</ele>
        <time>2016-12-11T10:16:07Z</time>
      </trkpt>
      <trkpt lat="43.13042" lon="-0.5227">
        <ele>304.88</ele>
        <time>2016-12-11T10:16:15Z</time>
      </trkpt>
      <trkpt lat="43.13055" lon="-0.52304">
        <ele>300.07</ele>
        <time>2016-12-11T10:16:20Z</time>
      </trkpt>
      <trkpt lat="43.13053" lon="-0.52321">
        <ele>297.18</ele>
        <time>2016-12-11T10:16:22Z</time>
      </trkpt>
      <trkpt lat="43.13044" lon="-0.5234">
        <ele>292.86</ele>
        <time>2016-12-11T10:16:25Z</time>
      </trkpt>
      <trkpt lat="43.13037" lon="-0.52354">
        <ele>290.46</ele>
        <time>2016-12-11T10:16:28Z</time>
      </trkpt>
      <trkpt lat="43.13035" lon="-0.52359">
        <ele>289.01</ele>
        <time>2016-12-11T10:16:29Z</time>
      </trkpt>
      <trkpt lat="43.13033" lon="-0.52366">
        <ele>289.01</ele>
        <time>2016-12-11T10:16:31Z</time>
      </trkpt>
      <trkpt lat="43.13039" lon="-0.52388">
        <ele>290.94</ele>
        <time>2016-12-11T10:16:40Z</time>
      </trkpt>
      <trkpt lat="43.13048" lon="-0.524">
        <ele>289.49</ele>
        <time>2016-12-11T10:16:44Z</time>
      </trkpt>
      <trkpt lat="43.13053" lon="-0.52402">
        <ele>289.01</ele>
        <time>2016-12-11T10:16:46Z</time>
      </trkpt>
      <trkpt lat="43.13059" lon="-0.52403">
        <ele>289.01</ele>
        <time>2016-12-11T10:16:48Z</time>
      </trkpt>
      <trkpt lat="43.13072" lon="-0.52409">
        <ele>288.05</ele>
        <time>2016-12-11T10:16:53Z</time>
      </trkpt>
      <trkpt lat="43.1308" lon="-0.52412">
        <ele>287.09</ele>
        <time>2016-12-11T10:16:56Z</time>
      </trkpt>
      <trkpt lat="43.1309" lon="-0.52419">
        <ele>285.65</ele>
        <time>2016-12-11T10:16:59Z</time>
      </trkpt>
      <trkpt lat="43.13096" lon="-0.52423">
        <ele>285.65</ele>
        <time>2016-12-11T10:17:01Z</time>
      </trkpt>
      <trkpt lat="43.13128" lon="-0.52435">
        <ele>287.57</ele>
        <time>2016-12-11T10:17:11Z</time>
      </trkpt>
      <trkpt lat="43.13145" lon="-0.52441">
        <ele>287.09</ele>
        <time>2016-12-11T10:17:16Z</time>
      </trkpt>
      <trkpt lat="43.13162" lon="-0.52452">
        <ele>284.69</ele>
        <time>2016-12-11T10:17:22Z</time>
      </trkpt>
      <trkpt lat="43.13171" lon="-0.52458">
        <ele>284.21</ele>
        <time>2016-12-11T10:17:35Z</time>
      </trkpt>
      <trkpt lat="43.13175" lon="-0.52459">
        <ele>284.69</ele>
        <time>2016-12-11T10:17:54Z</time>
      </trkpt>
      <trkpt lat="43.13196" lon="-0.52478">
        <ele>282.77</ele>
        <time>2016-12-11T10:18:02Z</time>
      </trkpt>
      <trkpt lat="43.13208" lon="-0.52492">
        <ele>281.32</ele>
        <time>2016-12-11T10:18:05Z</time>
      </trkpt>
      <trkpt lat="43.13216" lon="-0.52501">
        <ele>280.84</ele>
        <time>2016-12-11T10:18:07Z</time>
      </trkpt>
      <trkpt lat="43.13235" lon="-0.52533">
        <ele>280.36</ele>
        <time>2016-12-11T10:18:13Z</time>
      </trkpt>
      <trkpt lat="43.13245" lon="-0.5255">
        <ele>279.88</ele>
        <time>2016-12-11T10:18:16Z</time>
      </trkpt>
      <trkpt lat="43.13251" lon="-0.52601">
        <ele>279.88</ele>
        <time>2016-12-11T10:18:26Z</time>
      </trkpt>
      <trkpt lat="43.13248" lon="-0.52631">
        <ele>278.44</ele>
        <time>2016-12-11T10:18:35Z</time>
      </trkpt>
      <trkpt lat="43.1325" lon="-0.52655">
        <ele>280.36</ele>
        <time>2016-12-11T10:18:42Z</time>
      </trkpt>
      <trkpt lat="43.1325" lon="-0.52659">
        <ele>281.32</ele>
        <time>2016-12-11T10:18:43Z</time>
      </trkpt>
      <trkpt lat="43.13244" lon="-0.52672">
        <ele>282.77</ele>
        <time>2016-12-11T10:18:47Z</time>
      </trkpt>
      <trkpt lat="43.13239" lon="-0.52684">
        <ele>284.21</ele>
        <time>2016-12-11T10:18:53Z</time>
      </trkpt>
      <trkpt lat="43.13232" lon="-0.52715">
        <ele>285.65</ele>
        <time>2016-12-11T10:19:04Z</time>
      </trkpt>
      <trkpt lat="43.13227" lon="-0.52739">
        <ele>289.01</ele>
        <time>2016-12-11T10:19:14Z</time>
      </trkpt>
      <trkpt lat="43.13226" lon="-0.52761">
        <ele>291.9</ele>
        <time>2016-12-11T10:19:26Z</time>
      </trkpt>
      <trkpt lat="43.13226" lon="-0.52765">
        <ele>291.9</ele>
        <time>2016-12-11T10:19:28Z</time>
      </trkpt>
      <trkpt lat="43.13225" lon="-0.52773">
        <ele>292.38</ele>
        <time>2016-12-11T10:19:32Z</time>
      </trkpt>
      <trkpt lat="43.13225" lon="-0.52803">
        <ele>294.78</ele>
        <time>2016-12-11T10:19:44Z</time>
      </trkpt>
      <trkpt lat="43.13224" lon="-0.52811">
        <ele>294.78</ele>
        <time>2016-12-11T10:19:48Z</time>
      </trkpt>
      <trkpt lat="43.13217" lon="-0.52828">
        <ele>296.7</ele>
        <time>2016-12-11T10:20:01Z</time>
      </trkpt>
      <trkpt lat="43.13211" lon="-0.52838">
        <ele>297.67</ele>
        <time>2016-12-11T10:20:14Z</time>
      </trkpt>
      <trkpt lat="43.1321" lon="-0.52839">
        <ele>298.15</ele>
        <time>2016-12-11T10:20:15Z</time>
      </trkpt>
      <trkpt lat="43.13208" lon="-0.52843">
        <ele>298.63</ele>
        <time>2016-12-11T10:20:18Z</time>
      </trkpt>
      <trkpt lat="43.13203" lon="-0.52854">
        <ele>299.11</ele>
        <time>2016-12-11T10:20:23Z</time>
      </trkpt>
      <trkpt lat="43.13197" lon="-0.52868">
        <ele>300.55</ele>
        <time>2016-12-11T10:20:29Z</time>
      </trkpt>
      <trkpt lat="43.13194" lon="-0.52872">
        <ele>301.03</ele>
        <time>2016-12-11T10:20:31Z</time>
      </trkpt>
      <trkpt lat="43.13191" lon="-0.5288">
        <ele>301.51</ele>
        <time>2016-12-11T10:20:35Z</time>
      </trkpt>
      <trkpt lat="43.13189" lon="-0.52885">
        <ele>302.47</ele>
        <time>2016-12-11T10:20:37Z</time>
      </trkpt>
      <trkpt lat="43.13187" lon="-0.52894">
        <ele>302.95</ele>
        <time>2016-12-11T10:20:41Z</time>
      </trkpt>
      <trkpt lat="43.13181" lon="-0.52916">
        <ele>304.39</ele>
        <time>2016-12-11T10:20:49Z</time>
      </trkpt>
      <trkpt lat="43.13172" lon="-0.52943">
        <ele>306.32</ele>
        <time>2016-12-11T10:21:00Z</time>
      </trkpt>
      <trkpt lat="43.1317" lon="-0.52953">
        <ele>307.28</ele>
        <time>2016-12-11T10:21:04Z</time>
      </trkpt>
      <trkpt lat="43.13167" lon="-0.52963">
        <ele>307.76</ele>
        <time>2016-12-11T10:21:08Z</time>
      </trkpt>
      <trkpt lat="43.13163" lon="-0.52971">
        <ele>308.24</ele>
        <time>2016-12-11T10:21:12Z</time>
      </trkpt>
      <trkpt lat="43.1315" lon="-0.52997">
        <ele>310.16</ele>
        <time>2016-12-11T10:21:24Z</time>
      </trkpt>
      <trkpt lat="43.13137" lon="-0.53015">
        <ele>310.16</ele>
        <time>2016-12-11T10:21:32Z</time>
      </trkpt>
      <trkpt lat="43.13124" lon="-0.53035">
        <ele>311.6</ele>
        <time>2016-12-11T10:21:42Z</time>
      </trkpt>
      <trkpt lat="43.13108" lon="-0.5306">
        <ele>312.09</ele>
        <time>2016-12-11T10:21:54Z</time>
      </trkpt>
      <trkpt lat="43.13089" lon="-0.53088">
        <ele>313.05</ele>
        <time>2016-12-11T10:22:05Z</time>
      </trkpt>
      <trkpt lat="43.13081" lon="-0.53101">
        <ele>313.53</ele>
        <time>2016-12-11T10:22:10Z</time>
      </trkpt>
      <trkpt lat="43.13067" lon="-0.53126">
        <ele>315.45</ele>
        <time>2016-12-11T10:22:20Z</time>
      </trkpt>
      <trkpt lat="43.13056" lon="-0.53145">
        <ele>316.41</ele>
        <time>2016-12-11T10:22:29Z</time>
      </trkpt>
      <trkpt lat="43.13041" lon="-0.53166">
        <ele>318.33</ele>
        <time>2016-12-11T10:22:39Z</time>
      </trkpt>
      <trkpt lat="43.13023" lon="-0.53197">
        <ele>321.22</ele>
        <time>2016-12-11T10:22:52Z</time>
      </trkpt>
      <trkpt lat="43.13009" lon="-0.53219">
        <ele>323.14</ele>
        <time>2016-12-11T10:23:02Z</time>
      </trkpt>
      <trkpt lat="43.12994" lon="-0.53245">
        <ele>325.54</ele>
        <time>2016-12-11T10:23:13Z</time>
      </trkpt>
      <trkpt lat="43.12983" lon="-0.5326">
        <ele>326.02</ele>
        <time>2016-12-11T10:23:20Z</time>
      </trkpt>
      <trkpt lat="43.12976" lon="-0.53268">
        <ele>326.99</ele>
        <time>2016-12-11T10:23:24Z</time>
      </trkpt>
      <trkpt lat="43.12942" lon="-0.53302">
        <ele>328.43</ele>
        <time>2016-12-11T10:23:39Z</time>
      </trkpt>
      <trkpt lat="43.12915" lon="-0.53326">
        <ele>329.39</ele>
        <time>2016-12-11T10:23:51Z</time>
      </trkpt>
      <trkpt lat="43.12888" lon="-0.53343">
        <ele>330.35</ele>
        <time>2016-12-11T10:24:01Z</time>
      </trkpt>
      <trkpt lat="43.12844" lon="-0.53364">
        <ele>330.35</ele>
        <time>2016-12-11T10:24:14Z</time>
      </trkpt>
      <trkpt lat="43.12823" lon="-0.53373">
        <ele>331.31</ele>
        <time>2016-12-11T10:24:21Z</time>
      </trkpt>
      <trkpt lat="43.12801" lon="-0.53386">
        <ele>333.71</ele>
        <time>2016-12-11T10:24:30Z</time>
      </trkpt>
      <trkpt lat="43.12797" lon="-0.53388">
        <ele>333.71</ele>
        <time>2016-12-11T10:24:32Z</time>
      </trkpt>
      <trkpt lat="43.12787" lon="-0.53396">
        <ele>334.68</ele>
        <time>2016-12-11T10:24:37Z</time>
      </trkpt>
      <trkpt lat="43.12757" lon="-0.53426">
        <ele>337.56</ele>
        <time>2016-12-11T10:24:51Z</time>
      </trkpt>
      <trkpt lat="43.12738" lon="-0.53446">
        <ele>339</ele>
        <time>2016-12-11T10:25:00Z</time>
      </trkpt>
      <trkpt lat="43.12719" lon="-0.53474">
        <ele>340.44</ele>
        <time>2016-12-11T10:25:11Z</time>
      </trkpt>
      <trkpt lat="43.12703" lon="-0.53508">
        <ele>342.85</ele>
        <time>2016-12-11T10:25:24Z</time>
      </trkpt>
      <trkpt lat="43.12702" lon="-0.5351">
        <ele>342.85</ele>
        <time>2016-12-11T10:25:25Z</time>
      </trkpt>
      <trkpt lat="43.1269" lon="-0.5352">
        <ele>343.81</ele>
        <time>2016-12-11T10:25:35Z</time>
      </trkpt>
      <trkpt lat="43.12689" lon="-0.53518">
        <ele>344.29</ele>
        <time>2016-12-11T10:25:36Z</time>
      </trkpt>
      <trkpt lat="43.12687" lon="-0.53511">
        <ele>344.77</ele>
        <time>2016-12-11T10:25:39Z</time>
      </trkpt>
      <trkpt lat="43.12686" lon="-0.53481">
        <ele>345.73</ele>
        <time>2016-12-11T10:25:51Z</time>
      </trkpt>
      <trkpt lat="43.12674" lon="-0.53454">
        <ele>348.62</ele>
        <time>2016-12-11T10:26:01Z</time>
      </trkpt>
      <trkpt lat="43.12668" lon="-0.53441">
        <ele>349.1</ele>
        <time>2016-12-11T10:26:06Z</time>
      </trkpt>
      <trkpt lat="43.12646" lon="-0.53408">
        <ele>351.5</ele>
        <time>2016-12-11T10:26:16Z</time>
      </trkpt>
      <trkpt lat="43.12637" lon="-0.534">
        <ele>351.98</ele>
        <time>2016-12-11T10:26:20Z</time>
      </trkpt>
      <trkpt lat="43.12624" lon="-0.53385">
        <ele>353.9</ele>
        <time>2016-12-11T10:26:27Z</time>
      </trkpt>
      <trkpt lat="43.12607" lon="-0.53366">
        <ele>355.83</ele>
        <time>2016-12-11T10:26:36Z</time>
      </trkpt>
      <trkpt lat="43.12584" lon="-0.5335">
        <ele>357.27</ele>
        <time>2016-12-11T10:26:46Z</time>
      </trkpt>
      <trkpt lat="43.12556" lon="-0.53352">
        <ele>359.19</ele>
        <time>2016-12-11T10:26:57Z</time>
      </trkpt>
      <trkpt lat="43.12549" lon="-0.53353">
        <ele>360.15</ele>
        <time>2016-12-11T10:27:00Z</time>
      </trkpt>
      <trkpt lat="43.12535" lon="-0.53369">
        <ele>361.59</ele>
        <time>2016-12-11T10:27:08Z</time>
      </trkpt>
      <trkpt lat="43.1253" lon="-0.53377">
        <ele>362.07</ele>
        <time>2016-12-11T10:27:12Z</time>
      </trkpt>
      <trkpt lat="43.1252" lon="-0.53415">
        <ele>365.92</ele>
        <time>2016-12-11T10:27:26Z</time>
      </trkpt>
      <trkpt lat="43.12512" lon="-0.53445">
        <ele>367.36</ele>
        <time>2016-12-11T10:27:36Z</time>
      </trkpt>
      <trkpt lat="43.1251" lon="-0.53469">
        <ele>369.28</ele>
        <time>2016-12-11T10:27:43Z</time>
      </trkpt>
      <trkpt lat="43.12512" lon="-0.53504">
        <ele>370.73</ele>
        <time>2016-12-11T10:27:53Z</time>
      </trkpt>
      <trkpt lat="43.12515" lon="-0.53537">
        <ele>372.65</ele>
        <time>2016-12-11T10:28:04Z</time>
      </trkpt>
      <trkpt lat="43.12506" lon="-0.53573">
        <ele>375.05</ele>
        <time>2016-12-11T10:28:16Z</time>
      </trkpt>
      <trkpt lat="43.125" lon="-0.53597">
        <ele>376.49</ele>
        <time>2016-12-11T10:28:24Z</time>
      </trkpt>
      <trkpt lat="43.12498" lon="-0.53619">
        <ele>377.45</ele>
        <time>2016-12-11T10:28:30Z</time>
      </trkpt>
      <trkpt lat="43.12496" lon="-0.53651">
        <ele>379.86</ele>
        <time>2016-12-11T10:28:42Z</time>
      </trkpt>
      <trkpt lat="43.12496" lon="-0.53657">
        <ele>380.34</ele>
        <time>2016-12-11T10:28:44Z</time>
      </trkpt>
      <trkpt lat="43.12492" lon="-0.53695">
        <ele>383.22</ele>
        <time>2016-12-11T10:28:56Z</time>
      </trkpt>
      <trkpt lat="43.12491" lon="-0.53701">
        <ele>383.22</ele>
        <time>2016-12-11T10:28:58Z</time>
      </trkpt>
      <trkpt lat="43.12492" lon="-0.53719">
        <ele>384.18</ele>
        <time>2016-12-11T10:29:04Z</time>
      </trkpt>
      <trkpt lat="43.12492" lon="-0.5373">
        <ele>385.63</ele>
        <time>2016-12-11T10:29:08Z</time>
      </trkpt>
      <trkpt lat="43.12492" lon="-0.53748">
        <ele>386.59</ele>
        <time>2016-12-11T10:29:14Z</time>
      </trkpt>
      <trkpt lat="43.1249" lon="-0.5376">
        <ele>386.59</ele>
        <time>2016-12-11T10:29:18Z</time>
      </trkpt>
      <trkpt lat="43.12487" lon="-0.53777">
        <ele>387.55</ele>
        <time>2016-12-11T10:29:23Z</time>
      </trkpt>
      <trkpt lat="43.12496" lon="-0.53821">
        <ele>389.47</ele>
        <time>2016-12-11T10:29:34Z</time>
      </trkpt>
      <trkpt lat="43.12499" lon="-0.53827">
        <ele>389.47</ele>
        <time>2016-12-11T10:29:36Z</time>
      </trkpt>
      <trkpt lat="43.12505" lon="-0.53837">
        <ele>389.95</ele>
        <time>2016-12-11T10:29:40Z</time>
      </trkpt>
      <trkpt lat="43.1251" lon="-0.53852">
        <ele>390.91</ele>
        <time>2016-12-11T10:29:46Z</time>
      </trkpt>
      <trkpt lat="43.12513" lon="-0.53863">
        <ele>391.39</ele>
        <time>2016-12-11T10:29:50Z</time>
      </trkpt>
      <trkpt lat="43.12513" lon="-0.5388">
        <ele>392.36</ele>
        <time>2016-12-11T10:29:56Z</time>
      </trkpt>
      <trkpt lat="43.12512" lon="-0.5389">
        <ele>393.8</ele>
        <time>2016-12-11T10:30:01Z</time>
      </trkpt>
      <trkpt lat="43.12507" lon="-0.53931">
        <ele>395.72</ele>
        <time>2016-12-11T10:30:12Z</time>
      </trkpt>
      <trkpt lat="43.12502" lon="-0.53946">
        <ele>396.2</ele>
        <time>2016-12-11T10:30:17Z</time>
      </trkpt>
      <trkpt lat="43.12499" lon="-0.53964">
        <ele>397.16</ele>
        <time>2016-12-11T10:30:23Z</time>
      </trkpt>
      <trkpt lat="43.12499" lon="-0.53976">
        <ele>397.64</ele>
        <time>2016-12-11T10:30:27Z</time>
      </trkpt>
      <trkpt lat="43.12497" lon="-0.54">
        <ele>398.6</ele>
        <time>2016-12-11T10:30:34Z</time>
      </trkpt>
      <trkpt lat="43.12487" lon="-0.54015">
        <ele>399.57</ele>
        <time>2016-12-11T10:30:44Z</time>
      </trkpt>
      <trkpt lat="43.12486" lon="-0.5401">
        <ele>400.53</ele>
        <time>2016-12-11T10:30:47Z</time>
      </trkpt>
      <trkpt lat="43.12486" lon="-0.54001">
        <ele>400.05</ele>
        <time>2016-12-11T10:30:51Z</time>
      </trkpt>
      <trkpt lat="43.12476" lon="-0.53974">
        <ele>401.49</ele>
        <time>2016-12-11T10:31:03Z</time>
      </trkpt>
      <trkpt lat="43.12466" lon="-0.5396">
        <ele>402.93</ele>
        <time>2016-12-11T10:31:12Z</time>
      </trkpt>
      <trkpt lat="43.12451" lon="-0.53941">
        <ele>404.85</ele>
        <time>2016-12-11T10:31:22Z</time>
      </trkpt>
      <trkpt lat="43.1244" lon="-0.53927">
        <ele>405.33</ele>
        <time>2016-12-11T10:31:28Z</time>
      </trkpt>
      <trkpt lat="43.12422" lon="-0.53912">
        <ele>406.77</ele>
        <time>2016-12-11T10:31:36Z</time>
      </trkpt>
      <trkpt lat="43.1242" lon="-0.53911">
        <ele>406.77</ele>
        <time>2016-12-11T10:31:37Z</time>
      </trkpt>
      <trkpt lat="43.12415" lon="-0.5391">
        <ele>407.26</ele>
        <time>2016-12-11T10:31:39Z</time>
      </trkpt>
      <trkpt lat="43.12387" lon="-0.53913">
        <ele>408.22</ele>
        <time>2016-12-11T10:31:50Z</time>
      </trkpt>
      <trkpt lat="43.1235" lon="-0.5394">
        <ele>406.77</ele>
        <time>2016-12-11T10:32:05Z</time>
      </trkpt>
      <trkpt lat="43.12338" lon="-0.53946">
        <ele>406.77</ele>
        <time>2016-12-11T10:32:12Z</time>
      </trkpt>
      <trkpt lat="43.12319" lon="-0.53941">
        <ele>407.26</ele>
        <time>2016-12-11T10:32:20Z</time>
      </trkpt>
      <trkpt lat="43.12294" lon="-0.53924">
        <ele>408.22</ele>
        <time>2016-12-11T10:32:30Z</time>
      </trkpt>
      <trkpt lat="43.1227" lon="-0.53908">
        <ele>409.18</ele>
        <time>2016-12-11T10:32:40Z</time>
      </trkpt>
      <trkpt lat="43.12242" lon="-0.53894">
        <ele>411.1</ele>
        <time>2016-12-11T10:32:52Z</time>
      </trkpt>
      <trkpt lat="43.12212" lon="-0.53875">
        <ele>412.54</ele>
        <time>2016-12-11T10:33:05Z</time>
      </trkpt>
      <trkpt lat="43.12205" lon="-0.53871">
        <ele>412.54</ele>
        <time>2016-12-11T10:33:08Z</time>
      </trkpt>
      <trkpt lat="43.12197" lon="-0.53875">
        <ele>412.06</ele>
        <time>2016-12-11T10:33:12Z</time>
      </trkpt>
      <trkpt lat="43.12179" lon="-0.53872">
        <ele>412.54</ele>
        <time>2016-12-11T10:33:23Z</time>
      </trkpt>
      <trkpt lat="43.12178" lon="-0.53871">
        <ele>413.02</ele>
        <time>2016-12-11T10:33:24Z</time>
      </trkpt>
      <trkpt lat="43.12174" lon="-0.5387">
        <ele>413.5</ele>
        <time>2016-12-11T10:33:26Z</time>
      </trkpt>
      <trkpt lat="43.12168" lon="-0.5387">
        <ele>413.5</ele>
        <time>2016-12-11T10:33:29Z</time>
      </trkpt>
      <trkpt lat="43.1215" lon="-0.53864">
        <ele>415.43</ele>
        <time>2016-12-11T10:33:40Z</time>
      </trkpt>
      <trkpt lat="43.12146" lon="-0.53862">
        <ele>416.87</ele>
        <time>2016-12-11T10:33:43Z</time>
      </trkpt>
      <trkpt lat="43.12144" lon="-0.5386">
        <ele>416.87</ele>
        <time>2016-12-11T10:33:45Z</time>
      </trkpt>
      <trkpt lat="43.12131" lon="-0.53852">
        <ele>419.27</ele>
        <time>2016-12-11T10:33:55Z</time>
      </trkpt>
      <trkpt lat="43.12127" lon="-0.53848">
        <ele>419.75</ele>
        <time>2016-12-11T10:33:58Z</time>
      </trkpt>
      <trkpt lat="43.12122" lon="-0.53846">
        <ele>420.71</ele>
        <time>2016-12-11T10:34:01Z</time>
      </trkpt>
      <trkpt lat="43.12115" lon="-0.53843">
        <ele>422.16</ele>
        <time>2016-12-11T10:34:06Z</time>
      </trkpt>
      <trkpt lat="43.12109" lon="-0.53843">
        <ele>423.12</ele>
        <time>2016-12-11T10:34:11Z</time>
      </trkpt>
      <trkpt lat="43.12094" lon="-0.53846">
        <ele>426.48</ele>
        <time>2016-12-11T10:34:24Z</time>
      </trkpt>
      <trkpt lat="43.12085" lon="-0.53846">
        <ele>427.92</ele>
        <time>2016-12-11T10:34:34Z</time>
      </trkpt>
      <trkpt lat="43.12081" lon="-0.53843">
        <ele>428.89</ele>
        <time>2016-12-11T10:34:37Z</time>
      </trkpt>
      <trkpt lat="43.12073" lon="-0.53835">
        <ele>430.33</ele>
        <time>2016-12-11T10:34:43Z</time>
      </trkpt>
      <trkpt lat="43.12064" lon="-0.53824">
        <ele>433.21</ele>
        <time>2016-12-11T10:34:53Z</time>
      </trkpt>
      <trkpt lat="43.12057" lon="-0.53813">
        <ele>435.13</ele>
        <time>2016-12-11T10:35:05Z</time>
      </trkpt>
      <trkpt lat="43.12053" lon="-0.53811">
        <ele>436.1</ele>
        <time>2016-12-11T10:35:09Z</time>
      </trkpt>
      <trkpt lat="43.1204" lon="-0.53801">
        <ele>438.02</ele>
        <time>2016-12-11T10:35:21Z</time>
      </trkpt>
      <trkpt lat="43.12036" lon="-0.53797">
        <ele>438.98</ele>
        <time>2016-12-11T10:35:25Z</time>
      </trkpt>
      <trkpt lat="43.12031" lon="-0.53795">
        <ele>439.46</ele>
        <time>2016-12-11T10:35:29Z</time>
      </trkpt>
      <trkpt lat="43.12026" lon="-0.5379">
        <ele>440.9</ele>
        <time>2016-12-11T10:35:35Z</time>
      </trkpt>
      <trkpt lat="43.12019" lon="-0.53785">
        <ele>441.38</ele>
        <time>2016-12-11T10:35:42Z</time>
      </trkpt>
      <trkpt lat="43.12007" lon="-0.53779">
        <ele>443.31</ele>
        <time>2016-12-11T10:35:52Z</time>
      </trkpt>
      <trkpt lat="43.12001" lon="-0.53775">
        <ele>443.31</ele>
        <time>2016-12-11T10:35:56Z</time>
      </trkpt>
      <trkpt lat="43.11993" lon="-0.53763">
        <ele>443.31</ele>
        <time>2016-12-11T10:36:01Z</time>
      </trkpt>
      <trkpt lat="43.11969" lon="-0.53736">
        <ele>441.38</ele>
        <time>2016-12-11T10:36:12Z</time>
      </trkpt>
      <trkpt lat="43.1196" lon="-0.53728">
        <ele>440.9</ele>
        <time>2016-12-11T10:36:15Z</time>
      </trkpt>
      <trkpt lat="43.11952" lon="-0.53717">
        <ele>440.42</ele>
        <time>2016-12-11T10:36:23Z</time>
      </trkpt>
      <trkpt lat="43.11952" lon="-0.53712">
        <ele>440.42</ele>
        <time>2016-12-11T10:36:27Z</time>
      </trkpt>
      <trkpt lat="43.11951" lon="-0.53707">
        <ele>440.42</ele>
        <time>2016-12-11T10:36:31Z</time>
      </trkpt>
      <trkpt lat="43.11949" lon="-0.53705">
        <ele>439.94</ele>
        <time>2016-12-11T10:36:33Z</time>
      </trkpt>
      <trkpt lat="43.11947" lon="-0.53694">
        <ele>440.42</ele>
        <time>2016-12-11T10:36:42Z</time>
      </trkpt>
      <trkpt lat="43.11946" lon="-0.53689">
        <ele>439.94</ele>
        <time>2016-12-11T10:36:44Z</time>
      </trkpt>
      <trkpt lat="43.1194" lon="-0.53672">
        <ele>440.9</ele>
        <time>2016-12-11T10:36:53Z</time>
      </trkpt>
      <trkpt lat="43.11931" lon="-0.53648">
        <ele>442.34</ele>
        <time>2016-12-11T10:37:04Z</time>
      </trkpt>
      <trkpt lat="43.11929" lon="-0.53644">
        <ele>442.82</ele>
        <time>2016-12-11T10:37:06Z</time>
      </trkpt>
      <trkpt lat="43.11923" lon="-0.53627">
        <ele>444.27</ele>
        <time>2016-12-11T10:37:13Z</time>
      </trkpt>
      <trkpt lat="43.1191" lon="-0.5358">
        <ele>443.79</ele>
        <time>2016-12-11T10:37:24Z</time>
      </trkpt>
      <trkpt lat="43.11907" lon="-0.53569">
        <ele>443.79</ele>
        <time>2016-12-11T10:37:26Z</time>
      </trkpt>
      <trkpt lat="43.11905" lon="-0.53563">
        <ele>443.79</ele>
        <time>2016-12-11T10:37:27Z</time>
      </trkpt>
      <trkpt lat="43.11903" lon="-0.53558">
        <ele>442.82</ele>
        <time>2016-12-11T10:37:28Z</time>
      </trkpt>
      <trkpt lat="43.11902" lon="-0.53553">
        <ele>443.31</ele>
        <time>2016-12-11T10:37:29Z</time>
      </trkpt>
      <trkpt lat="43.11901" lon="-0.53547">
        <ele>443.31</ele>
        <time>2016-12-11T10:37:30Z</time>
      </trkpt>
      <trkpt lat="43.119" lon="-0.5354">
        <ele>443.31</ele>
        <time>2016-12-11T10:37:31Z</time>
      </trkpt>
      <trkpt lat="43.11898" lon="-0.53533">
        <ele>442.34</ele>
        <time>2016-12-11T10:37:32Z</time>
      </trkpt>
      <trkpt lat="43.11893" lon="-0.53516">
        <ele>442.34</ele>
        <time>2016-12-11T10:37:36Z</time>
      </trkpt>
      <trkpt lat="43.11891" lon="-0.53513">
        <ele>442.34</ele>
        <time>2016-12-11T10:37:37Z</time>
      </trkpt>
      <trkpt lat="43.1189" lon="-0.5351">
        <ele>442.34</ele>
        <time>2016-12-11T10:37:38Z</time>
      </trkpt>
      <trkpt lat="43.1189" lon="-0.53507">
        <ele>442.34</ele>
        <time>2016-12-11T10:37:39Z</time>
      </trkpt>
      <trkpt lat="43.11891" lon="-0.53505">
        <ele>442.34</ele>
        <time>2016-12-11T10:37:40Z</time>
      </trkpt>
      <trkpt lat="43.11891" lon="-0.53502">
        <ele>441.86</ele>
        <time>2016-12-11T10:37:41Z</time>
      </trkpt>
      <trkpt lat="43.11892" lon="-0.53499">
        <ele>442.34</ele>
        <time>2016-12-11T10:37:42Z</time>
      </trkpt>
      <trkpt lat="43.11893" lon="-0.53495">
        <ele>442.34</ele>
        <time>2016-12-11T10:37:43Z</time>
      </trkpt>
      <trkpt lat="43.11893" lon="-0.53492">
        <ele>441.86</ele>
        <time>2016-12-11T10:37:44Z</time>
      </trkpt>
      <trkpt lat="43.11893" lon="-0.53489">
        <ele>442.34</ele>
        <time>2016-12-11T10:37:45Z</time>
      </trkpt>
      <trkpt lat="43.11892" lon="-0.53485">
        <ele>442.34</ele>
        <time>2016-12-11T10:37:46Z</time>
      </trkpt>
      <trkpt lat="43.11885" lon="-0.53448">
        <ele>442.34</ele>
        <time>2016-12-11T10:37:55Z</time>
      </trkpt>
      <trkpt lat="43.11878" lon="-0.53431">
        <ele>442.34</ele>
        <time>2016-12-11T10:38:00Z</time>
      </trkpt>
      <trkpt lat="43.11877" lon="-0.53427">
        <ele>443.31</ele>
        <time>2016-12-11T10:38:01Z</time>
      </trkpt>
      <trkpt lat="43.11883" lon="-0.53383">
        <ele>445.23</ele>
        <time>2016-12-11T10:38:12Z</time>
      </trkpt>
      <trkpt lat="43.11885" lon="-0.53369">
        <ele>445.23</ele>
        <time>2016-12-11T10:38:16Z</time>
      </trkpt>
      <trkpt lat="43.11885" lon="-0.53366">
        <ele>444.27</ele>
        <time>2016-12-11T10:38:17Z</time>
      </trkpt>
      <trkpt lat="43.11886" lon="-0.53359">
        <ele>444.75</ele>
        <time>2016-12-11T10:38:19Z</time>
      </trkpt>
      <trkpt lat="43.11885" lon="-0.53356">
        <ele>444.75</ele>
        <time>2016-12-11T10:38:20Z</time>
      </trkpt>
      <trkpt lat="43.11885" lon="-0.53352">
        <ele>444.27</ele>
        <time>2016-12-11T10:38:21Z</time>
      </trkpt>
      <trkpt lat="43.11885" lon="-0.53341">
        <ele>444.75</ele>
        <time>2016-12-11T10:38:24Z</time>
      </trkpt>
      <trkpt lat="43.11885" lon="-0.53339">
        <ele>444.75</ele>
        <time>2016-12-11T10:38:25Z</time>
      </trkpt>
      <trkpt lat="43.11885" lon="-0.53336">
        <ele>444.75</ele>
        <time>2016-12-11T10:38:26Z</time>
      </trkpt>
      <trkpt lat="43.11884" lon="-0.53332">
        <ele>445.23</ele>
        <time>2016-12-11T10:38:27Z</time>
      </trkpt>
      <trkpt lat="43.11883" lon="-0.53327">
        <ele>445.23</ele>
        <time>2016-12-11T10:38:28Z</time>
      </trkpt>
      <trkpt lat="43.11883" lon="-0.53323">
        <ele>445.23</ele>
        <time>2016-12-11T10:38:29Z</time>
      </trkpt>
      <trkpt lat="43.11882" lon="-0.5332">
        <ele>445.23</ele>
        <time>2016-12-11T10:38:30Z</time>
      </trkpt>
      <trkpt lat="43.11882" lon="-0.53317">
        <ele>445.71</ele>
        <time>2016-12-11T10:38:31Z</time>
      </trkpt>
      <trkpt lat="43.11882" lon="-0.53315">
        <ele>445.71</ele>
        <time>2016-12-11T10:38:32Z</time>
      </trkpt>
      <trkpt lat="43.11882" lon="-0.53311">
        <ele>445.71</ele>
        <time>2016-12-11T10:38:33Z</time>
      </trkpt>
      <trkpt lat="43.11881" lon="-0.53307">
        <ele>445.71</ele>
        <time>2016-12-11T10:38:34Z</time>
      </trkpt>
      <trkpt lat="43.11881" lon="-0.53303">
        <ele>445.23</ele>
        <time>2016-12-11T10:38:35Z</time>
      </trkpt>
      <trkpt lat="43.11881" lon="-0.53298">
        <ele>445.71</ele>
        <time>2016-12-11T10:38:36Z</time>
      </trkpt>
      <trkpt lat="43.1188" lon="-0.53292">
        <ele>445.23</ele>
        <time>2016-12-11T10:38:37Z</time>
      </trkpt>
      <trkpt lat="43.11878" lon="-0.53286">
        <ele>445.71</ele>
        <time>2016-12-11T10:38:38Z</time>
      </trkpt>
      <trkpt lat="43.11877" lon="-0.53281">
        <ele>445.71</ele>
        <time>2016-12-11T10:38:39Z</time>
      </trkpt>
      <trkpt lat="43.11877" lon="-0.53275">
        <ele>445.71</ele>
        <time>2016-12-11T10:38:40Z</time>
      </trkpt>
      <trkpt lat="43.11876" lon="-0.5327">
        <ele>445.71</ele>
        <time>2016-12-11T10:38:41Z</time>
      </trkpt>
      <trkpt lat="43.11876" lon="-0.53265">
        <ele>445.71</ele>
        <time>2016-12-11T10:38:42Z</time>
      </trkpt>
      <trkpt lat="43.11874" lon="-0.53258">
        <ele>446.19</ele>
        <time>2016-12-11T10:38:44Z</time>
      </trkpt>
      <trkpt lat="43.11873" lon="-0.53254">
        <ele>445.71</ele>
        <time>2016-12-11T10:38:45Z</time>
      </trkpt>
      <trkpt lat="43.11873" lon="-0.53249">
        <ele>446.19</ele>
        <time>2016-12-11T10:38:46Z</time>
      </trkpt>
      <trkpt lat="43.11873" lon="-0.53245">
        <ele>446.19</ele>
        <time>2016-12-11T10:38:47Z</time>
      </trkpt>
      <trkpt lat="43.11872" lon="-0.5324">
        <ele>446.67</ele>
        <time>2016-12-11T10:38:48Z</time>
      </trkpt>
      <trkpt lat="43.11872" lon="-0.53237">
        <ele>447.15</ele>
        <time>2016-12-11T10:38:49Z</time>
      </trkpt>
      <trkpt lat="43.11872" lon="-0.53233">
        <ele>446.67</ele>
        <time>2016-12-11T10:38:50Z</time>
      </trkpt>
      <trkpt lat="43.11872" lon="-0.53229">
        <ele>447.15</ele>
        <time>2016-12-11T10:38:51Z</time>
      </trkpt>
      <trkpt lat="43.11872" lon="-0.53224">
        <ele>447.15</ele>
        <time>2016-12-11T10:38:52Z</time>
      </trkpt>
      <trkpt lat="43.11866" lon="-0.53167">
        <ele>449.07</ele>
        <time>2016-12-11T10:39:05Z</time>
      </trkpt>
      <trkpt lat="43.11866" lon="-0.53161">
        <ele>450.03</ele>
        <time>2016-12-11T10:39:07Z</time>
      </trkpt>
      <trkpt lat="43.11866" lon="-0.53159">
        <ele>450.03</ele>
        <time>2016-12-11T10:39:08Z</time>
      </trkpt>
      <trkpt lat="43.11865" lon="-0.53153">
        <ele>451</ele>
        <time>2016-12-11T10:39:11Z</time>
      </trkpt>
      <trkpt lat="43.11864" lon="-0.5315">
        <ele>451.48</ele>
        <time>2016-12-11T10:39:12Z</time>
      </trkpt>
      <trkpt lat="43.11864" lon="-0.53148">
        <ele>451.48</ele>
        <time>2016-12-11T10:39:13Z</time>
      </trkpt>
      <trkpt lat="43.11861" lon="-0.53123">
        <ele>454.84</ele>
        <time>2016-12-11T10:39:25Z</time>
      </trkpt>
      <trkpt lat="43.11857" lon="-0.53106">
        <ele>456.28</ele>
        <time>2016-12-11T10:39:32Z</time>
      </trkpt>
      <trkpt lat="43.11857" lon="-0.53104">
        <ele>456.28</ele>
        <time>2016-12-11T10:39:33Z</time>
      </trkpt>
      <trkpt lat="43.11857" lon="-0.53095">
        <ele>457.72</ele>
        <time>2016-12-11T10:39:39Z</time>
      </trkpt>
      <trkpt lat="43.11858" lon="-0.53076">
        <ele>459.17</ele>
        <time>2016-12-11T10:39:48Z</time>
      </trkpt>
      <trkpt lat="43.11852" lon="-0.53054">
        <ele>462.05</ele>
        <time>2016-12-11T10:40:00Z</time>
      </trkpt>
      <trkpt lat="43.1185" lon="-0.53052">
        <ele>463.01</ele>
        <time>2016-12-11T10:40:02Z</time>
      </trkpt>
      <trkpt lat="43.11843" lon="-0.53036">
        <ele>465.42</ele>
        <time>2016-12-11T10:40:15Z</time>
      </trkpt>
      <trkpt lat="43.11841" lon="-0.53034">
        <ele>465.9</ele>
        <time>2016-12-11T10:40:18Z</time>
      </trkpt>
      <trkpt lat="43.11832" lon="-0.53025">
        <ele>467.34</ele>
        <time>2016-12-11T10:40:27Z</time>
      </trkpt>
      <trkpt lat="43.11831" lon="-0.53024">
        <ele>466.86</ele>
        <time>2016-12-11T10:40:28Z</time>
      </trkpt>
      <trkpt lat="43.11829" lon="-0.53023">
        <ele>467.82</ele>
        <time>2016-12-11T10:40:29Z</time>
      </trkpt>
      <trkpt lat="43.11828" lon="-0.53021">
        <ele>466.86</ele>
        <time>2016-12-11T10:40:30Z</time>
      </trkpt>
      <trkpt lat="43.11827" lon="-0.53019">
        <ele>467.82</ele>
        <time>2016-12-11T10:40:31Z</time>
      </trkpt>
      <trkpt lat="43.11821" lon="-0.53007">
        <ele>467.34</ele>
        <time>2016-12-11T10:40:37Z</time>
      </trkpt>
      <trkpt lat="43.1182" lon="-0.53005">
        <ele>467.82</ele>
        <time>2016-12-11T10:40:38Z</time>
      </trkpt>
      <trkpt lat="43.11819" lon="-0.53002">
        <ele>468.3</ele>
        <time>2016-12-11T10:40:39Z</time>
      </trkpt>
      <trkpt lat="43.11812" lon="-0.52982">
        <ele>469.74</ele>
        <time>2016-12-11T10:40:48Z</time>
      </trkpt>
      <trkpt lat="43.11808" lon="-0.52944">
        <ele>469.26</ele>
        <time>2016-12-11T10:41:00Z</time>
      </trkpt>
      <trkpt lat="43.11808" lon="-0.5294">
        <ele>469.26</ele>
        <time>2016-12-11T10:41:02Z</time>
      </trkpt>
      <trkpt lat="43.11808" lon="-0.52924">
        <ele>469.74</ele>
        <time>2016-12-11T10:41:08Z</time>
      </trkpt>
      <trkpt lat="43.11795" lon="-0.52885">
        <ele>471.18</ele>
        <time>2016-12-11T10:41:20Z</time>
      </trkpt>
      <trkpt lat="43.1179" lon="-0.52877">
        <ele>471.66</ele>
        <time>2016-12-11T10:41:24Z</time>
      </trkpt>
      <trkpt lat="43.11788" lon="-0.52875">
        <ele>471.66</ele>
        <time>2016-12-11T10:41:25Z</time>
      </trkpt>
      <trkpt lat="43.11787" lon="-0.52874">
        <ele>472.14</ele>
        <time>2016-12-11T10:41:26Z</time>
      </trkpt>
      <trkpt lat="43.11769" lon="-0.52853">
        <ele>474.55</ele>
        <time>2016-12-11T10:41:38Z</time>
      </trkpt>
      <trkpt lat="43.11761" lon="-0.52844">
        <ele>474.55</ele>
        <time>2016-12-11T10:41:43Z</time>
      </trkpt>
      <trkpt lat="43.1176" lon="-0.52842">
        <ele>475.03</ele>
        <time>2016-12-11T10:41:44Z</time>
      </trkpt>
      <trkpt lat="43.11759" lon="-0.52841">
        <ele>475.03</ele>
        <time>2016-12-11T10:41:45Z</time>
      </trkpt>
      <trkpt lat="43.11757" lon="-0.52839">
        <ele>475.03</ele>
        <time>2016-12-11T10:41:46Z</time>
      </trkpt>
      <trkpt lat="43.11755" lon="-0.52836">
        <ele>475.51</ele>
        <time>2016-12-11T10:41:47Z</time>
      </trkpt>
      <trkpt lat="43.11744" lon="-0.52825">
        <ele>475.51</ele>
        <time>2016-12-11T10:41:58Z</time>
      </trkpt>
      <trkpt lat="43.11727" lon="-0.52817">
        <ele>476.95</ele>
        <time>2016-12-11T10:42:08Z</time>
      </trkpt>
      <trkpt lat="43.11725" lon="-0.52816">
        <ele>476.95</ele>
        <time>2016-12-11T10:42:09Z</time>
      </trkpt>
      <trkpt lat="43.11717" lon="-0.52815">
        <ele>477.43</ele>
        <time>2016-12-11T10:42:13Z</time>
      </trkpt>
      <trkpt lat="43.11715" lon="-0.52815">
        <ele>477.91</ele>
        <time>2016-12-11T10:42:14Z</time>
      </trkpt>
      <trkpt lat="43.11714" lon="-0.52817">
        <ele>478.39</ele>
        <time>2016-12-11T10:42:15Z</time>
      </trkpt>
      <trkpt lat="43.11713" lon="-0.52817">
        <ele>478.39</ele>
        <time>2016-12-11T10:42:16Z</time>
      </trkpt>
      <trkpt lat="43.11711" lon="-0.52819">
        <ele>478.87</ele>
        <time>2016-12-11T10:42:17Z</time>
      </trkpt>
      <trkpt lat="43.1171" lon="-0.52821">
        <ele>478.87</ele>
        <time>2016-12-11T10:42:18Z</time>
      </trkpt>
      <trkpt lat="43.11709" lon="-0.52822">
        <ele>478.87</ele>
        <time>2016-12-11T10:42:19Z</time>
      </trkpt>
      <trkpt lat="43.11707" lon="-0.52823">
        <ele>478.87</ele>
        <time>2016-12-11T10:42:20Z</time>
      </trkpt>
      <trkpt lat="43.11706" lon="-0.52824">
        <ele>478.87</ele>
        <time>2016-12-11T10:42:21Z</time>
      </trkpt>
      <trkpt lat="43.11701" lon="-0.5283">
        <ele>479.84</ele>
        <time>2016-12-11T10:42:25Z</time>
      </trkpt>
      <trkpt lat="43.11699" lon="-0.52832">
        <ele>480.32</ele>
        <time>2016-12-11T10:42:26Z</time>
      </trkpt>
      <trkpt lat="43.11698" lon="-0.52833">
        <ele>479.84</ele>
        <time>2016-12-11T10:42:27Z</time>
      </trkpt>
      <trkpt lat="43.11697" lon="-0.52835">
        <ele>479.84</ele>
        <time>2016-12-11T10:42:28Z</time>
      </trkpt>
      <trkpt lat="43.11695" lon="-0.52837">
        <ele>479.84</ele>
        <time>2016-12-11T10:42:29Z</time>
      </trkpt>
      <trkpt lat="43.11694" lon="-0.52839">
        <ele>480.32</ele>
        <time>2016-12-11T10:42:30Z</time>
      </trkpt>
      <trkpt lat="43.11692" lon="-0.52841">
        <ele>480.32</ele>
        <time>2016-12-11T10:42:31Z</time>
      </trkpt>
      <trkpt lat="43.11691" lon="-0.52842">
        <ele>480.32</ele>
        <time>2016-12-11T10:42:32Z</time>
      </trkpt>
      <trkpt lat="43.1169" lon="-0.52844">
        <ele>480.8</ele>
        <time>2016-12-11T10:42:33Z</time>
      </trkpt>
      <trkpt lat="43.11688" lon="-0.52846">
        <ele>480.8</ele>
        <time>2016-12-11T10:42:34Z</time>
      </trkpt>
      <trkpt lat="43.11687" lon="-0.52848">
        <ele>480.8</ele>
        <time>2016-12-11T10:42:35Z</time>
      </trkpt>
      <trkpt lat="43.11686" lon="-0.52849">
        <ele>480.8</ele>
        <time>2016-12-11T10:42:36Z</time>
      </trkpt>
      <trkpt lat="43.11683" lon="-0.52853">
        <ele>480.8</ele>
        <time>2016-12-11T10:42:39Z</time>
      </trkpt>
      <trkpt lat="43.11682" lon="-0.52855">
        <ele>481.28</ele>
        <time>2016-12-11T10:42:40Z</time>
      </trkpt>
      <trkpt lat="43.11681" lon="-0.52856">
        <ele>481.28</ele>
        <time>2016-12-11T10:42:41Z</time>
      </trkpt>
      <trkpt lat="43.11679" lon="-0.52859">
        <ele>481.76</ele>
        <time>2016-12-11T10:42:42Z</time>
      </trkpt>
      <trkpt lat="43.11678" lon="-0.52861">
        <ele>482.24</ele>
        <time>2016-12-11T10:42:43Z</time>
      </trkpt>
      <trkpt lat="43.11663" lon="-0.52882">
        <ele>482.72</ele>
        <time>2016-12-11T10:42:52Z</time>
      </trkpt>
      <trkpt lat="43.11661" lon="-0.52883">
        <ele>482.72</ele>
        <time>2016-12-11T10:42:53Z</time>
      </trkpt>
      <trkpt lat="43.1166" lon="-0.52885">
        <ele>482.72</ele>
        <time>2016-12-11T10:42:54Z</time>
      </trkpt>
      <trkpt lat="43.11658" lon="-0.52886">
        <ele>482.72</ele>
        <time>2016-12-11T10:42:55Z</time>
      </trkpt>
      <trkpt lat="43.11656" lon="-0.52887">
        <ele>482.24</ele>
        <time>2016-12-11T10:42:56Z</time>
      </trkpt>
      <trkpt lat="43.11653" lon="-0.52889">
        <ele>481.76</ele>
        <time>2016-12-11T10:42:57Z</time>
      </trkpt>
      <trkpt lat="43.11651" lon="-0.52892">
        <ele>482.24</ele>
        <time>2016-12-11T10:42:58Z</time>
      </trkpt>
      <trkpt lat="43.11648" lon="-0.52894">
        <ele>481.76</ele>
        <time>2016-12-11T10:42:59Z</time>
      </trkpt>
      <trkpt lat="43.11646" lon="-0.52895">
        <ele>481.76</ele>
        <time>2016-12-11T10:43:00Z</time>
      </trkpt>
      <trkpt lat="43.11643" lon="-0.52897">
        <ele>481.76</ele>
        <time>2016-12-11T10:43:01Z</time>
      </trkpt>
      <trkpt lat="43.11641" lon="-0.52898">
        <ele>481.76</ele>
        <time>2016-12-11T10:43:02Z</time>
      </trkpt>
      <trkpt lat="43.11638" lon="-0.52901">
        <ele>481.76</ele>
        <time>2016-12-11T10:43:03Z</time>
      </trkpt>
      <trkpt lat="43.11621" lon="-0.52907">
        <ele>481.76</ele>
        <time>2016-12-11T10:43:11Z</time>
      </trkpt>
      <trkpt lat="43.11618" lon="-0.52908">
        <ele>482.24</ele>
        <time>2016-12-11T10:43:12Z</time>
      </trkpt>
      <trkpt lat="43.11616" lon="-0.52908">
        <ele>482.72</ele>
        <time>2016-12-11T10:43:13Z</time>
      </trkpt>
      <trkpt lat="43.11614" lon="-0.52908">
        <ele>482.24</ele>
        <time>2016-12-11T10:43:14Z</time>
      </trkpt>
      <trkpt lat="43.11611" lon="-0.52908">
        <ele>482.24</ele>
        <time>2016-12-11T10:43:15Z</time>
      </trkpt>
      <trkpt lat="43.11609" lon="-0.52908">
        <ele>482.24</ele>
        <time>2016-12-11T10:43:16Z</time>
      </trkpt>
      <trkpt lat="43.11599" lon="-0.52907">
        <ele>482.24</ele>
        <time>2016-12-11T10:43:20Z</time>
      </trkpt>
      <trkpt lat="43.11597" lon="-0.52907">
        <ele>482.72</ele>
        <time>2016-12-11T10:43:21Z</time>
      </trkpt>
      <trkpt lat="43.11594" lon="-0.52907">
        <ele>482.72</ele>
        <time>2016-12-11T10:43:22Z</time>
      </trkpt>
      <trkpt lat="43.1157" lon="-0.52904">
        <ele>484.64</ele>
        <time>2016-12-11T10:43:32Z</time>
      </trkpt>
      <trkpt lat="43.11569" lon="-0.52902">
        <ele>484.64</ele>
        <time>2016-12-11T10:43:33Z</time>
      </trkpt>
      <trkpt lat="43.11567" lon="-0.52901">
        <ele>484.64</ele>
        <time>2016-12-11T10:43:34Z</time>
      </trkpt>
      <trkpt lat="43.11566" lon="-0.52899">
        <ele>485.6</ele>
        <time>2016-12-11T10:43:35Z</time>
      </trkpt>
      <trkpt lat="43.11565" lon="-0.52897">
        <ele>485.6</ele>
        <time>2016-12-11T10:43:36Z</time>
      </trkpt>
      <trkpt lat="43.11563" lon="-0.52891">
        <ele>486.56</ele>
        <time>2016-12-11T10:43:39Z</time>
      </trkpt>
      <trkpt lat="43.11554" lon="-0.52859">
        <ele>489.93</ele>
        <time>2016-12-11T10:43:51Z</time>
      </trkpt>
      <trkpt lat="43.11554" lon="-0.52849">
        <ele>490.41</ele>
        <time>2016-12-11T10:43:56Z</time>
      </trkpt>
      <trkpt lat="43.11555" lon="-0.52842">
        <ele>491.37</ele>
        <time>2016-12-11T10:44:01Z</time>
      </trkpt>
      <trkpt lat="43.11559" lon="-0.52824">
        <ele>494.26</ele>
        <time>2016-12-11T10:44:12Z</time>
      </trkpt>
      <trkpt lat="43.11562" lon="-0.52806">
        <ele>496.18</ele>
        <time>2016-12-11T10:44:22Z</time>
      </trkpt>
      <trkpt lat="43.11563" lon="-0.52799">
        <ele>497.14</ele>
        <time>2016-12-11T10:44:26Z</time>
      </trkpt>
      <trkpt lat="43.11571" lon="-0.5278">
        <ele>500.5</ele>
        <time>2016-12-11T10:44:39Z</time>
      </trkpt>
      <trkpt lat="43.11574" lon="-0.52775">
        <ele>501.46</ele>
        <time>2016-12-11T10:44:44Z</time>
      </trkpt>
      <trkpt lat="43.11577" lon="-0.52768">
        <ele>502.43</ele>
        <time>2016-12-11T10:44:49Z</time>
      </trkpt>
      <trkpt lat="43.11585" lon="-0.52752">
        <ele>504.83</ele>
        <time>2016-12-11T10:45:01Z</time>
      </trkpt>
      <trkpt lat="43.11585" lon="-0.52751">
        <ele>505.31</ele>
        <time>2016-12-11T10:45:02Z</time>
      </trkpt>
      <trkpt lat="43.1159" lon="-0.52726">
        <ele>506.75</ele>
        <time>2016-12-11T10:45:14Z</time>
      </trkpt>
      <trkpt lat="43.11591" lon="-0.52716">
        <ele>507.23</ele>
        <time>2016-12-11T10:45:19Z</time>
      </trkpt>
      <trkpt lat="43.11596" lon="-0.52692">
        <ele>510.12</ele>
        <time>2016-12-11T10:45:34Z</time>
      </trkpt>
      <trkpt lat="43.11599" lon="-0.5268">
        <ele>511.56</ele>
        <time>2016-12-11T10:45:44Z</time>
      </trkpt>
      <trkpt lat="43.11601" lon="-0.52668">
        <ele>513</ele>
        <time>2016-12-11T10:45:52Z</time>
      </trkpt>
      <trkpt lat="43.11599" lon="-0.52655">
        <ele>514.92</ele>
        <time>2016-12-11T10:45:57Z</time>
      </trkpt>
      <trkpt lat="43.11597" lon="-0.52621">
        <ele>515.4</ele>
        <time>2016-12-11T10:46:08Z</time>
      </trkpt>
      <trkpt lat="43.11595" lon="-0.52572">
        <ele>516.85</ele>
        <time>2016-12-11T10:46:21Z</time>
      </trkpt>
      <trkpt lat="43.11597" lon="-0.52541">
        <ele>518.77</ele>
        <time>2016-12-11T10:46:34Z</time>
      </trkpt>
      <trkpt lat="43.11598" lon="-0.52511">
        <ele>519.25</ele>
        <time>2016-12-11T10:46:45Z</time>
      </trkpt>
      <trkpt lat="43.11599" lon="-0.52506">
        <ele>519.73</ele>
        <time>2016-12-11T10:46:48Z</time>
      </trkpt>
      <trkpt lat="43.116" lon="-0.52498">
        <ele>519.73</ele>
        <time>2016-12-11T10:46:52Z</time>
      </trkpt>
      <trkpt lat="43.11594" lon="-0.52461">
        <ele>520.69</ele>
        <time>2016-12-11T10:47:03Z</time>
      </trkpt>
      <trkpt lat="43.11589" lon="-0.5242">
        <ele>521.17</ele>
        <time>2016-12-11T10:47:13Z</time>
      </trkpt>
      <trkpt lat="43.1158" lon="-0.52381">
        <ele>520.69</ele>
        <time>2016-12-11T10:47:24Z</time>
      </trkpt>
      <trkpt lat="43.11571" lon="-0.52364">
        <ele>519.25</ele>
        <time>2016-12-11T10:47:30Z</time>
      </trkpt>
      <trkpt lat="43.11567" lon="-0.52357">
        <ele>518.77</ele>
        <time>2016-12-11T10:47:34Z</time>
      </trkpt>
      <trkpt lat="43.11544" lon="-0.52319">
        <ele>516.37</ele>
        <time>2016-12-11T10:47:41Z</time>
      </trkpt>
      <trkpt lat="43.11512" lon="-0.523">
        <ele>514.44</ele>
        <time>2016-12-11T10:47:46Z</time>
      </trkpt>
      <trkpt lat="43.11508" lon="-0.52295">
        <ele>513.96</ele>
        <time>2016-12-11T10:47:47Z</time>
      </trkpt>
      <trkpt lat="43.11504" lon="-0.5229">
        <ele>513.48</ele>
        <time>2016-12-11T10:47:48Z</time>
      </trkpt>
      <trkpt lat="43.11501" lon="-0.52285">
        <ele>512.52</ele>
        <time>2016-12-11T10:47:49Z</time>
      </trkpt>
      <trkpt lat="43.11499" lon="-0.52281">
        <ele>512.52</ele>
        <time>2016-12-11T10:47:50Z</time>
      </trkpt>
      <trkpt lat="43.11495" lon="-0.52278">
        <ele>513</ele>
        <time>2016-12-11T10:47:51Z</time>
      </trkpt>
      <trkpt lat="43.11474" lon="-0.52243">
        <ele>513</ele>
        <time>2016-12-11T10:48:00Z</time>
      </trkpt>
      <trkpt lat="43.11457" lon="-0.52218">
        <ele>513.96</ele>
        <time>2016-12-11T10:48:06Z</time>
      </trkpt>
      <trkpt lat="43.11439" lon="-0.52172">
        <ele>515.4</ele>
        <time>2016-12-11T10:48:17Z</time>
      </trkpt>
      <trkpt lat="43.1143" lon="-0.52121">
        <ele>514.44</ele>
        <time>2016-12-11T10:48:29Z</time>
      </trkpt>
      <trkpt lat="43.11434" lon="-0.52074">
        <ele>513</ele>
        <time>2016-12-11T10:48:38Z</time>
      </trkpt>
      <trkpt lat="43.11433" lon="-0.52055">
        <ele>511.08</ele>
        <time>2016-12-11T10:48:40Z</time>
      </trkpt>
      <trkpt lat="43.11432" lon="-0.52044">
        <ele>510.6</ele>
        <time>2016-12-11T10:48:41Z</time>
      </trkpt>
      <trkpt lat="43.1143" lon="-0.52034">
        <ele>509.64</ele>
        <time>2016-12-11T10:48:42Z</time>
      </trkpt>
      <trkpt lat="43.11427" lon="-0.52025">
        <ele>508.67</ele>
        <time>2016-12-11T10:48:43Z</time>
      </trkpt>
      <trkpt lat="43.11423" lon="-0.52018">
        <ele>508.67</ele>
        <time>2016-12-11T10:48:44Z</time>
      </trkpt>
      <trkpt lat="43.11419" lon="-0.52011">
        <ele>508.19</ele>
        <time>2016-12-11T10:48:45Z</time>
      </trkpt>
      <trkpt lat="43.11414" lon="-0.52005">
        <ele>507.71</ele>
        <time>2016-12-11T10:48:46Z</time>
      </trkpt>
      <trkpt lat="43.11409" lon="-0.51998">
        <ele>507.71</ele>
        <time>2016-12-11T10:48:47Z</time>
      </trkpt>
      <trkpt lat="43.11404" lon="-0.51991">
        <ele>507.23</ele>
        <time>2016-12-11T10:48:48Z</time>
      </trkpt>
      <trkpt lat="43.11394" lon="-0.51979">
        <ele>505.79</ele>
        <time>2016-12-11T10:48:50Z</time>
      </trkpt>
      <trkpt lat="43.11375" lon="-0.51964">
        <ele>503.87</ele>
        <time>2016-12-11T10:48:53Z</time>
      </trkpt>
      <trkpt lat="43.11368" lon="-0.51959">
        <ele>502.91</ele>
        <time>2016-12-11T10:48:54Z</time>
      </trkpt>
      <trkpt lat="43.11362" lon="-0.51955">
        <ele>502.43</ele>
        <time>2016-12-11T10:48:55Z</time>
      </trkpt>
      <trkpt lat="43.11356" lon="-0.51952">
        <ele>501.95</ele>
        <time>2016-12-11T10:48:56Z</time>
      </trkpt>
      <trkpt lat="43.1135" lon="-0.51951">
        <ele>501.46</ele>
        <time>2016-12-11T10:48:57Z</time>
      </trkpt>
      <trkpt lat="43.11344" lon="-0.5195">
        <ele>500.5</ele>
        <time>2016-12-11T10:48:58Z</time>
      </trkpt>
      <trkpt lat="43.11337" lon="-0.51949">
        <ele>500.5</ele>
        <time>2016-12-11T10:48:59Z</time>
      </trkpt>
      <trkpt lat="43.11326" lon="-0.51946">
        <ele>500.02</ele>
        <time>2016-12-11T10:49:01Z</time>
      </trkpt>
      <trkpt lat="43.11322" lon="-0.51944">
        <ele>499.54</ele>
        <time>2016-12-11T10:49:02Z</time>
      </trkpt>
      <trkpt lat="43.11317" lon="-0.51941">
        <ele>499.54</ele>
        <time>2016-12-11T10:49:03Z</time>
      </trkpt>
      <trkpt lat="43.11297" lon="-0.51933">
        <ele>497.14</ele>
        <time>2016-12-11T10:49:06Z</time>
      </trkpt>
      <trkpt lat="43.11291" lon="-0.5193">
        <ele>497.14</ele>
        <time>2016-12-11T10:49:07Z</time>
      </trkpt>
      <trkpt lat="43.11287" lon="-0.51928">
        <ele>496.18</ele>
        <time>2016-12-11T10:49:08Z</time>
      </trkpt>
      <trkpt lat="43.11284" lon="-0.51927">
        <ele>495.7</ele>
        <time>2016-12-11T10:49:09Z</time>
      </trkpt>
      <trkpt lat="43.11281" lon="-0.51927">
        <ele>495.22</ele>
        <time>2016-12-11T10:49:10Z</time>
      </trkpt>
      <trkpt lat="43.11279" lon="-0.51928">
        <ele>495.7</ele>
        <time>2016-12-11T10:49:11Z</time>
      </trkpt>
      <trkpt lat="43.11276" lon="-0.51929">
        <ele>495.22</ele>
        <time>2016-12-11T10:49:12Z</time>
      </trkpt>
      <trkpt lat="43.11259" lon="-0.51936">
        <ele>495.7</ele>
        <time>2016-12-11T10:49:19Z</time>
      </trkpt>
      <trkpt lat="43.11257" lon="-0.51934">
        <ele>496.18</ele>
        <time>2016-12-11T10:49:20Z</time>
      </trkpt>
      <trkpt lat="43.11256" lon="-0.51932">
        <ele>496.18</ele>
        <time>2016-12-11T10:49:21Z</time>
      </trkpt>
      <trkpt lat="43.11256" lon="-0.5193">
        <ele>496.18</ele>
        <time>2016-12-11T10:49:22Z</time>
      </trkpt>
      <trkpt lat="43.11255" lon="-0.51928">
        <ele>496.66</ele>
        <time>2016-12-11T10:49:23Z</time>
      </trkpt>
      <trkpt lat="43.11254" lon="-0.51925">
        <ele>496.66</ele>
        <time>2016-12-11T10:49:25Z</time>
      </trkpt>
      <trkpt lat="43.11253" lon="-0.51923">
        <ele>497.14</ele>
        <time>2016-12-11T10:49:26Z</time>
      </trkpt>
      <trkpt lat="43.11252" lon="-0.51922">
        <ele>497.14</ele>
        <time>2016-12-11T10:49:27Z</time>
      </trkpt>
      <trkpt lat="43.11251" lon="-0.5192">
        <ele>497.14</ele>
        <time>2016-12-11T10:49:28Z</time>
      </trkpt>
      <trkpt lat="43.11251" lon="-0.51918">
        <ele>497.14</ele>
        <time>2016-12-11T10:49:29Z</time>
      </trkpt>
      <trkpt lat="43.1125" lon="-0.51915">
        <ele>497.62</ele>
        <time>2016-12-11T10:49:30Z</time>
      </trkpt>
      <trkpt lat="43.1125" lon="-0.51913">
        <ele>497.62</ele>
        <time>2016-12-11T10:49:31Z</time>
      </trkpt>
      <trkpt lat="43.11249" lon="-0.5191">
        <ele>497.62</ele>
        <time>2016-12-11T10:49:32Z</time>
      </trkpt>
      <trkpt lat="43.11243" lon="-0.51872">
        <ele>500.02</ele>
        <time>2016-12-11T10:49:44Z</time>
      </trkpt>
      <trkpt lat="43.11238" lon="-0.51847">
        <ele>501.46</ele>
        <time>2016-12-11T10:49:51Z</time>
      </trkpt>
      <trkpt lat="43.11236" lon="-0.51846">
        <ele>501.95</ele>
        <time>2016-12-11T10:49:52Z</time>
      </trkpt>
      <trkpt lat="43.11233" lon="-0.51846">
        <ele>501.95</ele>
        <time>2016-12-11T10:49:53Z</time>
      </trkpt>
      <trkpt lat="43.11231" lon="-0.51846">
        <ele>501.95</ele>
        <time>2016-12-11T10:49:54Z</time>
      </trkpt>
      <trkpt lat="43.11229" lon="-0.51848">
        <ele>502.43</ele>
        <time>2016-12-11T10:49:55Z</time>
      </trkpt>
      <trkpt lat="43.11227" lon="-0.5185">
        <ele>502.43</ele>
        <time>2016-12-11T10:49:56Z</time>
      </trkpt>
      <trkpt lat="43.11227" lon="-0.51852">
        <ele>502.43</ele>
        <time>2016-12-11T10:49:57Z</time>
      </trkpt>
      <trkpt lat="43.11226" lon="-0.51854">
        <ele>502.91</ele>
        <time>2016-12-11T10:49:58Z</time>
      </trkpt>
      <trkpt lat="43.11227" lon="-0.51857">
        <ele>502.43</ele>
        <time>2016-12-11T10:49:59Z</time>
      </trkpt>
      <trkpt lat="43.11228" lon="-0.51891">
        <ele>504.35</ele>
        <time>2016-12-11T10:50:09Z</time>
      </trkpt>
      <trkpt lat="43.11219" lon="-0.519">
        <ele>504.83</ele>
        <time>2016-12-11T10:50:13Z</time>
      </trkpt>
      <trkpt lat="43.11217" lon="-0.51899">
        <ele>505.31</ele>
        <time>2016-12-11T10:50:14Z</time>
      </trkpt>
      <trkpt lat="43.11215" lon="-0.51898">
        <ele>505.31</ele>
        <time>2016-12-11T10:50:15Z</time>
      </trkpt>
      <trkpt lat="43.11214" lon="-0.51896">
        <ele>505.79</ele>
        <time>2016-12-11T10:50:16Z</time>
      </trkpt>
      <trkpt lat="43.11214" lon="-0.51894">
        <ele>505.79</ele>
        <time>2016-12-11T10:50:17Z</time>
      </trkpt>
      <trkpt lat="43.11213" lon="-0.51891">
        <ele>505.79</ele>
        <time>2016-12-11T10:50:18Z</time>
      </trkpt>
      <trkpt lat="43.11213" lon="-0.51888">
        <ele>506.27</ele>
        <time>2016-12-11T10:50:19Z</time>
      </trkpt>
      <trkpt lat="43.11213" lon="-0.51885">
        <ele>506.75</ele>
        <time>2016-12-11T10:50:20Z</time>
      </trkpt>
      <trkpt lat="43.11212" lon="-0.51882">
        <ele>506.75</ele>
        <time>2016-12-11T10:50:21Z</time>
      </trkpt>
      <trkpt lat="43.11203" lon="-0.51841">
        <ele>509.16</ele>
        <time>2016-12-11T10:50:33Z</time>
      </trkpt>
      <trkpt lat="43.1119" lon="-0.51821">
        <ele>510.6</ele>
        <time>2016-12-11T10:50:41Z</time>
      </trkpt>
      <trkpt lat="43.11188" lon="-0.51819">
        <ele>510.6</ele>
        <time>2016-12-11T10:50:42Z</time>
      </trkpt>
      <trkpt lat="43.11186" lon="-0.51818">
        <ele>511.08</ele>
        <time>2016-12-11T10:50:43Z</time>
      </trkpt>
      <trkpt lat="43.11184" lon="-0.51816">
        <ele>511.08</ele>
        <time>2016-12-11T10:50:44Z</time>
      </trkpt>
      <trkpt lat="43.11181" lon="-0.51815">
        <ele>511.08</ele>
        <time>2016-12-11T10:50:45Z</time>
      </trkpt>
      <trkpt lat="43.11178" lon="-0.51814">
        <ele>511.56</ele>
        <time>2016-12-11T10:50:46Z</time>
      </trkpt>
      <trkpt lat="43.11176" lon="-0.51813">
        <ele>512.04</ele>
        <time>2016-12-11T10:50:47Z</time>
      </trkpt>
      <trkpt lat="43.11155" lon="-0.51788">
        <ele>513.48</ele>
        <time>2016-12-11T10:50:57Z</time>
      </trkpt>
      <trkpt lat="43.11151" lon="-0.51741">
        <ele>515.88</ele>
        <time>2016-12-11T10:51:10Z</time>
      </trkpt>
      <trkpt lat="43.11138" lon="-0.51726">
        <ele>518.29</ele>
        <time>2016-12-11T10:51:18Z</time>
      </trkpt>
      <trkpt lat="43.11136" lon="-0.51726">
        <ele>518.77</ele>
        <time>2016-12-11T10:51:19Z</time>
      </trkpt>
      <trkpt lat="43.11134" lon="-0.51726">
        <ele>518.29</ele>
        <time>2016-12-11T10:51:20Z</time>
      </trkpt>
      <trkpt lat="43.11132" lon="-0.51726">
        <ele>518.77</ele>
        <time>2016-12-11T10:51:21Z</time>
      </trkpt>
      <trkpt lat="43.1113" lon="-0.51726">
        <ele>518.77</ele>
        <time>2016-12-11T10:51:22Z</time>
      </trkpt>
      <trkpt lat="43.11128" lon="-0.51727">
        <ele>519.73</ele>
        <time>2016-12-11T10:51:23Z</time>
      </trkpt>
      <trkpt lat="43.11125" lon="-0.51727">
        <ele>519.73</ele>
        <time>2016-12-11T10:51:24Z</time>
      </trkpt>
      <trkpt lat="43.11123" lon="-0.51728">
        <ele>519.73</ele>
        <time>2016-12-11T10:51:25Z</time>
      </trkpt>
      <trkpt lat="43.11121" lon="-0.51728">
        <ele>520.21</ele>
        <time>2016-12-11T10:51:26Z</time>
      </trkpt>
      <trkpt lat="43.11119" lon="-0.51728">
        <ele>520.21</ele>
        <time>2016-12-11T10:51:27Z</time>
      </trkpt>
      <trkpt lat="43.1109" lon="-0.51721">
        <ele>522.61</ele>
        <time>2016-12-11T10:51:40Z</time>
      </trkpt>
      <trkpt lat="43.11088" lon="-0.51719">
        <ele>522.61</ele>
        <time>2016-12-11T10:51:41Z</time>
      </trkpt>
      <trkpt lat="43.11087" lon="-0.51712">
        <ele>522.61</ele>
        <time>2016-12-11T10:51:43Z</time>
      </trkpt>
      <trkpt lat="43.11093" lon="-0.51675">
        <ele>523.58</ele>
        <time>2016-12-11T10:51:54Z</time>
      </trkpt>
      <trkpt lat="43.11103" lon="-0.51641">
        <ele>525.02</ele>
        <time>2016-12-11T10:52:04Z</time>
      </trkpt>
      <trkpt lat="43.111" lon="-0.51624">
        <ele>525.98</ele>
        <time>2016-12-11T10:52:09Z</time>
      </trkpt>
      <trkpt lat="43.11088" lon="-0.5161">
        <ele>528.38</ele>
        <time>2016-12-11T10:52:17Z</time>
      </trkpt>
      <trkpt lat="43.11078" lon="-0.51599">
        <ele>530.3</ele>
        <time>2016-12-11T10:52:25Z</time>
      </trkpt>
      <trkpt lat="43.11072" lon="-0.51594">
        <ele>531.27</ele>
        <time>2016-12-11T10:52:29Z</time>
      </trkpt>
      <trkpt lat="43.11068" lon="-0.51592">
        <ele>532.23</ele>
        <time>2016-12-11T10:52:33Z</time>
      </trkpt>
      <trkpt lat="43.1106" lon="-0.51583">
        <ele>534.15</ele>
        <time>2016-12-11T10:52:41Z</time>
      </trkpt>
      <trkpt lat="43.11059" lon="-0.51582">
        <ele>534.63</ele>
        <time>2016-12-11T10:52:43Z</time>
      </trkpt>
      <trkpt lat="43.11056" lon="-0.5158">
        <ele>535.59</ele>
        <time>2016-12-11T10:52:46Z</time>
      </trkpt>
      <trkpt lat="43.11051" lon="-0.51572">
        <ele>537.51</ele>
        <time>2016-12-11T10:52:53Z</time>
      </trkpt>
      <trkpt lat="43.11045" lon="-0.51555">
        <ele>538.96</ele>
        <time>2016-12-11T10:53:03Z</time>
      </trkpt>
      <trkpt lat="43.11043" lon="-0.51547">
        <ele>539.92</ele>
        <time>2016-12-11T10:53:08Z</time>
      </trkpt>
      <trkpt lat="43.11042" lon="-0.51541">
        <ele>540.88</ele>
        <time>2016-12-11T10:53:12Z</time>
      </trkpt>
      <trkpt lat="43.11044" lon="-0.51527">
        <ele>542.32</ele>
        <time>2016-12-11T10:53:20Z</time>
      </trkpt>
      <trkpt lat="43.11045" lon="-0.51521">
        <ele>542.8</ele>
        <time>2016-12-11T10:53:24Z</time>
      </trkpt>
      <trkpt lat="43.11048" lon="-0.51515">
        <ele>543.28</ele>
        <time>2016-12-11T10:53:28Z</time>
      </trkpt>
      <trkpt lat="43.11049" lon="-0.51509">
        <ele>543.28</ele>
        <time>2016-12-11T10:53:32Z</time>
      </trkpt>
      <trkpt lat="43.11055" lon="-0.51487">
        <ele>541.84</ele>
        <time>2016-12-11T10:53:38Z</time>
      </trkpt>
      <trkpt lat="43.11057" lon="-0.5148">
        <ele>542.8</ele>
        <time>2016-12-11T10:53:41Z</time>
      </trkpt>
      <trkpt lat="43.11063" lon="-0.51454">
        <ele>541.84</ele>
        <time>2016-12-11T10:53:48Z</time>
      </trkpt>
      <trkpt lat="43.11066" lon="-0.51439">
        <ele>540.88</ele>
        <time>2016-12-11T10:53:50Z</time>
      </trkpt>
      <trkpt lat="43.1107" lon="-0.51412">
        <ele>539.92</ele>
        <time>2016-12-11T10:53:54Z</time>
      </trkpt>
      <trkpt lat="43.11074" lon="-0.51391">
        <ele>537.51</ele>
        <time>2016-12-11T10:53:57Z</time>
      </trkpt>
      <trkpt lat="43.1109" lon="-0.51348">
        <ele>533.67</ele>
        <time>2016-12-11T10:54:03Z</time>
      </trkpt>
      <trkpt lat="43.11104" lon="-0.51325">
        <ele>529.34</ele>
        <time>2016-12-11T10:54:07Z</time>
      </trkpt>
      <trkpt lat="43.11108" lon="-0.51317">
        <ele>528.38</ele>
        <time>2016-12-11T10:54:09Z</time>
      </trkpt>
      <trkpt lat="43.11115" lon="-0.51302">
        <ele>527.42</ele>
        <time>2016-12-11T10:54:12Z</time>
      </trkpt>
      <trkpt lat="43.11129" lon="-0.5128">
        <ele>525.98</ele>
        <time>2016-12-11T10:54:15Z</time>
      </trkpt>
      <trkpt lat="43.11142" lon="-0.51259">
        <ele>524.06</ele>
        <time>2016-12-11T10:54:18Z</time>
      </trkpt>
      <trkpt lat="43.11158" lon="-0.51219">
        <ele>519.73</ele>
        <time>2016-12-11T10:54:23Z</time>
      </trkpt>
      <trkpt lat="43.11172" lon="-0.51188">
        <ele>515.4</ele>
        <time>2016-12-11T10:54:27Z</time>
      </trkpt>
      <trkpt lat="43.11177" lon="-0.51173">
        <ele>514.44</ele>
        <time>2016-12-11T10:54:29Z</time>
      </trkpt>
      <trkpt lat="43.11177" lon="-0.51145">
        <ele>508.67</ele>
        <time>2016-12-11T10:54:33Z</time>
      </trkpt>
      <trkpt lat="43.11178" lon="-0.51122">
        <ele>503.39</ele>
        <time>2016-12-11T10:54:36Z</time>
      </trkpt>
      <trkpt lat="43.11177" lon="-0.51114">
        <ele>502.91</ele>
        <time>2016-12-11T10:54:37Z</time>
      </trkpt>
      <trkpt lat="43.11179" lon="-0.51083">
        <ele>496.66</ele>
        <time>2016-12-11T10:54:41Z</time>
      </trkpt>
      <trkpt lat="43.1118" lon="-0.51075">
        <ele>495.7</ele>
        <time>2016-12-11T10:54:42Z</time>
      </trkpt>
      <trkpt lat="43.11188" lon="-0.51043">
        <ele>488.49</ele>
        <time>2016-12-11T10:54:48Z</time>
      </trkpt>
      <trkpt lat="43.1119" lon="-0.51038">
        <ele>487.53</ele>
        <time>2016-12-11T10:54:50Z</time>
      </trkpt>
      <trkpt lat="43.11197" lon="-0.51024">
        <ele>484.16</ele>
        <time>2016-12-11T10:54:54Z</time>
      </trkpt>
      <trkpt lat="43.11207" lon="-0.50998">
        <ele>479.84</ele>
        <time>2016-12-11T10:54:58Z</time>
      </trkpt>
      <trkpt lat="43.11213" lon="-0.50978">
        <ele>476.47</ele>
        <time>2016-12-11T10:55:01Z</time>
      </trkpt>
      <trkpt lat="43.11223" lon="-0.50959">
        <ele>472.63</ele>
        <time>2016-12-11T10:55:04Z</time>
      </trkpt>
      <trkpt lat="43.11245" lon="-0.50939">
        <ele>467.34</ele>
        <time>2016-12-11T10:55:09Z</time>
      </trkpt>
      <trkpt lat="43.11264" lon="-0.50937">
        <ele>462.53</ele>
        <time>2016-12-11T10:55:12Z</time>
      </trkpt>
      <trkpt lat="43.11285" lon="-0.50931">
        <ele>457.24</ele>
        <time>2016-12-11T10:55:17Z</time>
      </trkpt>
      <trkpt lat="43.11293" lon="-0.50936">
        <ele>455.8</ele>
        <time>2016-12-11T10:55:20Z</time>
      </trkpt>
      <trkpt lat="43.11295" lon="-0.50939">
        <ele>455.32</ele>
        <time>2016-12-11T10:55:21Z</time>
      </trkpt>
      <trkpt lat="43.11308" lon="-0.50961">
        <ele>453.4</ele>
        <time>2016-12-11T10:55:25Z</time>
      </trkpt>
      <trkpt lat="43.11306" lon="-0.50986">
        <ele>451.96</ele>
        <time>2016-12-11T10:55:29Z</time>
      </trkpt>
      <trkpt lat="43.11302" lon="-0.50999">
        <ele>451.48</ele>
        <time>2016-12-11T10:55:31Z</time>
      </trkpt>
      <trkpt lat="43.11298" lon="-0.5102">
        <ele>449.07</ele>
        <time>2016-12-11T10:55:35Z</time>
      </trkpt>
      <trkpt lat="43.11301" lon="-0.51027">
        <ele>448.11</ele>
        <time>2016-12-11T10:55:37Z</time>
      </trkpt>
      <trkpt lat="43.11319" lon="-0.51025">
        <ele>444.27</ele>
        <time>2016-12-11T10:55:42Z</time>
      </trkpt>
      <trkpt lat="43.11334" lon="-0.5102">
        <ele>439.94</ele>
        <time>2016-12-11T10:55:46Z</time>
      </trkpt>
      <trkpt lat="43.11341" lon="-0.51019">
        <ele>437.06</ele>
        <time>2016-12-11T10:55:50Z</time>
      </trkpt>
      <trkpt lat="43.11344" lon="-0.51019">
        <ele>436.58</ele>
        <time>2016-12-11T10:55:52Z</time>
      </trkpt>
      <trkpt lat="43.1135" lon="-0.5102">
        <ele>435.61</ele>
        <time>2016-12-11T10:55:55Z</time>
      </trkpt>
      <trkpt lat="43.11358" lon="-0.51025">
        <ele>433.21</ele>
        <time>2016-12-11T10:55:59Z</time>
      </trkpt>
      <trkpt lat="43.11371" lon="-0.51026">
        <ele>433.69</ele>
        <time>2016-12-11T10:56:05Z</time>
      </trkpt>
      <trkpt lat="43.11385" lon="-0.51019">
        <ele>430.33</ele>
        <time>2016-12-11T10:56:11Z</time>
      </trkpt>
      <trkpt lat="43.11396" lon="-0.51011">
        <ele>428.89</ele>
        <time>2016-12-11T10:56:17Z</time>
      </trkpt>
      <trkpt lat="43.11413" lon="-0.50998">
        <ele>427.92</ele>
        <time>2016-12-11T10:56:22Z</time>
      </trkpt>
      <trkpt lat="43.11423" lon="-0.50996">
        <ele>426</ele>
        <time>2016-12-11T10:56:24Z</time>
      </trkpt>
      <trkpt lat="43.11442" lon="-0.50984">
        <ele>421.19</ele>
        <time>2016-12-11T10:56:28Z</time>
      </trkpt>
      <trkpt lat="43.11449" lon="-0.50976">
        <ele>419.27</ele>
        <time>2016-12-11T10:56:30Z</time>
      </trkpt>
      <trkpt lat="43.11459" lon="-0.50959">
        <ele>413.5</ele>
        <time>2016-12-11T10:56:34Z</time>
      </trkpt>
      <trkpt lat="43.11468" lon="-0.50954">
        <ele>411.1</ele>
        <time>2016-12-11T10:56:37Z</time>
      </trkpt>
      <trkpt lat="43.11487" lon="-0.50953">
        <ele>409.18</ele>
        <time>2016-12-11T10:56:48Z</time>
      </trkpt>
      <trkpt lat="43.1149" lon="-0.50949">
        <ele>408.22</ele>
        <time>2016-12-11T10:56:53Z</time>
      </trkpt>
      <trkpt lat="43.11506" lon="-0.50932">
        <ele>403.89</ele>
        <time>2016-12-11T10:56:59Z</time>
      </trkpt>
      <trkpt lat="43.11518" lon="-0.50921">
        <ele>401.49</ele>
        <time>2016-12-11T10:57:02Z</time>
      </trkpt>
      <trkpt lat="43.11537" lon="-0.50919">
        <ele>400.05</ele>
        <time>2016-12-11T10:57:06Z</time>
      </trkpt>
      <trkpt lat="43.11561" lon="-0.50919">
        <ele>399.57</ele>
        <time>2016-12-11T10:57:10Z</time>
      </trkpt>
      <trkpt lat="43.11571" lon="-0.50921">
        <ele>399.08</ele>
        <time>2016-12-11T10:57:12Z</time>
      </trkpt>
      <trkpt lat="43.11587" lon="-0.50939">
        <ele>399.08</ele>
        <time>2016-12-11T10:57:17Z</time>
      </trkpt>
      <trkpt lat="43.11598" lon="-0.50943">
        <ele>396.68</ele>
        <time>2016-12-11T10:57:21Z</time>
      </trkpt>
      <trkpt lat="43.11602" lon="-0.50944">
        <ele>396.2</ele>
        <time>2016-12-11T10:57:23Z</time>
      </trkpt>
      <trkpt lat="43.11619" lon="-0.50937">
        <ele>394.28</ele>
        <time>2016-12-11T10:57:29Z</time>
      </trkpt>
      <trkpt lat="43.11639" lon="-0.50923">
        <ele>392.36</ele>
        <time>2016-12-11T10:57:33Z</time>
      </trkpt>
      <trkpt lat="43.11643" lon="-0.50921">
        <ele>392.36</ele>
        <time>2016-12-11T10:57:34Z</time>
      </trkpt>
      <trkpt lat="43.11652" lon="-0.50917">
        <ele>391.87</ele>
        <time>2016-12-11T10:57:36Z</time>
      </trkpt>
      <trkpt lat="43.11662" lon="-0.50911">
        <ele>390.91</ele>
        <time>2016-12-11T10:57:38Z</time>
      </trkpt>
      <trkpt lat="43.11688" lon="-0.50894">
        <ele>388.51</ele>
        <time>2016-12-11T10:57:42Z</time>
      </trkpt>
      <trkpt lat="43.11706" lon="-0.50881">
        <ele>387.55</ele>
        <time>2016-12-11T10:57:45Z</time>
      </trkpt>
      <trkpt lat="43.11718" lon="-0.5087">
        <ele>386.11</ele>
        <time>2016-12-11T10:57:47Z</time>
      </trkpt>
      <trkpt lat="43.11732" lon="-0.50864">
        <ele>385.63</ele>
        <time>2016-12-11T10:57:49Z</time>
      </trkpt>
      <trkpt lat="43.11756" lon="-0.50854">
        <ele>383.7</ele>
        <time>2016-12-11T10:57:52Z</time>
      </trkpt>
      <trkpt lat="43.11774" lon="-0.50848">
        <ele>382.74</ele>
        <time>2016-12-11T10:57:54Z</time>
      </trkpt>
      <trkpt lat="43.11798" lon="-0.50835">
        <ele>378.9</ele>
        <time>2016-12-11T10:57:57Z</time>
      </trkpt>
      <trkpt lat="43.11805" lon="-0.50831">
        <ele>378.42</ele>
        <time>2016-12-11T10:57:58Z</time>
      </trkpt>
      <trkpt lat="43.11823" lon="-0.50818">
        <ele>375.05</ele>
        <time>2016-12-11T10:58:01Z</time>
      </trkpt>
      <trkpt lat="43.11835" lon="-0.50812">
        <ele>373.13</ele>
        <time>2016-12-11T10:58:03Z</time>
      </trkpt>
      <trkpt lat="43.11847" lon="-0.50809">
        <ele>369.76</ele>
        <time>2016-12-11T10:58:05Z</time>
      </trkpt>
      <trkpt lat="43.11872" lon="-0.50797">
        <ele>364.48</ele>
        <time>2016-12-11T10:58:09Z</time>
      </trkpt>
      <trkpt lat="43.11891" lon="-0.50785">
        <ele>358.71</ele>
        <time>2016-12-11T10:58:13Z</time>
      </trkpt>
      <trkpt lat="43.11896" lon="-0.50782">
        <ele>357.75</ele>
        <time>2016-12-11T10:58:14Z</time>
      </trkpt>
      <trkpt lat="43.11907" lon="-0.5077">
        <ele>355.34</ele>
        <time>2016-12-11T10:58:17Z</time>
      </trkpt>
      <trkpt lat="43.11922" lon="-0.50754">
        <ele>353.42</ele>
        <time>2016-12-11T10:58:22Z</time>
      </trkpt>
      <trkpt lat="43.11948" lon="-0.50733">
        <ele>352.46</ele>
        <time>2016-12-11T10:58:31Z</time>
      </trkpt>
      <trkpt lat="43.11952" lon="-0.50727">
        <ele>352.46</ele>
        <time>2016-12-11T10:58:33Z</time>
      </trkpt>
      <trkpt lat="43.11958" lon="-0.5072">
        <ele>353.42</ele>
        <time>2016-12-11T10:58:35Z</time>
      </trkpt>
      <trkpt lat="43.11982" lon="-0.50693">
        <ele>353.42</ele>
        <time>2016-12-11T10:58:42Z</time>
      </trkpt>
      <trkpt lat="43.11997" lon="-0.50677">
        <ele>349.58</ele>
        <time>2016-12-11T10:58:45Z</time>
      </trkpt>
      <trkpt lat="43.12002" lon="-0.50671">
        <ele>348.13</ele>
        <time>2016-12-11T10:58:46Z</time>
      </trkpt>
      <trkpt lat="43.12009" lon="-0.50661">
        <ele>346.69</ele>
        <time>2016-12-11T10:58:49Z</time>
      </trkpt>
      <trkpt lat="43.12013" lon="-0.50651">
        <ele>346.69</ele>
        <time>2016-12-11T10:58:52Z</time>
      </trkpt>
      <trkpt lat="43.12034" lon="-0.50622">
        <ele>348.13</ele>
        <time>2016-12-11T10:59:01Z</time>
      </trkpt>
      <trkpt lat="43.12059" lon="-0.50592">
        <ele>346.69</ele>
        <time>2016-12-11T10:59:10Z</time>
      </trkpt>
      <trkpt lat="43.12078" lon="-0.50565">
        <ele>345.25</ele>
        <time>2016-12-11T10:59:15Z</time>
      </trkpt>
      <trkpt lat="43.12089" lon="-0.50553">
        <ele>343.81</ele>
        <time>2016-12-11T10:59:17Z</time>
      </trkpt>
      <trkpt lat="43.12118" lon="-0.50522">
        <ele>340.92</ele>
        <time>2016-12-11T10:59:22Z</time>
      </trkpt>
      <trkpt lat="43.12136" lon="-0.50509">
        <ele>339</ele>
        <time>2016-12-11T10:59:26Z</time>
      </trkpt>
      <trkpt lat="43.12167" lon="-0.5047">
        <ele>337.08</ele>
        <time>2016-12-11T10:59:34Z</time>
      </trkpt>
      <trkpt lat="43.12181" lon="-0.50435">
        <ele>333.71</ele>
        <time>2016-12-11T10:59:38Z</time>
      </trkpt>
      <trkpt lat="43.12186" lon="-0.50398">
        <ele>329.87</ele>
        <time>2016-12-11T10:59:41Z</time>
      </trkpt>
      <trkpt lat="43.12191" lon="-0.50367">
        <ele>326.02</ele>
        <time>2016-12-11T10:59:44Z</time>
      </trkpt>
      <trkpt lat="43.12194" lon="-0.5035">
        <ele>323.14</ele>
        <time>2016-12-11T10:59:46Z</time>
      </trkpt>
      <trkpt lat="43.12197" lon="-0.5033">
        <ele>319.3</ele>
        <time>2016-12-11T10:59:49Z</time>
      </trkpt>
      <trkpt lat="43.122" lon="-0.50317">
        <ele>317.85</ele>
        <time>2016-12-11T10:59:52Z</time>
      </trkpt>
      <trkpt lat="43.122" lon="-0.50314">
        <ele>317.85</ele>
        <time>2016-12-11T10:59:53Z</time>
      </trkpt>
      <trkpt lat="43.122" lon="-0.50313">
        <ele>317.85</ele>
        <time>2016-12-11T11:00:05Z</time>
      </trkpt>
      <trkpt lat="43.12204" lon="-0.50316">
        <ele>317.85</ele>
        <time>2016-12-11T11:00:28Z</time>
      </trkpt>
      <trkpt lat="43.12203" lon="-0.50317">
        <ele>317.85</ele>
        <time>2016-12-11T11:00:58Z</time>
      </trkpt>
      <trkpt lat="43.12195" lon="-0.50316">
        <ele>317.37</ele>
        <time>2016-12-11T11:01:21Z</time>
      </trkpt>
      <trkpt lat="43.12184" lon="-0.50313">
        <ele>317.37</ele>
        <time>2016-12-11T11:01:24Z</time>
      </trkpt>
      <trkpt lat="43.1218" lon="-0.50311">
        <ele>316.89</ele>
        <time>2016-12-11T11:01:25Z</time>
      </trkpt>
      <trkpt lat="43.12176" lon="-0.50308">
        <ele>316.89</ele>
        <time>2016-12-11T11:01:26Z</time>
      </trkpt>
      <trkpt lat="43.12168" lon="-0.503">
        <ele>316.41</ele>
        <time>2016-12-11T11:01:28Z</time>
      </trkpt>
      <trkpt lat="43.12164" lon="-0.50295">
        <ele>316.89</ele>
        <time>2016-12-11T11:01:29Z</time>
      </trkpt>
      <trkpt lat="43.12161" lon="-0.50289">
        <ele>316.41</ele>
        <time>2016-12-11T11:01:30Z</time>
      </trkpt>
      <trkpt lat="43.12159" lon="-0.50284">
        <ele>316.41</ele>
        <time>2016-12-11T11:01:31Z</time>
      </trkpt>
      <trkpt lat="43.12157" lon="-0.50279">
        <ele>316.41</ele>
        <time>2016-12-11T11:01:32Z</time>
      </trkpt>
      <trkpt lat="43.12155" lon="-0.50273">
        <ele>315.93</ele>
        <time>2016-12-11T11:01:33Z</time>
      </trkpt>
      <trkpt lat="43.12154" lon="-0.50267">
        <ele>316.41</ele>
        <time>2016-12-11T11:01:34Z</time>
      </trkpt>
      <trkpt lat="43.12148" lon="-0.50229">
        <ele>316.89</ele>
        <time>2016-12-11T11:01:40Z</time>
      </trkpt>
      <trkpt lat="43.12147" lon="-0.50223">
        <ele>316.89</ele>
        <time>2016-12-11T11:01:41Z</time>
      </trkpt>
      <trkpt lat="43.12143" lon="-0.50186">
        <ele>317.37</ele>
        <time>2016-12-11T11:01:47Z</time>
      </trkpt>
      <trkpt lat="43.12143" lon="-0.50179">
        <ele>317.37</ele>
        <time>2016-12-11T11:01:48Z</time>
      </trkpt>
      <trkpt lat="43.12147" lon="-0.50162">
        <ele>317.37</ele>
        <time>2016-12-11T11:01:51Z</time>
      </trkpt>
      <trkpt lat="43.12149" lon="-0.50157">
        <ele>317.37</ele>
        <time>2016-12-11T11:01:52Z</time>
      </trkpt>
      <trkpt lat="43.12152" lon="-0.50152">
        <ele>317.85</ele>
        <time>2016-12-11T11:01:53Z</time>
      </trkpt>
      <trkpt lat="43.12155" lon="-0.50147">
        <ele>317.37</ele>
        <time>2016-12-11T11:01:54Z</time>
      </trkpt>
      <trkpt lat="43.12158" lon="-0.50143">
        <ele>317.85</ele>
        <time>2016-12-11T11:01:55Z</time>
      </trkpt>
      <trkpt lat="43.12166" lon="-0.50136">
        <ele>317.85</ele>
        <time>2016-12-11T11:01:57Z</time>
      </trkpt>
      <trkpt lat="43.1217" lon="-0.50134">
        <ele>317.85</ele>
        <time>2016-12-11T11:01:58Z</time>
      </trkpt>
      <trkpt lat="43.12174" lon="-0.50132">
        <ele>317.85</ele>
        <time>2016-12-11T11:01:59Z</time>
      </trkpt>
      <trkpt lat="43.12201" lon="-0.50118">
        <ele>319.78</ele>
        <time>2016-12-11T11:02:06Z</time>
      </trkpt>
      <trkpt lat="43.12214" lon="-0.50105">
        <ele>320.26</ele>
        <time>2016-12-11T11:02:10Z</time>
      </trkpt>
      <trkpt lat="43.12217" lon="-0.50101">
        <ele>321.22</ele>
        <time>2016-12-11T11:02:11Z</time>
      </trkpt>
      <trkpt lat="43.1222" lon="-0.50097">
        <ele>320.74</ele>
        <time>2016-12-11T11:02:12Z</time>
      </trkpt>
      <trkpt lat="43.12247" lon="-0.50055">
        <ele>321.22</ele>
        <time>2016-12-11T11:02:22Z</time>
      </trkpt>
      <trkpt lat="43.12265" lon="-0.49992">
        <ele>321.22</ele>
        <time>2016-12-11T11:02:33Z</time>
      </trkpt>
      <trkpt lat="43.12265" lon="-0.49986">
        <ele>320.74</ele>
        <time>2016-12-11T11:02:34Z</time>
      </trkpt>
      <trkpt lat="43.12274" lon="-0.49922">
        <ele>319.78</ele>
        <time>2016-12-11T11:02:44Z</time>
      </trkpt>
      <trkpt lat="43.12274" lon="-0.49915">
        <ele>319.78</ele>
        <time>2016-12-11T11:02:45Z</time>
      </trkpt>
      <trkpt lat="43.12272" lon="-0.49908">
        <ele>319.78</ele>
        <time>2016-12-11T11:02:46Z</time>
      </trkpt>
      <trkpt lat="43.1227" lon="-0.49902">
        <ele>319.3</ele>
        <time>2016-12-11T11:02:47Z</time>
      </trkpt>
      <trkpt lat="43.12268" lon="-0.49897">
        <ele>319.3</ele>
        <time>2016-12-11T11:02:48Z</time>
      </trkpt>
      <trkpt lat="43.12264" lon="-0.49892">
        <ele>319.3</ele>
        <time>2016-12-11T11:02:49Z</time>
      </trkpt>
      <trkpt lat="43.1226" lon="-0.49888">
        <ele>319.3</ele>
        <time>2016-12-11T11:02:50Z</time>
      </trkpt>
      <trkpt lat="43.12256" lon="-0.49884">
        <ele>319.3</ele>
        <time>2016-12-11T11:02:51Z</time>
      </trkpt>
      <trkpt lat="43.12251" lon="-0.49882">
        <ele>319.3</ele>
        <time>2016-12-11T11:02:52Z</time>
      </trkpt>
      <trkpt lat="43.12246" lon="-0.4988">
        <ele>319.3</ele>
        <time>2016-12-11T11:02:53Z</time>
      </trkpt>
      <trkpt lat="43.1224" lon="-0.4988">
        <ele>318.81</ele>
        <time>2016-12-11T11:02:54Z</time>
      </trkpt>
      <trkpt lat="43.12235" lon="-0.4988">
        <ele>318.81</ele>
        <time>2016-12-11T11:02:55Z</time>
      </trkpt>
      <trkpt lat="43.1223" lon="-0.49881">
        <ele>318.81</ele>
        <time>2016-12-11T11:02:56Z</time>
      </trkpt>
      <trkpt lat="43.12209" lon="-0.49882">
        <ele>318.33</ele>
        <time>2016-12-11T11:03:00Z</time>
      </trkpt>
      <trkpt lat="43.12204" lon="-0.49882">
        <ele>317.85</ele>
        <time>2016-12-11T11:03:01Z</time>
      </trkpt>
      <trkpt lat="43.12199" lon="-0.4988">
        <ele>318.33</ele>
        <time>2016-12-11T11:03:02Z</time>
      </trkpt>
      <trkpt lat="43.12194" lon="-0.49877">
        <ele>317.85</ele>
        <time>2016-12-11T11:03:03Z</time>
      </trkpt>
      <trkpt lat="43.1219" lon="-0.49873">
        <ele>317.85</ele>
        <time>2016-12-11T11:03:04Z</time>
      </trkpt>
      <trkpt lat="43.12186" lon="-0.49869">
        <ele>317.37</ele>
        <time>2016-12-11T11:03:05Z</time>
      </trkpt>
      <trkpt lat="43.12183" lon="-0.49863">
        <ele>317.85</ele>
        <time>2016-12-11T11:03:06Z</time>
      </trkpt>
      <trkpt lat="43.12182" lon="-0.49857">
        <ele>317.37</ele>
        <time>2016-12-11T11:03:07Z</time>
      </trkpt>
      <trkpt lat="43.12181" lon="-0.49849">
        <ele>317.37</ele>
        <time>2016-12-11T11:03:08Z</time>
      </trkpt>
      <trkpt lat="43.12182" lon="-0.49842">
        <ele>317.37</ele>
        <time>2016-12-11T11:03:09Z</time>
      </trkpt>
      <trkpt lat="43.12183" lon="-0.49834">
        <ele>316.89</ele>
        <time>2016-12-11T11:03:10Z</time>
      </trkpt>
      <trkpt lat="43.12185" lon="-0.49828">
        <ele>317.37</ele>
        <time>2016-12-11T11:03:11Z</time>
      </trkpt>
      <trkpt lat="43.12187" lon="-0.49823">
        <ele>317.37</ele>
        <time>2016-12-11T11:03:12Z</time>
      </trkpt>
      <trkpt lat="43.12189" lon="-0.49818">
        <ele>317.37</ele>
        <time>2016-12-11T11:03:13Z</time>
      </trkpt>
      <trkpt lat="43.12192" lon="-0.49813">
        <ele>317.37</ele>
        <time>2016-12-11T11:03:14Z</time>
      </trkpt>
      <trkpt lat="43.12211" lon="-0.49782">
        <ele>318.33</ele>
        <time>2016-12-11T11:03:20Z</time>
      </trkpt>
      <trkpt lat="43.12214" lon="-0.49776">
        <ele>317.85</ele>
        <time>2016-12-11T11:03:21Z</time>
      </trkpt>
      <trkpt lat="43.12216" lon="-0.4977">
        <ele>318.33</ele>
        <time>2016-12-11T11:03:22Z</time>
      </trkpt>
      <trkpt lat="43.12218" lon="-0.49763">
        <ele>318.33</ele>
        <time>2016-12-11T11:03:23Z</time>
      </trkpt>
      <trkpt lat="43.12219" lon="-0.49757">
        <ele>319.3</ele>
        <time>2016-12-11T11:03:24Z</time>
      </trkpt>
      <trkpt lat="43.12221" lon="-0.49745">
        <ele>319.3</ele>
        <time>2016-12-11T11:03:26Z</time>
      </trkpt>
      <trkpt lat="43.12221" lon="-0.49726">
        <ele>319.78</ele>
        <time>2016-12-11T11:03:29Z</time>
      </trkpt>
      <trkpt lat="43.1222" lon="-0.4972">
        <ele>319.3</ele>
        <time>2016-12-11T11:03:30Z</time>
      </trkpt>
      <trkpt lat="43.12213" lon="-0.49695">
        <ele>320.26</ele>
        <time>2016-12-11T11:03:34Z</time>
      </trkpt>
      <trkpt lat="43.12211" lon="-0.49689">
        <ele>320.26</ele>
        <time>2016-12-11T11:03:35Z</time>
      </trkpt>
      <trkpt lat="43.12209" lon="-0.49684">
        <ele>320.26</ele>
        <time>2016-12-11T11:03:36Z</time>
      </trkpt>
      <trkpt lat="43.12207" lon="-0.49679">
        <ele>320.74</ele>
        <time>2016-12-11T11:03:37Z</time>
      </trkpt>
      <trkpt lat="43.12204" lon="-0.49674">
        <ele>320.74</ele>
        <time>2016-12-11T11:03:38Z</time>
      </trkpt>
      <trkpt lat="43.12202" lon="-0.4967">
        <ele>320.74</ele>
        <time>2016-12-11T11:03:39Z</time>
      </trkpt>
      <trkpt lat="43.12193" lon="-0.49658">
        <ele>321.7</ele>
        <time>2016-12-11T11:03:42Z</time>
      </trkpt>
      <trkpt lat="43.1219" lon="-0.49654">
        <ele>321.7</ele>
        <time>2016-12-11T11:03:43Z</time>
      </trkpt>
      <trkpt lat="43.1217" lon="-0.49633">
        <ele>322.18</ele>
        <time>2016-12-11T11:03:52Z</time>
      </trkpt>
      <trkpt lat="43.1217" lon="-0.49631">
        <ele>322.18</ele>
        <time>2016-12-11T11:03:53Z</time>
      </trkpt>
      <trkpt lat="43.1217" lon="-0.49629">
        <ele>321.7</ele>
        <time>2016-12-11T11:03:54Z</time>
      </trkpt>
      <trkpt lat="43.12172" lon="-0.49628">
        <ele>321.7</ele>
        <time>2016-12-11T11:04:03Z</time>
      </trkpt>
      <trkpt lat="43.12174" lon="-0.49627">
        <ele>321.22</ele>
        <time>2016-12-11T11:04:10Z</time>
      </trkpt>
      <trkpt lat="43.12176" lon="-0.49625">
        <ele>321.22</ele>
        <time>2016-12-11T11:04:12Z</time>
      </trkpt>
      <trkpt lat="43.12177" lon="-0.49622">
        <ele>319.78</ele>
        <time>2016-12-11T11:04:13Z</time>
      </trkpt>
      <trkpt lat="43.1218" lon="-0.49618">
        <ele>320.26</ele>
        <time>2016-12-11T11:04:14Z</time>
      </trkpt>
      <trkpt lat="43.12183" lon="-0.49614">
        <ele>319.3</ele>
        <time>2016-12-11T11:04:15Z</time>
      </trkpt>
      <trkpt lat="43.12187" lon="-0.4961">
        <ele>319.78</ele>
        <time>2016-12-11T11:04:16Z</time>
      </trkpt>
      <trkpt lat="43.1219" lon="-0.49605">
        <ele>318.33</ele>
        <time>2016-12-11T11:04:17Z</time>
      </trkpt>
      <trkpt lat="43.12193" lon="-0.496">
        <ele>316.89</ele>
        <time>2016-12-11T11:04:18Z</time>
      </trkpt>
      <trkpt lat="43.12195" lon="-0.49595">
        <ele>316.41</ele>
        <time>2016-12-11T11:04:19Z</time>
      </trkpt>
      <trkpt lat="43.12197" lon="-0.49591">
        <ele>315.45</ele>
        <time>2016-12-11T11:04:20Z</time>
      </trkpt>
      <trkpt lat="43.12198" lon="-0.49588">
        <ele>314.97</ele>
        <time>2016-12-11T11:04:21Z</time>
      </trkpt>
      <trkpt lat="43.12198" lon="-0.49585">
        <ele>314.97</ele>
        <time>2016-12-11T11:04:22Z</time>
      </trkpt>
      <trkpt lat="43.12198" lon="-0.49582">
        <ele>313.53</ele>
        <time>2016-12-11T11:04:23Z</time>
      </trkpt>
      <trkpt lat="43.122" lon="-0.49579">
        <ele>312.57</ele>
        <time>2016-12-11T11:04:25Z</time>
      </trkpt>
      <trkpt lat="43.12213" lon="-0.49583">
        <ele>310.16</ele>
        <time>2016-12-11T11:04:29Z</time>
      </trkpt>
      <trkpt lat="43.12235" lon="-0.49602">
        <ele>305.36</ele>
        <time>2016-12-11T11:04:33Z</time>
      </trkpt>
      <trkpt lat="43.12249" lon="-0.49613">
        <ele>304.39</ele>
        <time>2016-12-11T11:04:35Z</time>
      </trkpt>
      <trkpt lat="43.12255" lon="-0.49617">
        <ele>302.47</ele>
        <time>2016-12-11T11:04:36Z</time>
      </trkpt>
      <trkpt lat="43.1227" lon="-0.49626">
        <ele>299.11</ele>
        <time>2016-12-11T11:04:39Z</time>
      </trkpt>
      <trkpt lat="43.12278" lon="-0.4964">
        <ele>296.22</ele>
        <time>2016-12-11T11:04:43Z</time>
      </trkpt>
      <trkpt lat="43.12301" lon="-0.49614">
        <ele>296.22</ele>
        <time>2016-12-11T11:04:53Z</time>
      </trkpt>
      <trkpt lat="43.12307" lon="-0.49606">
        <ele>295.74</ele>
        <time>2016-12-11T11:04:56Z</time>
      </trkpt>
      <trkpt lat="43.12317" lon="-0.49611">
        <ele>296.7</ele>
        <time>2016-12-11T11:05:00Z</time>
      </trkpt>
      <trkpt lat="43.12331" lon="-0.49612">
        <ele>299.59</ele>
        <time>2016-12-11T11:05:08Z</time>
      </trkpt>
      <trkpt lat="43.12333" lon="-0.49612">
        <ele>299.59</ele>
        <time>2016-12-11T11:05:09Z</time>
      </trkpt>
      <trkpt lat="43.12344" lon="-0.49615">
        <ele>302.47</ele>
        <time>2016-12-11T11:05:18Z</time>
      </trkpt>
      <trkpt lat="43.12356" lon="-0.4962">
        <ele>304.88</ele>
        <time>2016-12-11T11:05:29Z</time>
      </trkpt>
      <trkpt lat="43.12362" lon="-0.49621">
        <ele>305.84</ele>
        <time>2016-12-11T11:05:35Z</time>
      </trkpt>
      <trkpt lat="43.12374" lon="-0.4963">
        <ele>306.32</ele>
        <time>2016-12-11T11:05:44Z</time>
      </trkpt>
      <trkpt lat="43.12378" lon="-0.49636">
        <ele>305.84</ele>
        <time>2016-12-11T11:05:48Z</time>
      </trkpt>
      <trkpt lat="43.12387" lon="-0.49644">
        <ele>305.84</ele>
        <time>2016-12-11T11:05:52Z</time>
      </trkpt>
      <trkpt lat="43.12393" lon="-0.49654">
        <ele>305.36</ele>
        <time>2016-12-11T11:05:56Z</time>
      </trkpt>
      <trkpt lat="43.12413" lon="-0.49691">
        <ele>305.36</ele>
        <time>2016-12-11T11:06:07Z</time>
      </trkpt>
      <trkpt lat="43.12433" lon="-0.49725">
        <ele>305.36</ele>
        <time>2016-12-11T11:06:16Z</time>
      </trkpt>
      <trkpt lat="43.12454" lon="-0.49762">
        <ele>304.39</ele>
        <time>2016-12-11T11:06:25Z</time>
      </trkpt>
      <trkpt lat="43.12458" lon="-0.49768">
        <ele>304.39</ele>
        <time>2016-12-11T11:06:27Z</time>
      </trkpt>
      <trkpt lat="43.12471" lon="-0.49779">
        <ele>303.43</ele>
        <time>2016-12-11T11:06:32Z</time>
      </trkpt>
      <trkpt lat="43.12479" lon="-0.49789">
        <ele>302.47</ele>
        <time>2016-12-11T11:06:35Z</time>
      </trkpt>
      <trkpt lat="43.12493" lon="-0.4981">
        <ele>301.51</ele>
        <time>2016-12-11T11:06:40Z</time>
      </trkpt>
      <trkpt lat="43.12486" lon="-0.49827">
        <ele>302.47</ele>
        <time>2016-12-11T11:06:47Z</time>
      </trkpt>
      <trkpt lat="43.12486" lon="-0.49839">
        <ele>303.43</ele>
        <time>2016-12-11T11:06:51Z</time>
      </trkpt>
      <trkpt lat="43.12489" lon="-0.49854">
        <ele>304.39</ele>
        <time>2016-12-11T11:06:56Z</time>
      </trkpt>
      <trkpt lat="43.12494" lon="-0.49863">
        <ele>305.36</ele>
        <time>2016-12-11T11:07:01Z</time>
      </trkpt>
      <trkpt lat="43.12509" lon="-0.49878">
        <ele>305.84</ele>
        <time>2016-12-11T11:07:13Z</time>
      </trkpt>
      <trkpt lat="43.12512" lon="-0.4988">
        <ele>306.32</ele>
        <time>2016-12-11T11:07:15Z</time>
      </trkpt>
      <trkpt lat="43.1252" lon="-0.49894">
        <ele>305.84</ele>
        <time>2016-12-11T11:07:19Z</time>
      </trkpt>
      <trkpt lat="43.1253" lon="-0.49914">
        <ele>306.8</ele>
        <time>2016-12-11T11:07:28Z</time>
      </trkpt>
      <trkpt lat="43.12533" lon="-0.49925">
        <ele>307.28</ele>
        <time>2016-12-11T11:07:31Z</time>
      </trkpt>
      <trkpt lat="43.12536" lon="-0.49942">
        <ele>308.24</ele>
        <time>2016-12-11T11:07:36Z</time>
      </trkpt>
      <trkpt lat="43.12546" lon="-0.49974">
        <ele>309.68</ele>
        <time>2016-12-11T11:07:47Z</time>
      </trkpt>
      <trkpt lat="43.12552" lon="-0.49988">
        <ele>310.64</ele>
        <time>2016-12-11T11:07:53Z</time>
      </trkpt>
      <trkpt lat="43.12558" lon="-0.49988">
        <ele>311.6</ele>
        <time>2016-12-11T11:07:58Z</time>
      </trkpt>
      <trkpt lat="43.12559" lon="-0.4998">
        <ele>312.57</ele>
        <time>2016-12-11T11:08:02Z</time>
      </trkpt>
      <trkpt lat="43.12558" lon="-0.49972">
        <ele>313.53</ele>
        <time>2016-12-11T11:08:06Z</time>
      </trkpt>
      <trkpt lat="43.1256" lon="-0.49953">
        <ele>314.97</ele>
        <time>2016-12-11T11:08:15Z</time>
      </trkpt>
      <trkpt lat="43.12562" lon="-0.49941">
        <ele>316.41</ele>
        <time>2016-12-11T11:08:21Z</time>
      </trkpt>
      <trkpt lat="43.12562" lon="-0.49936">
        <ele>317.37</ele>
        <time>2016-12-11T11:08:23Z</time>
      </trkpt>
      <trkpt lat="43.12563" lon="-0.49932">
        <ele>316.89</ele>
        <time>2016-12-11T11:08:25Z</time>
      </trkpt>
      <trkpt lat="43.12567" lon="-0.49922">
        <ele>317.85</ele>
        <time>2016-12-11T11:08:30Z</time>
      </trkpt>
      <trkpt lat="43.12573" lon="-0.49909">
        <ele>320.26</ele>
        <time>2016-12-11T11:08:36Z</time>
      </trkpt>
      <trkpt lat="43.12584" lon="-0.49903">
        <ele>321.22</ele>
        <time>2016-12-11T11:08:44Z</time>
      </trkpt>
      <trkpt lat="43.12588" lon="-0.49893">
        <ele>322.18</ele>
        <time>2016-12-11T11:08:49Z</time>
      </trkpt>
      <trkpt lat="43.12591" lon="-0.49899">
        <ele>324.1</ele>
        <time>2016-12-11T11:08:55Z</time>
      </trkpt>
      <trkpt lat="43.12593" lon="-0.49902">
        <ele>324.58</ele>
        <time>2016-12-11T11:08:57Z</time>
      </trkpt>
      <trkpt lat="43.12599" lon="-0.49919">
        <ele>325.54</ele>
        <time>2016-12-11T11:09:05Z</time>
      </trkpt>
      <trkpt lat="43.12611" lon="-0.49954">
        <ele>327.95</ele>
        <time>2016-12-11T11:09:18Z</time>
      </trkpt>
      <trkpt lat="43.12614" lon="-0.49968">
        <ele>328.43</ele>
        <time>2016-12-11T11:09:23Z</time>
      </trkpt>
      <trkpt lat="43.1263" lon="-0.50015">
        <ele>331.79</ele>
        <time>2016-12-11T11:09:39Z</time>
      </trkpt>
      <trkpt lat="43.12638" lon="-0.50051">
        <ele>334.2</ele>
        <time>2016-12-11T11:09:51Z</time>
      </trkpt>
      <trkpt lat="43.12645" lon="-0.50083">
        <ele>335.16</ele>
        <time>2016-12-11T11:10:01Z</time>
      </trkpt>
      <trkpt lat="43.12673" lon="-0.50104">
        <ele>336.6</ele>
        <time>2016-12-11T11:10:14Z</time>
      </trkpt>
      <trkpt lat="43.12706" lon="-0.50114">
        <ele>338.04</ele>
        <time>2016-12-11T11:10:26Z</time>
      </trkpt>
      <trkpt lat="43.12726" lon="-0.50114">
        <ele>341.41</ele>
        <time>2016-12-11T11:10:34Z</time>
      </trkpt>
      <trkpt lat="43.12737" lon="-0.50081">
        <ele>343.33</ele>
        <time>2016-12-11T11:10:46Z</time>
      </trkpt>
      <trkpt lat="43.12739" lon="-0.50043">
        <ele>345.25</ele>
        <time>2016-12-11T11:10:57Z</time>
      </trkpt>
      <trkpt lat="43.12758" lon="-0.50002">
        <ele>346.69</ele>
        <time>2016-12-11T11:11:11Z</time>
      </trkpt>
      <trkpt lat="43.12775" lon="-0.49958">
        <ele>350.06</ele>
        <time>2016-12-11T11:11:23Z</time>
      </trkpt>
      <trkpt lat="43.12784" lon="-0.49907">
        <ele>351.02</ele>
        <time>2016-12-11T11:11:34Z</time>
      </trkpt>
      <trkpt lat="43.12794" lon="-0.4985">
        <ele>351.5</ele>
        <time>2016-12-11T11:11:45Z</time>
      </trkpt>
      <trkpt lat="43.12803" lon="-0.49807">
        <ele>352.46</ele>
        <time>2016-12-11T11:11:53Z</time>
      </trkpt>
      <trkpt lat="43.12804" lon="-0.49801">
        <ele>352.46</ele>
        <time>2016-12-11T11:11:54Z</time>
      </trkpt>
      <trkpt lat="43.12812" lon="-0.49761">
        <ele>352.46</ele>
        <time>2016-12-11T11:12:01Z</time>
      </trkpt>
      <trkpt lat="43.12813" lon="-0.49755">
        <ele>352.46</ele>
        <time>2016-12-11T11:12:02Z</time>
      </trkpt>
      <trkpt lat="43.12826" lon="-0.49689">
        <ele>351.98</ele>
        <time>2016-12-11T11:12:13Z</time>
      </trkpt>
      <trkpt lat="43.12827" lon="-0.49683">
        <ele>351.98</ele>
        <time>2016-12-11T11:12:14Z</time>
      </trkpt>
      <trkpt lat="43.12835" lon="-0.49634">
        <ele>352.46</ele>
        <time>2016-12-11T11:12:22Z</time>
      </trkpt>
      <trkpt lat="43.12835" lon="-0.49628">
        <ele>352.94</ele>
        <time>2016-12-11T11:12:23Z</time>
      </trkpt>
      <trkpt lat="43.12834" lon="-0.49616">
        <ele>353.42</ele>
        <time>2016-12-11T11:12:25Z</time>
      </trkpt>
      <trkpt lat="43.12833" lon="-0.49611">
        <ele>353.42</ele>
        <time>2016-12-11T11:12:26Z</time>
      </trkpt>
      <trkpt lat="43.12832" lon="-0.49605">
        <ele>353.42</ele>
        <time>2016-12-11T11:12:27Z</time>
      </trkpt>
      <trkpt lat="43.12831" lon="-0.49599">
        <ele>353.42</ele>
        <time>2016-12-11T11:12:28Z</time>
      </trkpt>
      <trkpt lat="43.12831" lon="-0.49593">
        <ele>353.42</ele>
        <time>2016-12-11T11:12:29Z</time>
      </trkpt>
      <trkpt lat="43.1283" lon="-0.49588">
        <ele>353.9</ele>
        <time>2016-12-11T11:12:30Z</time>
      </trkpt>
      <trkpt lat="43.1283" lon="-0.49582">
        <ele>353.9</ele>
        <time>2016-12-11T11:12:31Z</time>
      </trkpt>
      <trkpt lat="43.1283" lon="-0.49576">
        <ele>353.9</ele>
        <time>2016-12-11T11:12:32Z</time>
      </trkpt>
      <trkpt lat="43.12832" lon="-0.49559">
        <ele>354.38</ele>
        <time>2016-12-11T11:12:35Z</time>
      </trkpt>
      <trkpt lat="43.12833" lon="-0.49553">
        <ele>354.38</ele>
        <time>2016-12-11T11:12:36Z</time>
      </trkpt>
      <trkpt lat="43.12835" lon="-0.49548">
        <ele>353.9</ele>
        <time>2016-12-11T11:12:37Z</time>
      </trkpt>
      <trkpt lat="43.12856" lon="-0.49463">
        <ele>355.83</ele>
        <time>2016-12-11T11:12:52Z</time>
      </trkpt>
      <trkpt lat="43.12859" lon="-0.49433">
        <ele>357.27</ele>
        <time>2016-12-11T11:12:57Z</time>
      </trkpt>
      <trkpt lat="43.12858" lon="-0.49359">
        <ele>360.15</ele>
        <time>2016-12-11T11:13:11Z</time>
      </trkpt>
      <trkpt lat="43.12856" lon="-0.49303">
        <ele>362.55</ele>
        <time>2016-12-11T11:13:23Z</time>
      </trkpt>
      <trkpt lat="43.12846" lon="-0.49262">
        <ele>364.48</ele>
        <time>2016-12-11T11:13:35Z</time>
      </trkpt>
      <trkpt lat="43.12842" lon="-0.49249">
        <ele>364.96</ele>
        <time>2016-12-11T11:13:42Z</time>
      </trkpt>
      <trkpt lat="43.12842" lon="-0.49248">
        <ele>364.96</ele>
        <time>2016-12-11T11:13:43Z</time>
      </trkpt>
      <trkpt lat="43.12843" lon="-0.49246">
        <ele>365.44</ele>
        <time>2016-12-11T11:13:44Z</time>
      </trkpt>
      <trkpt lat="43.12844" lon="-0.49246">
        <ele>365.44</ele>
        <time>2016-12-11T11:13:45Z</time>
      </trkpt>
      <trkpt lat="43.12847" lon="-0.49248">
        <ele>365.44</ele>
        <time>2016-12-11T11:13:57Z</time>
      </trkpt>
      <trkpt lat="43.12848" lon="-0.49248">
        <ele>364.48</ele>
        <time>2016-12-11T11:14:23Z</time>
      </trkpt>
      <trkpt lat="43.12848" lon="-0.49248">
        <ele>364.96</ele>
        <time>2016-12-11T11:14:45Z</time>
      </trkpt>
      <trkpt lat="43.12862" lon="-0.49243">
        <ele>366.88</ele>
        <time>2016-12-11T11:14:59Z</time>
      </trkpt>
      <trkpt lat="43.12892" lon="-0.49232">
        <ele>367.84</ele>
        <time>2016-12-11T11:15:07Z</time>
      </trkpt>
      <trkpt lat="43.1297" lon="-0.49207">
        <ele>366.88</ele>
        <time>2016-12-11T11:15:23Z</time>
      </trkpt>
      <trkpt lat="43.12993" lon="-0.492">
        <ele>366.88</ele>
        <time>2016-12-11T11:15:27Z</time>
      </trkpt>
      <trkpt lat="43.12998" lon="-0.49199">
        <ele>366.4</ele>
        <time>2016-12-11T11:15:28Z</time>
      </trkpt>
      <trkpt lat="43.13016" lon="-0.49201">
        <ele>365.92</ele>
        <time>2016-12-11T11:15:31Z</time>
      </trkpt>
      <trkpt lat="43.1304" lon="-0.49205">
        <ele>364.48</ele>
        <time>2016-12-11T11:15:35Z</time>
      </trkpt>
      <trkpt lat="43.13061" lon="-0.49205">
        <ele>363.04</ele>
        <time>2016-12-11T11:15:38Z</time>
      </trkpt>
      <trkpt lat="43.13085" lon="-0.49205">
        <ele>359.67</ele>
        <time>2016-12-11T11:15:41Z</time>
      </trkpt>
      <trkpt lat="43.13101" lon="-0.49205">
        <ele>358.23</ele>
        <time>2016-12-11T11:15:43Z</time>
      </trkpt>
      <trkpt lat="43.1311" lon="-0.49204">
        <ele>357.27</ele>
        <time>2016-12-11T11:15:44Z</time>
      </trkpt>
      <trkpt lat="43.13119" lon="-0.49202">
        <ele>356.79</ele>
        <time>2016-12-11T11:15:45Z</time>
      </trkpt>
      <trkpt lat="43.13127" lon="-0.49199">
        <ele>357.75</ele>
        <time>2016-12-11T11:15:46Z</time>
      </trkpt>
      <trkpt lat="43.13136" lon="-0.49196">
        <ele>355.83</ele>
        <time>2016-12-11T11:15:47Z</time>
      </trkpt>
      <trkpt lat="43.13144" lon="-0.49193">
        <ele>355.34</ele>
        <time>2016-12-11T11:15:48Z</time>
      </trkpt>
      <trkpt lat="43.13151" lon="-0.49194">
        <ele>355.34</ele>
        <time>2016-12-11T11:15:49Z</time>
      </trkpt>
      <trkpt lat="43.13157" lon="-0.49197">
        <ele>352.94</ele>
        <time>2016-12-11T11:15:50Z</time>
      </trkpt>
      <trkpt lat="43.13162" lon="-0.49202">
        <ele>352.46</ele>
        <time>2016-12-11T11:15:51Z</time>
      </trkpt>
      <trkpt lat="43.13166" lon="-0.49206">
        <ele>352.46</ele>
        <time>2016-12-11T11:15:52Z</time>
      </trkpt>
      <trkpt lat="43.13169" lon="-0.4921">
        <ele>351.5</ele>
        <time>2016-12-11T11:15:53Z</time>
      </trkpt>
      <trkpt lat="43.13172" lon="-0.49215">
        <ele>352.46</ele>
        <time>2016-12-11T11:15:54Z</time>
      </trkpt>
      <trkpt lat="43.13174" lon="-0.49219">
        <ele>351.98</ele>
        <time>2016-12-11T11:15:55Z</time>
      </trkpt>
      <trkpt lat="43.13185" lon="-0.49245">
        <ele>351.02</ele>
        <time>2016-12-11T11:16:00Z</time>
      </trkpt>
      <trkpt lat="43.13189" lon="-0.49256">
        <ele>350.54</ele>
        <time>2016-12-11T11:16:02Z</time>
      </trkpt>
      <trkpt lat="43.13192" lon="-0.49262">
        <ele>350.54</ele>
        <time>2016-12-11T11:16:03Z</time>
      </trkpt>
      <trkpt lat="43.13194" lon="-0.49268">
        <ele>350.06</ele>
        <time>2016-12-11T11:16:04Z</time>
      </trkpt>
      <trkpt lat="43.13197" lon="-0.49276">
        <ele>349.1</ele>
        <time>2016-12-11T11:16:05Z</time>
      </trkpt>
      <trkpt lat="43.132" lon="-0.49283">
        <ele>348.13</ele>
        <time>2016-12-11T11:16:06Z</time>
      </trkpt>
      <trkpt lat="43.13203" lon="-0.49289">
        <ele>348.62</ele>
        <time>2016-12-11T11:16:07Z</time>
      </trkpt>
      <trkpt lat="43.13205" lon="-0.49293">
        <ele>350.06</ele>
        <time>2016-12-11T11:16:08Z</time>
      </trkpt>
      <trkpt lat="43.13209" lon="-0.493">
        <ele>350.54</ele>
        <time>2016-12-11T11:16:10Z</time>
      </trkpt>
      <trkpt lat="43.13221" lon="-0.49325">
        <ele>351.5</ele>
        <time>2016-12-11T11:16:16Z</time>
      </trkpt>
      <trkpt lat="43.13229" lon="-0.4934">
        <ele>351.5</ele>
        <time>2016-12-11T11:16:19Z</time>
      </trkpt>
      <trkpt lat="43.13236" lon="-0.49363">
        <ele>351.5</ele>
        <time>2016-12-11T11:16:23Z</time>
      </trkpt>
      <trkpt lat="43.13239" lon="-0.49382">
        <ele>351.5</ele>
        <time>2016-12-11T11:16:26Z</time>
      </trkpt>
      <trkpt lat="43.1324" lon="-0.49387">
        <ele>351.02</ele>
        <time>2016-12-11T11:16:27Z</time>
      </trkpt>
      <trkpt lat="43.13241" lon="-0.49393">
        <ele>351.02</ele>
        <time>2016-12-11T11:16:28Z</time>
      </trkpt>
      <trkpt lat="43.13251" lon="-0.49426">
        <ele>351.02</ele>
        <time>2016-12-11T11:16:35Z</time>
      </trkpt>
      <trkpt lat="43.13259" lon="-0.49439">
        <ele>350.54</ele>
        <time>2016-12-11T11:16:38Z</time>
      </trkpt>
      <trkpt lat="43.13262" lon="-0.49443">
        <ele>350.54</ele>
        <time>2016-12-11T11:16:39Z</time>
      </trkpt>
      <trkpt lat="43.13266" lon="-0.49445">
        <ele>350.06</ele>
        <time>2016-12-11T11:16:40Z</time>
      </trkpt>
      <trkpt lat="43.1327" lon="-0.49448">
        <ele>350.54</ele>
        <time>2016-12-11T11:16:41Z</time>
      </trkpt>
      <trkpt lat="43.13274" lon="-0.49451">
        <ele>350.54</ele>
        <time>2016-12-11T11:16:42Z</time>
      </trkpt>
      <trkpt lat="43.13278" lon="-0.49454">
        <ele>350.06</ele>
        <time>2016-12-11T11:16:43Z</time>
      </trkpt>
      <trkpt lat="43.13281" lon="-0.49459">
        <ele>350.06</ele>
        <time>2016-12-11T11:16:44Z</time>
      </trkpt>
      <trkpt lat="43.13284" lon="-0.49464">
        <ele>350.06</ele>
        <time>2016-12-11T11:16:45Z</time>
      </trkpt>
      <trkpt lat="43.13295" lon="-0.49484">
        <ele>350.06</ele>
        <time>2016-12-11T11:16:49Z</time>
      </trkpt>
      <trkpt lat="43.13309" lon="-0.49515">
        <ele>350.54</ele>
        <time>2016-12-11T11:16:55Z</time>
      </trkpt>
      <trkpt lat="43.1331" lon="-0.4952">
        <ele>350.54</ele>
        <time>2016-12-11T11:16:56Z</time>
      </trkpt>
      <trkpt lat="43.13311" lon="-0.49526">
        <ele>350.06</ele>
        <time>2016-12-11T11:16:57Z</time>
      </trkpt>
      <trkpt lat="43.13311" lon="-0.49533">
        <ele>350.06</ele>
        <time>2016-12-11T11:16:58Z</time>
      </trkpt>
      <trkpt lat="43.13311" lon="-0.49539">
        <ele>349.58</ele>
        <time>2016-12-11T11:16:59Z</time>
      </trkpt>
      <trkpt lat="43.13312" lon="-0.4956">
        <ele>349.1</ele>
        <time>2016-12-11T11:17:02Z</time>
      </trkpt>
      <trkpt lat="43.13313" lon="-0.49574">
        <ele>348.62</ele>
        <time>2016-12-11T11:17:04Z</time>
      </trkpt>
      <trkpt lat="43.13313" lon="-0.4958">
        <ele>348.13</ele>
        <time>2016-12-11T11:17:05Z</time>
      </trkpt>
      <trkpt lat="43.13312" lon="-0.49586">
        <ele>346.69</ele>
        <time>2016-12-11T11:17:06Z</time>
      </trkpt>
      <trkpt lat="43.13313" lon="-0.49591">
        <ele>346.69</ele>
        <time>2016-12-11T11:17:07Z</time>
      </trkpt>
      <trkpt lat="43.13315" lon="-0.49596">
        <ele>346.21</ele>
        <time>2016-12-11T11:17:08Z</time>
      </trkpt>
      <trkpt lat="43.13319" lon="-0.496">
        <ele>346.69</ele>
        <time>2016-12-11T11:17:09Z</time>
      </trkpt>
      <trkpt lat="43.13322" lon="-0.49604">
        <ele>346.21</ele>
        <time>2016-12-11T11:17:10Z</time>
      </trkpt>
      <trkpt lat="43.13326" lon="-0.4961">
        <ele>346.69</ele>
        <time>2016-12-11T11:17:11Z</time>
      </trkpt>
      <trkpt lat="43.13329" lon="-0.49615">
        <ele>346.21</ele>
        <time>2016-12-11T11:17:12Z</time>
      </trkpt>
      <trkpt lat="43.13356" lon="-0.49655">
        <ele>346.69</ele>
        <time>2016-12-11T11:17:21Z</time>
      </trkpt>
      <trkpt lat="43.13359" lon="-0.49659">
        <ele>347.17</ele>
        <time>2016-12-11T11:17:22Z</time>
      </trkpt>
      <trkpt lat="43.13373" lon="-0.49678">
        <ele>347.65</ele>
        <time>2016-12-11T11:17:27Z</time>
      </trkpt>
      <trkpt lat="43.13376" lon="-0.49682">
        <ele>347.17</ele>
        <time>2016-12-11T11:17:28Z</time>
      </trkpt>
      <trkpt lat="43.13378" lon="-0.49685">
        <ele>347.65</ele>
        <time>2016-12-11T11:17:29Z</time>
      </trkpt>
      <trkpt lat="43.13381" lon="-0.49689">
        <ele>347.65</ele>
        <time>2016-12-11T11:17:30Z</time>
      </trkpt>
      <trkpt lat="43.13384" lon="-0.49692">
        <ele>348.13</ele>
        <time>2016-12-11T11:17:31Z</time>
      </trkpt>
      <trkpt lat="43.134" lon="-0.49708">
        <ele>347.65</ele>
        <time>2016-12-11T11:17:36Z</time>
      </trkpt>
      <trkpt lat="43.13403" lon="-0.49713">
        <ele>347.65</ele>
        <time>2016-12-11T11:17:37Z</time>
      </trkpt>
      <trkpt lat="43.13407" lon="-0.49718">
        <ele>347.65</ele>
        <time>2016-12-11T11:17:38Z</time>
      </trkpt>
      <trkpt lat="43.1341" lon="-0.49722">
        <ele>347.65</ele>
        <time>2016-12-11T11:17:39Z</time>
      </trkpt>
      <trkpt lat="43.13413" lon="-0.49727">
        <ele>347.17</ele>
        <time>2016-12-11T11:17:40Z</time>
      </trkpt>
      <trkpt lat="43.13415" lon="-0.49732">
        <ele>346.69</ele>
        <time>2016-12-11T11:17:41Z</time>
      </trkpt>
      <trkpt lat="43.13418" lon="-0.49738">
        <ele>346.69</ele>
        <time>2016-12-11T11:17:42Z</time>
      </trkpt>
      <trkpt lat="43.13422" lon="-0.49743">
        <ele>346.21</ele>
        <time>2016-12-11T11:17:43Z</time>
      </trkpt>
      <trkpt lat="43.13427" lon="-0.49748">
        <ele>345.73</ele>
        <time>2016-12-11T11:17:44Z</time>
      </trkpt>
      <trkpt lat="43.13432" lon="-0.49752">
        <ele>345.73</ele>
        <time>2016-12-11T11:17:45Z</time>
      </trkpt>
      <trkpt lat="43.13437" lon="-0.49757">
        <ele>345.25</ele>
        <time>2016-12-11T11:17:46Z</time>
      </trkpt>
      <trkpt lat="43.13442" lon="-0.4976">
        <ele>345.25</ele>
        <time>2016-12-11T11:17:47Z</time>
      </trkpt>
      <trkpt lat="43.13447" lon="-0.49764">
        <ele>344.77</ele>
        <time>2016-12-11T11:17:48Z</time>
      </trkpt>
      <trkpt lat="43.13451" lon="-0.49767">
        <ele>344.29</ele>
        <time>2016-12-11T11:17:49Z</time>
      </trkpt>
      <trkpt lat="43.13455" lon="-0.49769">
        <ele>344.29</ele>
        <time>2016-12-11T11:17:50Z</time>
      </trkpt>
      <trkpt lat="43.13459" lon="-0.49771">
        <ele>344.77</ele>
        <time>2016-12-11T11:17:51Z</time>
      </trkpt>
      <trkpt lat="43.13461" lon="-0.49773">
        <ele>345.25</ele>
        <time>2016-12-11T11:17:52Z</time>
      </trkpt>
      <trkpt lat="43.13464" lon="-0.49774">
        <ele>344.29</ele>
        <time>2016-12-11T11:17:53Z</time>
      </trkpt>
      <trkpt lat="43.13467" lon="-0.49775">
        <ele>345.25</ele>
        <time>2016-12-11T11:17:54Z</time>
      </trkpt>
      <trkpt lat="43.13469" lon="-0.49775">
        <ele>344.77</ele>
        <time>2016-12-11T11:17:55Z</time>
      </trkpt>
      <trkpt lat="43.13471" lon="-0.49775">
        <ele>344.77</ele>
        <time>2016-12-11T11:17:56Z</time>
      </trkpt>
      <trkpt lat="43.13473" lon="-0.49775">
        <ele>344.77</ele>
        <time>2016-12-11T11:17:57Z</time>
      </trkpt>
      <trkpt lat="43.13474" lon="-0.49775">
        <ele>344.77</ele>
        <time>2016-12-11T11:17:58Z</time>
      </trkpt>
      <trkpt lat="43.13482" lon="-0.49777">
        <ele>344.77</ele>
        <time>2016-12-11T11:18:08Z</time>
      </trkpt>
      <trkpt lat="43.13485" lon="-0.49777">
        <ele>344.77</ele>
        <time>2016-12-11T11:18:18Z</time>
      </trkpt>
      <trkpt lat="43.13489" lon="-0.49776">
        <ele>344.29</ele>
        <time>2016-12-11T11:18:26Z</time>
      </trkpt>
      <trkpt lat="43.13517" lon="-0.49783">
        <ele>344.29</ele>
        <time>2016-12-11T11:18:33Z</time>
      </trkpt>
      <trkpt lat="43.13522" lon="-0.49786">
        <ele>344.77</ele>
        <time>2016-12-11T11:18:34Z</time>
      </trkpt>
      <trkpt lat="43.13572" lon="-0.49812">
        <ele>341.41</ele>
        <time>2016-12-11T11:18:42Z</time>
      </trkpt>
      <trkpt lat="43.1358" lon="-0.49814">
        <ele>340.44</ele>
        <time>2016-12-11T11:18:43Z</time>
      </trkpt>
      <trkpt lat="43.13587" lon="-0.49815">
        <ele>340.44</ele>
        <time>2016-12-11T11:18:44Z</time>
      </trkpt>
      <trkpt lat="43.13594" lon="-0.49815">
        <ele>339.48</ele>
        <time>2016-12-11T11:18:45Z</time>
      </trkpt>
      <trkpt lat="43.13602" lon="-0.49813">
        <ele>339.48</ele>
        <time>2016-12-11T11:18:46Z</time>
      </trkpt>
      <trkpt lat="43.13622" lon="-0.49808">
        <ele>338.52</ele>
        <time>2016-12-11T11:18:49Z</time>
      </trkpt>
      <trkpt lat="43.13629" lon="-0.49805">
        <ele>338.52</ele>
        <time>2016-12-11T11:18:50Z</time>
      </trkpt>
      <trkpt lat="43.13636" lon="-0.498">
        <ele>337.56</ele>
        <time>2016-12-11T11:18:51Z</time>
      </trkpt>
      <trkpt lat="43.13659" lon="-0.49787">
        <ele>337.08</ele>
        <time>2016-12-11T11:18:54Z</time>
      </trkpt>
      <trkpt lat="43.13667" lon="-0.49784">
        <ele>336.12</ele>
        <time>2016-12-11T11:18:55Z</time>
      </trkpt>
      <trkpt lat="43.13675" lon="-0.49784">
        <ele>335.64</ele>
        <time>2016-12-11T11:18:56Z</time>
      </trkpt>
      <trkpt lat="43.13683" lon="-0.49784">
        <ele>335.64</ele>
        <time>2016-12-11T11:18:57Z</time>
      </trkpt>
      <trkpt lat="43.1369" lon="-0.49785">
        <ele>336.12</ele>
        <time>2016-12-11T11:18:58Z</time>
      </trkpt>
      <trkpt lat="43.13698" lon="-0.49787">
        <ele>335.16</ele>
        <time>2016-12-11T11:18:59Z</time>
      </trkpt>
      <trkpt lat="43.13705" lon="-0.49789">
        <ele>335.16</ele>
        <time>2016-12-11T11:19:00Z</time>
      </trkpt>
      <trkpt lat="43.13742" lon="-0.49804">
        <ele>333.71</ele>
        <time>2016-12-11T11:19:05Z</time>
      </trkpt>
      <trkpt lat="43.1375" lon="-0.49805">
        <ele>333.23</ele>
        <time>2016-12-11T11:19:06Z</time>
      </trkpt>
      <trkpt lat="43.13757" lon="-0.49805">
        <ele>332.27</ele>
        <time>2016-12-11T11:19:07Z</time>
      </trkpt>
      <trkpt lat="43.13764" lon="-0.49805">
        <ele>331.79</ele>
        <time>2016-12-11T11:19:08Z</time>
      </trkpt>
      <trkpt lat="43.13771" lon="-0.49804">
        <ele>330.35</ele>
        <time>2016-12-11T11:19:09Z</time>
      </trkpt>
      <trkpt lat="43.13775" lon="-0.49802">
        <ele>329.87</ele>
        <time>2016-12-11T11:19:10Z</time>
      </trkpt>
      <trkpt lat="43.13779" lon="-0.49801">
        <ele>329.87</ele>
        <time>2016-12-11T11:19:11Z</time>
      </trkpt>
      <trkpt lat="43.13783" lon="-0.49802">
        <ele>329.39</ele>
        <time>2016-12-11T11:19:12Z</time>
      </trkpt>
      <trkpt lat="43.13786" lon="-0.49803">
        <ele>329.87</ele>
        <time>2016-12-11T11:19:13Z</time>
      </trkpt>
      <trkpt lat="43.13792" lon="-0.49802">
        <ele>330.35</ele>
        <time>2016-12-11T11:19:17Z</time>
      </trkpt>
      <trkpt lat="43.13794" lon="-0.498">
        <ele>329.87</ele>
        <time>2016-12-11T11:19:18Z</time>
      </trkpt>
      <trkpt lat="43.13796" lon="-0.49798">
        <ele>329.39</ele>
        <time>2016-12-11T11:19:19Z</time>
      </trkpt>
      <trkpt lat="43.13798" lon="-0.49797">
        <ele>329.87</ele>
        <time>2016-12-11T11:19:20Z</time>
      </trkpt>
      <trkpt lat="43.138" lon="-0.49796">
        <ele>329.39</ele>
        <time>2016-12-11T11:19:21Z</time>
      </trkpt>
      <trkpt lat="43.13803" lon="-0.49796">
        <ele>329.87</ele>
        <time>2016-12-11T11:19:22Z</time>
      </trkpt>
      <trkpt lat="43.13835" lon="-0.49791">
        <ele>329.87</ele>
        <time>2016-12-11T11:19:31Z</time>
      </trkpt>
      <trkpt lat="43.13835" lon="-0.49789">
        <ele>329.39</ele>
        <time>2016-12-11T11:19:32Z</time>
      </trkpt>
      <trkpt lat="43.13834" lon="-0.49786">
        <ele>329.39</ele>
        <time>2016-12-11T11:19:33Z</time>
      </trkpt>
      <trkpt lat="43.13822" lon="-0.49769">
        <ele>330.35</ele>
        <time>2016-12-11T11:19:38Z</time>
      </trkpt>
      <trkpt lat="43.13819" lon="-0.49764">
        <ele>330.35</ele>
        <time>2016-12-11T11:19:39Z</time>
      </trkpt>
      <trkpt lat="43.13794" lon="-0.49698">
        <ele>331.31</ele>
        <time>2016-12-11T11:19:50Z</time>
      </trkpt>
      <trkpt lat="43.13794" lon="-0.4969">
        <ele>330.83</ele>
        <time>2016-12-11T11:19:51Z</time>
      </trkpt>
      <trkpt lat="43.13794" lon="-0.49682">
        <ele>331.31</ele>
        <time>2016-12-11T11:19:52Z</time>
      </trkpt>
      <trkpt lat="43.13795" lon="-0.49674">
        <ele>331.31</ele>
        <time>2016-12-11T11:19:53Z</time>
      </trkpt>
      <trkpt lat="43.13796" lon="-0.49666">
        <ele>331.31</ele>
        <time>2016-12-11T11:19:54Z</time>
      </trkpt>
      <trkpt lat="43.13797" lon="-0.49658">
        <ele>331.31</ele>
        <time>2016-12-11T11:19:55Z</time>
      </trkpt>
      <trkpt lat="43.13797" lon="-0.49649">
        <ele>331.79</ele>
        <time>2016-12-11T11:19:56Z</time>
      </trkpt>
      <trkpt lat="43.13796" lon="-0.4964">
        <ele>331.31</ele>
        <time>2016-12-11T11:19:57Z</time>
      </trkpt>
      <trkpt lat="43.13793" lon="-0.49588">
        <ele>331.79</ele>
        <time>2016-12-11T11:20:03Z</time>
      </trkpt>
      <trkpt lat="43.13794" lon="-0.49579">
        <ele>331.79</ele>
        <time>2016-12-11T11:20:04Z</time>
      </trkpt>
      <trkpt lat="43.13795" lon="-0.49571">
        <ele>331.31</ele>
        <time>2016-12-11T11:20:05Z</time>
      </trkpt>
      <trkpt lat="43.13796" lon="-0.49562">
        <ele>331.79</ele>
        <time>2016-12-11T11:20:06Z</time>
      </trkpt>
      <trkpt lat="43.13795" lon="-0.49554">
        <ele>331.31</ele>
        <time>2016-12-11T11:20:07Z</time>
      </trkpt>
      <trkpt lat="43.13794" lon="-0.49546">
        <ele>331.31</ele>
        <time>2016-12-11T11:20:08Z</time>
      </trkpt>
      <trkpt lat="43.13792" lon="-0.49538">
        <ele>331.79</ele>
        <time>2016-12-11T11:20:09Z</time>
      </trkpt>
      <trkpt lat="43.13787" lon="-0.49514">
        <ele>331.79</ele>
        <time>2016-12-11T11:20:12Z</time>
      </trkpt>
      <trkpt lat="43.13786" lon="-0.49506">
        <ele>332.27</ele>
        <time>2016-12-11T11:20:13Z</time>
      </trkpt>
      <trkpt lat="43.13785" lon="-0.49498">
        <ele>331.31</ele>
        <time>2016-12-11T11:20:14Z</time>
      </trkpt>
      <trkpt lat="43.13781" lon="-0.49468">
        <ele>332.27</ele>
        <time>2016-12-11T11:20:18Z</time>
      </trkpt>
      <trkpt lat="43.13768" lon="-0.49394">
        <ele>333.23</ele>
        <time>2016-12-11T11:20:28Z</time>
      </trkpt>
      <trkpt lat="43.13768" lon="-0.49356">
        <ele>333.71</ele>
        <time>2016-12-11T11:20:33Z</time>
      </trkpt>
      <trkpt lat="43.13769" lon="-0.49348">
        <ele>333.23</ele>
        <time>2016-12-11T11:20:34Z</time>
      </trkpt>
      <trkpt lat="43.1377" lon="-0.49341">
        <ele>333.23</ele>
        <time>2016-12-11T11:20:35Z</time>
      </trkpt>
      <trkpt lat="43.13771" lon="-0.49334">
        <ele>333.71</ele>
        <time>2016-12-11T11:20:36Z</time>
      </trkpt>
      <trkpt lat="43.13773" lon="-0.49327">
        <ele>333.71</ele>
        <time>2016-12-11T11:20:37Z</time>
      </trkpt>
      <trkpt lat="43.13785" lon="-0.49228">
        <ele>334.2</ele>
        <time>2016-12-11T11:20:51Z</time>
      </trkpt>
      <trkpt lat="43.13786" lon="-0.49084">
        <ele>335.16</ele>
        <time>2016-12-11T11:21:10Z</time>
      </trkpt>
      <trkpt lat="43.13773" lon="-0.48996">
        <ele>335.64</ele>
        <time>2016-12-11T11:21:22Z</time>
      </trkpt>
      <trkpt lat="43.13771" lon="-0.48974">
        <ele>335.64</ele>
        <time>2016-12-11T11:21:25Z</time>
      </trkpt>
      <trkpt lat="43.13771" lon="-0.48967">
        <ele>335.16</ele>
        <time>2016-12-11T11:21:26Z</time>
      </trkpt>
      <trkpt lat="43.13771" lon="-0.4896">
        <ele>336.12</ele>
        <time>2016-12-11T11:21:27Z</time>
      </trkpt>
      <trkpt lat="43.13771" lon="-0.48952">
        <ele>336.12</ele>
        <time>2016-12-11T11:21:28Z</time>
      </trkpt>
      <trkpt lat="43.13772" lon="-0.48945">
        <ele>335.64</ele>
        <time>2016-12-11T11:21:29Z</time>
      </trkpt>
      <trkpt lat="43.13772" lon="-0.48937">
        <ele>335.64</ele>
        <time>2016-12-11T11:21:30Z</time>
      </trkpt>
      <trkpt lat="43.1377" lon="-0.48878">
        <ele>336.12</ele>
        <time>2016-12-11T11:21:38Z</time>
      </trkpt>
      <trkpt lat="43.13769" lon="-0.48871">
        <ele>336.6</ele>
        <time>2016-12-11T11:21:39Z</time>
      </trkpt>
      <trkpt lat="43.13756" lon="-0.48778">
        <ele>337.56</ele>
        <time>2016-12-11T11:21:53Z</time>
      </trkpt>
      <trkpt lat="43.13751" lon="-0.487">
        <ele>338.52</ele>
        <time>2016-12-11T11:22:05Z</time>
      </trkpt>
      <trkpt lat="43.1375" lon="-0.48694">
        <ele>339</ele>
        <time>2016-12-11T11:22:06Z</time>
      </trkpt>
      <trkpt lat="43.13749" lon="-0.48669">
        <ele>339</ele>
        <time>2016-12-11T11:22:10Z</time>
      </trkpt>
      <trkpt lat="43.13742" lon="-0.48625">
        <ele>339.48</ele>
        <time>2016-12-11T11:22:20Z</time>
      </trkpt>
      <trkpt lat="43.13736" lon="-0.48593">
        <ele>339.96</ele>
        <time>2016-12-11T11:22:32Z</time>
      </trkpt>
      <trkpt lat="43.13734" lon="-0.48576">
        <ele>340.44</ele>
        <time>2016-12-11T11:22:37Z</time>
      </trkpt>
      <trkpt lat="43.13734" lon="-0.48573">
        <ele>339.96</ele>
        <time>2016-12-11T11:22:38Z</time>
      </trkpt>
      <trkpt lat="43.13724" lon="-0.4853">
        <ele>339.96</ele>
        <time>2016-12-11T11:22:49Z</time>
      </trkpt>
      <trkpt lat="43.13723" lon="-0.48526">
        <ele>340.44</ele>
        <time>2016-12-11T11:22:51Z</time>
      </trkpt>
      <trkpt lat="43.13721" lon="-0.48523">
        <ele>339.96</ele>
        <time>2016-12-11T11:22:57Z</time>
      </trkpt>
      <trkpt lat="43.1372" lon="-0.48524">
        <ele>340.44</ele>
        <time>2016-12-11T11:22:58Z</time>
      </trkpt>
      <trkpt lat="43.13709" lon="-0.48526">
        <ele>341.89</ele>
        <time>2016-12-11T11:23:05Z</time>
      </trkpt>
      <trkpt lat="43.13702" lon="-0.48524">
        <ele>343.33</ele>
        <time>2016-12-11T11:23:12Z</time>
      </trkpt>
      <trkpt lat="43.13689" lon="-0.48514">
        <ele>346.21</ele>
        <time>2016-12-11T11:23:21Z</time>
      </trkpt>
      <trkpt lat="43.13687" lon="-0.4851">
        <ele>347.17</ele>
        <time>2016-12-11T11:23:24Z</time>
      </trkpt>
      <trkpt lat="43.13679" lon="-0.48498">
        <ele>349.1</ele>
        <time>2016-12-11T11:23:32Z</time>
      </trkpt>
      <trkpt lat="43.13669" lon="-0.4849">
        <ele>351.98</ele>
        <time>2016-12-11T11:23:44Z</time>
      </trkpt>
      <trkpt lat="43.13668" lon="-0.48488">
        <ele>352.46</ele>
        <time>2016-12-11T11:23:46Z</time>
      </trkpt>
      <trkpt lat="43.13666" lon="-0.48485">
        <ele>352.46</ele>
        <time>2016-12-11T11:23:48Z</time>
      </trkpt>
      <trkpt lat="43.13651" lon="-0.48477">
        <ele>353.42</ele>
        <time>2016-12-11T11:24:00Z</time>
      </trkpt>
      <trkpt lat="43.13648" lon="-0.48474">
        <ele>354.38</ele>
        <time>2016-12-11T11:24:06Z</time>
      </trkpt>
      <trkpt lat="43.13644" lon="-0.48461">
        <ele>355.83</ele>
        <time>2016-12-11T11:24:19Z</time>
      </trkpt>
      <trkpt lat="43.13643" lon="-0.48459">
        <ele>356.79</ele>
        <time>2016-12-11T11:24:23Z</time>
      </trkpt>
      <trkpt lat="43.13643" lon="-0.48455">
        <ele>358.71</ele>
        <time>2016-12-11T11:24:34Z</time>
      </trkpt>
      <trkpt lat="43.13643" lon="-0.48455">
        <ele>358.23</ele>
        <time>2016-12-11T11:24:35Z</time>
      </trkpt>
      <trkpt lat="43.13641" lon="-0.48448">
        <ele>359.67</ele>
        <time>2016-12-11T11:24:47Z</time>
      </trkpt>
      <trkpt lat="43.13641" lon="-0.48447">
        <ele>360.63</ele>
        <time>2016-12-11T11:25:02Z</time>
      </trkpt>
      <trkpt lat="43.13637" lon="-0.48448">
        <ele>361.11</ele>
        <time>2016-12-11T11:25:13Z</time>
      </trkpt>
      <trkpt lat="43.13622" lon="-0.48454">
        <ele>362.07</ele>
        <time>2016-12-11T11:25:24Z</time>
      </trkpt>
      <trkpt lat="43.13617" lon="-0.48454">
        <ele>362.07</ele>
        <time>2016-12-11T11:25:27Z</time>
      </trkpt>
      <trkpt lat="43.13612" lon="-0.48456">
        <ele>363.04</ele>
        <time>2016-12-11T11:25:30Z</time>
      </trkpt>
      <trkpt lat="43.13601" lon="-0.48459">
        <ele>365.44</ele>
        <time>2016-12-11T11:25:43Z</time>
      </trkpt>
      <trkpt lat="43.13601" lon="-0.48459">
        <ele>364.96</ele>
        <time>2016-12-11T11:25:45Z</time>
      </trkpt>
      <trkpt lat="43.13593" lon="-0.48456">
        <ele>366.4</ele>
        <time>2016-12-11T11:25:58Z</time>
      </trkpt>
      <trkpt lat="43.13591" lon="-0.48454">
        <ele>366.4</ele>
        <time>2016-12-11T11:26:16Z</time>
      </trkpt>
      <trkpt lat="43.13591" lon="-0.48446">
        <ele>367.84</ele>
        <time>2016-12-11T11:26:22Z</time>
      </trkpt>
      <trkpt lat="43.1359" lon="-0.48432">
        <ele>367.84</ele>
        <time>2016-12-11T11:26:33Z</time>
      </trkpt>
      <trkpt lat="43.1359" lon="-0.48432">
        <ele>368.32</ele>
        <time>2016-12-11T11:26:47Z</time>
      </trkpt>
      <trkpt lat="43.13589" lon="-0.48432">
        <ele>368.32</ele>
        <time>2016-12-11T11:26:50Z</time>
      </trkpt>
      <trkpt lat="43.13581" lon="-0.48435">
        <ele>369.28</ele>
        <time>2016-12-11T11:27:00Z</time>
      </trkpt>
      <trkpt lat="43.13575" lon="-0.4843">
        <ele>369.28</ele>
        <time>2016-12-11T11:27:04Z</time>
      </trkpt>
      <trkpt lat="43.1357" lon="-0.4842">
        <ele>369.28</ele>
        <time>2016-12-11T11:27:10Z</time>
      </trkpt>
      <trkpt lat="43.1357" lon="-0.48411">
        <ele>369.28</ele>
        <time>2016-12-11T11:27:14Z</time>
      </trkpt>
      <trkpt lat="43.13569" lon="-0.48395">
        <ele>369.28</ele>
        <time>2016-12-11T11:27:20Z</time>
      </trkpt>
      <trkpt lat="43.13572" lon="-0.48392">
        <ele>369.28</ele>
        <time>2016-12-11T11:28:02Z</time>
      </trkpt>
      <trkpt lat="43.13574" lon="-0.48394">
        <ele>369.28</ele>
        <time>2016-12-11T11:28:14Z</time>
      </trkpt>
      <trkpt lat="43.13583" lon="-0.48399">
        <ele>368.32</ele>
        <time>2016-12-11T11:28:26Z</time>
      </trkpt>
      <trkpt lat="43.1359" lon="-0.48401">
        <ele>367.36</ele>
        <time>2016-12-11T11:28:34Z</time>
      </trkpt>
      <trkpt lat="43.13592" lon="-0.48406">
        <ele>366.88</ele>
        <time>2016-12-11T11:28:37Z</time>
      </trkpt>
      <trkpt lat="43.1359" lon="-0.48423">
        <ele>367.84</ele>
        <time>2016-12-11T11:28:48Z</time>
      </trkpt>
      <trkpt lat="43.1359" lon="-0.48425">
        <ele>367.84</ele>
        <time>2016-12-11T11:28:50Z</time>
      </trkpt>
      <trkpt lat="43.13594" lon="-0.48434">
        <ele>369.28</ele>
        <time>2016-12-11T11:28:59Z</time>
      </trkpt>
      <trkpt lat="43.13597" lon="-0.48436">
        <ele>370.24</ele>
        <time>2016-12-11T11:29:09Z</time>
      </trkpt>
      <trkpt lat="43.13598" lon="-0.48436">
        <ele>370.24</ele>
        <time>2016-12-11T11:29:12Z</time>
      </trkpt>
      <trkpt lat="43.13609" lon="-0.48428">
        <ele>370.24</ele>
        <time>2016-12-11T11:29:20Z</time>
      </trkpt>
      <trkpt lat="43.13622" lon="-0.4842">
        <ele>367.36</ele>
        <time>2016-12-11T11:29:30Z</time>
      </trkpt>
      <trkpt lat="43.13624" lon="-0.48416">
        <ele>366.4</ele>
        <time>2016-12-11T11:29:39Z</time>
      </trkpt>
      <trkpt lat="43.13624" lon="-0.48414">
        <ele>365.92</ele>
        <time>2016-12-11T11:29:41Z</time>
      </trkpt>
      <trkpt lat="43.13621" lon="-0.48403">
        <ele>364</ele>
        <time>2016-12-11T11:29:44Z</time>
      </trkpt>
      <trkpt lat="43.13618" lon="-0.48393">
        <ele>363.52</ele>
        <time>2016-12-11T11:29:48Z</time>
      </trkpt>
      <trkpt lat="43.13619" lon="-0.48383">
        <ele>364</ele>
        <time>2016-12-11T11:29:52Z</time>
      </trkpt>
      <trkpt lat="43.13615" lon="-0.48368">
        <ele>363.04</ele>
        <time>2016-12-11T11:29:58Z</time>
      </trkpt>
      <trkpt lat="43.13612" lon="-0.4837">
        <ele>364.48</ele>
        <time>2016-12-11T11:30:01Z</time>
      </trkpt>
      <trkpt lat="43.13611" lon="-0.4837">
        <ele>364.48</ele>
        <time>2016-12-11T11:30:02Z</time>
      </trkpt>
      <trkpt lat="43.13606" lon="-0.48357">
        <ele>363.52</ele>
        <time>2016-12-11T11:30:09Z</time>
      </trkpt>
      <trkpt lat="43.136" lon="-0.48347">
        <ele>362.07</ele>
        <time>2016-12-11T11:30:13Z</time>
      </trkpt>
      <trkpt lat="43.13589" lon="-0.48335">
        <ele>360.15</ele>
        <time>2016-12-11T11:30:19Z</time>
      </trkpt>
      <trkpt lat="43.13581" lon="-0.48334">
        <ele>358.71</ele>
        <time>2016-12-11T11:30:23Z</time>
      </trkpt>
      <trkpt lat="43.13573" lon="-0.48335">
        <ele>358.23</ele>
        <time>2016-12-11T11:30:28Z</time>
      </trkpt>
      <trkpt lat="43.13569" lon="-0.48331">
        <ele>356.31</ele>
        <time>2016-12-11T11:30:32Z</time>
      </trkpt>
      <trkpt lat="43.13569" lon="-0.4833">
        <ele>356.31</ele>
        <time>2016-12-11T11:30:33Z</time>
      </trkpt>
      <trkpt lat="43.13572" lon="-0.48327">
        <ele>355.83</ele>
        <time>2016-12-11T11:30:35Z</time>
      </trkpt>
      <trkpt lat="43.13577" lon="-0.48317">
        <ele>353.9</ele>
        <time>2016-12-11T11:30:38Z</time>
      </trkpt>
      <trkpt lat="43.13579" lon="-0.48312">
        <ele>352.94</ele>
        <time>2016-12-11T11:30:39Z</time>
      </trkpt>
      <trkpt lat="43.13595" lon="-0.48304">
        <ele>348.62</ele>
        <time>2016-12-11T11:30:45Z</time>
      </trkpt>
      <trkpt lat="43.13596" lon="-0.48301">
        <ele>347.17</ele>
        <time>2016-12-11T11:30:47Z</time>
      </trkpt>
      <trkpt lat="43.13598" lon="-0.48299">
        <ele>346.69</ele>
        <time>2016-12-11T11:30:49Z</time>
      </trkpt>
      <trkpt lat="43.13606" lon="-0.48286">
        <ele>343.33</ele>
        <time>2016-12-11T11:30:55Z</time>
      </trkpt>
      <trkpt lat="43.13603" lon="-0.48276">
        <ele>342.37</ele>
        <time>2016-12-11T11:30:57Z</time>
      </trkpt>
      <trkpt lat="43.13601" lon="-0.48268">
        <ele>341.89</ele>
        <time>2016-12-11T11:30:59Z</time>
      </trkpt>
      <trkpt lat="43.13597" lon="-0.48257">
        <ele>341.41</ele>
        <time>2016-12-11T11:31:11Z</time>
      </trkpt>
      <trkpt lat="43.13598" lon="-0.48256">
        <ele>341.89</ele>
        <time>2016-12-11T11:31:40Z</time>
      </trkpt>
      <trkpt lat="43.13598" lon="-0.48255">
        <ele>341.41</ele>
        <time>2016-12-11T11:31:43Z</time>
      </trkpt>
      <trkpt lat="43.13597" lon="-0.48241">
        <ele>341.41</ele>
        <time>2016-12-11T11:31:50Z</time>
      </trkpt>
      <trkpt lat="43.13599" lon="-0.48209">
        <ele>341.89</ele>
        <time>2016-12-11T11:31:59Z</time>
      </trkpt>
      <trkpt lat="43.13604" lon="-0.48159">
        <ele>341.89</ele>
        <time>2016-12-11T11:32:10Z</time>
      </trkpt>
      <trkpt lat="43.13606" lon="-0.48093">
        <ele>342.37</ele>
        <time>2016-12-11T11:32:22Z</time>
      </trkpt>
      <trkpt lat="43.13602" lon="-0.4805">
        <ele>342.37</ele>
        <time>2016-12-11T11:32:30Z</time>
      </trkpt>
      <trkpt lat="43.13597" lon="-0.48035">
        <ele>342.37</ele>
        <time>2016-12-11T11:32:33Z</time>
      </trkpt>
      <trkpt lat="43.13582" lon="-0.4799">
        <ele>341.41</ele>
        <time>2016-12-11T11:32:41Z</time>
      </trkpt>
      <trkpt lat="43.13581" lon="-0.47984">
        <ele>341.41</ele>
        <time>2016-12-11T11:32:42Z</time>
      </trkpt>
      <trkpt lat="43.13579" lon="-0.47978">
        <ele>341.41</ele>
        <time>2016-12-11T11:32:43Z</time>
      </trkpt>
      <trkpt lat="43.13577" lon="-0.47972">
        <ele>341.41</ele>
        <time>2016-12-11T11:32:44Z</time>
      </trkpt>
      <trkpt lat="43.13575" lon="-0.47966">
        <ele>340.92</ele>
        <time>2016-12-11T11:32:45Z</time>
      </trkpt>
      <trkpt lat="43.13552" lon="-0.47901">
        <ele>340.44</ele>
        <time>2016-12-11T11:32:56Z</time>
      </trkpt>
      <trkpt lat="43.1355" lon="-0.47894">
        <ele>340.92</ele>
        <time>2016-12-11T11:32:57Z</time>
      </trkpt>
      <trkpt lat="43.1355" lon="-0.47888">
        <ele>340.44</ele>
        <time>2016-12-11T11:32:58Z</time>
      </trkpt>
      <trkpt lat="43.13551" lon="-0.47881">
        <ele>340.44</ele>
        <time>2016-12-11T11:32:59Z</time>
      </trkpt>
      <trkpt lat="43.13551" lon="-0.47875">
        <ele>340.44</ele>
        <time>2016-12-11T11:33:00Z</time>
      </trkpt>
      <trkpt lat="43.13552" lon="-0.4787">
        <ele>340.92</ele>
        <time>2016-12-11T11:33:01Z</time>
      </trkpt>
      <trkpt lat="43.13558" lon="-0.47825">
        <ele>340.44</ele>
        <time>2016-12-11T11:33:10Z</time>
      </trkpt>
      <trkpt lat="43.13558" lon="-0.47822">
        <ele>340.44</ele>
        <time>2016-12-11T11:33:11Z</time>
      </trkpt>
      <trkpt lat="43.13557" lon="-0.4782">
        <ele>340.44</ele>
        <time>2016-12-11T11:33:12Z</time>
      </trkpt>
      <trkpt lat="43.13555" lon="-0.47818">
        <ele>340.44</ele>
        <time>2016-12-11T11:33:13Z</time>
      </trkpt>
      <trkpt lat="43.13554" lon="-0.47816">
        <ele>340.44</ele>
        <time>2016-12-11T11:33:14Z</time>
      </trkpt>
      <trkpt lat="43.13553" lon="-0.47814">
        <ele>340.44</ele>
        <time>2016-12-11T11:33:15Z</time>
      </trkpt>
      <trkpt lat="43.13552" lon="-0.47812">
        <ele>340.44</ele>
        <time>2016-12-11T11:33:16Z</time>
      </trkpt>
      <trkpt lat="43.13551" lon="-0.47811">
        <ele>340.44</ele>
        <time>2016-12-11T11:33:17Z</time>
      </trkpt>
      <trkpt lat="43.13549" lon="-0.4781">
        <ele>339.96</ele>
        <time>2016-12-11T11:33:18Z</time>
      </trkpt>
    </trkseg>
  </trk>
</gpx>